<?xml version="1.0" encoding="UTF-8" standalone="no" ?>
<gpx xmlns="http://www.topografix.com/GPX/1/1" xmlns:xsi="http://www.w3.org/2001/XMLSchema-instance" xsi:schemaLocation="http://www.topografix.com/GPX/1/1 http://www.topografix.com/GPX/1/1/gpx.xsd" version="1.1" creator="VisuGPX - https://www.visugpx.com">
  <metadata>
    <name>La Roque St Marguerite / St Sauveur / Revens</name>
    <desc><![CDATA[Un belle sortie , sans réels défis techniques , c'est coté physique qu'il faudra piocher ... Tout passe sur un XC .]]></desc>
  </metadata>
  <wpt lat="44.08098" lon="3.27047">
    <ele>641.1</ele>
    <name><![CDATA[Ballade pédestre dans les ruiniformes]]></name>
    <desc><![CDATA[P]]></desc>
    <type><![CDATA[star]]></type>
  </wpt>
  <wpt lat="44.086" lon="3.2736">
    <ele>535.7</ele>
    <cmt><![CDATA[A partir de là ça devient un peu fouillis, mais le chemin semble se poursuivre ...]]></cmt>
    <type><![CDATA[vue]]></type>
  </wpt>
  <trk>
    <name><![CDATA[La Roque St Marguerite / St Sauveur / Revens_1]]></name>
    <desc><![CDATA[]]></desc>
    <trkseg>
      <trkpt lat="44.12327" lon="3.22175">
        <ele>400.5</ele>
      </trkpt>
      <trkpt lat="44.12243" lon="3.22168">
        <ele>407.8</ele>
      </trkpt>
      <trkpt lat="44.12225" lon="3.21995">
        <ele>404</ele>
      </trkpt>
      <trkpt lat="44.12207" lon="3.21966">
        <ele>409.2</ele>
      </trkpt>
      <trkpt lat="44.12163" lon="3.21883">
        <ele>412.7</ele>
      </trkpt>
      <trkpt lat="44.12052" lon="3.21749">
        <ele>415.7</ele>
      </trkpt>
      <trkpt lat="44.12036" lon="3.21752">
        <ele>416.2</ele>
      </trkpt>
      <trkpt lat="44.11997" lon="3.2178">
        <ele>421.4</ele>
      </trkpt>
      <trkpt lat="44.11982" lon="3.21785">
        <ele>423.5</ele>
      </trkpt>
      <trkpt lat="44.11967" lon="3.21764">
        <ele>423.9</ele>
      </trkpt>
      <trkpt lat="44.11984" lon="3.2171">
        <ele>423.6</ele>
      </trkpt>
      <trkpt lat="44.11966" lon="3.21672">
        <ele>425.2</ele>
      </trkpt>
      <trkpt lat="44.11931" lon="3.21667">
        <ele>433.6</ele>
      </trkpt>
      <trkpt lat="44.11921" lon="3.21627">
        <ele>433.3</ele>
      </trkpt>
      <trkpt lat="44.1183" lon="3.21432">
        <ele>452.4</ele>
      </trkpt>
      <trkpt lat="44.11852" lon="3.21375">
        <ele>452.9</ele>
      </trkpt>
      <trkpt lat="44.11858" lon="3.21328">
        <ele>457.7</ele>
      </trkpt>
      <trkpt lat="44.11883" lon="3.2128">
        <ele>457.9</ele>
      </trkpt>
      <trkpt lat="44.11874" lon="3.21273">
        <ele>465.2</ele>
      </trkpt>
      <trkpt lat="44.11846" lon="3.21317">
        <ele>466.5</ele>
      </trkpt>
      <trkpt lat="44.11827" lon="3.21369">
        <ele>468.8</ele>
      </trkpt>
      <trkpt lat="44.11794" lon="3.21413">
        <ele>473.3</ele>
      </trkpt>
      <trkpt lat="44.1179" lon="3.21447">
        <ele>475.3</ele>
      </trkpt>
      <trkpt lat="44.11801" lon="3.21499">
        <ele>481</ele>
      </trkpt>
      <trkpt lat="44.11814" lon="3.21614">
        <ele>488.4</ele>
      </trkpt>
      <trkpt lat="44.1183" lon="3.21656">
        <ele>489.1</ele>
      </trkpt>
      <trkpt lat="44.11831" lon="3.2172">
        <ele>493.3</ele>
      </trkpt>
      <trkpt lat="44.11812" lon="3.21763">
        <ele>499.9</ele>
      </trkpt>
      <trkpt lat="44.11822" lon="3.21815">
        <ele>502.1</ele>
      </trkpt>
      <trkpt lat="44.1179" lon="3.21906">
        <ele>507.6</ele>
      </trkpt>
      <trkpt lat="44.11752" lon="3.21934">
        <ele>513.7</ele>
      </trkpt>
      <trkpt lat="44.1176" lon="3.22007">
        <ele>517.1</ele>
      </trkpt>
      <trkpt lat="44.11757" lon="3.2209">
        <ele>525.9</ele>
      </trkpt>
      <trkpt lat="44.11795" lon="3.221">
        <ele>529.9</ele>
      </trkpt>
      <trkpt lat="44.11841" lon="3.2207">
        <ele>529.4</ele>
      </trkpt>
      <trkpt lat="44.11884" lon="3.22082">
        <ele>538</ele>
      </trkpt>
      <trkpt lat="44.11927" lon="3.22051">
        <ele>536.9</ele>
      </trkpt>
      <trkpt lat="44.11949" lon="3.22054">
        <ele>540.4</ele>
      </trkpt>
      <trkpt lat="44.11941" lon="3.22068">
        <ele>547.1</ele>
      </trkpt>
      <trkpt lat="44.11913" lon="3.22073">
        <ele>543.6</ele>
      </trkpt>
      <trkpt lat="44.11877" lon="3.22099">
        <ele>544.5</ele>
      </trkpt>
      <trkpt lat="44.11856" lon="3.22098">
        <ele>543.2</ele>
      </trkpt>
      <trkpt lat="44.11774" lon="3.22167">
        <ele>553.2</ele>
      </trkpt>
      <trkpt lat="44.1174" lon="3.2219">
        <ele>558.5</ele>
      </trkpt>
      <trkpt lat="44.11717" lon="3.22181">
        <ele>557.6</ele>
      </trkpt>
      <trkpt lat="44.11668" lon="3.22126">
        <ele>564.1</ele>
      </trkpt>
      <trkpt lat="44.11663" lon="3.221">
        <ele>566.4</ele>
      </trkpt>
      <trkpt lat="44.11679" lon="3.22075">
        <ele>566.8</ele>
      </trkpt>
      <trkpt lat="44.11692" lon="3.22036">
        <ele>562.5</ele>
      </trkpt>
      <trkpt lat="44.11692" lon="3.22034">
        <ele>638.3</ele>
        <time>2025-02-15T09:31:24.311Z</time>
      </trkpt>
      <trkpt lat="44.1166" lon="3.21978">
        <ele>640</ele>
        <time>2025-02-15T09:31:49.000Z</time>
      </trkpt>
      <trkpt lat="44.11631" lon="3.2194">
        <ele>641</ele>
        <time>2025-02-15T09:32:02.000Z</time>
      </trkpt>
      <trkpt lat="44.11625" lon="3.21925">
        <ele>642</ele>
        <time>2025-02-15T09:32:06.000Z</time>
      </trkpt>
      <trkpt lat="44.11631" lon="3.21914">
        <ele>643</ele>
        <time>2025-02-15T09:32:10.000Z</time>
      </trkpt>
      <trkpt lat="44.11637" lon="3.21902">
        <ele>643</ele>
        <time>2025-02-15T09:32:14.000Z</time>
      </trkpt>
      <trkpt lat="44.11644" lon="3.21893">
        <ele>644</ele>
        <time>2025-02-15T09:32:18.000Z</time>
      </trkpt>
      <trkpt lat="44.1165" lon="3.21881">
        <ele>645</ele>
        <time>2025-02-15T09:32:22.000Z</time>
      </trkpt>
      <trkpt lat="44.11657" lon="3.21871">
        <ele>646</ele>
        <time>2025-02-15T09:32:26.000Z</time>
      </trkpt>
      <trkpt lat="44.11663" lon="3.21861">
        <ele>646</ele>
        <time>2025-02-15T09:32:30.000Z</time>
      </trkpt>
      <trkpt lat="44.1167" lon="3.21848">
        <ele>646</ele>
        <time>2025-02-15T09:32:34.000Z</time>
      </trkpt>
      <trkpt lat="44.11676" lon="3.21833">
        <ele>647</ele>
        <time>2025-02-15T09:32:38.000Z</time>
      </trkpt>
      <trkpt lat="44.11676" lon="3.21819">
        <ele>648</ele>
        <time>2025-02-15T09:32:42.000Z</time>
      </trkpt>
      <trkpt lat="44.11673" lon="3.21806">
        <ele>649</ele>
        <time>2025-02-15T09:32:46.000Z</time>
      </trkpt>
      <trkpt lat="44.11669" lon="3.21794">
        <ele>650</ele>
        <time>2025-02-15T09:32:50.000Z</time>
      </trkpt>
      <trkpt lat="44.11668" lon="3.2178">
        <ele>650</ele>
        <time>2025-02-15T09:32:54.000Z</time>
      </trkpt>
      <trkpt lat="44.11669" lon="3.21765">
        <ele>651</ele>
        <time>2025-02-15T09:32:58.000Z</time>
      </trkpt>
      <trkpt lat="44.11671" lon="3.21751">
        <ele>653</ele>
        <time>2025-02-15T09:33:02.000Z</time>
      </trkpt>
      <trkpt lat="44.11674" lon="3.21739">
        <ele>654</ele>
        <time>2025-02-15T09:33:06.000Z</time>
      </trkpt>
      <trkpt lat="44.11678" lon="3.21715">
        <ele>655</ele>
        <time>2025-02-15T09:33:14.000Z</time>
      </trkpt>
      <trkpt lat="44.11676" lon="3.21702">
        <ele>656</ele>
        <time>2025-02-15T09:33:18.000Z</time>
      </trkpt>
      <trkpt lat="44.11673" lon="3.21689">
        <ele>657</ele>
        <time>2025-02-15T09:33:22.000Z</time>
      </trkpt>
      <trkpt lat="44.11671" lon="3.21674">
        <ele>658</ele>
        <time>2025-02-15T09:33:26.000Z</time>
      </trkpt>
      <trkpt lat="44.11669" lon="3.21661">
        <ele>660</ele>
        <time>2025-02-15T09:33:30.000Z</time>
      </trkpt>
      <trkpt lat="44.11667" lon="3.21649">
        <ele>661</ele>
        <time>2025-02-15T09:33:34.000Z</time>
      </trkpt>
      <trkpt lat="44.11662" lon="3.21637">
        <ele>662</ele>
        <time>2025-02-15T09:33:38.000Z</time>
      </trkpt>
      <trkpt lat="44.11657" lon="3.21627">
        <ele>662</ele>
        <time>2025-02-15T09:33:42.000Z</time>
      </trkpt>
      <trkpt lat="44.1165" lon="3.21613">
        <ele>663</ele>
        <time>2025-02-15T09:33:46.000Z</time>
      </trkpt>
      <trkpt lat="44.11643" lon="3.216">
        <ele>663</ele>
        <time>2025-02-15T09:33:50.000Z</time>
      </trkpt>
      <trkpt lat="44.11638" lon="3.21585">
        <ele>664</ele>
        <time>2025-02-15T09:33:54.000Z</time>
      </trkpt>
      <trkpt lat="44.11635" lon="3.21571">
        <ele>665</ele>
        <time>2025-02-15T09:33:58.000Z</time>
      </trkpt>
      <trkpt lat="44.11631" lon="3.21557">
        <ele>665</ele>
        <time>2025-02-15T09:34:02.000Z</time>
      </trkpt>
      <trkpt lat="44.11628" lon="3.21545">
        <ele>666</ele>
        <time>2025-02-15T09:34:06.000Z</time>
      </trkpt>
      <trkpt lat="44.11624" lon="3.21533">
        <ele>666</ele>
        <time>2025-02-15T09:34:10.000Z</time>
      </trkpt>
      <trkpt lat="44.11622" lon="3.21521">
        <ele>667</ele>
        <time>2025-02-15T09:34:14.000Z</time>
      </trkpt>
      <trkpt lat="44.11619" lon="3.21507">
        <ele>668</ele>
        <time>2025-02-15T09:34:18.000Z</time>
      </trkpt>
      <trkpt lat="44.11615" lon="3.21495">
        <ele>669</ele>
        <time>2025-02-15T09:34:22.000Z</time>
      </trkpt>
      <trkpt lat="44.11614" lon="3.21482">
        <ele>670</ele>
        <time>2025-02-15T09:34:26.000Z</time>
      </trkpt>
      <trkpt lat="44.11608" lon="3.21469">
        <ele>671</ele>
        <time>2025-02-15T09:34:30.000Z</time>
      </trkpt>
      <trkpt lat="44.11601" lon="3.21457">
        <ele>672</ele>
        <time>2025-02-15T09:34:34.000Z</time>
      </trkpt>
      <trkpt lat="44.11593" lon="3.21444">
        <ele>673</ele>
        <time>2025-02-15T09:34:38.000Z</time>
      </trkpt>
      <trkpt lat="44.11576" lon="3.21425">
        <ele>674</ele>
        <time>2025-02-15T09:34:46.000Z</time>
      </trkpt>
      <trkpt lat="44.11569" lon="3.21412">
        <ele>675</ele>
        <time>2025-02-15T09:34:50.000Z</time>
      </trkpt>
      <trkpt lat="44.11568" lon="3.21398">
        <ele>676</ele>
        <time>2025-02-15T09:34:54.000Z</time>
      </trkpt>
      <trkpt lat="44.11566" lon="3.21381">
        <ele>677</ele>
        <time>2025-02-15T09:34:58.000Z</time>
      </trkpt>
      <trkpt lat="44.11565" lon="3.21365">
        <ele>678</ele>
        <time>2025-02-15T09:35:02.000Z</time>
      </trkpt>
      <trkpt lat="44.11574" lon="3.21345">
        <ele>680</ele>
        <time>2025-02-15T09:35:10.000Z</time>
      </trkpt>
      <trkpt lat="44.11585" lon="3.21329">
        <ele>681</ele>
        <time>2025-02-15T09:35:18.000Z</time>
      </trkpt>
      <trkpt lat="44.11592" lon="3.21312">
        <ele>682</ele>
        <time>2025-02-15T09:35:26.000Z</time>
      </trkpt>
      <trkpt lat="44.11639" lon="3.21229">
        <ele>619.5</ele>
        <time>2025-02-15T09:36:06.000Z</time>
      </trkpt>
      <trkpt lat="44.11647" lon="3.21211">
        <ele>620.6</ele>
        <time>2025-02-15T09:36:10.000Z</time>
      </trkpt>
      <trkpt lat="44.11654" lon="3.21183">
        <ele>622.1</ele>
        <time>2025-02-15T09:36:14.000Z</time>
      </trkpt>
      <trkpt lat="44.11658" lon="3.21164">
        <ele>622.2</ele>
        <time>2025-02-15T09:36:18.000Z</time>
      </trkpt>
      <trkpt lat="44.11665" lon="3.21148">
        <ele>622.9</ele>
      </trkpt>
      <trkpt lat="44.11672" lon="3.2112">
        <ele>622.1</ele>
      </trkpt>
      <trkpt lat="44.11658" lon="3.21124">
        <ele>622.1</ele>
      </trkpt>
      <trkpt lat="44.11634" lon="3.21157">
        <ele>695</ele>
        <time>2025-02-15T09:36:26.000Z</time>
      </trkpt>
      <trkpt lat="44.11627" lon="3.21168">
        <ele>697</ele>
        <time>2025-02-15T09:36:30.000Z</time>
      </trkpt>
      <trkpt lat="44.11623" lon="3.21189">
        <ele>698</ele>
        <time>2025-02-15T09:36:38.000Z</time>
      </trkpt>
      <trkpt lat="44.11594" lon="3.21206">
        <ele>632.7</ele>
      </trkpt>
      <trkpt lat="44.11566" lon="3.21257">
        <ele>635.2</ele>
      </trkpt>
      <trkpt lat="44.11541" lon="3.21286">
        <ele>640.9</ele>
      </trkpt>
      <trkpt lat="44.11506" lon="3.21267">
        <ele>641.8</ele>
      </trkpt>
      <trkpt lat="44.11434" lon="3.21315">
        <ele>721</ele>
        <time>2025-02-15T09:38:22.000Z</time>
      </trkpt>
      <trkpt lat="44.11377" lon="3.21348">
        <ele>650.7</ele>
      </trkpt>
      <trkpt lat="44.11115" lon="3.2142">
        <ele>660.6</ele>
      </trkpt>
      <trkpt lat="44.11061" lon="3.2142">
        <ele>662.7</ele>
      </trkpt>
      <trkpt lat="44.11034" lon="3.21455">
        <ele>665.6</ele>
      </trkpt>
      <trkpt lat="44.10929" lon="3.21598">
        <ele>678.7</ele>
      </trkpt>
      <trkpt lat="44.1084" lon="3.21674">
        <ele>687.3</ele>
        <time>2025-02-15T09:41:36.000Z</time>
      </trkpt>
      <trkpt lat="44.10832" lon="3.21678">
        <ele>511.3</ele>
        <time>2025-02-15T09:41:41.000Z</time>
      </trkpt>
      <trkpt lat="44.10823" lon="3.21682">
        <ele>512</ele>
        <time>2025-02-15T09:41:45.000Z</time>
      </trkpt>
      <trkpt lat="44.10815" lon="3.21687">
        <ele>512.9</ele>
        <time>2025-02-15T09:41:49.000Z</time>
      </trkpt>
      <trkpt lat="44.10806" lon="3.21694">
        <ele>513.6</ele>
        <time>2025-02-15T09:41:53.000Z</time>
      </trkpt>
      <trkpt lat="44.10796" lon="3.21702">
        <ele>514.5</ele>
        <time>2025-02-15T09:41:57.000Z</time>
      </trkpt>
      <trkpt lat="44.10788" lon="3.21711">
        <ele>514.9</ele>
        <time>2025-02-15T09:42:00.000Z</time>
      </trkpt>
      <trkpt lat="44.10783" lon="3.21726">
        <ele>515.3</ele>
        <time>2025-02-15T09:42:03.000Z</time>
      </trkpt>
      <trkpt lat="44.10784" lon="3.21742">
        <ele>516</ele>
        <time>2025-02-15T09:42:07.000Z</time>
      </trkpt>
      <trkpt lat="44.10793" lon="3.2175">
        <ele>516.8</ele>
        <time>2025-02-15T09:42:10.000Z</time>
      </trkpt>
      <trkpt lat="44.10795" lon="3.21764">
        <ele>517.4</ele>
        <time>2025-02-15T09:42:15.000Z</time>
      </trkpt>
      <trkpt lat="44.10796" lon="3.21778">
        <ele>517.8</ele>
        <time>2025-02-15T09:42:18.000Z</time>
      </trkpt>
      <trkpt lat="44.108" lon="3.21789">
        <ele>518</ele>
        <time>2025-02-15T09:42:20.000Z</time>
      </trkpt>
      <trkpt lat="44.10808" lon="3.21803">
        <ele>518</ele>
        <time>2025-02-15T09:42:22.000Z</time>
      </trkpt>
      <trkpt lat="44.10819" lon="3.21817">
        <ele>517.9</ele>
        <time>2025-02-15T09:42:24.000Z</time>
      </trkpt>
      <trkpt lat="44.10827" lon="3.21837">
        <ele>517.3</ele>
        <time>2025-02-15T09:42:26.000Z</time>
      </trkpt>
      <trkpt lat="44.10832" lon="3.21858">
        <ele>516.5</ele>
        <time>2025-02-15T09:42:28.000Z</time>
      </trkpt>
      <trkpt lat="44.10842" lon="3.21872">
        <ele>515.7</ele>
        <time>2025-02-15T09:42:30.000Z</time>
      </trkpt>
      <trkpt lat="44.10855" lon="3.2188">
        <ele>514.5</ele>
        <time>2025-02-15T09:42:32.000Z</time>
      </trkpt>
      <trkpt lat="44.10865" lon="3.2189">
        <ele>514</ele>
        <time>2025-02-15T09:42:34.000Z</time>
      </trkpt>
      <trkpt lat="44.10874" lon="3.21899">
        <ele>513.6</ele>
        <time>2025-02-15T09:42:36.000Z</time>
      </trkpt>
      <trkpt lat="44.10885" lon="3.21906">
        <ele>513.4</ele>
        <time>2025-02-15T09:42:38.000Z</time>
      </trkpt>
      <trkpt lat="44.10893" lon="3.21914">
        <ele>513.2</ele>
        <time>2025-02-15T09:42:40.000Z</time>
      </trkpt>
      <trkpt lat="44.10901" lon="3.21921">
        <ele>512.9</ele>
        <time>2025-02-15T09:42:42.000Z</time>
      </trkpt>
      <trkpt lat="44.10911" lon="3.21931">
        <ele>513.1</ele>
        <time>2025-02-15T09:42:45.000Z</time>
      </trkpt>
      <trkpt lat="44.10918" lon="3.2194">
        <ele>512.9</ele>
        <time>2025-02-15T09:42:48.000Z</time>
      </trkpt>
      <trkpt lat="44.10924" lon="3.21951">
        <ele>513.2</ele>
        <time>2025-02-15T09:42:51.000Z</time>
      </trkpt>
      <trkpt lat="44.10932" lon="3.21963">
        <ele>513.9</ele>
        <time>2025-02-15T09:42:55.000Z</time>
      </trkpt>
      <trkpt lat="44.10939" lon="3.21973">
        <ele>513.9</ele>
        <time>2025-02-15T09:42:59.000Z</time>
      </trkpt>
      <trkpt lat="44.10948" lon="3.21984">
        <ele>514.5</ele>
        <time>2025-02-15T09:43:03.000Z</time>
      </trkpt>
      <trkpt lat="44.10955" lon="3.21995">
        <ele>515.1</ele>
        <time>2025-02-15T09:43:07.000Z</time>
      </trkpt>
      <trkpt lat="44.1096" lon="3.22006">
        <ele>516.5</ele>
        <time>2025-02-15T09:43:11.000Z</time>
      </trkpt>
      <trkpt lat="44.10968" lon="3.22018">
        <ele>517.5</ele>
        <time>2025-02-15T09:43:15.000Z</time>
      </trkpt>
      <trkpt lat="44.10975" lon="3.22028">
        <ele>517.8</ele>
        <time>2025-02-15T09:43:18.000Z</time>
      </trkpt>
      <trkpt lat="44.10984" lon="3.22035">
        <ele>518.4</ele>
        <time>2025-02-15T09:43:21.000Z</time>
      </trkpt>
      <trkpt lat="44.10994" lon="3.2204">
        <ele>518.5</ele>
        <time>2025-02-15T09:43:24.000Z</time>
      </trkpt>
      <trkpt lat="44.11004" lon="3.22049">
        <ele>518.5</ele>
        <time>2025-02-15T09:43:28.000Z</time>
      </trkpt>
      <trkpt lat="44.11012" lon="3.22056">
        <ele>518.9</ele>
        <time>2025-02-15T09:43:31.000Z</time>
      </trkpt>
      <trkpt lat="44.11019" lon="3.22065">
        <ele>519</ele>
        <time>2025-02-15T09:43:34.000Z</time>
      </trkpt>
      <trkpt lat="44.11023" lon="3.22077">
        <ele>519.8</ele>
        <time>2025-02-15T09:43:37.000Z</time>
      </trkpt>
      <trkpt lat="44.11026" lon="3.22091">
        <ele>520</ele>
        <time>2025-02-15T09:43:40.000Z</time>
      </trkpt>
      <trkpt lat="44.11024" lon="3.22104">
        <ele>520.6</ele>
        <time>2025-02-15T09:43:43.000Z</time>
      </trkpt>
      <trkpt lat="44.1102" lon="3.22116">
        <ele>521</ele>
        <time>2025-02-15T09:43:46.000Z</time>
      </trkpt>
      <trkpt lat="44.11016" lon="3.22127">
        <ele>521.4</ele>
        <time>2025-02-15T09:43:49.000Z</time>
      </trkpt>
      <trkpt lat="44.11012" lon="3.22142">
        <ele>522.1</ele>
        <time>2025-02-15T09:43:53.000Z</time>
      </trkpt>
      <trkpt lat="44.11011" lon="3.22156">
        <ele>522.9</ele>
        <time>2025-02-15T09:43:57.000Z</time>
      </trkpt>
      <trkpt lat="44.1101" lon="3.22169">
        <ele>523.4</ele>
        <time>2025-02-15T09:44:00.000Z</time>
      </trkpt>
      <trkpt lat="44.1101" lon="3.22182">
        <ele>523.4</ele>
        <time>2025-02-15T09:44:03.000Z</time>
      </trkpt>
      <trkpt lat="44.1101" lon="3.22196">
        <ele>524.6</ele>
        <time>2025-02-15T09:44:07.000Z</time>
      </trkpt>
      <trkpt lat="44.11013" lon="3.22213">
        <ele>525.7</ele>
        <time>2025-02-15T09:44:11.000Z</time>
      </trkpt>
      <trkpt lat="44.11016" lon="3.22226">
        <ele>526.9</ele>
        <time>2025-02-15T09:44:14.000Z</time>
      </trkpt>
      <trkpt lat="44.11016" lon="3.22241">
        <ele>528.5</ele>
        <time>2025-02-15T09:44:19.000Z</time>
      </trkpt>
      <trkpt lat="44.11016" lon="3.22254">
        <ele>529.6</ele>
        <time>2025-02-15T09:44:23.000Z</time>
      </trkpt>
      <trkpt lat="44.11014" lon="3.22267">
        <ele>530.3</ele>
        <time>2025-02-15T09:44:27.000Z</time>
      </trkpt>
      <trkpt lat="44.11012" lon="3.22282">
        <ele>531.4</ele>
        <time>2025-02-15T09:44:31.000Z</time>
      </trkpt>
      <trkpt lat="44.11013" lon="3.22296">
        <ele>532.8</ele>
        <time>2025-02-15T09:44:36.000Z</time>
      </trkpt>
      <trkpt lat="44.11015" lon="3.22309">
        <ele>534.1</ele>
        <time>2025-02-15T09:44:40.000Z</time>
      </trkpt>
      <trkpt lat="44.11016" lon="3.22322">
        <ele>535.1</ele>
        <time>2025-02-15T09:44:44.000Z</time>
      </trkpt>
      <trkpt lat="44.11015" lon="3.22337">
        <ele>535.4</ele>
        <time>2025-02-15T09:44:50.000Z</time>
      </trkpt>
      <trkpt lat="44.11013" lon="3.22351">
        <ele>536.2</ele>
        <time>2025-02-15T09:44:54.000Z</time>
      </trkpt>
      <trkpt lat="44.1101" lon="3.22365">
        <ele>538.2</ele>
        <time>2025-02-15T09:45:00.000Z</time>
      </trkpt>
      <trkpt lat="44.11008" lon="3.22379">
        <ele>539.5</ele>
        <time>2025-02-15T09:45:05.000Z</time>
      </trkpt>
      <trkpt lat="44.11005" lon="3.22392">
        <ele>541</ele>
        <time>2025-02-15T09:45:10.000Z</time>
      </trkpt>
      <trkpt lat="44.11002" lon="3.22404">
        <ele>542.1</ele>
        <time>2025-02-15T09:45:15.000Z</time>
      </trkpt>
      <trkpt lat="44.11001" lon="3.22417">
        <ele>543.2</ele>
        <time>2025-02-15T09:45:20.000Z</time>
      </trkpt>
      <trkpt lat="44.11011" lon="3.22414">
        <ele>544.5</ele>
        <time>2025-02-15T09:45:28.000Z</time>
      </trkpt>
      <trkpt lat="44.11012" lon="3.22427">
        <ele>545.3</ele>
        <time>2025-02-15T09:45:39.000Z</time>
      </trkpt>
      <trkpt lat="44.11007" lon="3.22439">
        <ele>545.9</ele>
        <time>2025-02-15T09:45:45.000Z</time>
      </trkpt>
      <trkpt lat="44.11003" lon="3.22452">
        <ele>546.6</ele>
        <time>2025-02-15T09:45:50.000Z</time>
      </trkpt>
      <trkpt lat="44.11" lon="3.22467">
        <ele>546.7</ele>
        <time>2025-02-15T09:45:55.000Z</time>
      </trkpt>
      <trkpt lat="44.10999" lon="3.22482">
        <ele>548.3</ele>
        <time>2025-02-15T09:46:01.000Z</time>
      </trkpt>
      <trkpt lat="44.10997" lon="3.22496">
        <ele>549.9</ele>
        <time>2025-02-15T09:46:06.000Z</time>
      </trkpt>
      <trkpt lat="44.10994" lon="3.22508">
        <ele>551.6</ele>
        <time>2025-02-15T09:46:12.000Z</time>
      </trkpt>
      <trkpt lat="44.10989" lon="3.22519">
        <ele>552.3</ele>
        <time>2025-02-15T09:46:18.000Z</time>
      </trkpt>
      <trkpt lat="44.10987" lon="3.22532">
        <ele>554.4</ele>
        <time>2025-02-15T09:46:24.000Z</time>
      </trkpt>
      <trkpt lat="44.10985" lon="3.22547">
        <ele>555.9</ele>
        <time>2025-02-15T09:46:30.000Z</time>
      </trkpt>
      <trkpt lat="44.10984" lon="3.22559">
        <ele>557.2</ele>
        <time>2025-02-15T09:46:35.000Z</time>
      </trkpt>
      <trkpt lat="44.10981" lon="3.22574">
        <ele>559.1</ele>
        <time>2025-02-15T09:46:41.000Z</time>
      </trkpt>
      <trkpt lat="44.10975" lon="3.22585">
        <ele>560.3</ele>
        <time>2025-02-15T09:46:46.000Z</time>
      </trkpt>
      <trkpt lat="44.10971" lon="3.22598">
        <ele>561.5</ele>
        <time>2025-02-15T09:46:51.000Z</time>
      </trkpt>
      <trkpt lat="44.10965" lon="3.2261">
        <ele>562.3</ele>
        <time>2025-02-15T09:46:56.000Z</time>
      </trkpt>
      <trkpt lat="44.1096" lon="3.22622">
        <ele>563.2</ele>
        <time>2025-02-15T09:47:00.000Z</time>
      </trkpt>
      <trkpt lat="44.10956" lon="3.22636">
        <ele>563.4</ele>
        <time>2025-02-15T09:47:05.000Z</time>
      </trkpt>
      <trkpt lat="44.10956" lon="3.22651">
        <ele>563.6</ele>
        <time>2025-02-15T09:47:10.000Z</time>
      </trkpt>
      <trkpt lat="44.10956" lon="3.22664">
        <ele>563.8</ele>
        <time>2025-02-15T09:47:14.000Z</time>
      </trkpt>
      <trkpt lat="44.10955" lon="3.22676">
        <ele>564.6</ele>
        <time>2025-02-15T09:47:19.000Z</time>
      </trkpt>
      <trkpt lat="44.10957" lon="3.22689">
        <ele>565.3</ele>
        <time>2025-02-15T09:47:24.000Z</time>
      </trkpt>
      <trkpt lat="44.10956" lon="3.22701">
        <ele>566</ele>
        <time>2025-02-15T09:47:28.000Z</time>
      </trkpt>
      <trkpt lat="44.10949" lon="3.22712">
        <ele>567.4</ele>
        <time>2025-02-15T09:47:33.000Z</time>
      </trkpt>
      <trkpt lat="44.10943" lon="3.22722">
        <ele>568.2</ele>
        <time>2025-02-15T09:47:38.000Z</time>
      </trkpt>
      <trkpt lat="44.10936" lon="3.22731">
        <ele>568.8</ele>
        <time>2025-02-15T09:47:44.000Z</time>
      </trkpt>
      <trkpt lat="44.1093" lon="3.22742">
        <ele>570.1</ele>
        <time>2025-02-15T09:47:50.000Z</time>
      </trkpt>
      <trkpt lat="44.10924" lon="3.22754">
        <ele>570.7</ele>
        <time>2025-02-15T09:47:56.000Z</time>
      </trkpt>
      <trkpt lat="44.10917" lon="3.22764">
        <ele>571.4</ele>
        <time>2025-02-15T09:48:01.000Z</time>
      </trkpt>
      <trkpt lat="44.1091" lon="3.22774">
        <ele>572.1</ele>
        <time>2025-02-15T09:48:05.000Z</time>
      </trkpt>
      <trkpt lat="44.10902" lon="3.22786">
        <ele>572.9</ele>
        <time>2025-02-15T09:48:09.000Z</time>
      </trkpt>
      <trkpt lat="44.10896" lon="3.228">
        <ele>573</ele>
        <time>2025-02-15T09:48:12.000Z</time>
      </trkpt>
      <trkpt lat="44.10892" lon="3.22811">
        <ele>573.2</ele>
        <time>2025-02-15T09:48:15.000Z</time>
      </trkpt>
      <trkpt lat="44.10884" lon="3.22822">
        <ele>573.4</ele>
        <time>2025-02-15T09:48:18.000Z</time>
      </trkpt>
      <trkpt lat="44.10878" lon="3.22835">
        <ele>573.2</ele>
        <time>2025-02-15T09:48:21.000Z</time>
      </trkpt>
      <trkpt lat="44.1087" lon="3.22851">
        <ele>572.6</ele>
        <time>2025-02-15T09:48:24.000Z</time>
      </trkpt>
      <trkpt lat="44.10865" lon="3.22862">
        <ele>572.6</ele>
        <time>2025-02-15T09:48:26.000Z</time>
      </trkpt>
      <trkpt lat="44.1086" lon="3.22876">
        <ele>572.4</ele>
        <time>2025-02-15T09:48:28.000Z</time>
      </trkpt>
      <trkpt lat="44.10855" lon="3.2289">
        <ele>572.3</ele>
        <time>2025-02-15T09:48:30.000Z</time>
      </trkpt>
      <trkpt lat="44.10852" lon="3.22907">
        <ele>571.8</ele>
        <time>2025-02-15T09:48:32.000Z</time>
      </trkpt>
      <trkpt lat="44.10849" lon="3.22922">
        <ele>571.4</ele>
        <time>2025-02-15T09:48:34.000Z</time>
      </trkpt>
      <trkpt lat="44.10848" lon="3.22938">
        <ele>570.7</ele>
        <time>2025-02-15T09:48:36.000Z</time>
      </trkpt>
      <trkpt lat="44.10848" lon="3.22954">
        <ele>570.3</ele>
        <time>2025-02-15T09:48:38.000Z</time>
      </trkpt>
      <trkpt lat="44.10849" lon="3.22969">
        <ele>570</ele>
        <time>2025-02-15T09:48:40.000Z</time>
      </trkpt>
      <trkpt lat="44.10849" lon="3.22983">
        <ele>569.6</ele>
        <time>2025-02-15T09:48:42.000Z</time>
      </trkpt>
      <trkpt lat="44.10848" lon="3.22995">
        <ele>569.5</ele>
        <time>2025-02-15T09:48:44.000Z</time>
      </trkpt>
      <trkpt lat="44.10845" lon="3.23011">
        <ele>569.1</ele>
        <time>2025-02-15T09:48:47.000Z</time>
      </trkpt>
      <trkpt lat="44.1084" lon="3.23025">
        <ele>568.9</ele>
        <time>2025-02-15T09:48:51.000Z</time>
      </trkpt>
      <trkpt lat="44.10838" lon="3.23037">
        <ele>568.9</ele>
        <time>2025-02-15T09:48:54.000Z</time>
      </trkpt>
      <trkpt lat="44.10836" lon="3.23051">
        <ele>568.6</ele>
        <time>2025-02-15T09:48:58.000Z</time>
      </trkpt>
      <trkpt lat="44.10834" lon="3.23064">
        <ele>569.5</ele>
        <time>2025-02-15T09:49:16.000Z</time>
      </trkpt>
      <trkpt lat="44.10831" lon="3.23078">
        <ele>569.2</ele>
        <time>2025-02-15T09:49:20.000Z</time>
      </trkpt>
      <trkpt lat="44.10829" lon="3.2309">
        <ele>569.9</ele>
        <time>2025-02-15T09:49:24.000Z</time>
      </trkpt>
      <trkpt lat="44.10826" lon="3.23103">
        <ele>570.4</ele>
        <time>2025-02-15T09:49:28.000Z</time>
      </trkpt>
      <trkpt lat="44.10825" lon="3.23117">
        <ele>570.9</ele>
        <time>2025-02-15T09:49:33.000Z</time>
      </trkpt>
      <trkpt lat="44.10823" lon="3.2313">
        <ele>572</ele>
        <time>2025-02-15T09:49:38.000Z</time>
      </trkpt>
      <trkpt lat="44.10819" lon="3.23141">
        <ele>573.2</ele>
        <time>2025-02-15T09:49:43.000Z</time>
      </trkpt>
      <trkpt lat="44.10818" lon="3.23155">
        <ele>574.2</ele>
        <time>2025-02-15T09:49:48.000Z</time>
      </trkpt>
      <trkpt lat="44.10815" lon="3.23168">
        <ele>575.4</ele>
        <time>2025-02-15T09:49:53.000Z</time>
      </trkpt>
      <trkpt lat="44.10813" lon="3.23181">
        <ele>576.6</ele>
        <time>2025-02-15T09:49:59.000Z</time>
      </trkpt>
      <trkpt lat="44.10813" lon="3.23193">
        <ele>578.3</ele>
        <time>2025-02-15T09:50:06.000Z</time>
      </trkpt>
      <trkpt lat="44.10813" lon="3.23207">
        <ele>579.9</ele>
        <time>2025-02-15T09:50:13.000Z</time>
      </trkpt>
      <trkpt lat="44.10812" lon="3.2322">
        <ele>580.7</ele>
        <time>2025-02-15T09:50:20.000Z</time>
      </trkpt>
      <trkpt lat="44.10813" lon="3.23234">
        <ele>582.1</ele>
        <time>2025-02-15T09:50:27.000Z</time>
      </trkpt>
      <trkpt lat="44.10814" lon="3.23247">
        <ele>583.5</ele>
        <time>2025-02-15T09:50:34.000Z</time>
      </trkpt>
      <trkpt lat="44.10811" lon="3.2326">
        <ele>585.3</ele>
        <time>2025-02-15T09:50:41.000Z</time>
      </trkpt>
      <trkpt lat="44.10807" lon="3.23272">
        <ele>587.6</ele>
        <time>2025-02-15T09:50:49.000Z</time>
      </trkpt>
      <trkpt lat="44.10803" lon="3.23284">
        <ele>588.6</ele>
        <time>2025-02-15T09:50:54.000Z</time>
      </trkpt>
      <trkpt lat="44.10804" lon="3.23298">
        <ele>590.4</ele>
        <time>2025-02-15T09:51:03.000Z</time>
      </trkpt>
      <trkpt lat="44.10806" lon="3.23312">
        <ele>592.4</ele>
        <time>2025-02-15T09:51:11.000Z</time>
      </trkpt>
      <trkpt lat="44.10807" lon="3.23325">
        <ele>592.5</ele>
        <time>2025-02-15T09:51:17.000Z</time>
      </trkpt>
      <trkpt lat="44.10808" lon="3.2334">
        <ele>592.8</ele>
        <time>2025-02-15T09:51:24.000Z</time>
      </trkpt>
      <trkpt lat="44.10807" lon="3.23353">
        <ele>594</ele>
        <time>2025-02-15T09:51:28.000Z</time>
      </trkpt>
      <trkpt lat="44.10807" lon="3.23366">
        <ele>595.3</ele>
        <time>2025-02-15T09:51:34.000Z</time>
      </trkpt>
      <trkpt lat="44.10807" lon="3.23381">
        <ele>595.7</ele>
        <time>2025-02-15T09:51:40.000Z</time>
      </trkpt>
      <trkpt lat="44.10805" lon="3.23393">
        <ele>597.3</ele>
        <time>2025-02-15T09:51:46.000Z</time>
      </trkpt>
      <trkpt lat="44.10802" lon="3.23407">
        <ele>598.1</ele>
        <time>2025-02-15T09:51:52.000Z</time>
      </trkpt>
      <trkpt lat="44.10803" lon="3.2342">
        <ele>599.3</ele>
        <time>2025-02-15T09:51:56.000Z</time>
      </trkpt>
      <trkpt lat="44.10804" lon="3.23433">
        <ele>600.3</ele>
        <time>2025-02-15T09:52:02.000Z</time>
      </trkpt>
      <trkpt lat="44.10807" lon="3.23447">
        <ele>602.2</ele>
        <time>2025-02-15T09:52:09.000Z</time>
      </trkpt>
      <trkpt lat="44.10809" lon="3.2346">
        <ele>603.2</ele>
        <time>2025-02-15T09:52:15.000Z</time>
      </trkpt>
      <trkpt lat="44.10814" lon="3.23472">
        <ele>604</ele>
        <time>2025-02-15T09:52:20.000Z</time>
      </trkpt>
      <trkpt lat="44.10818" lon="3.23484">
        <ele>604.8</ele>
        <time>2025-02-15T09:52:25.000Z</time>
      </trkpt>
      <trkpt lat="44.10825" lon="3.23492">
        <ele>605</ele>
        <time>2025-02-15T09:52:30.000Z</time>
      </trkpt>
      <trkpt lat="44.10834" lon="3.23504">
        <ele>605.2</ele>
        <time>2025-02-15T09:52:34.000Z</time>
      </trkpt>
      <trkpt lat="44.1084" lon="3.23514">
        <ele>605.3</ele>
        <time>2025-02-15T09:52:37.000Z</time>
      </trkpt>
      <trkpt lat="44.10846" lon="3.23524">
        <ele>605.5</ele>
        <time>2025-02-15T09:52:44.000Z</time>
      </trkpt>
      <trkpt lat="44.10837" lon="3.23529">
        <ele>605.4</ele>
        <time>2025-02-15T09:52:52.000Z</time>
      </trkpt>
      <trkpt lat="44.1083" lon="3.2354">
        <ele>605.6</ele>
        <time>2025-02-15T09:52:58.000Z</time>
      </trkpt>
      <trkpt lat="44.10823" lon="3.2355">
        <ele>605.8</ele>
        <time>2025-02-15T09:53:04.000Z</time>
      </trkpt>
      <trkpt lat="44.10815" lon="3.23557">
        <ele>606.1</ele>
        <time>2025-02-15T09:53:10.000Z</time>
      </trkpt>
      <trkpt lat="44.10806" lon="3.23562">
        <ele>606.3</ele>
        <time>2025-02-15T09:53:16.000Z</time>
      </trkpt>
      <trkpt lat="44.10798" lon="3.2357">
        <ele>606.8</ele>
        <time>2025-02-15T09:53:23.000Z</time>
      </trkpt>
      <trkpt lat="44.10791" lon="3.2358">
        <ele>607</ele>
        <time>2025-02-15T09:53:27.000Z</time>
      </trkpt>
      <trkpt lat="44.10784" lon="3.23592">
        <ele>607.1</ele>
        <time>2025-02-15T09:53:30.000Z</time>
      </trkpt>
      <trkpt lat="44.10781" lon="3.23606">
        <ele>607.1</ele>
        <time>2025-02-15T09:53:33.000Z</time>
      </trkpt>
      <trkpt lat="44.10778" lon="3.23621">
        <ele>607</ele>
        <time>2025-02-15T09:53:36.000Z</time>
      </trkpt>
      <trkpt lat="44.10774" lon="3.23638">
        <ele>606.5</ele>
        <time>2025-02-15T09:53:39.000Z</time>
      </trkpt>
      <trkpt lat="44.1077" lon="3.23654">
        <ele>606.4</ele>
        <time>2025-02-15T09:53:42.000Z</time>
      </trkpt>
      <trkpt lat="44.10766" lon="3.23669">
        <ele>606.3</ele>
        <time>2025-02-15T09:53:46.000Z</time>
      </trkpt>
      <trkpt lat="44.10763" lon="3.23681">
        <ele>604.3</ele>
        <time>2025-02-15T09:57:50.000Z</time>
      </trkpt>
      <trkpt lat="44.10757" lon="3.23693">
        <ele>604.3</ele>
        <time>2025-02-15T09:58:05.000Z</time>
      </trkpt>
      <trkpt lat="44.1075" lon="3.23705">
        <ele>604.3</ele>
        <time>2025-02-15T09:58:10.000Z</time>
      </trkpt>
      <trkpt lat="44.10742" lon="3.23717">
        <ele>604.3</ele>
        <time>2025-02-15T09:58:15.000Z</time>
      </trkpt>
      <trkpt lat="44.10733" lon="3.23727">
        <ele>604.2</ele>
        <time>2025-02-15T09:58:19.000Z</time>
      </trkpt>
      <trkpt lat="44.10725" lon="3.23735">
        <ele>604.2</ele>
        <time>2025-02-15T09:58:22.000Z</time>
      </trkpt>
      <trkpt lat="44.10716" lon="3.2374">
        <ele>604</ele>
        <time>2025-02-15T09:58:25.000Z</time>
      </trkpt>
      <trkpt lat="44.10706" lon="3.23746">
        <ele>603.7</ele>
        <time>2025-02-15T09:58:28.000Z</time>
      </trkpt>
      <trkpt lat="44.10696" lon="3.23751">
        <ele>603.4</ele>
        <time>2025-02-15T09:58:31.000Z</time>
      </trkpt>
      <trkpt lat="44.10685" lon="3.23758">
        <ele>602.7</ele>
        <time>2025-02-15T09:58:34.000Z</time>
      </trkpt>
      <trkpt lat="44.10677" lon="3.23773">
        <ele>601.8</ele>
        <time>2025-02-15T09:58:37.000Z</time>
      </trkpt>
      <trkpt lat="44.10669" lon="3.23785">
        <ele>601.1</ele>
        <time>2025-02-15T09:58:39.000Z</time>
      </trkpt>
      <trkpt lat="44.10661" lon="3.23798">
        <ele>600.2</ele>
        <time>2025-02-15T09:58:41.000Z</time>
      </trkpt>
      <trkpt lat="44.10654" lon="3.23807">
        <ele>599.3</ele>
        <time>2025-02-15T09:58:43.000Z</time>
      </trkpt>
      <trkpt lat="44.10645" lon="3.23812">
        <ele>598.3</ele>
        <time>2025-02-15T09:58:45.000Z</time>
      </trkpt>
      <trkpt lat="44.10637" lon="3.23817">
        <ele>597.3</ele>
        <time>2025-02-15T09:58:47.000Z</time>
      </trkpt>
      <trkpt lat="44.10628" lon="3.23827">
        <ele>595.8</ele>
        <time>2025-02-15T09:58:50.000Z</time>
      </trkpt>
      <trkpt lat="44.1062" lon="3.23837">
        <ele>593.2</ele>
        <time>2025-02-15T09:58:56.000Z</time>
      </trkpt>
      <trkpt lat="44.10614" lon="3.23848">
        <ele>591.7</ele>
        <time>2025-02-15T09:59:00.000Z</time>
      </trkpt>
      <trkpt lat="44.10606" lon="3.23858">
        <ele>590.6</ele>
        <time>2025-02-15T09:59:03.000Z</time>
      </trkpt>
      <trkpt lat="44.10599" lon="3.23868">
        <ele>589.2</ele>
        <time>2025-02-15T09:59:07.000Z</time>
      </trkpt>
      <trkpt lat="44.10594" lon="3.23879">
        <ele>587.9</ele>
        <time>2025-02-15T09:59:12.000Z</time>
      </trkpt>
      <trkpt lat="44.10586" lon="3.2389">
        <ele>587</ele>
        <time>2025-02-15T09:59:16.000Z</time>
      </trkpt>
      <trkpt lat="44.10581" lon="3.239">
        <ele>586.4</ele>
        <time>2025-02-15T09:59:19.000Z</time>
      </trkpt>
      <trkpt lat="44.10574" lon="3.23909">
        <ele>583.7</ele>
        <time>2025-02-15T09:59:35.000Z</time>
      </trkpt>
      <trkpt lat="44.10567" lon="3.23918">
        <ele>583.3</ele>
        <time>2025-02-15T09:59:39.000Z</time>
      </trkpt>
      <trkpt lat="44.10559" lon="3.23926">
        <ele>582.9</ele>
        <time>2025-02-15T09:59:43.000Z</time>
      </trkpt>
      <trkpt lat="44.10551" lon="3.23933">
        <ele>582.6</ele>
        <time>2025-02-15T09:59:47.000Z</time>
      </trkpt>
      <trkpt lat="44.10544" lon="3.23942">
        <ele>582.3</ele>
        <time>2025-02-15T09:59:51.000Z</time>
      </trkpt>
      <trkpt lat="44.10536" lon="3.23952">
        <ele>582</ele>
        <time>2025-02-15T09:59:56.000Z</time>
      </trkpt>
      <trkpt lat="44.10529" lon="3.23961">
        <ele>581.9</ele>
        <time>2025-02-15T10:00:00.000Z</time>
      </trkpt>
      <trkpt lat="44.10521" lon="3.23971">
        <ele>581.6</ele>
        <time>2025-02-15T10:00:07.000Z</time>
      </trkpt>
      <trkpt lat="44.10513" lon="3.23977">
        <ele>581.5</ele>
        <time>2025-02-15T10:00:13.000Z</time>
      </trkpt>
      <trkpt lat="44.10506" lon="3.23985">
        <ele>581.5</ele>
        <time>2025-02-15T10:00:21.000Z</time>
      </trkpt>
      <trkpt lat="44.10496" lon="3.23989">
        <ele>581.6</ele>
        <time>2025-02-15T10:00:30.000Z</time>
      </trkpt>
      <trkpt lat="44.10488" lon="3.23995">
        <ele>582.2</ele>
        <time>2025-02-15T10:00:38.000Z</time>
      </trkpt>
      <trkpt lat="44.10479" lon="3.24002">
        <ele>584.5</ele>
        <time>2025-02-15T10:01:04.000Z</time>
      </trkpt>
      <trkpt lat="44.10472" lon="3.2401">
        <ele>584.9</ele>
        <time>2025-02-15T10:01:11.000Z</time>
      </trkpt>
      <trkpt lat="44.10462" lon="3.24014">
        <ele>585.8</ele>
        <time>2025-02-15T10:01:19.000Z</time>
      </trkpt>
      <trkpt lat="44.10453" lon="3.24019">
        <ele>586.9</ele>
        <time>2025-02-15T10:01:27.000Z</time>
      </trkpt>
      <trkpt lat="44.10444" lon="3.24017">
        <ele>587.6</ele>
        <time>2025-02-15T10:01:34.000Z</time>
      </trkpt>
      <trkpt lat="44.10435" lon="3.24013">
        <ele>587.9</ele>
        <time>2025-02-15T10:01:39.000Z</time>
      </trkpt>
      <trkpt lat="44.10426" lon="3.24014">
        <ele>588.3</ele>
        <time>2025-02-15T10:01:45.000Z</time>
      </trkpt>
      <trkpt lat="44.10416" lon="3.24014">
        <ele>588.6</ele>
        <time>2025-02-15T10:01:51.000Z</time>
      </trkpt>
      <trkpt lat="44.10407" lon="3.24011">
        <ele>589.3</ele>
        <time>2025-02-15T10:01:57.000Z</time>
      </trkpt>
      <trkpt lat="44.10397" lon="3.24008">
        <ele>590.6</ele>
        <time>2025-02-15T10:02:06.000Z</time>
      </trkpt>
      <trkpt lat="44.10388" lon="3.24007">
        <ele>591.4</ele>
        <time>2025-02-15T10:02:12.000Z</time>
      </trkpt>
      <trkpt lat="44.10379" lon="3.24014">
        <ele>592.6</ele>
        <time>2025-02-15T10:02:19.000Z</time>
      </trkpt>
      <trkpt lat="44.10375" lon="3.24026">
        <ele>594.1</ele>
        <time>2025-02-15T10:02:27.000Z</time>
      </trkpt>
      <trkpt lat="44.10374" lon="3.2404">
        <ele>596.1</ele>
        <time>2025-02-15T10:02:36.000Z</time>
      </trkpt>
      <trkpt lat="44.1037" lon="3.24053">
        <ele>597.8</ele>
        <time>2025-02-15T10:02:42.000Z</time>
      </trkpt>
      <trkpt lat="44.10368" lon="3.24066">
        <ele>599.5</ele>
        <time>2025-02-15T10:02:49.000Z</time>
      </trkpt>
      <trkpt lat="44.10369" lon="3.24081">
        <ele>601</ele>
        <time>2025-02-15T10:02:56.000Z</time>
      </trkpt>
      <trkpt lat="44.10362" lon="3.24091">
        <ele>602.7</ele>
        <time>2025-02-15T10:03:04.000Z</time>
      </trkpt>
      <trkpt lat="44.10354" lon="3.24097">
        <ele>603.6</ele>
        <time>2025-02-15T10:03:10.000Z</time>
      </trkpt>
      <trkpt lat="44.10345" lon="3.24105">
        <ele>604.3</ele>
        <time>2025-02-15T10:03:18.000Z</time>
      </trkpt>
      <trkpt lat="44.10336" lon="3.241">
        <ele>605</ele>
        <time>2025-02-15T10:03:26.000Z</time>
      </trkpt>
      <trkpt lat="44.1033" lon="3.2409">
        <ele>605.3</ele>
        <time>2025-02-15T10:03:32.000Z</time>
      </trkpt>
      <trkpt lat="44.10322" lon="3.24083">
        <ele>605.7</ele>
        <time>2025-02-15T10:03:37.000Z</time>
      </trkpt>
      <trkpt lat="44.10313" lon="3.24075">
        <ele>605.9</ele>
        <time>2025-02-15T10:03:42.000Z</time>
      </trkpt>
      <trkpt lat="44.10303" lon="3.2407">
        <ele>606.1</ele>
        <time>2025-02-15T10:03:48.000Z</time>
      </trkpt>
      <trkpt lat="44.10292" lon="3.24064">
        <ele>606.2</ele>
        <time>2025-02-15T10:03:53.000Z</time>
      </trkpt>
      <trkpt lat="44.10283" lon="3.24059">
        <ele>606.3</ele>
        <time>2025-02-15T10:03:57.000Z</time>
      </trkpt>
      <trkpt lat="44.10273" lon="3.24053">
        <ele>606.3</ele>
        <time>2025-02-15T10:04:02.000Z</time>
      </trkpt>
      <trkpt lat="44.10263" lon="3.24046">
        <ele>606.3</ele>
        <time>2025-02-15T10:04:07.000Z</time>
      </trkpt>
      <trkpt lat="44.10254" lon="3.24042">
        <ele>606.3</ele>
        <time>2025-02-15T10:04:12.000Z</time>
      </trkpt>
      <trkpt lat="44.10244" lon="3.24041">
        <ele>606.4</ele>
        <time>2025-02-15T10:04:18.000Z</time>
      </trkpt>
      <trkpt lat="44.10235" lon="3.24039">
        <ele>606.4</ele>
        <time>2025-02-15T10:04:25.000Z</time>
      </trkpt>
      <trkpt lat="44.10223" lon="3.24039">
        <ele>605.8</ele>
        <time>2025-02-15T10:04:39.000Z</time>
      </trkpt>
      <trkpt lat="44.10213" lon="3.2404">
        <ele>605.8</ele>
        <time>2025-02-15T10:04:43.000Z</time>
      </trkpt>
      <trkpt lat="44.10202" lon="3.24044">
        <ele>605.7</ele>
        <time>2025-02-15T10:04:47.000Z</time>
      </trkpt>
      <trkpt lat="44.10193" lon="3.24048">
        <ele>605.6</ele>
        <time>2025-02-15T10:04:50.000Z</time>
      </trkpt>
      <trkpt lat="44.10183" lon="3.24053">
        <ele>605.3</ele>
        <time>2025-02-15T10:04:53.000Z</time>
      </trkpt>
      <trkpt lat="44.10173" lon="3.24057">
        <ele>605</ele>
        <time>2025-02-15T10:04:56.000Z</time>
      </trkpt>
      <trkpt lat="44.10164" lon="3.24061">
        <ele>604.6</ele>
        <time>2025-02-15T10:04:59.000Z</time>
      </trkpt>
      <trkpt lat="44.10155" lon="3.24064">
        <ele>604.1</ele>
        <time>2025-02-15T10:05:02.000Z</time>
      </trkpt>
      <trkpt lat="44.10142" lon="3.24066">
        <ele>603.6</ele>
        <time>2025-02-15T10:05:05.000Z</time>
      </trkpt>
      <trkpt lat="44.10132" lon="3.24068">
        <ele>603.1</ele>
        <time>2025-02-15T10:05:07.000Z</time>
      </trkpt>
      <trkpt lat="44.10119" lon="3.24071">
        <ele>602.2</ele>
        <time>2025-02-15T10:05:10.000Z</time>
      </trkpt>
      <trkpt lat="44.10109" lon="3.24073">
        <ele>601.5</ele>
        <time>2025-02-15T10:05:12.000Z</time>
      </trkpt>
      <trkpt lat="44.10099" lon="3.24071">
        <ele>599.7</ele>
        <time>2025-02-15T10:05:17.000Z</time>
      </trkpt>
      <trkpt lat="44.1009" lon="3.2407">
        <ele>598.2</ele>
        <time>2025-02-15T10:05:21.000Z</time>
      </trkpt>
      <trkpt lat="44.10079" lon="3.24074">
        <ele>597.2</ele>
        <time>2025-02-15T10:05:24.000Z</time>
      </trkpt>
      <trkpt lat="44.10068" lon="3.24077">
        <ele>595.7</ele>
        <time>2025-02-15T10:05:27.000Z</time>
      </trkpt>
      <trkpt lat="44.10056" lon="3.24078">
        <ele>593.9</ele>
        <time>2025-02-15T10:05:30.000Z</time>
      </trkpt>
      <trkpt lat="44.10047" lon="3.24081">
        <ele>592</ele>
        <time>2025-02-15T10:05:33.000Z</time>
      </trkpt>
      <trkpt lat="44.10038" lon="3.24086">
        <ele>590.2</ele>
        <time>2025-02-15T10:05:36.000Z</time>
      </trkpt>
      <trkpt lat="44.10028" lon="3.24089">
        <ele>587.8</ele>
        <time>2025-02-15T10:05:40.000Z</time>
      </trkpt>
      <trkpt lat="44.1002" lon="3.24096">
        <ele>586.2</ele>
        <time>2025-02-15T10:05:43.000Z</time>
      </trkpt>
      <trkpt lat="44.10008" lon="3.24104">
        <ele>584.1</ele>
        <time>2025-02-15T10:05:46.000Z</time>
      </trkpt>
      <trkpt lat="44.09999" lon="3.24111">
        <ele>582</ele>
        <time>2025-02-15T10:05:49.000Z</time>
      </trkpt>
      <trkpt lat="44.09989" lon="3.2412">
        <ele>579.4</ele>
        <time>2025-02-15T10:05:53.000Z</time>
      </trkpt>
      <trkpt lat="44.09981" lon="3.24129">
        <ele>576.9</ele>
        <time>2025-02-15T10:05:57.000Z</time>
      </trkpt>
      <trkpt lat="44.09973" lon="3.24142">
        <ele>574.9</ele>
        <time>2025-02-15T10:06:01.000Z</time>
      </trkpt>
      <trkpt lat="44.09964" lon="3.24153">
        <ele>573.6</ele>
        <time>2025-02-15T10:06:04.000Z</time>
      </trkpt>
      <trkpt lat="44.09957" lon="3.24161">
        <ele>572.8</ele>
        <time>2025-02-15T10:06:06.000Z</time>
      </trkpt>
      <trkpt lat="44.09948" lon="3.2417">
        <ele>572.1</ele>
        <time>2025-02-15T10:06:08.000Z</time>
      </trkpt>
      <trkpt lat="44.0994" lon="3.2418">
        <ele>571.4</ele>
        <time>2025-02-15T10:06:10.000Z</time>
      </trkpt>
      <trkpt lat="44.09932" lon="3.24192">
        <ele>570.5</ele>
        <time>2025-02-15T10:06:12.000Z</time>
      </trkpt>
      <trkpt lat="44.0992" lon="3.24198">
        <ele>569.6</ele>
        <time>2025-02-15T10:06:14.000Z</time>
      </trkpt>
      <trkpt lat="44.09911" lon="3.24201">
        <ele>568.7</ele>
        <time>2025-02-15T10:06:16.000Z</time>
      </trkpt>
      <trkpt lat="44.09901" lon="3.24197">
        <ele>566.2</ele>
        <time>2025-02-15T10:06:23.000Z</time>
      </trkpt>
      <trkpt lat="44.09904" lon="3.24212">
        <ele>564.5</ele>
        <time>2025-02-15T10:06:30.000Z</time>
      </trkpt>
      <trkpt lat="44.09897" lon="3.24223">
        <ele>564</ele>
        <time>2025-02-15T10:06:33.000Z</time>
      </trkpt>
      <trkpt lat="44.0989" lon="3.24232">
        <ele>563.5</ele>
        <time>2025-02-15T10:06:36.000Z</time>
      </trkpt>
      <trkpt lat="44.09883" lon="3.24241">
        <ele>563.1</ele>
        <time>2025-02-15T10:06:39.000Z</time>
      </trkpt>
      <trkpt lat="44.09873" lon="3.24246">
        <ele>562.8</ele>
        <time>2025-02-15T10:06:42.000Z</time>
      </trkpt>
      <trkpt lat="44.09863" lon="3.24248">
        <ele>562.5</ele>
        <time>2025-02-15T10:06:45.000Z</time>
      </trkpt>
      <trkpt lat="44.09854" lon="3.24252">
        <ele>562.2</ele>
        <time>2025-02-15T10:06:49.000Z</time>
      </trkpt>
      <trkpt lat="44.09843" lon="3.24258">
        <ele>562</ele>
        <time>2025-02-15T10:06:53.000Z</time>
      </trkpt>
      <trkpt lat="44.09834" lon="3.24263">
        <ele>561.8</ele>
        <time>2025-02-15T10:06:56.000Z</time>
      </trkpt>
      <trkpt lat="44.09827" lon="3.2427">
        <ele>561.7</ele>
        <time>2025-02-15T10:06:59.000Z</time>
      </trkpt>
      <trkpt lat="44.0982" lon="3.24279">
        <ele>561.6</ele>
        <time>2025-02-15T10:07:02.000Z</time>
      </trkpt>
      <trkpt lat="44.09813" lon="3.24289">
        <ele>561.6</ele>
        <time>2025-02-15T10:07:05.000Z</time>
      </trkpt>
      <trkpt lat="44.09807" lon="3.24299">
        <ele>561.6</ele>
        <time>2025-02-15T10:07:08.000Z</time>
      </trkpt>
      <trkpt lat="44.09801" lon="3.24312">
        <ele>561.7</ele>
        <time>2025-02-15T10:07:12.000Z</time>
      </trkpt>
      <trkpt lat="44.09795" lon="3.24323">
        <ele>561.9</ele>
        <time>2025-02-15T10:07:15.000Z</time>
      </trkpt>
      <trkpt lat="44.09788" lon="3.24335">
        <ele>562.1</ele>
        <time>2025-02-15T10:07:19.000Z</time>
      </trkpt>
      <trkpt lat="44.0978" lon="3.24343">
        <ele>562.6</ele>
        <time>2025-02-15T10:07:23.000Z</time>
      </trkpt>
      <trkpt lat="44.09772" lon="3.24353">
        <ele>563</ele>
        <time>2025-02-15T10:07:27.000Z</time>
      </trkpt>
      <trkpt lat="44.09764" lon="3.2436">
        <ele>563.4</ele>
        <time>2025-02-15T10:07:31.000Z</time>
      </trkpt>
      <trkpt lat="44.09755" lon="3.24366">
        <ele>563.9</ele>
        <time>2025-02-15T10:07:36.000Z</time>
      </trkpt>
      <trkpt lat="44.09745" lon="3.24372">
        <ele>564.4</ele>
        <time>2025-02-15T10:07:40.000Z</time>
      </trkpt>
      <trkpt lat="44.09735" lon="3.24377">
        <ele>564.8</ele>
        <time>2025-02-15T10:07:52.000Z</time>
      </trkpt>
      <trkpt lat="44.09726" lon="3.24385">
        <ele>564.8</ele>
        <time>2025-02-15T10:07:56.000Z</time>
      </trkpt>
      <trkpt lat="44.09717" lon="3.24395">
        <ele>564.8</ele>
        <time>2025-02-15T10:07:59.000Z</time>
      </trkpt>
      <trkpt lat="44.09711" lon="3.24405">
        <ele>564.8</ele>
        <time>2025-02-15T10:08:01.000Z</time>
      </trkpt>
      <trkpt lat="44.09704" lon="3.24415">
        <ele>564.7</ele>
        <time>2025-02-15T10:08:03.000Z</time>
      </trkpt>
      <trkpt lat="44.09697" lon="3.2443">
        <ele>564.6</ele>
        <time>2025-02-15T10:08:06.000Z</time>
      </trkpt>
      <trkpt lat="44.09689" lon="3.24445">
        <ele>564.5</ele>
        <time>2025-02-15T10:08:09.000Z</time>
      </trkpt>
      <trkpt lat="44.0968" lon="3.24459">
        <ele>564.4</ele>
        <time>2025-02-15T10:08:12.000Z</time>
      </trkpt>
      <trkpt lat="44.09674" lon="3.24468">
        <ele>564.4</ele>
        <time>2025-02-15T10:08:14.000Z</time>
      </trkpt>
      <trkpt lat="44.09665" lon="3.24481">
        <ele>564.2</ele>
        <time>2025-02-15T10:08:17.000Z</time>
      </trkpt>
      <trkpt lat="44.09657" lon="3.24493">
        <ele>564</ele>
        <time>2025-02-15T10:08:20.000Z</time>
      </trkpt>
      <trkpt lat="44.09647" lon="3.24506">
        <ele>563.9</ele>
        <time>2025-02-15T10:08:23.000Z</time>
      </trkpt>
      <trkpt lat="44.09637" lon="3.24517">
        <ele>563.8</ele>
        <time>2025-02-15T10:08:26.000Z</time>
      </trkpt>
      <trkpt lat="44.09627" lon="3.24526">
        <ele>563.7</ele>
        <time>2025-02-15T10:08:29.000Z</time>
      </trkpt>
      <trkpt lat="44.09616" lon="3.24536">
        <ele>563.6</ele>
        <time>2025-02-15T10:08:32.000Z</time>
      </trkpt>
      <trkpt lat="44.09606" lon="3.24546">
        <ele>563.6</ele>
        <time>2025-02-15T10:08:35.000Z</time>
      </trkpt>
      <trkpt lat="44.09596" lon="3.24554">
        <ele>563.7</ele>
        <time>2025-02-15T10:08:38.000Z</time>
      </trkpt>
      <trkpt lat="44.09587" lon="3.24565">
        <ele>563.8</ele>
        <time>2025-02-15T10:08:41.000Z</time>
      </trkpt>
      <trkpt lat="44.0958" lon="3.24576">
        <ele>563.9</ele>
        <time>2025-02-15T10:08:44.000Z</time>
      </trkpt>
      <trkpt lat="44.09572" lon="3.24586">
        <ele>564</ele>
        <time>2025-02-15T10:08:47.000Z</time>
      </trkpt>
      <trkpt lat="44.09564" lon="3.24596">
        <ele>564.2</ele>
        <time>2025-02-15T10:08:50.000Z</time>
      </trkpt>
      <trkpt lat="44.09556" lon="3.24607">
        <ele>564.4</ele>
        <time>2025-02-15T10:08:53.000Z</time>
      </trkpt>
      <trkpt lat="44.09547" lon="3.24616">
        <ele>564.6</ele>
        <time>2025-02-15T10:08:56.000Z</time>
      </trkpt>
      <trkpt lat="44.09536" lon="3.24621">
        <ele>564.7</ele>
        <time>2025-02-15T10:08:59.000Z</time>
      </trkpt>
      <trkpt lat="44.09524" lon="3.24627">
        <ele>564.9</ele>
        <time>2025-02-15T10:09:02.000Z</time>
      </trkpt>
      <trkpt lat="44.09515" lon="3.24632">
        <ele>565.2</ele>
        <time>2025-02-15T10:09:05.000Z</time>
      </trkpt>
      <trkpt lat="44.09505" lon="3.24639">
        <ele>565.6</ele>
        <time>2025-02-15T10:09:09.000Z</time>
      </trkpt>
      <trkpt lat="44.09495" lon="3.24646">
        <ele>566.1</ele>
        <time>2025-02-15T10:09:13.000Z</time>
      </trkpt>
      <trkpt lat="44.09485" lon="3.2465">
        <ele>566.6</ele>
        <time>2025-02-15T10:09:17.000Z</time>
      </trkpt>
      <trkpt lat="44.09474" lon="3.24653">
        <ele>567</ele>
        <time>2025-02-15T10:09:21.000Z</time>
      </trkpt>
      <trkpt lat="44.09465" lon="3.24657">
        <ele>567.4</ele>
        <time>2025-02-15T10:09:24.000Z</time>
      </trkpt>
      <trkpt lat="44.09456" lon="3.2466">
        <ele>567.7</ele>
        <time>2025-02-15T10:09:27.000Z</time>
      </trkpt>
      <trkpt lat="44.09444" lon="3.24664">
        <ele>568.1</ele>
        <time>2025-02-15T10:09:31.000Z</time>
      </trkpt>
      <trkpt lat="44.09435" lon="3.24668">
        <ele>568.3</ele>
        <time>2025-02-15T10:09:34.000Z</time>
      </trkpt>
      <trkpt lat="44.09426" lon="3.24675">
        <ele>568.6</ele>
        <time>2025-02-15T10:09:38.000Z</time>
      </trkpt>
      <trkpt lat="44.09416" lon="3.24681">
        <ele>568.8</ele>
        <time>2025-02-15T10:09:41.000Z</time>
      </trkpt>
      <trkpt lat="44.09404" lon="3.24684">
        <ele>569</ele>
        <time>2025-02-15T10:09:44.000Z</time>
      </trkpt>
      <trkpt lat="44.09392" lon="3.24685">
        <ele>569.1</ele>
        <time>2025-02-15T10:09:47.000Z</time>
      </trkpt>
      <trkpt lat="44.09381" lon="3.24687">
        <ele>569.2</ele>
        <time>2025-02-15T10:09:50.000Z</time>
      </trkpt>
      <trkpt lat="44.09369" lon="3.2469">
        <ele>569.3</ele>
        <time>2025-02-15T10:09:53.000Z</time>
      </trkpt>
      <trkpt lat="44.0936" lon="3.24694">
        <ele>569.3</ele>
        <time>2025-02-15T10:09:55.000Z</time>
      </trkpt>
      <trkpt lat="44.0935" lon="3.24696">
        <ele>569.4</ele>
        <time>2025-02-15T10:09:57.000Z</time>
      </trkpt>
      <trkpt lat="44.0934" lon="3.24699">
        <ele>569.4</ele>
        <time>2025-02-15T10:09:59.000Z</time>
      </trkpt>
      <trkpt lat="44.09331" lon="3.24704">
        <ele>569.4</ele>
        <time>2025-02-15T10:10:01.000Z</time>
      </trkpt>
      <trkpt lat="44.09321" lon="3.2471">
        <ele>569.2</ele>
        <time>2025-02-15T10:10:03.000Z</time>
      </trkpt>
      <trkpt lat="44.09311" lon="3.24716">
        <ele>569</ele>
        <time>2025-02-15T10:10:05.000Z</time>
      </trkpt>
      <trkpt lat="44.09302" lon="3.2472">
        <ele>568.9</ele>
        <time>2025-02-15T10:10:07.000Z</time>
      </trkpt>
      <trkpt lat="44.09293" lon="3.24723">
        <ele>568.7</ele>
        <time>2025-02-15T10:10:09.000Z</time>
      </trkpt>
      <trkpt lat="44.09281" lon="3.24726">
        <ele>568.5</ele>
        <time>2025-02-15T10:10:12.000Z</time>
      </trkpt>
      <trkpt lat="44.0927" lon="3.24729">
        <ele>568.2</ele>
        <time>2025-02-15T10:10:15.000Z</time>
      </trkpt>
      <trkpt lat="44.09261" lon="3.24732">
        <ele>568.1</ele>
        <time>2025-02-15T10:10:18.000Z</time>
      </trkpt>
      <trkpt lat="44.09252" lon="3.24733">
        <ele>568</ele>
        <time>2025-02-15T10:10:21.000Z</time>
      </trkpt>
      <trkpt lat="44.0924" lon="3.24734">
        <ele>568</ele>
        <time>2025-02-15T10:10:25.000Z</time>
      </trkpt>
      <trkpt lat="44.09231" lon="3.24732">
        <ele>568.1</ele>
        <time>2025-02-15T10:10:30.000Z</time>
      </trkpt>
      <trkpt lat="44.09223" lon="3.24739">
        <ele>568.3</ele>
        <time>2025-02-15T10:10:37.000Z</time>
      </trkpt>
      <trkpt lat="44.09228" lon="3.2475">
        <ele>568.3</ele>
        <time>2025-02-15T10:10:44.000Z</time>
      </trkpt>
      <trkpt lat="44.09232" lon="3.24764">
        <ele>568.4</ele>
        <time>2025-02-15T10:10:48.000Z</time>
      </trkpt>
      <trkpt lat="44.09239" lon="3.24778">
        <ele>568.4</ele>
        <time>2025-02-15T10:10:52.000Z</time>
      </trkpt>
      <trkpt lat="44.09245" lon="3.24792">
        <ele>568.5</ele>
        <time>2025-02-15T10:10:56.000Z</time>
      </trkpt>
      <trkpt lat="44.0925" lon="3.24802">
        <ele>568.6</ele>
        <time>2025-02-15T10:10:59.000Z</time>
      </trkpt>
      <trkpt lat="44.09259" lon="3.2481">
        <ele>568.7</ele>
        <time>2025-02-15T10:11:04.000Z</time>
      </trkpt>
      <trkpt lat="44.09268" lon="3.24817">
        <ele>568.3</ele>
        <time>2025-02-15T10:11:08.000Z</time>
      </trkpt>
      <trkpt lat="44.09277" lon="3.24824">
        <ele>568.5</ele>
        <time>2025-02-15T10:11:41.000Z</time>
      </trkpt>
      <trkpt lat="44.09284" lon="3.24835">
        <ele>568.5</ele>
        <time>2025-02-15T10:11:45.000Z</time>
      </trkpt>
      <trkpt lat="44.09291" lon="3.24846">
        <ele>568.5</ele>
        <time>2025-02-15T10:11:48.000Z</time>
      </trkpt>
      <trkpt lat="44.09298" lon="3.24854">
        <ele>568.5</ele>
        <time>2025-02-15T10:11:51.000Z</time>
      </trkpt>
      <trkpt lat="44.09307" lon="3.24859">
        <ele>568.4</ele>
        <time>2025-02-15T10:11:54.000Z</time>
      </trkpt>
      <trkpt lat="44.09316" lon="3.24865">
        <ele>568.4</ele>
        <time>2025-02-15T10:11:57.000Z</time>
      </trkpt>
      <trkpt lat="44.09325" lon="3.24872">
        <ele>568.3</ele>
        <time>2025-02-15T10:12:00.000Z</time>
      </trkpt>
      <trkpt lat="44.09335" lon="3.24881">
        <ele>568.3</ele>
        <time>2025-02-15T10:12:04.000Z</time>
      </trkpt>
      <trkpt lat="44.09342" lon="3.24889">
        <ele>568.2</ele>
        <time>2025-02-15T10:12:07.000Z</time>
      </trkpt>
      <trkpt lat="44.09349" lon="3.24898">
        <ele>568.2</ele>
        <time>2025-02-15T10:12:10.000Z</time>
      </trkpt>
      <trkpt lat="44.09355" lon="3.24907">
        <ele>568.3</ele>
        <time>2025-02-15T10:12:13.000Z</time>
      </trkpt>
      <trkpt lat="44.09362" lon="3.24917">
        <ele>568.3</ele>
        <time>2025-02-15T10:12:16.000Z</time>
      </trkpt>
      <trkpt lat="44.09369" lon="3.24926">
        <ele>568.4</ele>
        <time>2025-02-15T10:12:19.000Z</time>
      </trkpt>
      <trkpt lat="44.09376" lon="3.24935">
        <ele>568.5</ele>
        <time>2025-02-15T10:12:22.000Z</time>
      </trkpt>
      <trkpt lat="44.09384" lon="3.24947">
        <ele>568.7</ele>
        <time>2025-02-15T10:12:26.000Z</time>
      </trkpt>
      <trkpt lat="44.09392" lon="3.24958">
        <ele>569</ele>
        <time>2025-02-15T10:12:30.000Z</time>
      </trkpt>
      <trkpt lat="44.09398" lon="3.24967">
        <ele>569.2</ele>
        <time>2025-02-15T10:12:33.000Z</time>
      </trkpt>
      <trkpt lat="44.09406" lon="3.24975">
        <ele>569.4</ele>
        <time>2025-02-15T10:12:36.000Z</time>
      </trkpt>
      <trkpt lat="44.09415" lon="3.24985">
        <ele>569.6</ele>
        <time>2025-02-15T10:12:40.000Z</time>
      </trkpt>
      <trkpt lat="44.09423" lon="3.24995">
        <ele>569.8</ele>
        <time>2025-02-15T10:12:44.000Z</time>
      </trkpt>
      <trkpt lat="44.09431" lon="3.25007">
        <ele>570</ele>
        <time>2025-02-15T10:12:48.000Z</time>
      </trkpt>
      <trkpt lat="44.09439" lon="3.25018">
        <ele>570.1</ele>
        <time>2025-02-15T10:12:52.000Z</time>
      </trkpt>
      <trkpt lat="44.09445" lon="3.25028">
        <ele>570.2</ele>
        <time>2025-02-15T10:12:56.000Z</time>
      </trkpt>
      <trkpt lat="44.09451" lon="3.25039">
        <ele>570.3</ele>
        <time>2025-02-15T10:13:02.000Z</time>
      </trkpt>
      <trkpt lat="44.09458" lon="3.25048">
        <ele>570.4</ele>
        <time>2025-02-15T10:13:07.000Z</time>
      </trkpt>
      <trkpt lat="44.09465" lon="3.25056">
        <ele>570.4</ele>
        <time>2025-02-15T10:13:14.000Z</time>
      </trkpt>
      <trkpt lat="44.09474" lon="3.25064">
        <ele>570</ele>
        <time>2025-02-15T10:13:21.000Z</time>
      </trkpt>
      <trkpt lat="44.09483" lon="3.2507">
        <ele>569.7</ele>
        <time>2025-02-15T10:13:24.000Z</time>
      </trkpt>
      <trkpt lat="44.09493" lon="3.25075">
        <ele>569.1</ele>
        <time>2025-02-15T10:13:27.000Z</time>
      </trkpt>
      <trkpt lat="44.09502" lon="3.2508">
        <ele>566.8</ele>
        <time>2025-02-15T10:13:37.000Z</time>
      </trkpt>
      <trkpt lat="44.09511" lon="3.25074">
        <ele>565.7</ele>
        <time>2025-02-15T10:13:44.000Z</time>
      </trkpt>
      <trkpt lat="44.0952" lon="3.25073">
        <ele>565</ele>
        <time>2025-02-15T10:13:48.000Z</time>
      </trkpt>
      <trkpt lat="44.0953" lon="3.25072">
        <ele>564.1</ele>
        <time>2025-02-15T10:13:52.000Z</time>
      </trkpt>
      <trkpt lat="44.09539" lon="3.25077">
        <ele>562.5</ele>
        <time>2025-02-15T10:13:58.000Z</time>
      </trkpt>
      <trkpt lat="44.09548" lon="3.25078">
        <ele>561.6</ele>
        <time>2025-02-15T10:14:01.000Z</time>
      </trkpt>
      <trkpt lat="44.09558" lon="3.25079">
        <ele>560.5</ele>
        <time>2025-02-15T10:14:04.000Z</time>
      </trkpt>
      <trkpt lat="44.09568" lon="3.25086">
        <ele>558.8</ele>
        <time>2025-02-15T10:14:09.000Z</time>
      </trkpt>
      <trkpt lat="44.09578" lon="3.25091">
        <ele>557.4</ele>
        <time>2025-02-15T10:14:13.000Z</time>
      </trkpt>
      <trkpt lat="44.09588" lon="3.25095">
        <ele>556.1</ele>
        <time>2025-02-15T10:14:17.000Z</time>
      </trkpt>
      <trkpt lat="44.09596" lon="3.25103">
        <ele>555.1</ele>
        <time>2025-02-15T10:14:20.000Z</time>
      </trkpt>
      <trkpt lat="44.09604" lon="3.25109">
        <ele>553.9</ele>
        <time>2025-02-15T10:14:24.000Z</time>
      </trkpt>
      <trkpt lat="44.09614" lon="3.25118">
        <ele>552.5</ele>
        <time>2025-02-15T10:14:29.000Z</time>
      </trkpt>
      <trkpt lat="44.09625" lon="3.25122">
        <ele>551.5</ele>
        <time>2025-02-15T10:14:33.000Z</time>
      </trkpt>
      <trkpt lat="44.09632" lon="3.2513">
        <ele>550.9</ele>
        <time>2025-02-15T10:14:36.000Z</time>
      </trkpt>
      <trkpt lat="44.0964" lon="3.2514">
        <ele>550.4</ele>
        <time>2025-02-15T10:14:39.000Z</time>
      </trkpt>
      <trkpt lat="44.09648" lon="3.25146">
        <ele>550.1</ele>
        <time>2025-02-15T10:14:41.000Z</time>
      </trkpt>
      <trkpt lat="44.09658" lon="3.25153">
        <ele>549.4</ele>
        <time>2025-02-15T10:14:44.000Z</time>
      </trkpt>
      <trkpt lat="44.09665" lon="3.25161">
        <ele>548.9</ele>
        <time>2025-02-15T10:14:46.000Z</time>
      </trkpt>
      <trkpt lat="44.09675" lon="3.2517">
        <ele>548</ele>
        <time>2025-02-15T10:14:49.000Z</time>
      </trkpt>
      <trkpt lat="44.09683" lon="3.25182">
        <ele>547</ele>
        <time>2025-02-15T10:14:52.000Z</time>
      </trkpt>
      <trkpt lat="44.09694" lon="3.25191">
        <ele>545.8</ele>
        <time>2025-02-15T10:14:55.000Z</time>
      </trkpt>
      <trkpt lat="44.09702" lon="3.25201">
        <ele>544.7</ele>
        <time>2025-02-15T10:14:58.000Z</time>
      </trkpt>
      <trkpt lat="44.09713" lon="3.25211">
        <ele>543.8</ele>
        <time>2025-02-15T10:15:01.000Z</time>
      </trkpt>
      <trkpt lat="44.09721" lon="3.25221">
        <ele>543</ele>
        <time>2025-02-15T10:15:04.000Z</time>
      </trkpt>
      <trkpt lat="44.09728" lon="3.25232">
        <ele>542</ele>
        <time>2025-02-15T10:15:08.000Z</time>
      </trkpt>
      <trkpt lat="44.09737" lon="3.25241">
        <ele>539.7</ele>
        <time>2025-02-15T10:15:25.000Z</time>
      </trkpt>
      <trkpt lat="44.09746" lon="3.25247">
        <ele>539.3</ele>
        <time>2025-02-15T10:15:29.000Z</time>
      </trkpt>
      <trkpt lat="44.0975" lon="3.25259">
        <ele>538.7</ele>
        <time>2025-02-15T10:15:36.000Z</time>
      </trkpt>
      <trkpt lat="44.09763" lon="3.25262">
        <ele>537</ele>
        <time>2025-02-15T10:16:00.000Z</time>
      </trkpt>
      <trkpt lat="44.09772" lon="3.25265">
        <ele>536.6</ele>
        <time>2025-02-15T10:16:03.000Z</time>
      </trkpt>
      <trkpt lat="44.09781" lon="3.2527">
        <ele>536.1</ele>
        <time>2025-02-15T10:16:06.000Z</time>
      </trkpt>
      <trkpt lat="44.0979" lon="3.25275">
        <ele>535.4</ele>
        <time>2025-02-15T10:16:09.000Z</time>
      </trkpt>
      <trkpt lat="44.09799" lon="3.25278">
        <ele>534.6</ele>
        <time>2025-02-15T10:16:12.000Z</time>
      </trkpt>
      <trkpt lat="44.09809" lon="3.25284">
        <ele>533.7</ele>
        <time>2025-02-15T10:16:15.000Z</time>
      </trkpt>
      <trkpt lat="44.09818" lon="3.25292">
        <ele>532.6</ele>
        <time>2025-02-15T10:16:18.000Z</time>
      </trkpt>
      <trkpt lat="44.09827" lon="3.25296">
        <ele>531.3</ele>
        <time>2025-02-15T10:16:21.000Z</time>
      </trkpt>
      <trkpt lat="44.09836" lon="3.25301">
        <ele>528.3</ele>
        <time>2025-02-15T10:16:29.000Z</time>
      </trkpt>
      <trkpt lat="44.09849" lon="3.25305">
        <ele>522.4</ele>
        <time>2025-02-15T10:17:25.000Z</time>
      </trkpt>
      <trkpt lat="44.0986" lon="3.25308">
        <ele>522.2</ele>
        <time>2025-02-15T10:17:28.000Z</time>
      </trkpt>
      <trkpt lat="44.09871" lon="3.25314">
        <ele>521.5</ele>
        <time>2025-02-15T10:17:31.000Z</time>
      </trkpt>
      <trkpt lat="44.09882" lon="3.25321">
        <ele>520.7</ele>
        <time>2025-02-15T10:17:34.000Z</time>
      </trkpt>
      <trkpt lat="44.09889" lon="3.25332">
        <ele>519.6</ele>
        <time>2025-02-15T10:17:38.000Z</time>
      </trkpt>
      <trkpt lat="44.09895" lon="3.25341">
        <ele>518.9</ele>
        <time>2025-02-15T10:17:42.000Z</time>
      </trkpt>
      <trkpt lat="44.09903" lon="3.25352">
        <ele>518.3</ele>
        <time>2025-02-15T10:17:47.000Z</time>
      </trkpt>
      <trkpt lat="44.0991" lon="3.25361">
        <ele>518</ele>
        <time>2025-02-15T10:17:51.000Z</time>
      </trkpt>
      <trkpt lat="44.09917" lon="3.25371">
        <ele>517.6</ele>
        <time>2025-02-15T10:17:59.000Z</time>
      </trkpt>
      <trkpt lat="44.09923" lon="3.25382">
        <ele>517.5</ele>
        <time>2025-02-15T10:18:04.000Z</time>
      </trkpt>
      <trkpt lat="44.0993" lon="3.25392">
        <ele>517.4</ele>
        <time>2025-02-15T10:18:08.000Z</time>
      </trkpt>
      <trkpt lat="44.09936" lon="3.25403">
        <ele>517.4</ele>
        <time>2025-02-15T10:18:12.000Z</time>
      </trkpt>
      <trkpt lat="44.09941" lon="3.25414">
        <ele>517.3</ele>
        <time>2025-02-15T10:18:15.000Z</time>
      </trkpt>
      <trkpt lat="44.09947" lon="3.25425">
        <ele>516.9</ele>
        <time>2025-02-15T10:18:18.000Z</time>
      </trkpt>
      <trkpt lat="44.09954" lon="3.25434">
        <ele>516.3</ele>
        <time>2025-02-15T10:18:21.000Z</time>
      </trkpt>
      <trkpt lat="44.09963" lon="3.25438">
        <ele>515.8</ele>
        <time>2025-02-15T10:18:24.000Z</time>
      </trkpt>
      <trkpt lat="44.09973" lon="3.25443">
        <ele>515.1</ele>
        <time>2025-02-15T10:18:27.000Z</time>
      </trkpt>
      <trkpt lat="44.09985" lon="3.25449">
        <ele>514.3</ele>
        <time>2025-02-15T10:18:30.000Z</time>
      </trkpt>
      <trkpt lat="44.09993" lon="3.25456">
        <ele>513.7</ele>
        <time>2025-02-15T10:18:32.000Z</time>
      </trkpt>
      <trkpt lat="44.10001" lon="3.25462">
        <ele>512.9</ele>
        <time>2025-02-15T10:18:34.000Z</time>
      </trkpt>
      <trkpt lat="44.10011" lon="3.2547">
        <ele>511.9</ele>
        <time>2025-02-15T10:18:36.000Z</time>
      </trkpt>
      <trkpt lat="44.10019" lon="3.25475">
        <ele>510.9</ele>
        <time>2025-02-15T10:18:38.000Z</time>
      </trkpt>
      <trkpt lat="44.10029" lon="3.25479">
        <ele>509.3</ele>
        <time>2025-02-15T10:18:41.000Z</time>
      </trkpt>
      <trkpt lat="44.10039" lon="3.25484">
        <ele>507.7</ele>
        <time>2025-02-15T10:18:44.000Z</time>
      </trkpt>
      <trkpt lat="44.10048" lon="3.2549">
        <ele>506.5</ele>
        <time>2025-02-15T10:18:46.000Z</time>
      </trkpt>
      <trkpt lat="44.10059" lon="3.25497">
        <ele>504.5</ele>
        <time>2025-02-15T10:18:49.000Z</time>
      </trkpt>
      <trkpt lat="44.10069" lon="3.25496">
        <ele>502.8</ele>
        <time>2025-02-15T10:18:52.000Z</time>
      </trkpt>
      <trkpt lat="44.10082" lon="3.255">
        <ele>501</ele>
        <time>2025-02-15T10:18:55.000Z</time>
      </trkpt>
      <trkpt lat="44.1009" lon="3.25505">
        <ele>499.1</ele>
        <time>2025-02-15T10:18:58.000Z</time>
      </trkpt>
      <trkpt lat="44.101" lon="3.25508">
        <ele>497.1</ele>
        <time>2025-02-15T10:19:01.000Z</time>
      </trkpt>
      <trkpt lat="44.10109" lon="3.2551">
        <ele>493.8</ele>
        <time>2025-02-15T10:19:06.000Z</time>
      </trkpt>
      <trkpt lat="44.10115" lon="3.25521">
        <ele>491.9</ele>
        <time>2025-02-15T10:19:09.000Z</time>
      </trkpt>
      <trkpt lat="44.10123" lon="3.25535">
        <ele>489.7</ele>
        <time>2025-02-15T10:19:12.000Z</time>
      </trkpt>
      <trkpt lat="44.10128" lon="3.25546">
        <ele>488.3</ele>
        <time>2025-02-15T10:19:14.000Z</time>
      </trkpt>
      <trkpt lat="44.10134" lon="3.25557">
        <ele>486</ele>
        <time>2025-02-15T10:19:17.000Z</time>
      </trkpt>
      <trkpt lat="44.10143" lon="3.2555">
        <ele>482</ele>
        <time>2025-02-15T10:19:23.000Z</time>
      </trkpt>
      <trkpt lat="44.10152" lon="3.25556">
        <ele>479.3</ele>
        <time>2025-02-15T10:19:27.000Z</time>
      </trkpt>
      <trkpt lat="44.10156" lon="3.25568">
        <ele>477.1</ele>
        <time>2025-02-15T10:19:30.000Z</time>
      </trkpt>
      <trkpt lat="44.10165" lon="3.25564">
        <ele>472.7</ele>
        <time>2025-02-15T10:19:37.000Z</time>
      </trkpt>
      <trkpt lat="44.10173" lon="3.25555">
        <ele>471.4</ele>
        <time>2025-02-15T10:19:39.000Z</time>
      </trkpt>
      <trkpt lat="44.10181" lon="3.25544">
        <ele>470.1</ele>
        <time>2025-02-15T10:19:41.000Z</time>
      </trkpt>
      <trkpt lat="44.10189" lon="3.25536">
        <ele>468.7</ele>
        <time>2025-02-15T10:19:43.000Z</time>
      </trkpt>
      <trkpt lat="44.10191" lon="3.2555">
        <ele>466</ele>
        <time>2025-02-15T10:19:47.000Z</time>
      </trkpt>
      <trkpt lat="44.10194" lon="3.25567">
        <ele>463.8</ele>
        <time>2025-02-15T10:19:50.000Z</time>
      </trkpt>
      <trkpt lat="44.102" lon="3.25582">
        <ele>461.5</ele>
        <time>2025-02-15T10:19:53.000Z</time>
      </trkpt>
      <trkpt lat="44.10209" lon="3.25589">
        <ele>458.3</ele>
        <time>2025-02-15T10:19:57.000Z</time>
      </trkpt>
      <trkpt lat="44.10219" lon="3.25596">
        <ele>455.8</ele>
        <time>2025-02-15T10:20:00.000Z</time>
      </trkpt>
      <trkpt lat="44.10228" lon="3.25603">
        <ele>454.1</ele>
        <time>2025-02-15T10:20:02.000Z</time>
      </trkpt>
      <trkpt lat="44.1024" lon="3.25608">
        <ele>452.4</ele>
        <time>2025-02-15T10:20:04.000Z</time>
      </trkpt>
      <trkpt lat="44.10249" lon="3.25611">
        <ele>450.6</ele>
        <time>2025-02-15T10:20:06.000Z</time>
      </trkpt>
      <trkpt lat="44.10258" lon="3.2561">
        <ele>448</ele>
        <time>2025-02-15T10:20:09.000Z</time>
      </trkpt>
      <trkpt lat="44.10267" lon="3.25619">
        <ele>442.1</ele>
        <time>2025-02-15T10:20:18.000Z</time>
      </trkpt>
      <trkpt lat="44.10275" lon="3.25625">
        <ele>440.1</ele>
        <time>2025-02-15T10:20:21.000Z</time>
      </trkpt>
      <trkpt lat="44.10278" lon="3.25638">
        <ele>437.9</ele>
        <time>2025-02-15T10:20:24.000Z</time>
      </trkpt>
      <trkpt lat="44.10284" lon="3.25649">
        <ele>435.4</ele>
        <time>2025-02-15T10:20:27.000Z</time>
      </trkpt>
      <trkpt lat="44.10291" lon="3.25661">
        <ele>433.1</ele>
        <time>2025-02-15T10:20:30.000Z</time>
      </trkpt>
      <trkpt lat="44.10299" lon="3.25672">
        <ele>430.4</ele>
        <time>2025-02-15T10:20:33.000Z</time>
      </trkpt>
      <trkpt lat="44.10304" lon="3.25684">
        <ele>427.7</ele>
        <time>2025-02-15T10:20:36.000Z</time>
      </trkpt>
      <trkpt lat="44.1031" lon="3.25698">
        <ele>424.2</ele>
        <time>2025-02-15T10:20:40.000Z</time>
      </trkpt>
      <trkpt lat="44.10316" lon="3.2571">
        <ele>410.4</ele>
        <time>2025-02-15T10:21:12.000Z</time>
      </trkpt>
      <trkpt lat="44.10318" lon="3.25724">
        <ele>407.3</ele>
        <time>2025-02-15T10:21:24.000Z</time>
      </trkpt>
      <trkpt lat="44.10327" lon="3.2573">
        <ele>406.3</ele>
        <time>2025-02-15T10:21:27.000Z</time>
      </trkpt>
      <trkpt lat="44.10333" lon="3.25742">
        <ele>400.2</ele>
        <time>2025-02-15T10:21:40.000Z</time>
      </trkpt>
      <trkpt lat="44.10341" lon="3.2575">
        <ele>397.4</ele>
        <time>2025-02-15T10:21:45.000Z</time>
      </trkpt>
      <trkpt lat="44.10342" lon="3.25762">
        <ele>393.6</ele>
        <time>2025-02-15T10:21:52.000Z</time>
      </trkpt>
      <trkpt lat="44.10337" lon="3.25751">
        <ele>390.5</ele>
        <time>2025-02-15T10:21:59.000Z</time>
      </trkpt>
      <trkpt lat="44.10334" lon="3.25763">
        <ele>388.5</ele>
        <time>2025-02-15T10:22:03.000Z</time>
      </trkpt>
      <trkpt lat="44.10337" lon="3.25777">
        <ele>386.7</ele>
        <time>2025-02-15T10:22:06.000Z</time>
      </trkpt>
      <trkpt lat="44.10343" lon="3.25787">
        <ele>384.9</ele>
        <time>2025-02-15T10:22:09.000Z</time>
      </trkpt>
      <trkpt lat="44.10348" lon="3.25803">
        <ele>382.2</ele>
        <time>2025-02-15T10:22:13.000Z</time>
      </trkpt>
      <trkpt lat="44.10351" lon="3.25816">
        <ele>380</ele>
        <time>2025-02-15T10:22:16.000Z</time>
      </trkpt>
      <trkpt lat="44.10356" lon="3.2583">
        <ele>377</ele>
        <time>2025-02-15T10:22:20.000Z</time>
      </trkpt>
      <trkpt lat="44.10358" lon="3.25843">
        <ele>365.2</ele>
        <time>2025-02-15T10:23:09.000Z</time>
      </trkpt>
      <trkpt lat="44.10363" lon="3.25856">
        <ele>364.3</ele>
        <time>2025-02-15T10:23:13.000Z</time>
      </trkpt>
      <trkpt lat="44.10369" lon="3.25865">
        <ele>363.2</ele>
        <time>2025-02-15T10:23:16.000Z</time>
      </trkpt>
      <trkpt lat="44.10377" lon="3.25878">
        <ele>361.5</ele>
        <time>2025-02-15T10:23:20.000Z</time>
      </trkpt>
      <trkpt lat="44.10366" lon="3.25877">
        <ele>357.5</ele>
        <time>2025-02-15T10:23:29.000Z</time>
      </trkpt>
      <trkpt lat="44.10356" lon="3.25875">
        <ele>355.7</ele>
        <time>2025-02-15T10:23:33.000Z</time>
      </trkpt>
      <trkpt lat="44.1035" lon="3.25887">
        <ele>353.2</ele>
        <time>2025-02-15T10:23:38.000Z</time>
      </trkpt>
      <trkpt lat="44.10354" lon="3.25899">
        <ele>351.1</ele>
        <time>2025-02-15T10:23:42.000Z</time>
      </trkpt>
      <trkpt lat="44.10355" lon="3.25915">
        <ele>347.6</ele>
        <time>2025-02-15T10:23:50.000Z</time>
      </trkpt>
      <trkpt lat="44.10357" lon="3.25933">
        <ele>346.1</ele>
        <time>2025-02-15T10:23:53.000Z</time>
      </trkpt>
      <trkpt lat="44.10357" lon="3.25946">
        <ele>345.1</ele>
        <time>2025-02-15T10:23:55.000Z</time>
      </trkpt>
      <trkpt lat="44.10358" lon="3.25962">
        <ele>343.3</ele>
        <time>2025-02-15T10:23:58.000Z</time>
      </trkpt>
      <trkpt lat="44.1036" lon="3.25975">
        <ele>341.3</ele>
        <time>2025-02-15T10:24:01.000Z</time>
      </trkpt>
      <trkpt lat="44.10364" lon="3.25991">
        <ele>339.2</ele>
        <time>2025-02-15T10:24:04.000Z</time>
      </trkpt>
      <trkpt lat="44.10367" lon="3.26004">
        <ele>337.9</ele>
        <time>2025-02-15T10:24:06.000Z</time>
      </trkpt>
      <trkpt lat="44.10371" lon="3.26015">
        <ele>336.5</ele>
        <time>2025-02-15T10:24:08.000Z</time>
      </trkpt>
      <trkpt lat="44.10376" lon="3.26027">
        <ele>335</ele>
        <time>2025-02-15T10:24:10.000Z</time>
      </trkpt>
      <trkpt lat="44.1038" lon="3.26038">
        <ele>333.7</ele>
        <time>2025-02-15T10:24:12.000Z</time>
      </trkpt>
      <trkpt lat="44.10384" lon="3.2605">
        <ele>332</ele>
        <time>2025-02-15T10:24:14.000Z</time>
      </trkpt>
      <trkpt lat="44.10385" lon="3.26064">
        <ele>329.8</ele>
        <time>2025-02-15T10:24:17.000Z</time>
      </trkpt>
      <trkpt lat="44.10389" lon="3.26079">
        <ele>326.8</ele>
        <time>2025-02-15T10:24:21.000Z</time>
      </trkpt>
      <trkpt lat="44.10399" lon="3.26074">
        <ele>323.2</ele>
        <time>2025-02-15T10:24:26.000Z</time>
      </trkpt>
      <trkpt lat="44.10398" lon="3.26061">
        <ele>321.4</ele>
        <time>2025-02-15T10:24:29.000Z</time>
      </trkpt>
      <trkpt lat="44.10404" lon="3.26072">
        <ele>316.3</ele>
        <time>2025-02-15T10:24:38.000Z</time>
      </trkpt>
      <trkpt lat="44.10409" lon="3.26084">
        <ele>314</ele>
        <time>2025-02-15T10:24:42.000Z</time>
      </trkpt>
      <trkpt lat="44.10413" lon="3.26096">
        <ele>312.1</ele>
        <time>2025-02-15T10:24:45.000Z</time>
      </trkpt>
      <trkpt lat="44.10416" lon="3.26112">
        <ele>309.5</ele>
        <time>2025-02-15T10:24:49.000Z</time>
      </trkpt>
      <trkpt lat="44.1042" lon="3.26124">
        <ele>306.9</ele>
        <time>2025-02-15T10:24:53.000Z</time>
      </trkpt>
      <trkpt lat="44.10425" lon="3.26136">
        <ele>304.3</ele>
        <time>2025-02-15T10:24:57.000Z</time>
      </trkpt>
      <trkpt lat="44.10432" lon="3.26147">
        <ele>302.2</ele>
        <time>2025-02-15T10:25:00.000Z</time>
      </trkpt>
      <trkpt lat="44.10436" lon="3.26161">
        <ele>299.2</ele>
        <time>2025-02-15T10:25:04.000Z</time>
      </trkpt>
      <trkpt lat="44.10442" lon="3.26174">
        <ele>295</ele>
        <time>2025-02-15T10:25:10.000Z</time>
      </trkpt>
      <trkpt lat="44.10448" lon="3.26185">
        <ele>291.6</ele>
        <time>2025-02-15T10:25:15.000Z</time>
      </trkpt>
      <trkpt lat="44.10452" lon="3.26197">
        <ele>284.9</ele>
        <time>2025-02-15T10:25:31.000Z</time>
      </trkpt>
      <trkpt lat="44.10462" lon="3.26195">
        <ele>280.4</ele>
        <time>2025-02-15T10:26:21.000Z</time>
      </trkpt>
      <trkpt lat="44.10452" lon="3.26194">
        <ele>280.2</ele>
        <time>2025-02-15T10:27:32.000Z</time>
      </trkpt>
      <trkpt lat="44.10444" lon="3.26184">
        <ele>280.2</ele>
        <time>2025-02-15T10:27:37.000Z</time>
      </trkpt>
      <trkpt lat="44.10434" lon="3.26177">
        <ele>280.1</ele>
        <time>2025-02-15T10:27:41.000Z</time>
      </trkpt>
      <trkpt lat="44.10424" lon="3.26172">
        <ele>279.6</ele>
        <time>2025-02-15T10:27:44.000Z</time>
      </trkpt>
      <trkpt lat="44.10413" lon="3.26167">
        <ele>278.6</ele>
        <time>2025-02-15T10:27:48.000Z</time>
      </trkpt>
      <trkpt lat="44.10402" lon="3.26163">
        <ele>277.6</ele>
        <time>2025-02-15T10:27:51.000Z</time>
      </trkpt>
      <trkpt lat="44.10394" lon="3.26159">
        <ele>276.6</ele>
        <time>2025-02-15T10:27:54.000Z</time>
      </trkpt>
      <trkpt lat="44.10384" lon="3.26156">
        <ele>275.4</ele>
        <time>2025-02-15T10:27:57.000Z</time>
      </trkpt>
      <trkpt lat="44.10374" lon="3.26155">
        <ele>274.2</ele>
        <time>2025-02-15T10:28:00.000Z</time>
      </trkpt>
      <trkpt lat="44.10362" lon="3.26154">
        <ele>272.9</ele>
        <time>2025-02-15T10:28:03.000Z</time>
      </trkpt>
      <trkpt lat="44.10351" lon="3.26154">
        <ele>271.8</ele>
        <time>2025-02-15T10:28:06.000Z</time>
      </trkpt>
      <trkpt lat="44.1034" lon="3.26151">
        <ele>270.3</ele>
        <time>2025-02-15T10:28:11.000Z</time>
      </trkpt>
      <trkpt lat="44.10331" lon="3.26156">
        <ele>269.3</ele>
        <time>2025-02-15T10:28:15.000Z</time>
      </trkpt>
      <trkpt lat="44.10322" lon="3.26159">
        <ele>267.4</ele>
        <time>2025-02-15T10:28:20.000Z</time>
      </trkpt>
      <trkpt lat="44.10331" lon="3.26168">
        <ele>265.2</ele>
        <time>2025-02-15T10:28:26.000Z</time>
      </trkpt>
      <trkpt lat="44.10341" lon="3.26175">
        <ele>262.8</ele>
        <time>2025-02-15T10:28:31.000Z</time>
      </trkpt>
      <trkpt lat="44.1035" lon="3.26182">
        <ele>260.7</ele>
        <time>2025-02-15T10:28:35.000Z</time>
      </trkpt>
      <trkpt lat="44.10339" lon="3.26184">
        <ele>251.5</ele>
        <time>2025-02-15T10:29:13.000Z</time>
      </trkpt>
      <trkpt lat="44.1033" lon="3.2618">
        <ele>251.3</ele>
        <time>2025-02-15T10:29:16.000Z</time>
      </trkpt>
      <trkpt lat="44.1032" lon="3.26177">
        <ele>251.2</ele>
        <time>2025-02-15T10:29:19.000Z</time>
      </trkpt>
      <trkpt lat="44.10309" lon="3.26174">
        <ele>251</ele>
        <time>2025-02-15T10:29:22.000Z</time>
      </trkpt>
      <trkpt lat="44.10298" lon="3.26172">
        <ele>251</ele>
        <time>2025-02-15T10:29:25.000Z</time>
      </trkpt>
      <trkpt lat="44.10286" lon="3.26171">
        <ele>250.9</ele>
        <time>2025-02-15T10:29:28.000Z</time>
      </trkpt>
      <trkpt lat="44.10275" lon="3.2617">
        <ele>250.8</ele>
        <time>2025-02-15T10:29:31.000Z</time>
      </trkpt>
      <trkpt lat="44.10263" lon="3.26169">
        <ele>250.8</ele>
        <time>2025-02-15T10:29:34.000Z</time>
      </trkpt>
      <trkpt lat="44.10251" lon="3.26169">
        <ele>250.7</ele>
        <time>2025-02-15T10:29:37.000Z</time>
      </trkpt>
      <trkpt lat="44.10239" lon="3.26169">
        <ele>250.7</ele>
        <time>2025-02-15T10:29:40.000Z</time>
      </trkpt>
      <trkpt lat="44.10227" lon="3.2617">
        <ele>250.7</ele>
        <time>2025-02-15T10:29:43.000Z</time>
      </trkpt>
      <trkpt lat="44.10215" lon="3.2617">
        <ele>250.6</ele>
        <time>2025-02-15T10:29:46.000Z</time>
      </trkpt>
      <trkpt lat="44.10203" lon="3.26172">
        <ele>250.6</ele>
        <time>2025-02-15T10:29:49.000Z</time>
      </trkpt>
      <trkpt lat="44.10191" lon="3.26176">
        <ele>250.6</ele>
        <time>2025-02-15T10:29:52.000Z</time>
      </trkpt>
      <trkpt lat="44.10179" lon="3.26179">
        <ele>250.6</ele>
        <time>2025-02-15T10:29:55.000Z</time>
      </trkpt>
      <trkpt lat="44.10167" lon="3.26182">
        <ele>250.6</ele>
        <time>2025-02-15T10:29:58.000Z</time>
      </trkpt>
      <trkpt lat="44.10155" lon="3.26186">
        <ele>250.6</ele>
        <time>2025-02-15T10:30:01.000Z</time>
      </trkpt>
      <trkpt lat="44.10143" lon="3.26193">
        <ele>250.6</ele>
        <time>2025-02-15T10:30:04.000Z</time>
      </trkpt>
      <trkpt lat="44.10131" lon="3.262">
        <ele>250.5</ele>
        <time>2025-02-15T10:30:07.000Z</time>
      </trkpt>
      <trkpt lat="44.1012" lon="3.26209">
        <ele>250.5</ele>
        <time>2025-02-15T10:30:10.000Z</time>
      </trkpt>
      <trkpt lat="44.1011" lon="3.26218">
        <ele>250.5</ele>
        <time>2025-02-15T10:30:13.000Z</time>
      </trkpt>
      <trkpt lat="44.10099" lon="3.26227">
        <ele>250.6</ele>
        <time>2025-02-15T10:30:16.000Z</time>
      </trkpt>
      <trkpt lat="44.10089" lon="3.26237">
        <ele>250.6</ele>
        <time>2025-02-15T10:30:19.000Z</time>
      </trkpt>
      <trkpt lat="44.10079" lon="3.26246">
        <ele>250.7</ele>
        <time>2025-02-15T10:30:22.000Z</time>
      </trkpt>
      <trkpt lat="44.1007" lon="3.26258">
        <ele>250.8</ele>
        <time>2025-02-15T10:30:25.000Z</time>
      </trkpt>
      <trkpt lat="44.10062" lon="3.26273">
        <ele>250.8</ele>
        <time>2025-02-15T10:30:28.000Z</time>
      </trkpt>
      <trkpt lat="44.10055" lon="3.26287">
        <ele>250.9</ele>
        <time>2025-02-15T10:30:31.000Z</time>
      </trkpt>
      <trkpt lat="44.10048" lon="3.26302">
        <ele>250.9</ele>
        <time>2025-02-15T10:30:34.000Z</time>
      </trkpt>
      <trkpt lat="44.10041" lon="3.26316">
        <ele>250.9</ele>
        <time>2025-02-15T10:30:37.000Z</time>
      </trkpt>
      <trkpt lat="44.10036" lon="3.26329">
        <ele>250.9</ele>
        <time>2025-02-15T10:30:40.000Z</time>
      </trkpt>
      <trkpt lat="44.1003" lon="3.26341">
        <ele>251</ele>
        <time>2025-02-15T10:30:43.000Z</time>
      </trkpt>
      <trkpt lat="44.10024" lon="3.26354">
        <ele>251</ele>
        <time>2025-02-15T10:30:46.000Z</time>
      </trkpt>
      <trkpt lat="44.10019" lon="3.26367">
        <ele>251</ele>
        <time>2025-02-15T10:30:49.000Z</time>
      </trkpt>
      <trkpt lat="44.10015" lon="3.26381">
        <ele>251</ele>
        <time>2025-02-15T10:30:52.000Z</time>
      </trkpt>
      <trkpt lat="44.10011" lon="3.26395">
        <ele>251</ele>
        <time>2025-02-15T10:30:55.000Z</time>
      </trkpt>
      <trkpt lat="44.10008" lon="3.2641">
        <ele>251</ele>
        <time>2025-02-15T10:30:58.000Z</time>
      </trkpt>
      <trkpt lat="44.10004" lon="3.26426">
        <ele>251</ele>
        <time>2025-02-15T10:31:01.000Z</time>
      </trkpt>
      <trkpt lat="44.10001" lon="3.26441">
        <ele>251</ele>
        <time>2025-02-15T10:31:04.000Z</time>
      </trkpt>
      <trkpt lat="44.09998" lon="3.26456">
        <ele>251</ele>
        <time>2025-02-15T10:31:07.000Z</time>
      </trkpt>
      <trkpt lat="44.09995" lon="3.26472">
        <ele>251</ele>
        <time>2025-02-15T10:31:10.000Z</time>
      </trkpt>
      <trkpt lat="44.09992" lon="3.26487">
        <ele>251.1</ele>
        <time>2025-02-15T10:31:13.000Z</time>
      </trkpt>
      <trkpt lat="44.09989" lon="3.26504">
        <ele>251.1</ele>
        <time>2025-02-15T10:31:16.000Z</time>
      </trkpt>
      <trkpt lat="44.09986" lon="3.2652">
        <ele>251.1</ele>
        <time>2025-02-15T10:31:19.000Z</time>
      </trkpt>
      <trkpt lat="44.09983" lon="3.26537">
        <ele>251.2</ele>
        <time>2025-02-15T10:31:22.000Z</time>
      </trkpt>
      <trkpt lat="44.0998" lon="3.26552">
        <ele>251.2</ele>
        <time>2025-02-15T10:31:25.000Z</time>
      </trkpt>
      <trkpt lat="44.09977" lon="3.26567">
        <ele>251.2</ele>
        <time>2025-02-15T10:31:28.000Z</time>
      </trkpt>
      <trkpt lat="44.09975" lon="3.2658">
        <ele>251.2</ele>
        <time>2025-02-15T10:31:32.000Z</time>
      </trkpt>
      <trkpt lat="44.09977" lon="3.26567">
        <ele>251.3</ele>
        <time>2025-02-15T10:31:38.000Z</time>
      </trkpt>
      <trkpt lat="44.09977" lon="3.26582">
        <ele>251.3</ele>
        <time>2025-02-15T10:32:22.000Z</time>
      </trkpt>
      <trkpt lat="44.09973" lon="3.26594">
        <ele>251.3</ele>
        <time>2025-02-15T10:32:26.000Z</time>
      </trkpt>
      <trkpt lat="44.09969" lon="3.26608">
        <ele>251.3</ele>
        <time>2025-02-15T10:32:30.000Z</time>
      </trkpt>
      <trkpt lat="44.09965" lon="3.26623">
        <ele>251.3</ele>
        <time>2025-02-15T10:32:34.000Z</time>
      </trkpt>
      <trkpt lat="44.09961" lon="3.26634">
        <ele>251.3</ele>
        <time>2025-02-15T10:32:37.000Z</time>
      </trkpt>
      <trkpt lat="44.09955" lon="3.26646">
        <ele>251.3</ele>
        <time>2025-02-15T10:32:40.000Z</time>
      </trkpt>
      <trkpt lat="44.0995" lon="3.26657">
        <ele>251.3</ele>
        <time>2025-02-15T10:32:43.000Z</time>
      </trkpt>
      <trkpt lat="44.09944" lon="3.26667">
        <ele>251.3</ele>
        <time>2025-02-15T10:32:46.000Z</time>
      </trkpt>
      <trkpt lat="44.09939" lon="3.26678">
        <ele>251.3</ele>
        <time>2025-02-15T10:32:49.000Z</time>
      </trkpt>
      <trkpt lat="44.09932" lon="3.26688">
        <ele>251.4</ele>
        <time>2025-02-15T10:32:52.000Z</time>
      </trkpt>
      <trkpt lat="44.09926" lon="3.26699">
        <ele>251.4</ele>
        <time>2025-02-15T10:32:55.000Z</time>
      </trkpt>
      <trkpt lat="44.0992" lon="3.26709">
        <ele>251.5</ele>
        <time>2025-02-15T10:32:58.000Z</time>
      </trkpt>
      <trkpt lat="44.09914" lon="3.2672">
        <ele>251.5</ele>
        <time>2025-02-15T10:33:01.000Z</time>
      </trkpt>
      <trkpt lat="44.09908" lon="3.26733">
        <ele>251.6</ele>
        <time>2025-02-15T10:33:05.000Z</time>
      </trkpt>
      <trkpt lat="44.09902" lon="3.26743">
        <ele>251.7</ele>
        <time>2025-02-15T10:33:08.000Z</time>
      </trkpt>
      <trkpt lat="44.09896" lon="3.26757">
        <ele>251.7</ele>
        <time>2025-02-15T10:33:12.000Z</time>
      </trkpt>
      <trkpt lat="44.09889" lon="3.26771">
        <ele>251.8</ele>
        <time>2025-02-15T10:33:16.000Z</time>
      </trkpt>
      <trkpt lat="44.09883" lon="3.26784">
        <ele>251.8</ele>
        <time>2025-02-15T10:33:20.000Z</time>
      </trkpt>
      <trkpt lat="44.09891" lon="3.26791">
        <ele>251.9</ele>
        <time>2025-02-15T10:33:27.000Z</time>
      </trkpt>
      <trkpt lat="44.09883" lon="3.26797">
        <ele>251.9</ele>
        <time>2025-02-15T10:33:38.000Z</time>
      </trkpt>
      <trkpt lat="44.09877" lon="3.26809">
        <ele>252</ele>
        <time>2025-02-15T10:33:42.000Z</time>
      </trkpt>
      <trkpt lat="44.09868" lon="3.26821">
        <ele>252</ele>
        <time>2025-02-15T10:33:46.000Z</time>
      </trkpt>
      <trkpt lat="44.09861" lon="3.26832">
        <ele>252</ele>
        <time>2025-02-15T10:33:49.000Z</time>
      </trkpt>
      <trkpt lat="44.09854" lon="3.26841">
        <ele>252</ele>
        <time>2025-02-15T10:33:52.000Z</time>
      </trkpt>
      <trkpt lat="44.09846" lon="3.26849">
        <ele>252</ele>
        <time>2025-02-15T10:33:55.000Z</time>
      </trkpt>
      <trkpt lat="44.09837" lon="3.26857">
        <ele>252</ele>
        <time>2025-02-15T10:33:58.000Z</time>
      </trkpt>
      <trkpt lat="44.09829" lon="3.26866">
        <ele>252</ele>
        <time>2025-02-15T10:34:01.000Z</time>
      </trkpt>
      <trkpt lat="44.09819" lon="3.26873">
        <ele>252</ele>
        <time>2025-02-15T10:34:04.000Z</time>
      </trkpt>
      <trkpt lat="44.0981" lon="3.26879">
        <ele>252</ele>
        <time>2025-02-15T10:34:07.000Z</time>
      </trkpt>
      <trkpt lat="44.098" lon="3.26885">
        <ele>252</ele>
        <time>2025-02-15T10:34:10.000Z</time>
      </trkpt>
      <trkpt lat="44.0979" lon="3.26892">
        <ele>252</ele>
        <time>2025-02-15T10:34:13.000Z</time>
      </trkpt>
      <trkpt lat="44.0978" lon="3.26897">
        <ele>252</ele>
        <time>2025-02-15T10:34:16.000Z</time>
      </trkpt>
      <trkpt lat="44.09771" lon="3.26902">
        <ele>252</ele>
        <time>2025-02-15T10:34:19.000Z</time>
      </trkpt>
      <trkpt lat="44.09761" lon="3.26907">
        <ele>252</ele>
        <time>2025-02-15T10:34:22.000Z</time>
      </trkpt>
      <trkpt lat="44.09752" lon="3.26913">
        <ele>252</ele>
        <time>2025-02-15T10:34:25.000Z</time>
      </trkpt>
      <trkpt lat="44.09745" lon="3.26921">
        <ele>252</ele>
        <time>2025-02-15T10:34:29.000Z</time>
      </trkpt>
      <trkpt lat="44.09735" lon="3.26928">
        <ele>252</ele>
        <time>2025-02-15T10:34:34.000Z</time>
      </trkpt>
      <trkpt lat="44.09725" lon="3.26931">
        <ele>252</ele>
        <time>2025-02-15T10:34:38.000Z</time>
      </trkpt>
      <trkpt lat="44.09715" lon="3.26934">
        <ele>252</ele>
        <time>2025-02-15T10:34:43.000Z</time>
      </trkpt>
      <trkpt lat="44.09705" lon="3.26934">
        <ele>252</ele>
        <time>2025-02-15T10:34:47.000Z</time>
      </trkpt>
      <trkpt lat="44.09695" lon="3.26932">
        <ele>252</ele>
        <time>2025-02-15T10:34:51.000Z</time>
      </trkpt>
      <trkpt lat="44.09685" lon="3.26926">
        <ele>251.9</ele>
        <time>2025-02-15T10:34:55.000Z</time>
      </trkpt>
      <trkpt lat="44.09674" lon="3.26921">
        <ele>251.8</ele>
        <time>2025-02-15T10:34:59.000Z</time>
      </trkpt>
      <trkpt lat="44.09664" lon="3.26916">
        <ele>251.8</ele>
        <time>2025-02-15T10:35:03.000Z</time>
      </trkpt>
      <trkpt lat="44.09654" lon="3.26911">
        <ele>251.8</ele>
        <time>2025-02-15T10:35:07.000Z</time>
      </trkpt>
      <trkpt lat="44.09644" lon="3.26911">
        <ele>251.8</ele>
        <time>2025-02-15T10:35:12.000Z</time>
      </trkpt>
      <trkpt lat="44.09653" lon="3.26906">
        <ele>252.1</ele>
        <time>2025-02-15T10:35:21.000Z</time>
      </trkpt>
      <trkpt lat="44.09662" lon="3.26907">
        <ele>252.6</ele>
        <time>2025-02-15T10:35:26.000Z</time>
      </trkpt>
      <trkpt lat="44.09672" lon="3.26911">
        <ele>253.7</ele>
        <time>2025-02-15T10:35:33.000Z</time>
      </trkpt>
      <trkpt lat="44.09681" lon="3.26913">
        <ele>254.9</ele>
        <time>2025-02-15T10:35:40.000Z</time>
      </trkpt>
      <trkpt lat="44.09673" lon="3.26904">
        <ele>259.7</ele>
        <time>2025-02-15T10:36:08.000Z</time>
      </trkpt>
      <trkpt lat="44.09665" lon="3.26896">
        <ele>261.2</ele>
        <time>2025-02-15T10:36:15.000Z</time>
      </trkpt>
      <trkpt lat="44.09658" lon="3.26889">
        <ele>262.8</ele>
        <time>2025-02-15T10:36:22.000Z</time>
      </trkpt>
      <trkpt lat="44.0965" lon="3.26879">
        <ele>265.1</ele>
        <time>2025-02-15T10:36:30.000Z</time>
      </trkpt>
      <trkpt lat="44.09644" lon="3.2687">
        <ele>267</ele>
        <time>2025-02-15T10:36:37.000Z</time>
      </trkpt>
      <trkpt lat="44.09637" lon="3.26861">
        <ele>269</ele>
        <time>2025-02-15T10:36:44.000Z</time>
      </trkpt>
      <trkpt lat="44.09631" lon="3.26851">
        <ele>271.1</ele>
        <time>2025-02-15T10:36:51.000Z</time>
      </trkpt>
      <trkpt lat="44.09626" lon="3.26839">
        <ele>273.9</ele>
        <time>2025-02-15T10:37:00.000Z</time>
      </trkpt>
      <trkpt lat="44.09623" lon="3.26827">
        <ele>276.3</ele>
        <time>2025-02-15T10:37:08.000Z</time>
      </trkpt>
      <trkpt lat="44.0962" lon="3.26814">
        <ele>279</ele>
        <time>2025-02-15T10:37:17.000Z</time>
      </trkpt>
      <trkpt lat="44.09616" lon="3.26801">
        <ele>281.8</ele>
        <time>2025-02-15T10:37:26.000Z</time>
      </trkpt>
      <trkpt lat="44.09614" lon="3.26788">
        <ele>284.1</ele>
        <time>2025-02-15T10:37:34.000Z</time>
      </trkpt>
      <trkpt lat="44.09615" lon="3.26775">
        <ele>286.1</ele>
        <time>2025-02-15T10:37:41.000Z</time>
      </trkpt>
      <trkpt lat="44.09615" lon="3.26762">
        <ele>288.5</ele>
        <time>2025-02-15T10:37:49.000Z</time>
      </trkpt>
      <trkpt lat="44.09616" lon="3.26749">
        <ele>291.5</ele>
        <time>2025-02-15T10:37:59.000Z</time>
      </trkpt>
      <trkpt lat="44.09616" lon="3.26735">
        <ele>293.9</ele>
        <time>2025-02-15T10:38:07.000Z</time>
      </trkpt>
      <trkpt lat="44.09618" lon="3.26722">
        <ele>296.5</ele>
        <time>2025-02-15T10:38:15.000Z</time>
      </trkpt>
      <trkpt lat="44.09624" lon="3.26733">
        <ele>299.8</ele>
        <time>2025-02-15T10:38:26.000Z</time>
      </trkpt>
      <trkpt lat="44.09629" lon="3.26744">
        <ele>302.2</ele>
        <time>2025-02-15T10:38:35.000Z</time>
      </trkpt>
      <trkpt lat="44.09635" lon="3.26754">
        <ele>304.7</ele>
        <time>2025-02-15T10:38:43.000Z</time>
      </trkpt>
      <trkpt lat="44.09641" lon="3.26764">
        <ele>307.3</ele>
        <time>2025-02-15T10:38:52.000Z</time>
      </trkpt>
      <trkpt lat="44.09647" lon="3.26773">
        <ele>309.7</ele>
        <time>2025-02-15T10:39:00.000Z</time>
      </trkpt>
      <trkpt lat="44.09655" lon="3.26781">
        <ele>312.6</ele>
        <time>2025-02-15T10:39:09.000Z</time>
      </trkpt>
      <trkpt lat="44.09663" lon="3.26787">
        <ele>314.8</ele>
        <time>2025-02-15T10:39:16.000Z</time>
      </trkpt>
      <trkpt lat="44.09671" lon="3.26793">
        <ele>316.9</ele>
        <time>2025-02-15T10:39:23.000Z</time>
      </trkpt>
      <trkpt lat="44.09681" lon="3.26796">
        <ele>319.9</ele>
        <time>2025-02-15T10:39:33.000Z</time>
      </trkpt>
      <trkpt lat="44.09691" lon="3.26797">
        <ele>322.3</ele>
        <time>2025-02-15T10:39:41.000Z</time>
      </trkpt>
      <trkpt lat="44.09699" lon="3.2679">
        <ele>324.7</ele>
        <time>2025-02-15T10:39:49.000Z</time>
      </trkpt>
      <trkpt lat="44.09691" lon="3.26783">
        <ele>327.1</ele>
        <time>2025-02-15T10:39:57.000Z</time>
      </trkpt>
      <trkpt lat="44.09685" lon="3.26772">
        <ele>329.7</ele>
        <time>2025-02-15T10:40:05.000Z</time>
      </trkpt>
      <trkpt lat="44.09682" lon="3.26759">
        <ele>332.5</ele>
        <time>2025-02-15T10:40:14.000Z</time>
      </trkpt>
      <trkpt lat="44.09681" lon="3.26745">
        <ele>334.4</ele>
        <time>2025-02-15T10:40:21.000Z</time>
      </trkpt>
      <trkpt lat="44.09681" lon="3.26731">
        <ele>336.7</ele>
        <time>2025-02-15T10:40:29.000Z</time>
      </trkpt>
      <trkpt lat="44.09679" lon="3.26719">
        <ele>339</ele>
        <time>2025-02-15T10:40:36.000Z</time>
      </trkpt>
      <trkpt lat="44.09678" lon="3.26705">
        <ele>341.7</ele>
        <time>2025-02-15T10:40:45.000Z</time>
      </trkpt>
      <trkpt lat="44.09687" lon="3.26706">
        <ele>347.3</ele>
        <time>2025-02-15T10:41:04.000Z</time>
      </trkpt>
      <trkpt lat="44.09693" lon="3.26718">
        <ele>349.7</ele>
        <time>2025-02-15T10:41:13.000Z</time>
      </trkpt>
      <trkpt lat="44.09699" lon="3.26727">
        <ele>351.8</ele>
        <time>2025-02-15T10:41:21.000Z</time>
      </trkpt>
      <trkpt lat="44.09708" lon="3.2673">
        <ele>354.1</ele>
        <time>2025-02-15T10:41:29.000Z</time>
      </trkpt>
      <trkpt lat="44.09712" lon="3.26718">
        <ele>357.1</ele>
        <time>2025-02-15T10:41:39.000Z</time>
      </trkpt>
      <trkpt lat="44.0971" lon="3.26706">
        <ele>360.5</ele>
        <time>2025-02-15T10:41:50.000Z</time>
      </trkpt>
      <trkpt lat="44.0971" lon="3.26693">
        <ele>362.8</ele>
        <time>2025-02-15T10:41:58.000Z</time>
      </trkpt>
      <trkpt lat="44.0971" lon="3.26679">
        <ele>366.3</ele>
        <time>2025-02-15T10:42:10.000Z</time>
      </trkpt>
      <trkpt lat="44.09709" lon="3.26666">
        <ele>369.4</ele>
        <time>2025-02-15T10:42:19.000Z</time>
      </trkpt>
      <trkpt lat="44.09709" lon="3.26652">
        <ele>372.2</ele>
        <time>2025-02-15T10:42:27.000Z</time>
      </trkpt>
      <trkpt lat="44.09711" lon="3.26638">
        <ele>374.8</ele>
        <time>2025-02-15T10:42:35.000Z</time>
      </trkpt>
      <trkpt lat="44.09711" lon="3.26625">
        <ele>377.2</ele>
        <time>2025-02-15T10:42:43.000Z</time>
      </trkpt>
      <trkpt lat="44.09711" lon="3.26612">
        <ele>379.7</ele>
        <time>2025-02-15T10:42:51.000Z</time>
      </trkpt>
      <trkpt lat="44.09713" lon="3.26599">
        <ele>382.3</ele>
        <time>2025-02-15T10:42:59.000Z</time>
      </trkpt>
      <trkpt lat="44.09717" lon="3.26586">
        <ele>385</ele>
        <time>2025-02-15T10:43:07.000Z</time>
      </trkpt>
      <trkpt lat="44.09719" lon="3.26574">
        <ele>387.5</ele>
        <time>2025-02-15T10:43:15.000Z</time>
      </trkpt>
      <trkpt lat="44.09722" lon="3.26561">
        <ele>389.7</ele>
        <time>2025-02-15T10:43:22.000Z</time>
      </trkpt>
      <trkpt lat="44.09724" lon="3.26547">
        <ele>392.1</ele>
        <time>2025-02-15T10:43:30.000Z</time>
      </trkpt>
      <trkpt lat="44.09726" lon="3.26535">
        <ele>394.9</ele>
        <time>2025-02-15T10:43:39.000Z</time>
      </trkpt>
      <trkpt lat="44.09727" lon="3.26522">
        <ele>397.6</ele>
        <time>2025-02-15T10:43:48.000Z</time>
      </trkpt>
      <trkpt lat="44.09726" lon="3.26508">
        <ele>400.6</ele>
        <time>2025-02-15T10:43:58.000Z</time>
      </trkpt>
      <trkpt lat="44.09729" lon="3.26496">
        <ele>402.6</ele>
        <time>2025-02-15T10:44:05.000Z</time>
      </trkpt>
      <trkpt lat="44.09726" lon="3.26483">
        <ele>405.2</ele>
        <time>2025-02-15T10:44:13.000Z</time>
      </trkpt>
      <trkpt lat="44.09725" lon="3.2647">
        <ele>407.7</ele>
        <time>2025-02-15T10:44:21.000Z</time>
      </trkpt>
      <trkpt lat="44.09723" lon="3.26457">
        <ele>410.7</ele>
        <time>2025-02-15T10:44:30.000Z</time>
      </trkpt>
      <trkpt lat="44.0972" lon="3.26445">
        <ele>413.5</ele>
        <time>2025-02-15T10:44:38.000Z</time>
      </trkpt>
      <trkpt lat="44.09715" lon="3.26433">
        <ele>416.2</ele>
        <time>2025-02-15T10:44:47.000Z</time>
      </trkpt>
      <trkpt lat="44.09713" lon="3.2642">
        <ele>419.1</ele>
        <time>2025-02-15T10:44:56.000Z</time>
      </trkpt>
      <trkpt lat="44.09713" lon="3.26407">
        <ele>421.5</ele>
        <time>2025-02-15T10:45:04.000Z</time>
      </trkpt>
      <trkpt lat="44.0971" lon="3.26394">
        <ele>427.5</ele>
        <time>2025-02-15T10:45:29.000Z</time>
      </trkpt>
      <trkpt lat="44.09709" lon="3.26381">
        <ele>430</ele>
        <time>2025-02-15T10:45:39.000Z</time>
      </trkpt>
      <trkpt lat="44.09707" lon="3.26369">
        <ele>432.5</ele>
        <time>2025-02-15T10:45:47.000Z</time>
      </trkpt>
      <trkpt lat="44.09706" lon="3.26356">
        <ele>435.3</ele>
        <time>2025-02-15T10:45:55.000Z</time>
      </trkpt>
      <trkpt lat="44.09706" lon="3.26344">
        <ele>438.3</ele>
        <time>2025-02-15T10:46:04.000Z</time>
      </trkpt>
      <trkpt lat="44.09706" lon="3.26331">
        <ele>440.6</ele>
        <time>2025-02-15T10:46:12.000Z</time>
      </trkpt>
      <trkpt lat="44.09708" lon="3.26318">
        <ele>443.6</ele>
        <time>2025-02-15T10:46:22.000Z</time>
      </trkpt>
      <trkpt lat="44.0971" lon="3.26306">
        <ele>446.4</ele>
        <time>2025-02-15T10:46:31.000Z</time>
      </trkpt>
      <trkpt lat="44.09714" lon="3.26294">
        <ele>449</ele>
        <time>2025-02-15T10:46:39.000Z</time>
      </trkpt>
      <trkpt lat="44.09715" lon="3.26281">
        <ele>451.6</ele>
        <time>2025-02-15T10:46:47.000Z</time>
      </trkpt>
      <trkpt lat="44.09714" lon="3.26268">
        <ele>454</ele>
        <time>2025-02-15T10:46:55.000Z</time>
      </trkpt>
      <trkpt lat="44.09712" lon="3.26254">
        <ele>456.2</ele>
        <time>2025-02-15T10:47:03.000Z</time>
      </trkpt>
      <trkpt lat="44.09711" lon="3.26241">
        <ele>458.1</ele>
        <time>2025-02-15T10:47:10.000Z</time>
      </trkpt>
      <trkpt lat="44.09709" lon="3.26227">
        <ele>460.1</ele>
        <time>2025-02-15T10:47:17.000Z</time>
      </trkpt>
      <trkpt lat="44.09708" lon="3.26214">
        <ele>461.8</ele>
        <time>2025-02-15T10:47:23.000Z</time>
      </trkpt>
      <trkpt lat="44.09707" lon="3.26201">
        <ele>463.4</ele>
        <time>2025-02-15T10:47:29.000Z</time>
      </trkpt>
      <trkpt lat="44.09706" lon="3.26187">
        <ele>465</ele>
        <time>2025-02-15T10:47:35.000Z</time>
      </trkpt>
      <trkpt lat="44.09705" lon="3.26173">
        <ele>466.9</ele>
        <time>2025-02-15T10:47:42.000Z</time>
      </trkpt>
      <trkpt lat="44.09705" lon="3.26159">
        <ele>469.1</ele>
        <time>2025-02-15T10:47:49.000Z</time>
      </trkpt>
      <trkpt lat="44.09705" lon="3.26145">
        <ele>471.4</ele>
        <time>2025-02-15T10:47:56.000Z</time>
      </trkpt>
      <trkpt lat="44.09704" lon="3.26132">
        <ele>473.7</ele>
        <time>2025-02-15T10:48:03.000Z</time>
      </trkpt>
      <trkpt lat="44.09705" lon="3.26119">
        <ele>475.6</ele>
        <time>2025-02-15T10:48:09.000Z</time>
      </trkpt>
      <trkpt lat="44.09705" lon="3.26106">
        <ele>478</ele>
        <time>2025-02-15T10:48:16.000Z</time>
      </trkpt>
      <trkpt lat="44.09706" lon="3.26092">
        <ele>480.5</ele>
        <time>2025-02-15T10:48:24.000Z</time>
      </trkpt>
      <trkpt lat="44.09707" lon="3.26078">
        <ele>483.1</ele>
        <time>2025-02-15T10:48:32.000Z</time>
      </trkpt>
      <trkpt lat="44.09709" lon="3.26065">
        <ele>485.3</ele>
        <time>2025-02-15T10:48:39.000Z</time>
      </trkpt>
      <trkpt lat="44.09712" lon="3.26053">
        <ele>487.6</ele>
        <time>2025-02-15T10:48:46.000Z</time>
      </trkpt>
      <trkpt lat="44.09715" lon="3.2604">
        <ele>489.9</ele>
        <time>2025-02-15T10:48:54.000Z</time>
      </trkpt>
      <trkpt lat="44.09718" lon="3.26028">
        <ele>491.7</ele>
        <time>2025-02-15T10:49:01.000Z</time>
      </trkpt>
      <trkpt lat="44.09721" lon="3.26016">
        <ele>493.5</ele>
        <time>2025-02-15T10:49:08.000Z</time>
      </trkpt>
      <trkpt lat="44.09723" lon="3.26002">
        <ele>495.2</ele>
        <time>2025-02-15T10:49:15.000Z</time>
      </trkpt>
      <trkpt lat="44.09726" lon="3.25989">
        <ele>496.8</ele>
        <time>2025-02-15T10:49:22.000Z</time>
      </trkpt>
      <trkpt lat="44.09731" lon="3.25978">
        <ele>498.8</ele>
        <time>2025-02-15T10:49:28.000Z</time>
      </trkpt>
      <trkpt lat="44.09737" lon="3.25968">
        <ele>500.5</ele>
        <time>2025-02-15T10:49:34.000Z</time>
      </trkpt>
      <trkpt lat="44.09742" lon="3.25956">
        <ele>501.9</ele>
        <time>2025-02-15T10:49:40.000Z</time>
      </trkpt>
      <trkpt lat="44.09749" lon="3.25948">
        <ele>503</ele>
        <time>2025-02-15T10:49:46.000Z</time>
      </trkpt>
      <trkpt lat="44.09757" lon="3.25939">
        <ele>504.5</ele>
        <time>2025-02-15T10:49:53.000Z</time>
      </trkpt>
      <trkpt lat="44.09758" lon="3.25926">
        <ele>506.6</ele>
        <time>2025-02-15T10:50:02.000Z</time>
      </trkpt>
      <trkpt lat="44.09754" lon="3.25913">
        <ele>508.6</ele>
        <time>2025-02-15T10:50:10.000Z</time>
      </trkpt>
      <trkpt lat="44.09752" lon="3.25901">
        <ele>510</ele>
        <time>2025-02-15T10:50:16.000Z</time>
      </trkpt>
      <trkpt lat="44.09749" lon="3.25887">
        <ele>511.3</ele>
        <time>2025-02-15T10:50:22.000Z</time>
      </trkpt>
      <trkpt lat="44.09742" lon="3.25878">
        <ele>512.8</ele>
        <time>2025-02-15T10:50:28.000Z</time>
      </trkpt>
      <trkpt lat="44.09735" lon="3.25868">
        <ele>514.5</ele>
        <time>2025-02-15T10:50:35.000Z</time>
      </trkpt>
      <trkpt lat="44.0973" lon="3.25857">
        <ele>516.1</ele>
        <time>2025-02-15T10:50:41.000Z</time>
      </trkpt>
      <trkpt lat="44.09724" lon="3.25847">
        <ele>517.8</ele>
        <time>2025-02-15T10:50:47.000Z</time>
      </trkpt>
      <trkpt lat="44.09718" lon="3.25835">
        <ele>519.5</ele>
        <time>2025-02-15T10:50:53.000Z</time>
      </trkpt>
      <trkpt lat="44.09713" lon="3.25824">
        <ele>520.8</ele>
        <time>2025-02-15T10:50:58.000Z</time>
      </trkpt>
      <trkpt lat="44.09708" lon="3.25811">
        <ele>522.2</ele>
        <time>2025-02-15T10:51:04.000Z</time>
      </trkpt>
      <trkpt lat="44.09702" lon="3.25798">
        <ele>523.5</ele>
        <time>2025-02-15T10:51:09.000Z</time>
      </trkpt>
      <trkpt lat="44.09695" lon="3.25786">
        <ele>524.3</ele>
        <time>2025-02-15T10:51:13.000Z</time>
      </trkpt>
      <trkpt lat="44.09689" lon="3.25774">
        <ele>525.1</ele>
        <time>2025-02-15T10:51:17.000Z</time>
      </trkpt>
      <trkpt lat="44.09684" lon="3.2576">
        <ele>525.7</ele>
        <time>2025-02-15T10:51:21.000Z</time>
      </trkpt>
      <trkpt lat="44.09675" lon="3.25753">
        <ele>526.7</ele>
        <time>2025-02-15T10:51:28.000Z</time>
      </trkpt>
      <trkpt lat="44.09669" lon="3.25763">
        <ele>527.8</ele>
        <time>2025-02-15T10:51:36.000Z</time>
      </trkpt>
      <trkpt lat="44.09667" lon="3.25775">
        <ele>528.7</ele>
        <time>2025-02-15T10:51:42.000Z</time>
      </trkpt>
      <trkpt lat="44.09666" lon="3.25789">
        <ele>530.3</ele>
        <time>2025-02-15T10:51:50.000Z</time>
      </trkpt>
      <trkpt lat="44.09664" lon="3.25802">
        <ele>531.4</ele>
        <time>2025-02-15T10:51:56.000Z</time>
      </trkpt>
      <trkpt lat="44.09664" lon="3.25816">
        <ele>533.1</ele>
        <time>2025-02-15T10:52:03.000Z</time>
      </trkpt>
      <trkpt lat="44.09663" lon="3.2583">
        <ele>534.6</ele>
        <time>2025-02-15T10:52:10.000Z</time>
      </trkpt>
      <trkpt lat="44.0966" lon="3.25843">
        <ele>536.1</ele>
        <time>2025-02-15T10:52:16.000Z</time>
      </trkpt>
      <trkpt lat="44.09653" lon="3.25854">
        <ele>537.9</ele>
        <time>2025-02-15T10:52:23.000Z</time>
      </trkpt>
      <trkpt lat="44.09644" lon="3.25859">
        <ele>539.5</ele>
        <time>2025-02-15T10:52:29.000Z</time>
      </trkpt>
      <trkpt lat="44.09635" lon="3.25863">
        <ele>541</ele>
        <time>2025-02-15T10:52:35.000Z</time>
      </trkpt>
      <trkpt lat="44.09626" lon="3.25866">
        <ele>542.7</ele>
        <time>2025-02-15T10:52:41.000Z</time>
      </trkpt>
      <trkpt lat="44.09615" lon="3.25867">
        <ele>544.6</ele>
        <time>2025-02-15T10:52:47.000Z</time>
      </trkpt>
      <trkpt lat="44.09606" lon="3.25867">
        <ele>546.3</ele>
        <time>2025-02-15T10:52:52.000Z</time>
      </trkpt>
      <trkpt lat="44.09596" lon="3.25865">
        <ele>548.2</ele>
        <time>2025-02-15T10:52:58.000Z</time>
      </trkpt>
      <trkpt lat="44.09586" lon="3.25865">
        <ele>549.9</ele>
        <time>2025-02-15T10:53:04.000Z</time>
      </trkpt>
      <trkpt lat="44.09576" lon="3.25865">
        <ele>551.3</ele>
        <time>2025-02-15T10:53:09.000Z</time>
      </trkpt>
      <trkpt lat="44.09567" lon="3.25861">
        <ele>552.8</ele>
        <time>2025-02-15T10:53:14.000Z</time>
      </trkpt>
      <trkpt lat="44.09557" lon="3.25857">
        <ele>554.6</ele>
        <time>2025-02-15T10:53:20.000Z</time>
      </trkpt>
      <trkpt lat="44.09548" lon="3.25854">
        <ele>556.1</ele>
        <time>2025-02-15T10:53:26.000Z</time>
      </trkpt>
      <trkpt lat="44.09538" lon="3.2585">
        <ele>562.3</ele>
        <time>2025-02-15T10:54:01.000Z</time>
      </trkpt>
      <trkpt lat="44.09529" lon="3.25849">
        <ele>563.1</ele>
        <time>2025-02-15T10:54:06.000Z</time>
      </trkpt>
      <trkpt lat="44.09519" lon="3.25847">
        <ele>564.2</ele>
        <time>2025-02-15T10:54:12.000Z</time>
      </trkpt>
      <trkpt lat="44.09512" lon="3.25837">
        <ele>565.9</ele>
        <time>2025-02-15T10:54:20.000Z</time>
      </trkpt>
      <trkpt lat="44.0952" lon="3.25828">
        <ele>568.2</ele>
        <time>2025-02-15T10:54:28.000Z</time>
      </trkpt>
      <trkpt lat="44.09527" lon="3.25818">
        <ele>570.9</ele>
        <time>2025-02-15T10:54:37.000Z</time>
      </trkpt>
      <trkpt lat="44.09521" lon="3.25808">
        <ele>573.4</ele>
        <time>2025-02-15T10:54:45.000Z</time>
      </trkpt>
      <trkpt lat="44.09513" lon="3.25801">
        <ele>575.5</ele>
        <time>2025-02-15T10:54:52.000Z</time>
      </trkpt>
      <trkpt lat="44.09505" lon="3.25793">
        <ele>578.2</ele>
        <time>2025-02-15T10:55:00.000Z</time>
      </trkpt>
      <trkpt lat="44.09497" lon="3.25785">
        <ele>580.6</ele>
        <time>2025-02-15T10:55:08.000Z</time>
      </trkpt>
      <trkpt lat="44.0949" lon="3.25775">
        <ele>582.7</ele>
        <time>2025-02-15T10:55:15.000Z</time>
      </trkpt>
      <trkpt lat="44.09483" lon="3.25766">
        <ele>584.9</ele>
        <time>2025-02-15T10:55:22.000Z</time>
      </trkpt>
      <trkpt lat="44.09484" lon="3.25753">
        <ele>588</ele>
        <time>2025-02-15T10:55:32.000Z</time>
      </trkpt>
      <trkpt lat="44.09494" lon="3.2575">
        <ele>591</ele>
        <time>2025-02-15T10:55:41.000Z</time>
      </trkpt>
      <trkpt lat="44.09502" lon="3.25746">
        <ele>593.1</ele>
        <time>2025-02-15T10:55:48.000Z</time>
      </trkpt>
      <trkpt lat="44.09511" lon="3.2574">
        <ele>595.2</ele>
        <time>2025-02-15T10:55:55.000Z</time>
      </trkpt>
      <trkpt lat="44.09518" lon="3.25733">
        <ele>597.4</ele>
        <time>2025-02-15T10:56:02.000Z</time>
      </trkpt>
      <trkpt lat="44.09526" lon="3.25726">
        <ele>599.4</ele>
        <time>2025-02-15T10:56:09.000Z</time>
      </trkpt>
      <trkpt lat="44.09535" lon="3.25721">
        <ele>601.5</ele>
        <time>2025-02-15T10:56:16.000Z</time>
      </trkpt>
      <trkpt lat="44.09545" lon="3.25718">
        <ele>603.2</ele>
        <time>2025-02-15T10:56:22.000Z</time>
      </trkpt>
      <trkpt lat="44.09554" lon="3.25713">
        <ele>604.7</ele>
        <time>2025-02-15T10:56:28.000Z</time>
      </trkpt>
      <trkpt lat="44.09562" lon="3.25703">
        <ele>606.3</ele>
        <time>2025-02-15T10:56:34.000Z</time>
      </trkpt>
      <trkpt lat="44.09567" lon="3.25691">
        <ele>607.7</ele>
        <time>2025-02-15T10:56:40.000Z</time>
      </trkpt>
      <trkpt lat="44.0957" lon="3.25677">
        <ele>609.3</ele>
        <time>2025-02-15T10:56:46.000Z</time>
      </trkpt>
      <trkpt lat="44.09567" lon="3.25664">
        <ele>611.5</ele>
        <time>2025-02-15T10:56:53.000Z</time>
      </trkpt>
      <trkpt lat="44.09563" lon="3.25651">
        <ele>613.9</ele>
        <time>2025-02-15T10:57:00.000Z</time>
      </trkpt>
      <trkpt lat="44.09559" lon="3.2564">
        <ele>616</ele>
        <time>2025-02-15T10:57:06.000Z</time>
      </trkpt>
      <trkpt lat="44.09553" lon="3.25628">
        <ele>618.7</ele>
        <time>2025-02-15T10:57:14.000Z</time>
      </trkpt>
      <trkpt lat="44.09548" lon="3.25618">
        <ele>621.1</ele>
        <time>2025-02-15T10:57:21.000Z</time>
      </trkpt>
      <trkpt lat="44.09542" lon="3.25608">
        <ele>623.3</ele>
        <time>2025-02-15T10:57:28.000Z</time>
      </trkpt>
      <trkpt lat="44.09536" lon="3.25596">
        <ele>625.6</ele>
        <time>2025-02-15T10:57:35.000Z</time>
      </trkpt>
      <trkpt lat="44.09533" lon="3.25583">
        <ele>628.1</ele>
        <time>2025-02-15T10:57:43.000Z</time>
      </trkpt>
      <trkpt lat="44.09531" lon="3.25569">
        <ele>630.5</ele>
        <time>2025-02-15T10:57:51.000Z</time>
      </trkpt>
      <trkpt lat="44.09529" lon="3.25556">
        <ele>632.8</ele>
        <time>2025-02-15T10:57:59.000Z</time>
      </trkpt>
      <trkpt lat="44.09525" lon="3.25544">
        <ele>634.9</ele>
        <time>2025-02-15T10:58:07.000Z</time>
      </trkpt>
      <trkpt lat="44.09522" lon="3.25532">
        <ele>636.9</ele>
        <time>2025-02-15T10:58:14.000Z</time>
      </trkpt>
      <trkpt lat="44.09519" lon="3.2552">
        <ele>639.3</ele>
        <time>2025-02-15T10:58:22.000Z</time>
      </trkpt>
      <trkpt lat="44.09515" lon="3.25508">
        <ele>641.6</ele>
        <time>2025-02-15T10:58:30.000Z</time>
      </trkpt>
      <trkpt lat="44.09512" lon="3.25494">
        <ele>644</ele>
        <time>2025-02-15T10:58:38.000Z</time>
      </trkpt>
      <trkpt lat="44.0951" lon="3.25482">
        <ele>646.5</ele>
        <time>2025-02-15T10:58:46.000Z</time>
      </trkpt>
      <trkpt lat="44.09509" lon="3.25468">
        <ele>648.9</ele>
        <time>2025-02-15T10:58:54.000Z</time>
      </trkpt>
      <trkpt lat="44.09509" lon="3.25454">
        <ele>651</ele>
        <time>2025-02-15T10:59:01.000Z</time>
      </trkpt>
      <trkpt lat="44.09512" lon="3.25441">
        <ele>653</ele>
        <time>2025-02-15T10:59:08.000Z</time>
      </trkpt>
      <trkpt lat="44.09514" lon="3.25428">
        <ele>654.9</ele>
        <time>2025-02-15T10:59:15.000Z</time>
      </trkpt>
      <trkpt lat="44.09512" lon="3.25414">
        <ele>657.4</ele>
        <time>2025-02-15T10:59:23.000Z</time>
      </trkpt>
      <trkpt lat="44.0951" lon="3.25401">
        <ele>659.5</ele>
        <time>2025-02-15T10:59:30.000Z</time>
      </trkpt>
      <trkpt lat="44.09508" lon="3.25388">
        <ele>661.7</ele>
        <time>2025-02-15T10:59:37.000Z</time>
      </trkpt>
      <trkpt lat="44.09506" lon="3.25375">
        <ele>663.7</ele>
        <time>2025-02-15T10:59:44.000Z</time>
      </trkpt>
      <trkpt lat="44.09504" lon="3.25362">
        <ele>665.6</ele>
        <time>2025-02-15T10:59:51.000Z</time>
      </trkpt>
      <trkpt lat="44.09503" lon="3.25349">
        <ele>667.4</ele>
        <time>2025-02-15T10:59:57.000Z</time>
      </trkpt>
      <trkpt lat="44.09501" lon="3.25336">
        <ele>669.1</ele>
        <time>2025-02-15T11:00:03.000Z</time>
      </trkpt>
      <trkpt lat="44.09498" lon="3.25322">
        <ele>671</ele>
        <time>2025-02-15T11:00:10.000Z</time>
      </trkpt>
      <trkpt lat="44.09496" lon="3.25308">
        <ele>672.9</ele>
        <time>2025-02-15T11:00:17.000Z</time>
      </trkpt>
      <trkpt lat="44.09494" lon="3.25295">
        <ele>674.7</ele>
        <time>2025-02-15T11:00:24.000Z</time>
      </trkpt>
      <trkpt lat="44.09492" lon="3.25282">
        <ele>676.5</ele>
        <time>2025-02-15T11:00:31.000Z</time>
      </trkpt>
      <trkpt lat="44.09491" lon="3.25268">
        <ele>678.6</ele>
        <time>2025-02-15T11:00:39.000Z</time>
      </trkpt>
      <trkpt lat="44.09491" lon="3.25254">
        <ele>681</ele>
        <time>2025-02-15T11:00:48.000Z</time>
      </trkpt>
      <trkpt lat="44.09491" lon="3.2524">
        <ele>683.2</ele>
        <time>2025-02-15T11:00:56.000Z</time>
      </trkpt>
      <trkpt lat="44.0949" lon="3.25228">
        <ele>685.5</ele>
        <time>2025-02-15T11:01:04.000Z</time>
      </trkpt>
      <trkpt lat="44.09486" lon="3.25215">
        <ele>688.3</ele>
        <time>2025-02-15T11:01:13.000Z</time>
      </trkpt>
      <trkpt lat="44.09486" lon="3.25201">
        <ele>691.7</ele>
        <time>2025-02-15T11:01:24.000Z</time>
      </trkpt>
      <trkpt lat="44.09488" lon="3.25189">
        <ele>694.1</ele>
        <time>2025-02-15T11:01:32.000Z</time>
      </trkpt>
      <trkpt lat="44.0949" lon="3.25175">
        <ele>696.5</ele>
        <time>2025-02-15T11:01:40.000Z</time>
      </trkpt>
      <trkpt lat="44.09492" lon="3.25163">
        <ele>698.7</ele>
        <time>2025-02-15T11:01:47.000Z</time>
      </trkpt>
      <trkpt lat="44.09496" lon="3.25149">
        <ele>700.9</ele>
        <time>2025-02-15T11:01:54.000Z</time>
      </trkpt>
      <trkpt lat="44.09499" lon="3.25136">
        <ele>703</ele>
        <time>2025-02-15T11:02:01.000Z</time>
      </trkpt>
      <trkpt lat="44.09502" lon="3.25125">
        <ele>704.8</ele>
        <time>2025-02-15T11:02:07.000Z</time>
      </trkpt>
      <trkpt lat="44.09507" lon="3.25113">
        <ele>706.4</ele>
        <time>2025-02-15T11:02:13.000Z</time>
      </trkpt>
      <trkpt lat="44.09512" lon="3.25102">
        <ele>708.1</ele>
        <time>2025-02-15T11:02:19.000Z</time>
      </trkpt>
      <trkpt lat="44.09518" lon="3.25092">
        <ele>709.3</ele>
        <time>2025-02-15T11:02:24.000Z</time>
      </trkpt>
      <trkpt lat="44.09524" lon="3.25081">
        <ele>710.4</ele>
        <time>2025-02-15T11:02:29.000Z</time>
      </trkpt>
      <trkpt lat="44.09531" lon="3.25072">
        <ele>711.4</ele>
        <time>2025-02-15T11:02:35.000Z</time>
      </trkpt>
      <trkpt lat="44.09535" lon="3.2506">
        <ele>712.8</ele>
        <time>2025-02-15T11:02:43.000Z</time>
      </trkpt>
      <trkpt lat="44.09537" lon="3.25046">
        <ele>713.9</ele>
        <time>2025-02-15T11:02:48.000Z</time>
      </trkpt>
      <trkpt lat="44.09538" lon="3.25032">
        <ele>715.2</ele>
        <time>2025-02-15T11:02:53.000Z</time>
      </trkpt>
      <trkpt lat="44.09538" lon="3.25019">
        <ele>716.8</ele>
        <time>2025-02-15T11:02:58.000Z</time>
      </trkpt>
      <trkpt lat="44.09534" lon="3.25005">
        <ele>718.5</ele>
        <time>2025-02-15T11:03:03.000Z</time>
      </trkpt>
      <trkpt lat="44.09529" lon="3.24991">
        <ele>720.4</ele>
        <time>2025-02-15T11:03:08.000Z</time>
      </trkpt>
      <trkpt lat="44.09531" lon="3.24977">
        <ele>722.2</ele>
        <time>2025-02-15T11:03:13.000Z</time>
      </trkpt>
      <trkpt lat="44.09528" lon="3.24964">
        <ele>724.1</ele>
        <time>2025-02-15T11:03:19.000Z</time>
      </trkpt>
      <trkpt lat="44.09524" lon="3.24951">
        <ele>734.8</ele>
        <time>2025-02-15T11:04:32.000Z</time>
      </trkpt>
      <trkpt lat="44.09521" lon="3.24936">
        <ele>735.2</ele>
        <time>2025-02-15T11:04:37.000Z</time>
      </trkpt>
      <trkpt lat="44.09515" lon="3.2492">
        <ele>735.4</ele>
        <time>2025-02-15T11:04:41.000Z</time>
      </trkpt>
      <trkpt lat="44.09509" lon="3.2491">
        <ele>735.3</ele>
        <time>2025-02-15T11:04:43.000Z</time>
      </trkpt>
      <trkpt lat="44.09502" lon="3.24897">
        <ele>735.1</ele>
        <time>2025-02-15T11:04:45.000Z</time>
      </trkpt>
      <trkpt lat="44.09497" lon="3.2488">
        <ele>734.8</ele>
        <time>2025-02-15T11:04:47.000Z</time>
      </trkpt>
      <trkpt lat="44.09496" lon="3.24863">
        <ele>734.6</ele>
        <time>2025-02-15T11:04:49.000Z</time>
      </trkpt>
      <trkpt lat="44.09498" lon="3.24848">
        <ele>734.3</ele>
        <time>2025-02-15T11:04:51.000Z</time>
      </trkpt>
      <trkpt lat="44.09502" lon="3.24836">
        <ele>734.2</ele>
        <time>2025-02-15T11:04:53.000Z</time>
      </trkpt>
      <trkpt lat="44.09506" lon="3.2482">
        <ele>733.9</ele>
        <time>2025-02-15T11:04:56.000Z</time>
      </trkpt>
      <trkpt lat="44.0951" lon="3.24805">
        <ele>733.8</ele>
        <time>2025-02-15T11:04:59.000Z</time>
      </trkpt>
      <trkpt lat="44.09515" lon="3.2479">
        <ele>733.7</ele>
        <time>2025-02-15T11:05:02.000Z</time>
      </trkpt>
      <trkpt lat="44.0952" lon="3.24778">
        <ele>733.7</ele>
        <time>2025-02-15T11:05:05.000Z</time>
      </trkpt>
      <trkpt lat="44.09524" lon="3.24764">
        <ele>733.8</ele>
        <time>2025-02-15T11:05:08.000Z</time>
      </trkpt>
      <trkpt lat="44.09525" lon="3.24746">
        <ele>733.9</ele>
        <time>2025-02-15T11:05:11.000Z</time>
      </trkpt>
      <trkpt lat="44.09525" lon="3.24732">
        <ele>733.9</ele>
        <time>2025-02-15T11:05:13.000Z</time>
      </trkpt>
      <trkpt lat="44.09524" lon="3.24718">
        <ele>734</ele>
        <time>2025-02-15T11:05:15.000Z</time>
      </trkpt>
      <trkpt lat="44.09519" lon="3.24705">
        <ele>734.1</ele>
        <time>2025-02-15T11:05:17.000Z</time>
      </trkpt>
      <trkpt lat="44.09511" lon="3.24695">
        <ele>734.3</ele>
        <time>2025-02-15T11:05:19.000Z</time>
      </trkpt>
      <trkpt lat="44.09504" lon="3.24686">
        <ele>734.4</ele>
        <time>2025-02-15T11:05:21.000Z</time>
      </trkpt>
      <trkpt lat="44.09501" lon="3.24672">
        <ele>734.7</ele>
        <time>2025-02-15T11:05:24.000Z</time>
      </trkpt>
      <trkpt lat="44.09507" lon="3.2466">
        <ele>735.1</ele>
        <time>2025-02-15T11:05:27.000Z</time>
      </trkpt>
      <trkpt lat="44.09512" lon="3.24649">
        <ele>735.5</ele>
        <time>2025-02-15T11:05:30.000Z</time>
      </trkpt>
      <trkpt lat="44.09516" lon="3.24638">
        <ele>736.3</ele>
        <time>2025-02-15T11:05:34.000Z</time>
      </trkpt>
      <trkpt lat="44.09506" lon="3.24635">
        <ele>738.4</ele>
        <time>2025-02-15T11:05:44.000Z</time>
      </trkpt>
      <trkpt lat="44.09497" lon="3.24642">
        <ele>739.4</ele>
        <time>2025-02-15T11:05:49.000Z</time>
      </trkpt>
      <trkpt lat="44.09487" lon="3.24646">
        <ele>740.4</ele>
        <time>2025-02-15T11:05:53.000Z</time>
      </trkpt>
      <trkpt lat="44.09476" lon="3.24651">
        <ele>741.2</ele>
        <time>2025-02-15T11:05:57.000Z</time>
      </trkpt>
      <trkpt lat="44.09467" lon="3.24654">
        <ele>741.7</ele>
        <time>2025-02-15T11:06:00.000Z</time>
      </trkpt>
      <trkpt lat="44.09457" lon="3.24658">
        <ele>742.2</ele>
        <time>2025-02-15T11:06:03.000Z</time>
      </trkpt>
      <trkpt lat="44.09447" lon="3.24661">
        <ele>742.8</ele>
        <time>2025-02-15T11:06:06.000Z</time>
      </trkpt>
      <trkpt lat="44.09439" lon="3.24664">
        <ele>743.2</ele>
        <time>2025-02-15T11:06:09.000Z</time>
      </trkpt>
      <trkpt lat="44.09428" lon="3.24671">
        <ele>743.8</ele>
        <time>2025-02-15T11:06:13.000Z</time>
      </trkpt>
      <trkpt lat="44.0942" lon="3.24677">
        <ele>744.1</ele>
        <time>2025-02-15T11:06:16.000Z</time>
      </trkpt>
      <trkpt lat="44.09407" lon="3.24682">
        <ele>744.4</ele>
        <time>2025-02-15T11:06:19.000Z</time>
      </trkpt>
      <trkpt lat="44.09398" lon="3.24683">
        <ele>744.6</ele>
        <time>2025-02-15T11:06:21.000Z</time>
      </trkpt>
      <trkpt lat="44.09385" lon="3.24685">
        <ele>744.8</ele>
        <time>2025-02-15T11:06:24.000Z</time>
      </trkpt>
      <trkpt lat="44.09374" lon="3.24688">
        <ele>745</ele>
        <time>2025-02-15T11:06:27.000Z</time>
      </trkpt>
      <trkpt lat="44.09361" lon="3.24692">
        <ele>745.1</ele>
        <time>2025-02-15T11:06:30.000Z</time>
      </trkpt>
      <trkpt lat="44.09351" lon="3.24695">
        <ele>745.1</ele>
        <time>2025-02-15T11:06:32.000Z</time>
      </trkpt>
      <trkpt lat="44.0934" lon="3.24697">
        <ele>745.1</ele>
        <time>2025-02-15T11:06:34.000Z</time>
      </trkpt>
      <trkpt lat="44.09329" lon="3.24702">
        <ele>744.9</ele>
        <time>2025-02-15T11:06:36.000Z</time>
      </trkpt>
      <trkpt lat="44.09317" lon="3.24709">
        <ele>744.7</ele>
        <time>2025-02-15T11:06:38.000Z</time>
      </trkpt>
      <trkpt lat="44.09306" lon="3.24716">
        <ele>744.5</ele>
        <time>2025-02-15T11:06:40.000Z</time>
      </trkpt>
      <trkpt lat="44.09295" lon="3.24722">
        <ele>744.3</ele>
        <time>2025-02-15T11:06:42.000Z</time>
      </trkpt>
      <trkpt lat="44.09285" lon="3.24725">
        <ele>744.1</ele>
        <time>2025-02-15T11:06:44.000Z</time>
      </trkpt>
      <trkpt lat="44.09276" lon="3.24727">
        <ele>744</ele>
        <time>2025-02-15T11:06:46.000Z</time>
      </trkpt>
      <trkpt lat="44.09263" lon="3.24729">
        <ele>744</ele>
        <time>2025-02-15T11:06:49.000Z</time>
      </trkpt>
      <trkpt lat="44.09253" lon="3.24731">
        <ele>744</ele>
        <time>2025-02-15T11:06:52.000Z</time>
      </trkpt>
      <trkpt lat="44.09244" lon="3.24732">
        <ele>744</ele>
        <time>2025-02-15T11:06:55.000Z</time>
      </trkpt>
      <trkpt lat="44.09232" lon="3.24732">
        <ele>744</ele>
        <time>2025-02-15T11:06:59.000Z</time>
      </trkpt>
      <trkpt lat="44.09224" lon="3.24727">
        <ele>744.1</ele>
        <time>2025-02-15T11:07:04.000Z</time>
      </trkpt>
      <trkpt lat="44.09218" lon="3.24714">
        <ele>744.3</ele>
        <time>2025-02-15T11:07:08.000Z</time>
      </trkpt>
      <trkpt lat="44.09211" lon="3.24705">
        <ele>744.3</ele>
        <time>2025-02-15T11:07:11.000Z</time>
      </trkpt>
      <trkpt lat="44.09202" lon="3.24696">
        <ele>744.3</ele>
        <time>2025-02-15T11:07:14.000Z</time>
      </trkpt>
      <trkpt lat="44.09194" lon="3.24681">
        <ele>744.2</ele>
        <time>2025-02-15T11:07:17.000Z</time>
      </trkpt>
      <trkpt lat="44.09188" lon="3.24669">
        <ele>744.1</ele>
        <time>2025-02-15T11:07:19.000Z</time>
      </trkpt>
      <trkpt lat="44.09183" lon="3.24659">
        <ele>743.9</ele>
        <time>2025-02-15T11:07:21.000Z</time>
      </trkpt>
      <trkpt lat="44.09176" lon="3.2465">
        <ele>743.7</ele>
        <time>2025-02-15T11:07:23.000Z</time>
      </trkpt>
      <trkpt lat="44.09166" lon="3.24638">
        <ele>743.5</ele>
        <time>2025-02-15T11:07:26.000Z</time>
      </trkpt>
      <trkpt lat="44.09158" lon="3.24628">
        <ele>743.3</ele>
        <time>2025-02-15T11:07:29.000Z</time>
      </trkpt>
      <trkpt lat="44.09149" lon="3.24622">
        <ele>743.1</ele>
        <time>2025-02-15T11:07:33.000Z</time>
      </trkpt>
      <trkpt lat="44.0914" lon="3.24615">
        <ele>742.9</ele>
        <time>2025-02-15T11:07:37.000Z</time>
      </trkpt>
      <trkpt lat="44.09131" lon="3.24612">
        <ele>742.8</ele>
        <time>2025-02-15T11:07:41.000Z</time>
      </trkpt>
      <trkpt lat="44.09124" lon="3.24619">
        <ele>742.7</ele>
        <time>2025-02-15T11:07:45.000Z</time>
      </trkpt>
      <trkpt lat="44.09114" lon="3.24623">
        <ele>742.6</ele>
        <time>2025-02-15T11:07:49.000Z</time>
      </trkpt>
      <trkpt lat="44.09105" lon="3.24615">
        <ele>742.6</ele>
        <time>2025-02-15T11:07:53.000Z</time>
      </trkpt>
      <trkpt lat="44.09096" lon="3.24616">
        <ele>742.6</ele>
        <time>2025-02-15T11:07:58.000Z</time>
      </trkpt>
      <trkpt lat="44.09085" lon="3.24617">
        <ele>742.6</ele>
        <time>2025-02-15T11:08:03.000Z</time>
      </trkpt>
      <trkpt lat="44.09074" lon="3.24619">
        <ele>742.7</ele>
        <time>2025-02-15T11:08:08.000Z</time>
      </trkpt>
      <trkpt lat="44.09067" lon="3.24629">
        <ele>743.4</ele>
        <time>2025-02-15T11:08:32.000Z</time>
      </trkpt>
      <trkpt lat="44.09066" lon="3.24642">
        <ele>743.4</ele>
        <time>2025-02-15T11:08:36.000Z</time>
      </trkpt>
      <trkpt lat="44.09067" lon="3.24657">
        <ele>743.5</ele>
        <time>2025-02-15T11:08:40.000Z</time>
      </trkpt>
      <trkpt lat="44.09067" lon="3.24671">
        <ele>743.5</ele>
        <time>2025-02-15T11:08:44.000Z</time>
      </trkpt>
      <trkpt lat="44.09064" lon="3.24685">
        <ele>743.6</ele>
        <time>2025-02-15T11:08:48.000Z</time>
      </trkpt>
      <trkpt lat="44.09055" lon="3.24693">
        <ele>743.6</ele>
        <time>2025-02-15T11:08:52.000Z</time>
      </trkpt>
      <trkpt lat="44.09045" lon="3.247">
        <ele>743.7</ele>
        <time>2025-02-15T11:08:56.000Z</time>
      </trkpt>
      <trkpt lat="44.09036" lon="3.24705">
        <ele>743.7</ele>
        <time>2025-02-15T11:08:59.000Z</time>
      </trkpt>
      <trkpt lat="44.09028" lon="3.2471">
        <ele>743.8</ele>
        <time>2025-02-15T11:09:02.000Z</time>
      </trkpt>
      <trkpt lat="44.09019" lon="3.24717">
        <ele>743.9</ele>
        <time>2025-02-15T11:09:05.000Z</time>
      </trkpt>
      <trkpt lat="44.0901" lon="3.24722">
        <ele>743.9</ele>
        <time>2025-02-15T11:09:07.000Z</time>
      </trkpt>
      <trkpt lat="44.08999" lon="3.24731">
        <ele>744</ele>
        <time>2025-02-15T11:09:10.000Z</time>
      </trkpt>
      <trkpt lat="44.0899" lon="3.24739">
        <ele>744</ele>
        <time>2025-02-15T11:09:13.000Z</time>
      </trkpt>
      <trkpt lat="44.08979" lon="3.24744">
        <ele>744</ele>
        <time>2025-02-15T11:09:16.000Z</time>
      </trkpt>
      <trkpt lat="44.08969" lon="3.24748">
        <ele>744.1</ele>
        <time>2025-02-15T11:09:19.000Z</time>
      </trkpt>
      <trkpt lat="44.08959" lon="3.24753">
        <ele>744.4</ele>
        <time>2025-02-15T11:09:22.000Z</time>
      </trkpt>
      <trkpt lat="44.08949" lon="3.24759">
        <ele>744.9</ele>
        <time>2025-02-15T11:09:26.000Z</time>
      </trkpt>
      <trkpt lat="44.08939" lon="3.24764">
        <ele>745.4</ele>
        <time>2025-02-15T11:09:30.000Z</time>
      </trkpt>
      <trkpt lat="44.0893" lon="3.2477">
        <ele>746.1</ele>
        <time>2025-02-15T11:09:34.000Z</time>
      </trkpt>
      <trkpt lat="44.0892" lon="3.24777">
        <ele>747</ele>
        <time>2025-02-15T11:09:39.000Z</time>
      </trkpt>
      <trkpt lat="44.08911" lon="3.24783">
        <ele>747.9</ele>
        <time>2025-02-15T11:09:44.000Z</time>
      </trkpt>
      <trkpt lat="44.08905" lon="3.24794">
        <ele>748.8</ele>
        <time>2025-02-15T11:09:49.000Z</time>
      </trkpt>
      <trkpt lat="44.08897" lon="3.24803">
        <ele>750</ele>
        <time>2025-02-15T11:09:55.000Z</time>
      </trkpt>
      <trkpt lat="44.08889" lon="3.24809">
        <ele>750.9</ele>
        <time>2025-02-15T11:10:00.000Z</time>
      </trkpt>
      <trkpt lat="44.0888" lon="3.24814">
        <ele>751.7</ele>
        <time>2025-02-15T11:10:05.000Z</time>
      </trkpt>
      <trkpt lat="44.08869" lon="3.24817">
        <ele>752.4</ele>
        <time>2025-02-15T11:10:10.000Z</time>
      </trkpt>
      <trkpt lat="44.08859" lon="3.2482">
        <ele>753</ele>
        <time>2025-02-15T11:10:15.000Z</time>
      </trkpt>
      <trkpt lat="44.08852" lon="3.24828">
        <ele>753.7</ele>
        <time>2025-02-15T11:10:19.000Z</time>
      </trkpt>
      <trkpt lat="44.08845" lon="3.24837">
        <ele>754.4</ele>
        <time>2025-02-15T11:10:24.000Z</time>
      </trkpt>
      <trkpt lat="44.08839" lon="3.24848">
        <ele>754.9</ele>
        <time>2025-02-15T11:10:28.000Z</time>
      </trkpt>
      <trkpt lat="44.08833" lon="3.24859">
        <ele>755.4</ele>
        <time>2025-02-15T11:10:32.000Z</time>
      </trkpt>
      <trkpt lat="44.08826" lon="3.24869">
        <ele>755.8</ele>
        <time>2025-02-15T11:10:36.000Z</time>
      </trkpt>
      <trkpt lat="44.08818" lon="3.2488">
        <ele>756.1</ele>
        <time>2025-02-15T11:10:40.000Z</time>
      </trkpt>
      <trkpt lat="44.0881" lon="3.24892">
        <ele>756.5</ele>
        <time>2025-02-15T11:10:44.000Z</time>
      </trkpt>
      <trkpt lat="44.08803" lon="3.24902">
        <ele>756.7</ele>
        <time>2025-02-15T11:10:47.000Z</time>
      </trkpt>
      <trkpt lat="44.08796" lon="3.24913">
        <ele>757.1</ele>
        <time>2025-02-15T11:10:51.000Z</time>
      </trkpt>
      <trkpt lat="44.08788" lon="3.2492">
        <ele>757.8</ele>
        <time>2025-02-15T11:10:55.000Z</time>
      </trkpt>
      <trkpt lat="44.08779" lon="3.24929">
        <ele>758.6</ele>
        <time>2025-02-15T11:11:00.000Z</time>
      </trkpt>
      <trkpt lat="44.08773" lon="3.24941">
        <ele>759.3</ele>
        <time>2025-02-15T11:11:04.000Z</time>
      </trkpt>
      <trkpt lat="44.08768" lon="3.24953">
        <ele>760</ele>
        <time>2025-02-15T11:11:08.000Z</time>
      </trkpt>
      <trkpt lat="44.08763" lon="3.24968">
        <ele>760.7</ele>
        <time>2025-02-15T11:11:12.000Z</time>
      </trkpt>
      <trkpt lat="44.08759" lon="3.24981">
        <ele>761.2</ele>
        <time>2025-02-15T11:11:16.000Z</time>
      </trkpt>
      <trkpt lat="44.08752" lon="3.24994">
        <ele>761.6</ele>
        <time>2025-02-15T11:11:20.000Z</time>
      </trkpt>
      <trkpt lat="44.08747" lon="3.25008">
        <ele>762</ele>
        <time>2025-02-15T11:11:24.000Z</time>
      </trkpt>
      <trkpt lat="44.08744" lon="3.25022">
        <ele>762.3</ele>
        <time>2025-02-15T11:11:28.000Z</time>
      </trkpt>
      <trkpt lat="44.0874" lon="3.25034">
        <ele>762.7</ele>
        <time>2025-02-15T11:11:32.000Z</time>
      </trkpt>
      <trkpt lat="44.08734" lon="3.25044">
        <ele>763.1</ele>
        <time>2025-02-15T11:11:37.000Z</time>
      </trkpt>
      <trkpt lat="44.08726" lon="3.25054">
        <ele>763.6</ele>
        <time>2025-02-15T11:11:42.000Z</time>
      </trkpt>
      <trkpt lat="44.08719" lon="3.25061">
        <ele>764.5</ele>
        <time>2025-02-15T11:11:48.000Z</time>
      </trkpt>
      <trkpt lat="44.08711" lon="3.25068">
        <ele>765.2</ele>
        <time>2025-02-15T11:11:55.000Z</time>
      </trkpt>
      <trkpt lat="44.08702" lon="3.25074">
        <ele>765.7</ele>
        <time>2025-02-15T11:12:02.000Z</time>
      </trkpt>
      <trkpt lat="44.08691" lon="3.25078">
        <ele>766.2</ele>
        <time>2025-02-15T11:12:14.000Z</time>
      </trkpt>
      <trkpt lat="44.08683" lon="3.25084">
        <ele>766.4</ele>
        <time>2025-02-15T11:12:19.000Z</time>
      </trkpt>
      <trkpt lat="44.08674" lon="3.2509">
        <ele>766.6</ele>
        <time>2025-02-15T11:12:24.000Z</time>
      </trkpt>
      <trkpt lat="44.08666" lon="3.25099">
        <ele>766.6</ele>
        <time>2025-02-15T11:12:29.000Z</time>
      </trkpt>
      <trkpt lat="44.08658" lon="3.25105">
        <ele>766.7</ele>
        <time>2025-02-15T11:12:33.000Z</time>
      </trkpt>
      <trkpt lat="44.08649" lon="3.25111">
        <ele>766.7</ele>
        <time>2025-02-15T11:12:37.000Z</time>
      </trkpt>
      <trkpt lat="44.08639" lon="3.25116">
        <ele>766.8</ele>
        <time>2025-02-15T11:12:41.000Z</time>
      </trkpt>
      <trkpt lat="44.0863" lon="3.25121">
        <ele>766.8</ele>
        <time>2025-02-15T11:12:45.000Z</time>
      </trkpt>
      <trkpt lat="44.08625" lon="3.25132">
        <ele>766.9</ele>
        <time>2025-02-15T11:13:16.000Z</time>
      </trkpt>
      <trkpt lat="44.08618" lon="3.25142">
        <ele>766.9</ele>
        <time>2025-02-15T11:13:21.000Z</time>
      </trkpt>
      <trkpt lat="44.0861" lon="3.25152">
        <ele>766.9</ele>
        <time>2025-02-15T11:13:25.000Z</time>
      </trkpt>
      <trkpt lat="44.08604" lon="3.25161">
        <ele>766.9</ele>
        <time>2025-02-15T11:13:28.000Z</time>
      </trkpt>
      <trkpt lat="44.08595" lon="3.25169">
        <ele>766.8</ele>
        <time>2025-02-15T11:13:32.000Z</time>
      </trkpt>
      <trkpt lat="44.08585" lon="3.25174">
        <ele>766.8</ele>
        <time>2025-02-15T11:13:37.000Z</time>
      </trkpt>
      <trkpt lat="44.08576" lon="3.25181">
        <ele>766.6</ele>
        <time>2025-02-15T11:13:41.000Z</time>
      </trkpt>
      <trkpt lat="44.08567" lon="3.25189">
        <ele>766.3</ele>
        <time>2025-02-15T11:13:44.000Z</time>
      </trkpt>
      <trkpt lat="44.08559" lon="3.25198">
        <ele>765.4</ele>
        <time>2025-02-15T11:13:48.000Z</time>
      </trkpt>
      <trkpt lat="44.08549" lon="3.25204">
        <ele>764.8</ele>
        <time>2025-02-15T11:13:51.000Z</time>
      </trkpt>
      <trkpt lat="44.08541" lon="3.25211">
        <ele>764.1</ele>
        <time>2025-02-15T11:13:54.000Z</time>
      </trkpt>
      <trkpt lat="44.0853" lon="3.25212">
        <ele>763.2</ele>
        <time>2025-02-15T11:13:57.000Z</time>
      </trkpt>
      <trkpt lat="44.0852" lon="3.25216">
        <ele>762.2</ele>
        <time>2025-02-15T11:14:00.000Z</time>
      </trkpt>
      <trkpt lat="44.08511" lon="3.2522">
        <ele>760.9</ele>
        <time>2025-02-15T11:14:04.000Z</time>
      </trkpt>
      <trkpt lat="44.08501" lon="3.25227">
        <ele>759.7</ele>
        <time>2025-02-15T11:14:08.000Z</time>
      </trkpt>
      <trkpt lat="44.0849" lon="3.25233">
        <ele>758.4</ele>
        <time>2025-02-15T11:14:12.000Z</time>
      </trkpt>
      <trkpt lat="44.08481" lon="3.25239">
        <ele>757.2</ele>
        <time>2025-02-15T11:14:16.000Z</time>
      </trkpt>
      <trkpt lat="44.08471" lon="3.25241">
        <ele>756</ele>
        <time>2025-02-15T11:14:20.000Z</time>
      </trkpt>
      <trkpt lat="44.08463" lon="3.25248">
        <ele>755</ele>
        <time>2025-02-15T11:14:23.000Z</time>
      </trkpt>
      <trkpt lat="44.08452" lon="3.25256">
        <ele>754</ele>
        <time>2025-02-15T11:14:26.000Z</time>
      </trkpt>
      <trkpt lat="44.08444" lon="3.25264">
        <ele>752.7</ele>
        <time>2025-02-15T11:14:30.000Z</time>
      </trkpt>
      <trkpt lat="44.08434" lon="3.25271">
        <ele>751.4</ele>
        <time>2025-02-15T11:14:35.000Z</time>
      </trkpt>
      <trkpt lat="44.08425" lon="3.25276">
        <ele>750</ele>
        <time>2025-02-15T11:14:40.000Z</time>
      </trkpt>
      <trkpt lat="44.08417" lon="3.25283">
        <ele>748.8</ele>
        <time>2025-02-15T11:14:44.000Z</time>
      </trkpt>
      <trkpt lat="44.08408" lon="3.25291">
        <ele>744.1</ele>
        <time>2025-02-15T11:14:59.000Z</time>
      </trkpt>
      <trkpt lat="44.08401" lon="3.253">
        <ele>742.8</ele>
        <time>2025-02-15T11:15:03.000Z</time>
      </trkpt>
      <trkpt lat="44.08392" lon="3.25307">
        <ele>740.8</ele>
        <time>2025-02-15T11:15:08.000Z</time>
      </trkpt>
      <trkpt lat="44.08381" lon="3.25306">
        <ele>739.6</ele>
        <time>2025-02-15T11:15:11.000Z</time>
      </trkpt>
      <trkpt lat="44.08371" lon="3.25305">
        <ele>738</ele>
        <time>2025-02-15T11:15:14.000Z</time>
      </trkpt>
      <trkpt lat="44.08361" lon="3.25309">
        <ele>735.8</ele>
        <time>2025-02-15T11:15:18.000Z</time>
      </trkpt>
      <trkpt lat="44.08363" lon="3.25323">
        <ele>733.1</ele>
        <time>2025-02-15T11:15:24.000Z</time>
      </trkpt>
      <trkpt lat="44.08365" lon="3.25336">
        <ele>730.9</ele>
        <time>2025-02-15T11:15:31.000Z</time>
      </trkpt>
      <trkpt lat="44.0836" lon="3.25348">
        <ele>729.6</ele>
        <time>2025-02-15T11:15:37.000Z</time>
      </trkpt>
      <trkpt lat="44.08351" lon="3.25359">
        <ele>728.6</ele>
        <time>2025-02-15T11:15:41.000Z</time>
      </trkpt>
      <trkpt lat="44.08344" lon="3.25367">
        <ele>728</ele>
        <time>2025-02-15T11:15:43.000Z</time>
      </trkpt>
      <trkpt lat="44.08335" lon="3.25375">
        <ele>726.8</ele>
        <time>2025-02-15T11:15:46.000Z</time>
      </trkpt>
      <trkpt lat="44.08326" lon="3.25387">
        <ele>725.6</ele>
        <time>2025-02-15T11:15:49.000Z</time>
      </trkpt>
      <trkpt lat="44.08317" lon="3.25397">
        <ele>724.2</ele>
        <time>2025-02-15T11:15:52.000Z</time>
      </trkpt>
      <trkpt lat="44.08305" lon="3.25403">
        <ele>722.9</ele>
        <time>2025-02-15T11:15:55.000Z</time>
      </trkpt>
      <trkpt lat="44.08294" lon="3.25412">
        <ele>721.5</ele>
        <time>2025-02-15T11:15:58.000Z</time>
      </trkpt>
      <trkpt lat="44.0829" lon="3.25427">
        <ele>720.2</ele>
        <time>2025-02-15T11:16:01.000Z</time>
      </trkpt>
      <trkpt lat="44.08287" lon="3.25441">
        <ele>718.9</ele>
        <time>2025-02-15T11:16:04.000Z</time>
      </trkpt>
      <trkpt lat="44.08279" lon="3.25451">
        <ele>717.7</ele>
        <time>2025-02-15T11:16:07.000Z</time>
      </trkpt>
      <trkpt lat="44.08268" lon="3.25457">
        <ele>716.3</ele>
        <time>2025-02-15T11:16:10.000Z</time>
      </trkpt>
      <trkpt lat="44.08259" lon="3.25463">
        <ele>714.9</ele>
        <time>2025-02-15T11:16:13.000Z</time>
      </trkpt>
      <trkpt lat="44.08247" lon="3.25469">
        <ele>713.3</ele>
        <time>2025-02-15T11:16:16.000Z</time>
      </trkpt>
      <trkpt lat="44.0824" lon="3.25476">
        <ele>712.2</ele>
        <time>2025-02-15T11:16:18.000Z</time>
      </trkpt>
      <trkpt lat="44.08232" lon="3.25484">
        <ele>711</ele>
        <time>2025-02-15T11:16:20.000Z</time>
      </trkpt>
      <trkpt lat="44.08225" lon="3.25492">
        <ele>709.8</ele>
        <time>2025-02-15T11:16:22.000Z</time>
      </trkpt>
      <trkpt lat="44.08217" lon="3.25503">
        <ele>708</ele>
        <time>2025-02-15T11:16:25.000Z</time>
      </trkpt>
      <trkpt lat="44.08209" lon="3.25511">
        <ele>705.3</ele>
        <time>2025-02-15T11:16:30.000Z</time>
      </trkpt>
      <trkpt lat="44.08201" lon="3.25519">
        <ele>703.9</ele>
        <time>2025-02-15T11:16:33.000Z</time>
      </trkpt>
      <trkpt lat="44.08192" lon="3.25531">
        <ele>702.8</ele>
        <time>2025-02-15T11:16:36.000Z</time>
      </trkpt>
      <trkpt lat="44.08184" lon="3.25543">
        <ele>701.5</ele>
        <time>2025-02-15T11:16:40.000Z</time>
      </trkpt>
      <trkpt lat="44.08178" lon="3.25552">
        <ele>700.5</ele>
        <time>2025-02-15T11:16:44.000Z</time>
      </trkpt>
      <trkpt lat="44.0817" lon="3.25559">
        <ele>699.4</ele>
        <time>2025-02-15T11:16:50.000Z</time>
      </trkpt>
      <trkpt lat="44.08162" lon="3.25567">
        <ele>698.5</ele>
        <time>2025-02-15T11:17:05.000Z</time>
      </trkpt>
      <trkpt lat="44.08153" lon="3.25573">
        <ele>698.5</ele>
        <time>2025-02-15T11:17:08.000Z</time>
      </trkpt>
      <trkpt lat="44.08145" lon="3.2558">
        <ele>698.8</ele>
        <time>2025-02-15T11:17:12.000Z</time>
      </trkpt>
      <trkpt lat="44.08135" lon="3.25585">
        <ele>699.1</ele>
        <time>2025-02-15T11:17:17.000Z</time>
      </trkpt>
      <trkpt lat="44.08125" lon="3.25586">
        <ele>699.3</ele>
        <time>2025-02-15T11:17:21.000Z</time>
      </trkpt>
      <trkpt lat="44.08116" lon="3.25582">
        <ele>699.4</ele>
        <time>2025-02-15T11:17:25.000Z</time>
      </trkpt>
      <trkpt lat="44.08106" lon="3.25581">
        <ele>699.6</ele>
        <time>2025-02-15T11:17:29.000Z</time>
      </trkpt>
      <trkpt lat="44.08095" lon="3.25579">
        <ele>700.1</ele>
        <time>2025-02-15T11:17:34.000Z</time>
      </trkpt>
      <trkpt lat="44.08086" lon="3.25578">
        <ele>700.4</ele>
        <time>2025-02-15T11:17:38.000Z</time>
      </trkpt>
      <trkpt lat="44.08076" lon="3.25577">
        <ele>700.7</ele>
        <time>2025-02-15T11:17:43.000Z</time>
      </trkpt>
      <trkpt lat="44.08066" lon="3.25573">
        <ele>701</ele>
        <time>2025-02-15T11:17:49.000Z</time>
      </trkpt>
      <trkpt lat="44.08057" lon="3.25568">
        <ele>701.3</ele>
        <time>2025-02-15T11:17:55.000Z</time>
      </trkpt>
      <trkpt lat="44.08047" lon="3.25567">
        <ele>701.2</ele>
        <time>2025-02-15T11:18:09.000Z</time>
      </trkpt>
      <trkpt lat="44.08037" lon="3.25569">
        <ele>700.9</ele>
        <time>2025-02-15T11:18:16.000Z</time>
      </trkpt>
      <trkpt lat="44.08027" lon="3.25575">
        <ele>700.4</ele>
        <time>2025-02-15T11:18:21.000Z</time>
      </trkpt>
      <trkpt lat="44.08022" lon="3.25587">
        <ele>699.9</ele>
        <time>2025-02-15T11:18:26.000Z</time>
      </trkpt>
      <trkpt lat="44.08016" lon="3.25597">
        <ele>699.5</ele>
        <time>2025-02-15T11:18:31.000Z</time>
      </trkpt>
      <trkpt lat="44.08011" lon="3.2561">
        <ele>699.1</ele>
        <time>2025-02-15T11:18:36.000Z</time>
      </trkpt>
      <trkpt lat="44.08007" lon="3.25621">
        <ele>699.1</ele>
        <time>2025-02-15T11:18:41.000Z</time>
      </trkpt>
      <trkpt lat="44.08008" lon="3.25634">
        <ele>699.5</ele>
        <time>2025-02-15T11:18:48.000Z</time>
      </trkpt>
      <trkpt lat="44.08006" lon="3.25647">
        <ele>700.4</ele>
        <time>2025-02-15T11:18:56.000Z</time>
      </trkpt>
      <trkpt lat="44.08005" lon="3.2566">
        <ele>701.5</ele>
        <time>2025-02-15T11:19:04.000Z</time>
      </trkpt>
      <trkpt lat="44.08003" lon="3.25673">
        <ele>703.1</ele>
        <time>2025-02-15T11:19:13.000Z</time>
      </trkpt>
      <trkpt lat="44.08" lon="3.25686">
        <ele>704.7</ele>
        <time>2025-02-15T11:19:22.000Z</time>
      </trkpt>
      <trkpt lat="44.07997" lon="3.257">
        <ele>706.3</ele>
        <time>2025-02-15T11:19:31.000Z</time>
      </trkpt>
      <trkpt lat="44.07996" lon="3.25713">
        <ele>707.7</ele>
        <time>2025-02-15T11:19:39.000Z</time>
      </trkpt>
      <trkpt lat="44.07993" lon="3.25725">
        <ele>710.6</ele>
        <time>2025-02-15T11:19:55.000Z</time>
      </trkpt>
      <trkpt lat="44.07997" lon="3.25737">
        <ele>713.1</ele>
        <time>2025-02-15T11:20:26.000Z</time>
      </trkpt>
      <trkpt lat="44.07993" lon="3.25749">
        <ele>713.6</ele>
        <time>2025-02-15T11:20:33.000Z</time>
      </trkpt>
      <trkpt lat="44.07988" lon="3.25759">
        <ele>714.3</ele>
        <time>2025-02-15T11:20:39.000Z</time>
      </trkpt>
      <trkpt lat="44.07984" lon="3.2577">
        <ele>715.1</ele>
        <time>2025-02-15T11:20:45.000Z</time>
      </trkpt>
      <trkpt lat="44.07978" lon="3.25781">
        <ele>716.4</ele>
        <time>2025-02-15T11:20:51.000Z</time>
      </trkpt>
      <trkpt lat="44.0798" lon="3.25793">
        <ele>717.6</ele>
        <time>2025-02-15T11:20:57.000Z</time>
      </trkpt>
      <trkpt lat="44.0798" lon="3.25806">
        <ele>719.2</ele>
        <time>2025-02-15T11:21:04.000Z</time>
      </trkpt>
      <trkpt lat="44.0798" lon="3.25819">
        <ele>720.2</ele>
        <time>2025-02-15T11:21:10.000Z</time>
      </trkpt>
      <trkpt lat="44.07978" lon="3.25832">
        <ele>721.5</ele>
        <time>2025-02-15T11:21:17.000Z</time>
      </trkpt>
      <trkpt lat="44.07977" lon="3.25845">
        <ele>722.8</ele>
        <time>2025-02-15T11:21:24.000Z</time>
      </trkpt>
      <trkpt lat="44.07975" lon="3.25859">
        <ele>723.8</ele>
        <time>2025-02-15T11:21:31.000Z</time>
      </trkpt>
      <trkpt lat="44.07973" lon="3.25871">
        <ele>724.9</ele>
        <time>2025-02-15T11:21:39.000Z</time>
      </trkpt>
      <trkpt lat="44.07978" lon="3.25881">
        <ele>726.4</ele>
        <time>2025-02-15T11:21:53.000Z</time>
      </trkpt>
      <trkpt lat="44.07978" lon="3.25894">
        <ele>727.1</ele>
        <time>2025-02-15T11:22:04.000Z</time>
      </trkpt>
      <trkpt lat="44.07977" lon="3.25907">
        <ele>727.7</ele>
        <time>2025-02-15T11:22:12.000Z</time>
      </trkpt>
      <trkpt lat="44.07974" lon="3.2592">
        <ele>728.7</ele>
        <time>2025-02-15T11:22:19.000Z</time>
      </trkpt>
      <trkpt lat="44.07972" lon="3.25933">
        <ele>729.7</ele>
        <time>2025-02-15T11:22:26.000Z</time>
      </trkpt>
      <trkpt lat="44.0797" lon="3.25947">
        <ele>731</ele>
        <time>2025-02-15T11:22:33.000Z</time>
      </trkpt>
      <trkpt lat="44.07969" lon="3.2596">
        <ele>732.3</ele>
        <time>2025-02-15T11:22:40.000Z</time>
      </trkpt>
      <trkpt lat="44.07968" lon="3.25973">
        <ele>733.8</ele>
        <time>2025-02-15T11:22:47.000Z</time>
      </trkpt>
      <trkpt lat="44.07969" lon="3.25986">
        <ele>735.5</ele>
        <time>2025-02-15T11:22:55.000Z</time>
      </trkpt>
      <trkpt lat="44.07967" lon="3.25999">
        <ele>737.8</ele>
        <time>2025-02-15T11:23:06.000Z</time>
      </trkpt>
      <trkpt lat="44.07967" lon="3.26013">
        <ele>739.6</ele>
        <time>2025-02-15T11:23:14.000Z</time>
      </trkpt>
      <trkpt lat="44.07964" lon="3.26025">
        <ele>741.5</ele>
        <time>2025-02-15T11:23:23.000Z</time>
      </trkpt>
      <trkpt lat="44.07961" lon="3.26037">
        <ele>743.1</ele>
        <time>2025-02-15T11:23:31.000Z</time>
      </trkpt>
      <trkpt lat="44.07959" lon="3.26051">
        <ele>744.5</ele>
        <time>2025-02-15T11:23:39.000Z</time>
      </trkpt>
      <trkpt lat="44.07954" lon="3.26065">
        <ele>745.5</ele>
        <time>2025-02-15T11:23:45.000Z</time>
      </trkpt>
      <trkpt lat="44.07948" lon="3.26077">
        <ele>746.4</ele>
        <time>2025-02-15T11:23:51.000Z</time>
      </trkpt>
      <trkpt lat="44.07942" lon="3.2609">
        <ele>747.2</ele>
        <time>2025-02-15T11:23:57.000Z</time>
      </trkpt>
      <trkpt lat="44.07935" lon="3.26099">
        <ele>747.9</ele>
        <time>2025-02-15T11:24:03.000Z</time>
      </trkpt>
      <trkpt lat="44.07928" lon="3.26109">
        <ele>748.5</ele>
        <time>2025-02-15T11:24:09.000Z</time>
      </trkpt>
      <trkpt lat="44.07921" lon="3.26117">
        <ele>749</ele>
        <time>2025-02-15T11:24:14.000Z</time>
      </trkpt>
      <trkpt lat="44.07912" lon="3.26126">
        <ele>749.5</ele>
        <time>2025-02-15T11:24:19.000Z</time>
      </trkpt>
      <trkpt lat="44.07904" lon="3.26133">
        <ele>749.9</ele>
        <time>2025-02-15T11:24:23.000Z</time>
      </trkpt>
      <trkpt lat="44.07896" lon="3.26139">
        <ele>750.4</ele>
        <time>2025-02-15T11:24:28.000Z</time>
      </trkpt>
      <trkpt lat="44.07887" lon="3.26146">
        <ele>750.8</ele>
        <time>2025-02-15T11:24:33.000Z</time>
      </trkpt>
      <trkpt lat="44.07877" lon="3.26151">
        <ele>751.2</ele>
        <time>2025-02-15T11:24:38.000Z</time>
      </trkpt>
      <trkpt lat="44.07866" lon="3.26155">
        <ele>751.9</ele>
        <time>2025-02-15T11:24:43.000Z</time>
      </trkpt>
      <trkpt lat="44.07857" lon="3.26159">
        <ele>752.7</ele>
        <time>2025-02-15T11:24:49.000Z</time>
      </trkpt>
      <trkpt lat="44.07851" lon="3.2617">
        <ele>753.5</ele>
        <time>2025-02-15T11:24:56.000Z</time>
      </trkpt>
      <trkpt lat="44.07845" lon="3.2618">
        <ele>753.9</ele>
        <time>2025-02-15T11:25:00.000Z</time>
      </trkpt>
      <trkpt lat="44.07838" lon="3.26191">
        <ele>754.2</ele>
        <time>2025-02-15T11:25:04.000Z</time>
      </trkpt>
      <trkpt lat="44.07832" lon="3.26204">
        <ele>754.3</ele>
        <time>2025-02-15T11:25:07.000Z</time>
      </trkpt>
      <trkpt lat="44.07826" lon="3.26217">
        <ele>754.4</ele>
        <time>2025-02-15T11:25:10.000Z</time>
      </trkpt>
      <trkpt lat="44.07823" lon="3.26229">
        <ele>754.4</ele>
        <time>2025-02-15T11:25:13.000Z</time>
      </trkpt>
      <trkpt lat="44.07822" lon="3.26243">
        <ele>753</ele>
        <time>2025-02-15T11:25:35.000Z</time>
      </trkpt>
      <trkpt lat="44.07819" lon="3.26258">
        <ele>752.7</ele>
        <time>2025-02-15T11:25:38.000Z</time>
      </trkpt>
      <trkpt lat="44.07816" lon="3.26274">
        <ele>752.4</ele>
        <time>2025-02-15T11:25:41.000Z</time>
      </trkpt>
      <trkpt lat="44.07814" lon="3.26287">
        <ele>752.2</ele>
        <time>2025-02-15T11:25:43.000Z</time>
      </trkpt>
      <trkpt lat="44.07814" lon="3.26302">
        <ele>752</ele>
        <time>2025-02-15T11:25:46.000Z</time>
      </trkpt>
      <trkpt lat="44.07813" lon="3.26318">
        <ele>751.7</ele>
        <time>2025-02-15T11:25:50.000Z</time>
      </trkpt>
      <trkpt lat="44.07814" lon="3.26331">
        <ele>751.6</ele>
        <time>2025-02-15T11:25:54.000Z</time>
      </trkpt>
      <trkpt lat="44.07813" lon="3.26346">
        <ele>751.7</ele>
        <time>2025-02-15T11:26:00.000Z</time>
      </trkpt>
      <trkpt lat="44.07811" lon="3.26359">
        <ele>752.3</ele>
        <time>2025-02-15T11:26:06.000Z</time>
      </trkpt>
      <trkpt lat="44.07809" lon="3.26372">
        <ele>752.9</ele>
        <time>2025-02-15T11:26:12.000Z</time>
      </trkpt>
      <trkpt lat="44.07807" lon="3.26385">
        <ele>753.2</ele>
        <time>2025-02-15T11:26:17.000Z</time>
      </trkpt>
      <trkpt lat="44.07802" lon="3.26396">
        <ele>753.5</ele>
        <time>2025-02-15T11:26:22.000Z</time>
      </trkpt>
      <trkpt lat="44.07795" lon="3.26407">
        <ele>753.7</ele>
        <time>2025-02-15T11:26:27.000Z</time>
      </trkpt>
      <trkpt lat="44.0779" lon="3.2642">
        <ele>753.9</ele>
        <time>2025-02-15T11:26:33.000Z</time>
      </trkpt>
      <trkpt lat="44.07785" lon="3.2643">
        <ele>754.3</ele>
        <time>2025-02-15T11:26:38.000Z</time>
      </trkpt>
      <trkpt lat="44.0778" lon="3.26442">
        <ele>754.5</ele>
        <time>2025-02-15T11:26:42.000Z</time>
      </trkpt>
      <trkpt lat="44.07776" lon="3.26453">
        <ele>754.7</ele>
        <time>2025-02-15T11:26:46.000Z</time>
      </trkpt>
      <trkpt lat="44.07772" lon="3.26465">
        <ele>754.8</ele>
        <time>2025-02-15T11:26:52.000Z</time>
      </trkpt>
      <trkpt lat="44.07769" lon="3.26479">
        <ele>755</ele>
        <time>2025-02-15T11:26:59.000Z</time>
      </trkpt>
      <trkpt lat="44.07766" lon="3.26493">
        <ele>754.9</ele>
        <time>2025-02-15T11:27:02.000Z</time>
      </trkpt>
      <trkpt lat="44.07767" lon="3.26507">
        <ele>754.7</ele>
        <time>2025-02-15T11:27:04.000Z</time>
      </trkpt>
      <trkpt lat="44.07768" lon="3.2652">
        <ele>754.3</ele>
        <time>2025-02-15T11:27:06.000Z</time>
      </trkpt>
      <trkpt lat="44.0777" lon="3.26534">
        <ele>753.5</ele>
        <time>2025-02-15T11:27:10.000Z</time>
      </trkpt>
      <trkpt lat="44.07766" lon="3.26546">
        <ele>752.6</ele>
        <time>2025-02-15T11:27:14.000Z</time>
      </trkpt>
      <trkpt lat="44.0776" lon="3.26559">
        <ele>751.4</ele>
        <time>2025-02-15T11:27:19.000Z</time>
      </trkpt>
      <trkpt lat="44.07753" lon="3.2657">
        <ele>750.6</ele>
        <time>2025-02-15T11:27:22.000Z</time>
      </trkpt>
      <trkpt lat="44.07748" lon="3.26581">
        <ele>750</ele>
        <time>2025-02-15T11:27:24.000Z</time>
      </trkpt>
      <trkpt lat="44.07742" lon="3.26597">
        <ele>749.1</ele>
        <time>2025-02-15T11:27:27.000Z</time>
      </trkpt>
      <trkpt lat="44.07738" lon="3.26614">
        <ele>748.2</ele>
        <time>2025-02-15T11:27:30.000Z</time>
      </trkpt>
      <trkpt lat="44.07736" lon="3.26632">
        <ele>747.2</ele>
        <time>2025-02-15T11:27:33.000Z</time>
      </trkpt>
      <trkpt lat="44.07736" lon="3.26645">
        <ele>746.7</ele>
        <time>2025-02-15T11:27:35.000Z</time>
      </trkpt>
      <trkpt lat="44.07732" lon="3.26662">
        <ele>745.8</ele>
        <time>2025-02-15T11:27:38.000Z</time>
      </trkpt>
      <trkpt lat="44.07727" lon="3.26678">
        <ele>745.1</ele>
        <time>2025-02-15T11:27:41.000Z</time>
      </trkpt>
      <trkpt lat="44.07724" lon="3.26695">
        <ele>744.2</ele>
        <time>2025-02-15T11:27:44.000Z</time>
      </trkpt>
      <trkpt lat="44.07722" lon="3.26709">
        <ele>743.3</ele>
        <time>2025-02-15T11:27:47.000Z</time>
      </trkpt>
      <trkpt lat="44.07719" lon="3.26724">
        <ele>738.3</ele>
        <time>2025-02-15T11:32:46.000Z</time>
      </trkpt>
      <trkpt lat="44.07717" lon="3.26737">
        <ele>738.1</ele>
        <time>2025-02-15T11:32:49.000Z</time>
      </trkpt>
      <trkpt lat="44.07714" lon="3.2675">
        <ele>737.9</ele>
        <time>2025-02-15T11:32:52.000Z</time>
      </trkpt>
      <trkpt lat="44.07711" lon="3.26762">
        <ele>737.5</ele>
        <time>2025-02-15T11:32:55.000Z</time>
      </trkpt>
      <trkpt lat="44.07707" lon="3.26776">
        <ele>737</ele>
        <time>2025-02-15T11:32:58.000Z</time>
      </trkpt>
      <trkpt lat="44.07703" lon="3.26791">
        <ele>736.5</ele>
        <time>2025-02-15T11:33:01.000Z</time>
      </trkpt>
      <trkpt lat="44.07699" lon="3.26803">
        <ele>735.9</ele>
        <time>2025-02-15T11:33:05.000Z</time>
      </trkpt>
      <trkpt lat="44.07695" lon="3.26817">
        <ele>735.2</ele>
        <time>2025-02-15T11:33:09.000Z</time>
      </trkpt>
      <trkpt lat="44.07691" lon="3.26828">
        <ele>734.6</ele>
        <time>2025-02-15T11:33:12.000Z</time>
      </trkpt>
      <trkpt lat="44.07685" lon="3.26841">
        <ele>733.9</ele>
        <time>2025-02-15T11:33:15.000Z</time>
      </trkpt>
      <trkpt lat="44.07679" lon="3.26853">
        <ele>733.2</ele>
        <time>2025-02-15T11:33:18.000Z</time>
      </trkpt>
      <trkpt lat="44.07672" lon="3.26866">
        <ele>732.6</ele>
        <time>2025-02-15T11:33:21.000Z</time>
      </trkpt>
      <trkpt lat="44.07665" lon="3.26879">
        <ele>731.9</ele>
        <time>2025-02-15T11:33:24.000Z</time>
      </trkpt>
      <trkpt lat="44.0766" lon="3.2689">
        <ele>731.5</ele>
        <time>2025-02-15T11:33:26.000Z</time>
      </trkpt>
      <trkpt lat="44.07654" lon="3.26901">
        <ele>731</ele>
        <time>2025-02-15T11:33:28.000Z</time>
      </trkpt>
      <trkpt lat="44.07648" lon="3.26913">
        <ele>730.3</ele>
        <time>2025-02-15T11:33:30.000Z</time>
      </trkpt>
      <trkpt lat="44.07642" lon="3.26926">
        <ele>729.7</ele>
        <time>2025-02-15T11:33:32.000Z</time>
      </trkpt>
      <trkpt lat="44.07636" lon="3.26938">
        <ele>729.1</ele>
        <time>2025-02-15T11:33:34.000Z</time>
      </trkpt>
      <trkpt lat="44.0763" lon="3.26949">
        <ele>728.5</ele>
        <time>2025-02-15T11:33:36.000Z</time>
      </trkpt>
      <trkpt lat="44.07623" lon="3.26963">
        <ele>727.6</ele>
        <time>2025-02-15T11:33:39.000Z</time>
      </trkpt>
      <trkpt lat="44.07618" lon="3.26974">
        <ele>726.7</ele>
        <time>2025-02-15T11:33:42.000Z</time>
      </trkpt>
      <trkpt lat="44.07614" lon="3.26987">
        <ele>725.9</ele>
        <time>2025-02-15T11:33:45.000Z</time>
      </trkpt>
      <trkpt lat="44.07611" lon="3.27001">
        <ele>725.2</ele>
        <time>2025-02-15T11:33:48.000Z</time>
      </trkpt>
      <trkpt lat="44.07607" lon="3.27015">
        <ele>724.4</ele>
        <time>2025-02-15T11:33:51.000Z</time>
      </trkpt>
      <trkpt lat="44.076" lon="3.27029">
        <ele>723.6</ele>
        <time>2025-02-15T11:33:54.000Z</time>
      </trkpt>
      <trkpt lat="44.07593" lon="3.27043">
        <ele>722.8</ele>
        <time>2025-02-15T11:33:57.000Z</time>
      </trkpt>
      <trkpt lat="44.07587" lon="3.27054">
        <ele>721.8</ele>
        <time>2025-02-15T11:34:01.000Z</time>
      </trkpt>
      <trkpt lat="44.07587" lon="3.27067">
        <ele>717.7</ele>
        <time>2025-02-15T11:35:52.000Z</time>
      </trkpt>
      <trkpt lat="44.07594" lon="3.27078">
        <ele>717.7</ele>
        <time>2025-02-15T11:35:58.000Z</time>
      </trkpt>
      <trkpt lat="44.07601" lon="3.27084">
        <ele>717.7</ele>
        <time>2025-02-15T11:36:04.000Z</time>
      </trkpt>
      <trkpt lat="44.0761" lon="3.27092">
        <ele>717.7</ele>
        <time>2025-02-15T11:36:09.000Z</time>
      </trkpt>
      <trkpt lat="44.07619" lon="3.27098">
        <ele>717.7</ele>
        <time>2025-02-15T11:36:13.000Z</time>
      </trkpt>
      <trkpt lat="44.07627" lon="3.27105">
        <ele>717.7</ele>
        <time>2025-02-15T11:36:17.000Z</time>
      </trkpt>
      <trkpt lat="44.07636" lon="3.27108">
        <ele>717.6</ele>
        <time>2025-02-15T11:36:21.000Z</time>
      </trkpt>
      <trkpt lat="44.07648" lon="3.27106">
        <ele>717.3</ele>
        <time>2025-02-15T11:36:24.000Z</time>
      </trkpt>
      <trkpt lat="44.07659" lon="3.27106">
        <ele>716.7</ele>
        <time>2025-02-15T11:36:27.000Z</time>
      </trkpt>
      <trkpt lat="44.07668" lon="3.27104">
        <ele>716.1</ele>
        <time>2025-02-15T11:36:30.000Z</time>
      </trkpt>
      <trkpt lat="44.07679" lon="3.27107">
        <ele>715.2</ele>
        <time>2025-02-15T11:36:34.000Z</time>
      </trkpt>
      <trkpt lat="44.07689" lon="3.2711">
        <ele>714</ele>
        <time>2025-02-15T11:36:38.000Z</time>
      </trkpt>
      <trkpt lat="44.07698" lon="3.27109">
        <ele>712.9</ele>
        <time>2025-02-15T11:36:41.000Z</time>
      </trkpt>
      <trkpt lat="44.07707" lon="3.27104">
        <ele>711.8</ele>
        <time>2025-02-15T11:36:44.000Z</time>
      </trkpt>
      <trkpt lat="44.07718" lon="3.27098">
        <ele>710.5</ele>
        <time>2025-02-15T11:36:48.000Z</time>
      </trkpt>
      <trkpt lat="44.07729" lon="3.27093">
        <ele>709.5</ele>
        <time>2025-02-15T11:36:51.000Z</time>
      </trkpt>
      <trkpt lat="44.07739" lon="3.2709">
        <ele>708.3</ele>
        <time>2025-02-15T11:36:54.000Z</time>
      </trkpt>
      <trkpt lat="44.07749" lon="3.27086">
        <ele>707.3</ele>
        <time>2025-02-15T11:36:57.000Z</time>
      </trkpt>
      <trkpt lat="44.07759" lon="3.27082">
        <ele>704.9</ele>
        <time>2025-02-15T11:37:06.000Z</time>
      </trkpt>
      <trkpt lat="44.07769" lon="3.27077">
        <ele>704.1</ele>
        <time>2025-02-15T11:37:10.000Z</time>
      </trkpt>
      <trkpt lat="44.07778" lon="3.27067">
        <ele>703.3</ele>
        <time>2025-02-15T11:37:14.000Z</time>
      </trkpt>
      <trkpt lat="44.07784" lon="3.27057">
        <ele>702.5</ele>
        <time>2025-02-15T11:37:19.000Z</time>
      </trkpt>
      <trkpt lat="44.07795" lon="3.27052">
        <ele>702</ele>
        <time>2025-02-15T11:37:23.000Z</time>
      </trkpt>
      <trkpt lat="44.07808" lon="3.27047">
        <ele>701.5</ele>
        <time>2025-02-15T11:37:26.000Z</time>
      </trkpt>
      <trkpt lat="44.07821" lon="3.27043">
        <ele>700.6</ele>
        <time>2025-02-15T11:37:29.000Z</time>
      </trkpt>
      <trkpt lat="44.07834" lon="3.2704">
        <ele>699.7</ele>
        <time>2025-02-15T11:37:32.000Z</time>
      </trkpt>
      <trkpt lat="44.07845" lon="3.27038">
        <ele>698.7</ele>
        <time>2025-02-15T11:37:35.000Z</time>
      </trkpt>
      <trkpt lat="44.07857" lon="3.27035">
        <ele>697.5</ele>
        <time>2025-02-15T11:37:38.000Z</time>
      </trkpt>
      <trkpt lat="44.07867" lon="3.27032">
        <ele>696.6</ele>
        <time>2025-02-15T11:37:40.000Z</time>
      </trkpt>
      <trkpt lat="44.07876" lon="3.27027">
        <ele>695.6</ele>
        <time>2025-02-15T11:37:42.000Z</time>
      </trkpt>
      <trkpt lat="44.07884" lon="3.27022">
        <ele>694.5</ele>
        <time>2025-02-15T11:37:44.000Z</time>
      </trkpt>
      <trkpt lat="44.07893" lon="3.27018">
        <ele>693.4</ele>
        <time>2025-02-15T11:37:46.000Z</time>
      </trkpt>
      <trkpt lat="44.07904" lon="3.27012">
        <ele>691.6</ele>
        <time>2025-02-15T11:37:49.000Z</time>
      </trkpt>
      <trkpt lat="44.07913" lon="3.2701">
        <ele>689.8</ele>
        <time>2025-02-15T11:37:52.000Z</time>
      </trkpt>
      <trkpt lat="44.07924" lon="3.27015">
        <ele>687.4</ele>
        <time>2025-02-15T11:37:56.000Z</time>
      </trkpt>
      <trkpt lat="44.07934" lon="3.27018">
        <ele>685.6</ele>
        <time>2025-02-15T11:37:59.000Z</time>
      </trkpt>
      <trkpt lat="44.07946" lon="3.27019">
        <ele>682.9</ele>
        <time>2025-02-15T11:38:03.000Z</time>
      </trkpt>
      <trkpt lat="44.07957" lon="3.27023">
        <ele>680.5</ele>
        <time>2025-02-15T11:38:07.000Z</time>
      </trkpt>
      <trkpt lat="44.07967" lon="3.27023">
        <ele>668.3</ele>
        <time>2025-02-15T11:40:20.000Z</time>
      </trkpt>
      <trkpt lat="44.07976" lon="3.27021">
        <ele>668.1</ele>
        <time>2025-02-15T11:40:23.000Z</time>
      </trkpt>
      <trkpt lat="44.07987" lon="3.27022">
        <ele>667.7</ele>
        <time>2025-02-15T11:40:26.000Z</time>
      </trkpt>
      <trkpt lat="44.07996" lon="3.27026">
        <ele>667</ele>
        <time>2025-02-15T11:40:29.000Z</time>
      </trkpt>
      <trkpt lat="44.08008" lon="3.27025">
        <ele>666.1</ele>
        <time>2025-02-15T11:40:32.000Z</time>
      </trkpt>
      <trkpt lat="44.08018" lon="3.27023">
        <ele>665.1</ele>
        <time>2025-02-15T11:40:35.000Z</time>
      </trkpt>
      <trkpt lat="44.08027" lon="3.27023">
        <ele>664</ele>
        <time>2025-02-15T11:40:38.000Z</time>
      </trkpt>
      <trkpt lat="44.08038" lon="3.27022">
        <ele>662.3</ele>
        <time>2025-02-15T11:40:43.000Z</time>
      </trkpt>
      <trkpt lat="44.08048" lon="3.27022">
        <ele>661.3</ele>
        <time>2025-02-15T11:40:46.000Z</time>
      </trkpt>
      <trkpt lat="44.08057" lon="3.27025">
        <ele>660.5</ele>
        <time>2025-02-15T11:40:49.000Z</time>
      </trkpt>
      <trkpt lat="44.08067" lon="3.27031">
        <ele>659.7</ele>
        <time>2025-02-15T11:40:52.000Z</time>
      </trkpt>
      <trkpt lat="44.08075" lon="3.27036">
        <ele>658.8</ele>
        <time>2025-02-15T11:40:55.000Z</time>
      </trkpt>
      <trkpt lat="44.08085" lon="3.27042">
        <ele>657.4</ele>
        <time>2025-02-15T11:40:59.000Z</time>
      </trkpt>
      <trkpt lat="44.08094" lon="3.27043">
        <ele>654.7</ele>
        <time>2025-02-15T11:41:08.000Z</time>
      </trkpt>
      <trkpt lat="44.08103" lon="3.27043">
        <ele>653.1</ele>
        <time>2025-02-15T11:41:16.000Z</time>
      </trkpt>
      <trkpt lat="44.08108" lon="3.27055">
        <ele>650.8</ele>
        <time>2025-02-15T11:42:14.000Z</time>
      </trkpt>
      <trkpt lat="44.08116" lon="3.27061">
        <ele>650.3</ele>
        <time>2025-02-15T11:42:17.000Z</time>
      </trkpt>
      <trkpt lat="44.08125" lon="3.27064">
        <ele>649.7</ele>
        <time>2025-02-15T11:42:21.000Z</time>
      </trkpt>
      <trkpt lat="44.08133" lon="3.2707">
        <ele>649.2</ele>
        <time>2025-02-15T11:42:26.000Z</time>
      </trkpt>
      <trkpt lat="44.0814" lon="3.27079">
        <ele>648.8</ele>
        <time>2025-02-15T11:42:32.000Z</time>
      </trkpt>
      <trkpt lat="44.08149" lon="3.27086">
        <ele>648.6</ele>
        <time>2025-02-15T11:42:36.000Z</time>
      </trkpt>
      <trkpt lat="44.08158" lon="3.27092">
        <ele>648.5</ele>
        <time>2025-02-15T11:42:40.000Z</time>
      </trkpt>
      <trkpt lat="44.08166" lon="3.271">
        <ele>648.1</ele>
        <time>2025-02-15T11:42:47.000Z</time>
      </trkpt>
      <trkpt lat="44.08177" lon="3.27095">
        <ele>647.9</ele>
        <time>2025-02-15T11:42:54.000Z</time>
      </trkpt>
      <trkpt lat="44.08187" lon="3.27097">
        <ele>647.6</ele>
        <time>2025-02-15T11:42:58.000Z</time>
      </trkpt>
      <trkpt lat="44.08196" lon="3.27101">
        <ele>647.1</ele>
        <time>2025-02-15T11:43:02.000Z</time>
      </trkpt>
      <trkpt lat="44.08205" lon="3.27108">
        <ele>646.5</ele>
        <time>2025-02-15T11:43:07.000Z</time>
      </trkpt>
      <trkpt lat="44.08214" lon="3.27113">
        <ele>645.7</ele>
        <time>2025-02-15T11:43:12.000Z</time>
      </trkpt>
      <trkpt lat="44.08223" lon="3.27119">
        <ele>644.9</ele>
        <time>2025-02-15T11:43:16.000Z</time>
      </trkpt>
      <trkpt lat="44.08232" lon="3.27125">
        <ele>643.6</ele>
        <time>2025-02-15T11:43:21.000Z</time>
      </trkpt>
      <trkpt lat="44.08242" lon="3.27125">
        <ele>642.4</ele>
        <time>2025-02-15T11:43:25.000Z</time>
      </trkpt>
      <trkpt lat="44.08253" lon="3.27127">
        <ele>640.8</ele>
        <time>2025-02-15T11:43:30.000Z</time>
      </trkpt>
      <trkpt lat="44.08263" lon="3.2713">
        <ele>639</ele>
        <time>2025-02-15T11:43:35.000Z</time>
      </trkpt>
      <trkpt lat="44.08272" lon="3.27124">
        <ele>637.5</ele>
        <time>2025-02-15T11:43:39.000Z</time>
      </trkpt>
      <trkpt lat="44.08282" lon="3.27122">
        <ele>635.5</ele>
        <time>2025-02-15T11:43:44.000Z</time>
      </trkpt>
      <trkpt lat="44.08291" lon="3.2712">
        <ele>632.9</ele>
        <time>2025-02-15T11:43:50.000Z</time>
      </trkpt>
      <trkpt lat="44.083" lon="3.27125">
        <ele>630.4</ele>
        <time>2025-02-15T11:43:57.000Z</time>
      </trkpt>
      <trkpt lat="44.08309" lon="3.27129">
        <ele>628.8</ele>
        <time>2025-02-15T11:44:04.000Z</time>
      </trkpt>
      <trkpt lat="44.08319" lon="3.27126">
        <ele>627.9</ele>
        <time>2025-02-15T11:44:10.000Z</time>
      </trkpt>
      <trkpt lat="44.08327" lon="3.27133">
        <ele>627.1</ele>
        <time>2025-02-15T11:44:16.000Z</time>
      </trkpt>
      <trkpt lat="44.08336" lon="3.27138">
        <ele>626.7</ele>
        <time>2025-02-15T11:44:23.000Z</time>
      </trkpt>
      <trkpt lat="44.08344" lon="3.27144">
        <ele>626.5</ele>
        <time>2025-02-15T11:44:31.000Z</time>
      </trkpt>
      <trkpt lat="44.08354" lon="3.27148">
        <ele>626.6</ele>
        <time>2025-02-15T11:44:37.000Z</time>
      </trkpt>
      <trkpt lat="44.08361" lon="3.27156">
        <ele>626.8</ele>
        <time>2025-02-15T11:44:43.000Z</time>
      </trkpt>
      <trkpt lat="44.08371" lon="3.27162">
        <ele>627.2</ele>
        <time>2025-02-15T11:44:51.000Z</time>
      </trkpt>
      <trkpt lat="44.08379" lon="3.27173">
        <ele>627.4</ele>
        <time>2025-02-15T11:44:56.000Z</time>
      </trkpt>
      <trkpt lat="44.08381" lon="3.27186">
        <ele>627.6</ele>
        <time>2025-02-15T11:45:09.000Z</time>
      </trkpt>
      <trkpt lat="44.08389" lon="3.27197">
        <ele>627.5</ele>
        <time>2025-02-15T11:45:15.000Z</time>
      </trkpt>
      <trkpt lat="44.08398" lon="3.27208">
        <ele>627</ele>
        <time>2025-02-15T11:45:19.000Z</time>
      </trkpt>
      <trkpt lat="44.08404" lon="3.27218">
        <ele>626</ele>
        <time>2025-02-15T11:45:23.000Z</time>
      </trkpt>
      <trkpt lat="44.08414" lon="3.2722">
        <ele>624.6</ele>
        <time>2025-02-15T11:45:27.000Z</time>
      </trkpt>
      <trkpt lat="44.08422" lon="3.27229">
        <ele>622.7</ele>
        <time>2025-02-15T11:45:31.000Z</time>
      </trkpt>
      <trkpt lat="44.08432" lon="3.27232">
        <ele>620.5</ele>
        <time>2025-02-15T11:45:35.000Z</time>
      </trkpt>
      <trkpt lat="44.08439" lon="3.2724">
        <ele>618.2</ele>
        <time>2025-02-15T11:45:39.000Z</time>
      </trkpt>
      <trkpt lat="44.08446" lon="3.27251">
        <ele>615.7</ele>
        <time>2025-02-15T11:45:44.000Z</time>
      </trkpt>
      <trkpt lat="44.08452" lon="3.27261">
        <ele>613.2</ele>
        <time>2025-02-15T11:45:51.000Z</time>
      </trkpt>
      <trkpt lat="44.08462" lon="3.2726">
        <ele>611.3</ele>
        <time>2025-02-15T11:45:58.000Z</time>
      </trkpt>
      <trkpt lat="44.08471" lon="3.27253">
        <ele>610.3</ele>
        <time>2025-02-15T11:46:03.000Z</time>
      </trkpt>
      <trkpt lat="44.08484" lon="3.27255">
        <ele>607.3</ele>
        <time>2025-02-15T11:46:38.000Z</time>
      </trkpt>
      <trkpt lat="44.08493" lon="3.27251">
        <ele>606.7</ele>
        <time>2025-02-15T11:46:49.000Z</time>
      </trkpt>
      <trkpt lat="44.08505" lon="3.27249">
        <ele>603.1</ele>
        <time>2025-02-15T11:47:37.000Z</time>
      </trkpt>
      <trkpt lat="44.08514" lon="3.27254">
        <ele>601.2</ele>
        <time>2025-02-15T11:47:50.000Z</time>
      </trkpt>
      <trkpt lat="44.0852" lon="3.27263">
        <ele>597.9</ele>
        <time>2025-02-15T11:48:04.000Z</time>
      </trkpt>
      <trkpt lat="44.0852" lon="3.27277">
        <ele>593.7</ele>
        <time>2025-02-15T11:48:20.000Z</time>
      </trkpt>
      <trkpt lat="44.08519" lon="3.2729">
        <ele>591.4</ele>
        <time>2025-02-15T11:48:29.000Z</time>
      </trkpt>
      <trkpt lat="44.08529" lon="3.27291">
        <ele>586.2</ele>
        <time>2025-02-15T11:48:59.000Z</time>
      </trkpt>
      <trkpt lat="44.08536" lon="3.273">
        <ele>583.5</ele>
        <time>2025-02-15T11:49:13.000Z</time>
      </trkpt>
      <trkpt lat="44.08541" lon="3.27312">
        <ele>580.4</ele>
        <time>2025-02-15T11:49:26.000Z</time>
      </trkpt>
      <trkpt lat="44.0855" lon="3.27313">
        <ele>576.5</ele>
        <time>2025-02-15T11:49:40.000Z</time>
      </trkpt>
      <trkpt lat="44.08556" lon="3.27322">
        <ele>572.7</ele>
        <time>2025-02-15T11:49:54.000Z</time>
      </trkpt>
      <trkpt lat="44.08563" lon="3.27331">
        <ele>569.3</ele>
        <time>2025-02-15T11:50:06.000Z</time>
      </trkpt>
      <trkpt lat="44.08572" lon="3.27333">
        <ele>564</ele>
        <time>2025-02-15T11:50:29.000Z</time>
      </trkpt>
      <trkpt lat="44.08577" lon="3.27344">
        <ele>560.2</ele>
        <time>2025-02-15T11:50:45.000Z</time>
      </trkpt>
      <trkpt lat="44.08583" lon="3.27354">
        <ele>556.8</ele>
        <time>2025-02-15T11:51:02.000Z</time>
      </trkpt>
      <trkpt lat="44.0859" lon="3.27361">
        <ele>554.1</ele>
        <time>2025-02-15T11:51:14.000Z</time>
      </trkpt>
      <trkpt lat="44.08599" lon="3.27368">
        <ele>551.4</ele>
        <time>2025-02-15T11:51:26.000Z</time>
      </trkpt>
      <trkpt lat="44.0859" lon="3.27363">
        <ele>547.9</ele>
        <time>2025-02-15T11:54:04.000Z</time>
      </trkpt>
      <trkpt lat="44.08581" lon="3.27358">
        <ele>550.3</ele>
        <time>2025-02-15T11:54:16.000Z</time>
      </trkpt>
      <trkpt lat="44.08574" lon="3.27349">
        <ele>552</ele>
        <time>2025-02-15T11:54:25.000Z</time>
      </trkpt>
      <trkpt lat="44.08568" lon="3.2734">
        <ele>554.9</ele>
        <time>2025-02-15T11:54:42.000Z</time>
      </trkpt>
      <trkpt lat="44.08559" lon="3.27338">
        <ele>559.2</ele>
        <time>2025-02-15T11:55:04.000Z</time>
      </trkpt>
      <trkpt lat="44.08551" lon="3.27332">
        <ele>561.5</ele>
        <time>2025-02-15T11:55:16.000Z</time>
      </trkpt>
      <trkpt lat="44.08545" lon="3.27322">
        <ele>563.9</ele>
        <time>2025-02-15T11:55:27.000Z</time>
      </trkpt>
      <trkpt lat="44.08537" lon="3.27314">
        <ele>566.4</ele>
        <time>2025-02-15T11:55:38.000Z</time>
      </trkpt>
      <trkpt lat="44.08531" lon="3.27305">
        <ele>569.4</ele>
        <time>2025-02-15T11:55:51.000Z</time>
      </trkpt>
      <trkpt lat="44.08522" lon="3.27301">
        <ele>572.6</ele>
        <time>2025-02-15T11:56:04.000Z</time>
      </trkpt>
      <trkpt lat="44.08515" lon="3.27292">
        <ele>574.8</ele>
        <time>2025-02-15T11:56:15.000Z</time>
      </trkpt>
      <trkpt lat="44.08507" lon="3.27284">
        <ele>576.9</ele>
        <time>2025-02-15T11:56:25.000Z</time>
      </trkpt>
      <trkpt lat="44.08498" lon="3.27282">
        <ele>581</ele>
        <time>2025-02-15T11:56:46.000Z</time>
      </trkpt>
      <trkpt lat="44.08495" lon="3.27269">
        <ele>585.2</ele>
        <time>2025-02-15T11:57:06.000Z</time>
      </trkpt>
      <trkpt lat="44.08493" lon="3.27257">
        <ele>590.2</ele>
        <time>2025-02-15T11:57:29.000Z</time>
      </trkpt>
      <trkpt lat="44.08486" lon="3.27248">
        <ele>595.9</ele>
        <time>2025-02-15T11:57:58.000Z</time>
      </trkpt>
      <trkpt lat="44.08479" lon="3.27239">
        <ele>598.3</ele>
        <time>2025-02-15T11:58:10.000Z</time>
      </trkpt>
      <trkpt lat="44.0847" lon="3.27234">
        <ele>602.5</ele>
        <time>2025-02-15T11:59:13.000Z</time>
      </trkpt>
      <trkpt lat="44.08462" lon="3.27241">
        <ele>603.6</ele>
        <time>2025-02-15T11:59:25.000Z</time>
      </trkpt>
      <trkpt lat="44.08454" lon="3.27248">
        <ele>605.9</ele>
        <time>2025-02-15T12:00:04.000Z</time>
      </trkpt>
      <trkpt lat="44.08446" lon="3.27254">
        <ele>606.2</ele>
        <time>2025-02-15T12:00:12.000Z</time>
      </trkpt>
      <trkpt lat="44.08437" lon="3.27255">
        <ele>606.5</ele>
        <time>2025-02-15T12:00:25.000Z</time>
      </trkpt>
      <trkpt lat="44.08431" lon="3.27245">
        <ele>607.1</ele>
        <time>2025-02-15T12:00:40.000Z</time>
      </trkpt>
      <trkpt lat="44.08426" lon="3.27233">
        <ele>607.4</ele>
        <time>2025-02-15T12:00:52.000Z</time>
      </trkpt>
      <trkpt lat="44.08419" lon="3.27226">
        <ele>608.3</ele>
        <time>2025-02-15T12:01:01.000Z</time>
      </trkpt>
      <trkpt lat="44.0841" lon="3.27223">
        <ele>610.1</ele>
        <time>2025-02-15T12:01:14.000Z</time>
      </trkpt>
      <trkpt lat="44.08402" lon="3.27217">
        <ele>612.8</ele>
        <time>2025-02-15T12:01:28.000Z</time>
      </trkpt>
      <trkpt lat="44.08392" lon="3.27213">
        <ele>615.3</ele>
        <time>2025-02-15T12:01:40.000Z</time>
      </trkpt>
      <trkpt lat="44.08384" lon="3.27209">
        <ele>617.8</ele>
        <time>2025-02-15T12:01:52.000Z</time>
      </trkpt>
      <trkpt lat="44.08376" lon="3.272">
        <ele>620.5</ele>
        <time>2025-02-15T12:02:06.000Z</time>
      </trkpt>
      <trkpt lat="44.08371" lon="3.2719">
        <ele>623.3</ele>
        <time>2025-02-15T12:02:21.000Z</time>
      </trkpt>
      <trkpt lat="44.08366" lon="3.27178">
        <ele>624.5</ele>
        <time>2025-02-15T12:02:31.000Z</time>
      </trkpt>
      <trkpt lat="44.08363" lon="3.27164">
        <ele>625.1</ele>
        <time>2025-02-15T12:02:37.000Z</time>
      </trkpt>
      <trkpt lat="44.08355" lon="3.27157">
        <ele>625.8</ele>
        <time>2025-02-15T12:02:44.000Z</time>
      </trkpt>
      <trkpt lat="44.08346" lon="3.27147">
        <ele>626.5</ele>
        <time>2025-02-15T12:02:51.000Z</time>
      </trkpt>
      <trkpt lat="44.08337" lon="3.27141">
        <ele>627</ele>
        <time>2025-02-15T12:02:58.000Z</time>
      </trkpt>
      <trkpt lat="44.08329" lon="3.27134">
        <ele>627.1</ele>
        <time>2025-02-15T12:03:02.000Z</time>
      </trkpt>
      <trkpt lat="44.0832" lon="3.27127">
        <ele>627.2</ele>
        <time>2025-02-15T12:03:09.000Z</time>
      </trkpt>
      <trkpt lat="44.08309" lon="3.27121">
        <ele>626.9</ele>
        <time>2025-02-15T12:03:14.000Z</time>
      </trkpt>
      <trkpt lat="44.083" lon="3.27125">
        <ele>626.4</ele>
        <time>2025-02-15T12:03:20.000Z</time>
      </trkpt>
      <trkpt lat="44.08292" lon="3.2712">
        <ele>626</ele>
        <time>2025-02-15T12:03:27.000Z</time>
      </trkpt>
      <trkpt lat="44.08282" lon="3.27115">
        <ele>625.8</ele>
        <time>2025-02-15T12:03:35.000Z</time>
      </trkpt>
      <trkpt lat="44.08273" lon="3.27116">
        <ele>625.9</ele>
        <time>2025-02-15T12:03:50.000Z</time>
      </trkpt>
      <trkpt lat="44.08264" lon="3.27116">
        <ele>627.1</ele>
        <time>2025-02-15T12:04:04.000Z</time>
      </trkpt>
      <trkpt lat="44.08256" lon="3.27122">
        <ele>629.6</ele>
        <time>2025-02-15T12:04:22.000Z</time>
      </trkpt>
      <trkpt lat="44.08246" lon="3.27121">
        <ele>630.6</ele>
        <time>2025-02-15T12:04:30.000Z</time>
      </trkpt>
      <trkpt lat="44.08237" lon="3.27121">
        <ele>632</ele>
        <time>2025-02-15T12:04:38.000Z</time>
      </trkpt>
      <trkpt lat="44.08228" lon="3.27119">
        <ele>633.6</ele>
        <time>2025-02-15T12:04:47.000Z</time>
      </trkpt>
      <trkpt lat="44.08219" lon="3.27117">
        <ele>635.4</ele>
        <time>2025-02-15T12:04:57.000Z</time>
      </trkpt>
      <trkpt lat="44.08211" lon="3.27111">
        <ele>636.9</ele>
        <time>2025-02-15T12:05:05.000Z</time>
      </trkpt>
      <trkpt lat="44.08202" lon="3.27107">
        <ele>639.5</ele>
        <time>2025-02-15T12:05:19.000Z</time>
      </trkpt>
      <trkpt lat="44.08193" lon="3.271">
        <ele>640.9</ele>
        <time>2025-02-15T12:05:29.000Z</time>
      </trkpt>
      <trkpt lat="44.08184" lon="3.27096">
        <ele>641.7</ele>
        <time>2025-02-15T12:05:37.000Z</time>
      </trkpt>
      <trkpt lat="44.08175" lon="3.27093">
        <ele>642.4</ele>
        <time>2025-02-15T12:05:45.000Z</time>
      </trkpt>
      <trkpt lat="44.08168" lon="3.27101">
        <ele>644.3</ele>
        <time>2025-02-15T12:05:57.000Z</time>
      </trkpt>
      <trkpt lat="44.0816" lon="3.27094">
        <ele>645</ele>
        <time>2025-02-15T12:06:04.000Z</time>
      </trkpt>
      <trkpt lat="44.08151" lon="3.27089">
        <ele>645.3</ele>
        <time>2025-02-15T12:06:09.000Z</time>
      </trkpt>
      <trkpt lat="44.08143" lon="3.27081">
        <ele>645.6</ele>
        <time>2025-02-15T12:06:17.000Z</time>
      </trkpt>
      <trkpt lat="44.08136" lon="3.27073">
        <ele>645.8</ele>
        <time>2025-02-15T12:06:23.000Z</time>
      </trkpt>
      <trkpt lat="44.08127" lon="3.27068">
        <ele>645.9</ele>
        <time>2025-02-15T12:06:27.000Z</time>
      </trkpt>
      <trkpt lat="44.08118" lon="3.27062">
        <ele>646</ele>
        <time>2025-02-15T12:06:31.000Z</time>
      </trkpt>
      <trkpt lat="44.08109" lon="3.27057">
        <ele>646.1</ele>
        <time>2025-02-15T12:06:36.000Z</time>
      </trkpt>
      <trkpt lat="44.081" lon="3.27049">
        <ele>646.1</ele>
        <time>2025-02-15T12:06:45.000Z</time>
      </trkpt>
      <trkpt lat="44.08098" lon="3.27036">
        <ele>647.3</ele>
        <time>2025-02-15T12:06:55.000Z</time>
      </trkpt>
      <trkpt lat="44.08103" lon="3.27025">
        <ele>647.9</ele>
        <time>2025-02-15T12:07:05.000Z</time>
      </trkpt>
      <trkpt lat="44.08103" lon="3.2701">
        <ele>646.6</ele>
        <time>2025-02-15T12:07:24.000Z</time>
      </trkpt>
      <trkpt lat="44.08095" lon="3.26998">
        <ele>645.9</ele>
        <time>2025-02-15T12:07:27.000Z</time>
      </trkpt>
      <trkpt lat="44.0809" lon="3.26987">
        <ele>645.3</ele>
        <time>2025-02-15T12:07:29.000Z</time>
      </trkpt>
      <trkpt lat="44.08087" lon="3.26974">
        <ele>644.5</ele>
        <time>2025-02-15T12:07:31.000Z</time>
      </trkpt>
      <trkpt lat="44.08085" lon="3.2696">
        <ele>643.8</ele>
        <time>2025-02-15T12:07:33.000Z</time>
      </trkpt>
      <trkpt lat="44.08084" lon="3.26945">
        <ele>642.5</ele>
        <time>2025-02-15T12:07:36.000Z</time>
      </trkpt>
      <trkpt lat="44.0809" lon="3.26933">
        <ele>641</ele>
        <time>2025-02-15T12:07:39.000Z</time>
      </trkpt>
      <trkpt lat="44.08095" lon="3.26918">
        <ele>638.7</ele>
        <time>2025-02-15T12:07:43.000Z</time>
      </trkpt>
      <trkpt lat="44.08104" lon="3.2691">
        <ele>635.8</ele>
        <time>2025-02-15T12:07:48.000Z</time>
      </trkpt>
      <trkpt lat="44.08116" lon="3.26901">
        <ele>634.2</ele>
        <time>2025-02-15T12:07:51.000Z</time>
      </trkpt>
      <trkpt lat="44.08126" lon="3.26899">
        <ele>632.6</ele>
        <time>2025-02-15T12:07:54.000Z</time>
      </trkpt>
      <trkpt lat="44.08136" lon="3.26898">
        <ele>630.4</ele>
        <time>2025-02-15T12:07:58.000Z</time>
      </trkpt>
      <trkpt lat="44.08147" lon="3.26893">
        <ele>628.3</ele>
        <time>2025-02-15T12:08:03.000Z</time>
      </trkpt>
      <trkpt lat="44.08156" lon="3.26894">
        <ele>627</ele>
        <time>2025-02-15T12:08:07.000Z</time>
      </trkpt>
      <trkpt lat="44.08165" lon="3.26897">
        <ele>625.8</ele>
        <time>2025-02-15T12:08:12.000Z</time>
      </trkpt>
      <trkpt lat="44.08173" lon="3.26904">
        <ele>625</ele>
        <time>2025-02-15T12:08:16.000Z</time>
      </trkpt>
      <trkpt lat="44.0818" lon="3.26913">
        <ele>624.2</ele>
        <time>2025-02-15T12:08:21.000Z</time>
      </trkpt>
      <trkpt lat="44.08188" lon="3.26922">
        <ele>623.3</ele>
        <time>2025-02-15T12:08:26.000Z</time>
      </trkpt>
      <trkpt lat="44.08199" lon="3.26924">
        <ele>622.3</ele>
        <time>2025-02-15T12:08:30.000Z</time>
      </trkpt>
      <trkpt lat="44.0821" lon="3.26926">
        <ele>621.3</ele>
        <time>2025-02-15T12:08:34.000Z</time>
      </trkpt>
      <trkpt lat="44.0822" lon="3.26926">
        <ele>620.5</ele>
        <time>2025-02-15T12:08:37.000Z</time>
      </trkpt>
      <trkpt lat="44.08229" lon="3.26927">
        <ele>619.6</ele>
        <time>2025-02-15T12:08:40.000Z</time>
      </trkpt>
      <trkpt lat="44.08241" lon="3.26927">
        <ele>618.7</ele>
        <time>2025-02-15T12:08:43.000Z</time>
      </trkpt>
      <trkpt lat="44.0825" lon="3.26926">
        <ele>617.9</ele>
        <time>2025-02-15T12:08:46.000Z</time>
      </trkpt>
      <trkpt lat="44.08259" lon="3.26925">
        <ele>617</ele>
        <time>2025-02-15T12:08:49.000Z</time>
      </trkpt>
      <trkpt lat="44.08269" lon="3.26924">
        <ele>616.2</ele>
        <time>2025-02-15T12:08:52.000Z</time>
      </trkpt>
      <trkpt lat="44.08279" lon="3.26924">
        <ele>615.5</ele>
        <time>2025-02-15T12:08:55.000Z</time>
      </trkpt>
      <trkpt lat="44.0829" lon="3.26922">
        <ele>614.8</ele>
        <time>2025-02-15T12:08:58.000Z</time>
      </trkpt>
      <trkpt lat="44.083" lon="3.26919">
        <ele>614.1</ele>
        <time>2025-02-15T12:09:01.000Z</time>
      </trkpt>
      <trkpt lat="44.0831" lon="3.26917">
        <ele>613.4</ele>
        <time>2025-02-15T12:09:04.000Z</time>
      </trkpt>
      <trkpt lat="44.0832" lon="3.26913">
        <ele>612.9</ele>
        <time>2025-02-15T12:09:07.000Z</time>
      </trkpt>
      <trkpt lat="44.08333" lon="3.26913">
        <ele>612.2</ele>
        <time>2025-02-15T12:09:11.000Z</time>
      </trkpt>
      <trkpt lat="44.08344" lon="3.26914">
        <ele>611.9</ele>
        <time>2025-02-15T12:09:14.000Z</time>
      </trkpt>
      <trkpt lat="44.08354" lon="3.26915">
        <ele>611.5</ele>
        <time>2025-02-15T12:09:17.000Z</time>
      </trkpt>
      <trkpt lat="44.08363" lon="3.26918">
        <ele>610.3</ele>
        <time>2025-02-15T12:09:26.000Z</time>
      </trkpt>
      <trkpt lat="44.08376" lon="3.26925">
        <ele>609.7</ele>
        <time>2025-02-15T12:09:29.000Z</time>
      </trkpt>
      <trkpt lat="44.08387" lon="3.26926">
        <ele>609.1</ele>
        <time>2025-02-15T12:09:31.000Z</time>
      </trkpt>
      <trkpt lat="44.08398" lon="3.26924">
        <ele>608.4</ele>
        <time>2025-02-15T12:09:33.000Z</time>
      </trkpt>
      <trkpt lat="44.08408" lon="3.26924">
        <ele>607.8</ele>
        <time>2025-02-15T12:09:35.000Z</time>
      </trkpt>
      <trkpt lat="44.08422" lon="3.26922">
        <ele>606.6</ele>
        <time>2025-02-15T12:09:38.000Z</time>
      </trkpt>
      <trkpt lat="44.08433" lon="3.26914">
        <ele>605.7</ele>
        <time>2025-02-15T12:09:41.000Z</time>
      </trkpt>
      <trkpt lat="44.08442" lon="3.2691">
        <ele>604.7</ele>
        <time>2025-02-15T12:09:45.000Z</time>
      </trkpt>
      <trkpt lat="44.08451" lon="3.26906">
        <ele>603.9</ele>
        <time>2025-02-15T12:09:49.000Z</time>
      </trkpt>
      <trkpt lat="44.0846" lon="3.26905">
        <ele>603.3</ele>
        <time>2025-02-15T12:09:53.000Z</time>
      </trkpt>
      <trkpt lat="44.0847" lon="3.26902">
        <ele>602.7</ele>
        <time>2025-02-15T12:09:56.000Z</time>
      </trkpt>
      <trkpt lat="44.0848" lon="3.26895">
        <ele>602</ele>
        <time>2025-02-15T12:09:59.000Z</time>
      </trkpt>
      <trkpt lat="44.08491" lon="3.26886">
        <ele>601.3</ele>
        <time>2025-02-15T12:10:02.000Z</time>
      </trkpt>
      <trkpt lat="44.085" lon="3.26873">
        <ele>600.3</ele>
        <time>2025-02-15T12:10:05.000Z</time>
      </trkpt>
      <trkpt lat="44.08505" lon="3.26859">
        <ele>599</ele>
        <time>2025-02-15T12:10:08.000Z</time>
      </trkpt>
      <trkpt lat="44.08506" lon="3.26846">
        <ele>597.5</ele>
        <time>2025-02-15T12:10:11.000Z</time>
      </trkpt>
      <trkpt lat="44.08506" lon="3.26834">
        <ele>595.9</ele>
        <time>2025-02-15T12:10:14.000Z</time>
      </trkpt>
      <trkpt lat="44.08506" lon="3.26817">
        <ele>594.1</ele>
        <time>2025-02-15T12:10:17.000Z</time>
      </trkpt>
      <trkpt lat="44.08507" lon="3.26803">
        <ele>591.7</ele>
        <time>2025-02-15T12:10:21.000Z</time>
      </trkpt>
      <trkpt lat="44.0851" lon="3.2679">
        <ele>589.7</ele>
        <time>2025-02-15T12:10:24.000Z</time>
      </trkpt>
      <trkpt lat="44.08514" lon="3.26779">
        <ele>588.3</ele>
        <time>2025-02-15T12:10:26.000Z</time>
      </trkpt>
      <trkpt lat="44.08515" lon="3.26762">
        <ele>586.1</ele>
        <time>2025-02-15T12:10:29.000Z</time>
      </trkpt>
      <trkpt lat="44.08517" lon="3.26749">
        <ele>583.9</ele>
        <time>2025-02-15T12:10:32.000Z</time>
      </trkpt>
      <trkpt lat="44.08523" lon="3.26758">
        <ele>576.5</ele>
        <time>2025-02-15T12:10:45.000Z</time>
      </trkpt>
      <trkpt lat="44.08532" lon="3.26749">
        <ele>567.3</ele>
        <time>2025-02-15T12:11:26.000Z</time>
      </trkpt>
      <trkpt lat="44.08538" lon="3.26736">
        <ele>566.6</ele>
        <time>2025-02-15T12:11:29.000Z</time>
      </trkpt>
      <trkpt lat="44.08547" lon="3.26723">
        <ele>565.5</ele>
        <time>2025-02-15T12:11:32.000Z</time>
      </trkpt>
      <trkpt lat="44.08556" lon="3.26715">
        <ele>563.9</ele>
        <time>2025-02-15T12:11:35.000Z</time>
      </trkpt>
      <trkpt lat="44.08563" lon="3.26706">
        <ele>562.1</ele>
        <time>2025-02-15T12:11:38.000Z</time>
      </trkpt>
      <trkpt lat="44.08573" lon="3.26711">
        <ele>558.7</ele>
        <time>2025-02-15T12:11:45.000Z</time>
      </trkpt>
      <trkpt lat="44.08579" lon="3.26723">
        <ele>552.9</ele>
        <time>2025-02-15T12:12:14.000Z</time>
      </trkpt>
      <trkpt lat="44.08586" lon="3.26734">
        <ele>552.6</ele>
        <time>2025-02-15T12:12:18.000Z</time>
      </trkpt>
      <trkpt lat="44.08593" lon="3.26741">
        <ele>552.4</ele>
        <time>2025-02-15T12:12:22.000Z</time>
      </trkpt>
      <trkpt lat="44.08602" lon="3.26747">
        <ele>552.2</ele>
        <time>2025-02-15T12:12:26.000Z</time>
      </trkpt>
      <trkpt lat="44.08612" lon="3.26755">
        <ele>552</ele>
        <time>2025-02-15T12:12:31.000Z</time>
      </trkpt>
      <trkpt lat="44.08621" lon="3.26752">
        <ele>552</ele>
        <time>2025-02-15T12:12:36.000Z</time>
      </trkpt>
      <trkpt lat="44.08628" lon="3.2674">
        <ele>552</ele>
        <time>2025-02-15T12:12:40.000Z</time>
      </trkpt>
      <trkpt lat="44.08634" lon="3.26728">
        <ele>552</ele>
        <time>2025-02-15T12:12:43.000Z</time>
      </trkpt>
      <trkpt lat="44.08641" lon="3.26716">
        <ele>552</ele>
        <time>2025-02-15T12:12:46.000Z</time>
      </trkpt>
      <trkpt lat="44.08648" lon="3.26705">
        <ele>551.9</ele>
        <time>2025-02-15T12:12:50.000Z</time>
      </trkpt>
      <trkpt lat="44.08659" lon="3.26697">
        <ele>551.7</ele>
        <time>2025-02-15T12:12:54.000Z</time>
      </trkpt>
      <trkpt lat="44.0867" lon="3.2669">
        <ele>551</ele>
        <time>2025-02-15T12:12:57.000Z</time>
      </trkpt>
      <trkpt lat="44.0868" lon="3.26683">
        <ele>550.2</ele>
        <time>2025-02-15T12:13:00.000Z</time>
      </trkpt>
      <trkpt lat="44.08688" lon="3.26677">
        <ele>549.3</ele>
        <time>2025-02-15T12:13:02.000Z</time>
      </trkpt>
      <trkpt lat="44.08697" lon="3.26671">
        <ele>548.3</ele>
        <time>2025-02-15T12:13:04.000Z</time>
      </trkpt>
      <trkpt lat="44.08704" lon="3.26663">
        <ele>547.2</ele>
        <time>2025-02-15T12:13:06.000Z</time>
      </trkpt>
      <trkpt lat="44.08713" lon="3.26654">
        <ele>546</ele>
        <time>2025-02-15T12:13:08.000Z</time>
      </trkpt>
      <trkpt lat="44.08722" lon="3.26645">
        <ele>544.7</ele>
        <time>2025-02-15T12:13:10.000Z</time>
      </trkpt>
      <trkpt lat="44.08731" lon="3.26634">
        <ele>543.1</ele>
        <time>2025-02-15T12:13:12.000Z</time>
      </trkpt>
      <trkpt lat="44.08741" lon="3.26624">
        <ele>541.6</ele>
        <time>2025-02-15T12:13:14.000Z</time>
      </trkpt>
      <trkpt lat="44.08753" lon="3.26614">
        <ele>539.9</ele>
        <time>2025-02-15T12:13:16.000Z</time>
      </trkpt>
      <trkpt lat="44.08765" lon="3.26603">
        <ele>538.3</ele>
        <time>2025-02-15T12:13:18.000Z</time>
      </trkpt>
      <trkpt lat="44.08776" lon="3.26593">
        <ele>536.6</ele>
        <time>2025-02-15T12:13:20.000Z</time>
      </trkpt>
      <trkpt lat="44.08789" lon="3.26586">
        <ele>535</ele>
        <time>2025-02-15T12:13:22.000Z</time>
      </trkpt>
      <trkpt lat="44.08801" lon="3.26579">
        <ele>533.5</ele>
        <time>2025-02-15T12:13:24.000Z</time>
      </trkpt>
      <trkpt lat="44.08812" lon="3.2657">
        <ele>532.1</ele>
        <time>2025-02-15T12:13:26.000Z</time>
      </trkpt>
      <trkpt lat="44.08821" lon="3.2656">
        <ele>530.8</ele>
        <time>2025-02-15T12:13:28.000Z</time>
      </trkpt>
      <trkpt lat="44.08829" lon="3.26551">
        <ele>529.5</ele>
        <time>2025-02-15T12:13:30.000Z</time>
      </trkpt>
      <trkpt lat="44.08836" lon="3.26541">
        <ele>526.5</ele>
        <time>2025-02-15T12:13:35.000Z</time>
      </trkpt>
      <trkpt lat="44.08842" lon="3.26531">
        <ele>523.6</ele>
        <time>2025-02-15T12:13:41.000Z</time>
      </trkpt>
      <trkpt lat="44.08846" lon="3.26518">
        <ele>520.8</ele>
        <time>2025-02-15T12:13:48.000Z</time>
      </trkpt>
      <trkpt lat="44.08851" lon="3.26507">
        <ele>519.1</ele>
        <time>2025-02-15T12:13:52.000Z</time>
      </trkpt>
      <trkpt lat="44.08857" lon="3.26496">
        <ele>517.3</ele>
        <time>2025-02-15T12:13:56.000Z</time>
      </trkpt>
      <trkpt lat="44.08862" lon="3.26484">
        <ele>515.2</ele>
        <time>2025-02-15T12:14:01.000Z</time>
      </trkpt>
      <trkpt lat="44.08868" lon="3.26471">
        <ele>513.8</ele>
        <time>2025-02-15T12:14:04.000Z</time>
      </trkpt>
      <trkpt lat="44.08875" lon="3.26456">
        <ele>512.4</ele>
        <time>2025-02-15T12:14:07.000Z</time>
      </trkpt>
      <trkpt lat="44.08879" lon="3.26438">
        <ele>510.6</ele>
        <time>2025-02-15T12:14:10.000Z</time>
      </trkpt>
      <trkpt lat="44.08882" lon="3.26425">
        <ele>508.8</ele>
        <time>2025-02-15T12:14:13.000Z</time>
      </trkpt>
      <trkpt lat="44.08893" lon="3.26419">
        <ele>507.2</ele>
        <time>2025-02-15T12:14:16.000Z</time>
      </trkpt>
      <trkpt lat="44.08905" lon="3.26413">
        <ele>505.6</ele>
        <time>2025-02-15T12:14:19.000Z</time>
      </trkpt>
      <trkpt lat="44.08914" lon="3.26407">
        <ele>504</ele>
        <time>2025-02-15T12:14:22.000Z</time>
      </trkpt>
      <trkpt lat="44.08924" lon="3.26395">
        <ele>502.6</ele>
        <time>2025-02-15T12:14:25.000Z</time>
      </trkpt>
      <trkpt lat="44.08931" lon="3.26384">
        <ele>501.6</ele>
        <time>2025-02-15T12:14:27.000Z</time>
      </trkpt>
      <trkpt lat="44.08939" lon="3.26372">
        <ele>500.5</ele>
        <time>2025-02-15T12:14:29.000Z</time>
      </trkpt>
      <trkpt lat="44.08946" lon="3.26361">
        <ele>499.4</ele>
        <time>2025-02-15T12:14:31.000Z</time>
      </trkpt>
      <trkpt lat="44.08952" lon="3.26348">
        <ele>498.3</ele>
        <time>2025-02-15T12:14:33.000Z</time>
      </trkpt>
      <trkpt lat="44.08956" lon="3.26335">
        <ele>497.1</ele>
        <time>2025-02-15T12:14:35.000Z</time>
      </trkpt>
      <trkpt lat="44.08959" lon="3.26322">
        <ele>495.8</ele>
        <time>2025-02-15T12:14:37.000Z</time>
      </trkpt>
      <trkpt lat="44.08967" lon="3.2631">
        <ele>493.9</ele>
        <time>2025-02-15T12:14:40.000Z</time>
      </trkpt>
      <trkpt lat="44.08976" lon="3.26305">
        <ele>491.4</ele>
        <time>2025-02-15T12:14:45.000Z</time>
      </trkpt>
      <trkpt lat="44.08985" lon="3.263">
        <ele>489.6</ele>
        <time>2025-02-15T12:14:49.000Z</time>
      </trkpt>
      <trkpt lat="44.08997" lon="3.26295">
        <ele>488.1</ele>
        <time>2025-02-15T12:14:52.000Z</time>
      </trkpt>
      <trkpt lat="44.09005" lon="3.2629">
        <ele>487.1</ele>
        <time>2025-02-15T12:14:54.000Z</time>
      </trkpt>
      <trkpt lat="44.09014" lon="3.26281">
        <ele>486.2</ele>
        <time>2025-02-15T12:14:56.000Z</time>
      </trkpt>
      <trkpt lat="44.09023" lon="3.26272">
        <ele>485.3</ele>
        <time>2025-02-15T12:14:58.000Z</time>
      </trkpt>
      <trkpt lat="44.09033" lon="3.26264">
        <ele>484.3</ele>
        <time>2025-02-15T12:15:00.000Z</time>
      </trkpt>
      <trkpt lat="44.09044" lon="3.26258">
        <ele>483.1</ele>
        <time>2025-02-15T12:15:02.000Z</time>
      </trkpt>
      <trkpt lat="44.09054" lon="3.2625">
        <ele>481.9</ele>
        <time>2025-02-15T12:15:04.000Z</time>
      </trkpt>
      <trkpt lat="44.09064" lon="3.2624">
        <ele>480.7</ele>
        <time>2025-02-15T12:15:06.000Z</time>
      </trkpt>
      <trkpt lat="44.09073" lon="3.2623">
        <ele>479.4</ele>
        <time>2025-02-15T12:15:08.000Z</time>
      </trkpt>
      <trkpt lat="44.09083" lon="3.2622">
        <ele>478.2</ele>
        <time>2025-02-15T12:15:10.000Z</time>
      </trkpt>
      <trkpt lat="44.09092" lon="3.26209">
        <ele>477</ele>
        <time>2025-02-15T12:15:12.000Z</time>
      </trkpt>
      <trkpt lat="44.091" lon="3.26194">
        <ele>475.5</ele>
        <time>2025-02-15T12:15:14.000Z</time>
      </trkpt>
      <trkpt lat="44.09107" lon="3.26181">
        <ele>474.2</ele>
        <time>2025-02-15T12:15:16.000Z</time>
      </trkpt>
      <trkpt lat="44.09117" lon="3.26178">
        <ele>472.9</ele>
        <time>2025-02-15T12:15:18.000Z</time>
      </trkpt>
      <trkpt lat="44.09125" lon="3.26182">
        <ele>471.6</ele>
        <time>2025-02-15T12:15:20.000Z</time>
      </trkpt>
      <trkpt lat="44.09136" lon="3.26185">
        <ele>469.7</ele>
        <time>2025-02-15T12:15:23.000Z</time>
      </trkpt>
      <trkpt lat="44.09147" lon="3.26187">
        <ele>468.4</ele>
        <time>2025-02-15T12:15:25.000Z</time>
      </trkpt>
      <trkpt lat="44.09158" lon="3.26187">
        <ele>467.2</ele>
        <time>2025-02-15T12:15:27.000Z</time>
      </trkpt>
      <trkpt lat="44.0917" lon="3.26185">
        <ele>466</ele>
        <time>2025-02-15T12:15:29.000Z</time>
      </trkpt>
      <trkpt lat="44.09181" lon="3.26182">
        <ele>464.8</ele>
        <time>2025-02-15T12:15:31.000Z</time>
      </trkpt>
      <trkpt lat="44.09194" lon="3.26179">
        <ele>463.3</ele>
        <time>2025-02-15T12:15:34.000Z</time>
      </trkpt>
      <trkpt lat="44.09185" lon="3.26186">
        <ele>460.2</ele>
        <time>2025-02-15T12:15:40.000Z</time>
      </trkpt>
      <trkpt lat="44.09174" lon="3.26192">
        <ele>459.2</ele>
        <time>2025-02-15T12:15:42.000Z</time>
      </trkpt>
      <trkpt lat="44.09165" lon="3.26199">
        <ele>458.2</ele>
        <time>2025-02-15T12:15:44.000Z</time>
      </trkpt>
      <trkpt lat="44.09158" lon="3.26206">
        <ele>457.1</ele>
        <time>2025-02-15T12:15:46.000Z</time>
      </trkpt>
      <trkpt lat="44.09149" lon="3.26213">
        <ele>455.5</ele>
        <time>2025-02-15T12:15:49.000Z</time>
      </trkpt>
      <trkpt lat="44.09142" lon="3.26221">
        <ele>453.5</ele>
        <time>2025-02-15T12:15:53.000Z</time>
      </trkpt>
      <trkpt lat="44.09137" lon="3.26234">
        <ele>452.3</ele>
        <time>2025-02-15T12:15:56.000Z</time>
      </trkpt>
      <trkpt lat="44.09139" lon="3.26246">
        <ele>451.2</ele>
        <time>2025-02-15T12:15:59.000Z</time>
      </trkpt>
      <trkpt lat="44.0914" lon="3.2626">
        <ele>450</ele>
        <time>2025-02-15T12:16:03.000Z</time>
      </trkpt>
      <trkpt lat="44.0914" lon="3.26274">
        <ele>447</ele>
        <time>2025-02-15T12:16:23.000Z</time>
      </trkpt>
      <trkpt lat="44.09133" lon="3.26284">
        <ele>446.1</ele>
        <time>2025-02-15T12:16:35.000Z</time>
      </trkpt>
      <trkpt lat="44.09124" lon="3.26293">
        <ele>445.8</ele>
        <time>2025-02-15T12:16:38.000Z</time>
      </trkpt>
      <trkpt lat="44.09117" lon="3.26302">
        <ele>445.3</ele>
        <time>2025-02-15T12:16:42.000Z</time>
      </trkpt>
      <trkpt lat="44.09112" lon="3.26312">
        <ele>444.6</ele>
        <time>2025-02-15T12:16:49.000Z</time>
      </trkpt>
      <trkpt lat="44.09107" lon="3.26323">
        <ele>444.3</ele>
        <time>2025-02-15T12:16:52.000Z</time>
      </trkpt>
      <trkpt lat="44.091" lon="3.26338">
        <ele>443.8</ele>
        <time>2025-02-15T12:16:55.000Z</time>
      </trkpt>
      <trkpt lat="44.09095" lon="3.2635">
        <ele>443.5</ele>
        <time>2025-02-15T12:16:57.000Z</time>
      </trkpt>
      <trkpt lat="44.09088" lon="3.26365">
        <ele>443.1</ele>
        <time>2025-02-15T12:17:00.000Z</time>
      </trkpt>
      <trkpt lat="44.09082" lon="3.26376">
        <ele>442.7</ele>
        <time>2025-02-15T12:17:02.000Z</time>
      </trkpt>
      <trkpt lat="44.09076" lon="3.26387">
        <ele>442.3</ele>
        <time>2025-02-15T12:17:04.000Z</time>
      </trkpt>
      <trkpt lat="44.09071" lon="3.26399">
        <ele>441.9</ele>
        <time>2025-02-15T12:17:06.000Z</time>
      </trkpt>
      <trkpt lat="44.09065" lon="3.2641">
        <ele>441.3</ele>
        <time>2025-02-15T12:17:08.000Z</time>
      </trkpt>
      <trkpt lat="44.09061" lon="3.26422">
        <ele>440.6</ele>
        <time>2025-02-15T12:17:10.000Z</time>
      </trkpt>
      <trkpt lat="44.0905" lon="3.26433">
        <ele>439.8</ele>
        <time>2025-02-15T12:17:12.000Z</time>
      </trkpt>
      <trkpt lat="44.0904" lon="3.26444">
        <ele>439</ele>
        <time>2025-02-15T12:17:14.000Z</time>
      </trkpt>
      <trkpt lat="44.09031" lon="3.26448">
        <ele>437.9</ele>
        <time>2025-02-15T12:17:17.000Z</time>
      </trkpt>
      <trkpt lat="44.09025" lon="3.26459">
        <ele>435.8</ele>
        <time>2025-02-15T12:17:25.000Z</time>
      </trkpt>
      <trkpt lat="44.09014" lon="3.26463">
        <ele>435.2</ele>
        <time>2025-02-15T12:17:28.000Z</time>
      </trkpt>
      <trkpt lat="44.09004" lon="3.26469">
        <ele>434.7</ele>
        <time>2025-02-15T12:17:31.000Z</time>
      </trkpt>
      <trkpt lat="44.08994" lon="3.26478">
        <ele>434.3</ele>
        <time>2025-02-15T12:17:34.000Z</time>
      </trkpt>
      <trkpt lat="44.08985" lon="3.26487">
        <ele>433.9</ele>
        <time>2025-02-15T12:17:37.000Z</time>
      </trkpt>
      <trkpt lat="44.08976" lon="3.26495">
        <ele>433.6</ele>
        <time>2025-02-15T12:17:40.000Z</time>
      </trkpt>
      <trkpt lat="44.08967" lon="3.26505">
        <ele>433.4</ele>
        <time>2025-02-15T12:17:43.000Z</time>
      </trkpt>
      <trkpt lat="44.08959" lon="3.26516">
        <ele>433.2</ele>
        <time>2025-02-15T12:17:46.000Z</time>
      </trkpt>
      <trkpt lat="44.0895" lon="3.26528">
        <ele>433</ele>
        <time>2025-02-15T12:17:49.000Z</time>
      </trkpt>
      <trkpt lat="44.0894" lon="3.26539">
        <ele>432.8</ele>
        <time>2025-02-15T12:17:52.000Z</time>
      </trkpt>
      <trkpt lat="44.0893" lon="3.2655">
        <ele>432.7</ele>
        <time>2025-02-15T12:17:55.000Z</time>
      </trkpt>
      <trkpt lat="44.0892" lon="3.26563">
        <ele>432.6</ele>
        <time>2025-02-15T12:17:58.000Z</time>
      </trkpt>
      <trkpt lat="44.0891" lon="3.26573">
        <ele>432.5</ele>
        <time>2025-02-15T12:18:01.000Z</time>
      </trkpt>
      <trkpt lat="44.089" lon="3.26585">
        <ele>432.4</ele>
        <time>2025-02-15T12:18:04.000Z</time>
      </trkpt>
      <trkpt lat="44.08892" lon="3.26592">
        <ele>432.3</ele>
        <time>2025-02-15T12:18:06.000Z</time>
      </trkpt>
      <trkpt lat="44.08884" lon="3.26601">
        <ele>432.3</ele>
        <time>2025-02-15T12:18:08.000Z</time>
      </trkpt>
      <trkpt lat="44.08874" lon="3.26614">
        <ele>432.2</ele>
        <time>2025-02-15T12:18:11.000Z</time>
      </trkpt>
      <trkpt lat="44.08868" lon="3.26623">
        <ele>432.1</ele>
        <time>2025-02-15T12:18:13.000Z</time>
      </trkpt>
      <trkpt lat="44.08861" lon="3.26638">
        <ele>432.1</ele>
        <time>2025-02-15T12:18:16.000Z</time>
      </trkpt>
      <trkpt lat="44.08855" lon="3.26648">
        <ele>432</ele>
        <time>2025-02-15T12:18:18.000Z</time>
      </trkpt>
      <trkpt lat="44.08849" lon="3.26658">
        <ele>432</ele>
        <time>2025-02-15T12:18:20.000Z</time>
      </trkpt>
      <trkpt lat="44.08844" lon="3.26669">
        <ele>432</ele>
        <time>2025-02-15T12:18:22.000Z</time>
      </trkpt>
      <trkpt lat="44.08837" lon="3.26678">
        <ele>432</ele>
        <time>2025-02-15T12:18:24.000Z</time>
      </trkpt>
      <trkpt lat="44.08828" lon="3.26686">
        <ele>432</ele>
        <time>2025-02-15T12:18:26.000Z</time>
      </trkpt>
      <trkpt lat="44.0882" lon="3.26696">
        <ele>432</ele>
        <time>2025-02-15T12:18:28.000Z</time>
      </trkpt>
      <trkpt lat="44.08815" lon="3.26707">
        <ele>432</ele>
        <time>2025-02-15T12:18:30.000Z</time>
      </trkpt>
      <trkpt lat="44.08808" lon="3.26718">
        <ele>432</ele>
        <time>2025-02-15T12:18:32.000Z</time>
      </trkpt>
      <trkpt lat="44.08805" lon="3.26729">
        <ele>432</ele>
        <time>2025-02-15T12:18:34.000Z</time>
      </trkpt>
      <trkpt lat="44.08803" lon="3.26742">
        <ele>432.1</ele>
        <time>2025-02-15T12:18:36.000Z</time>
      </trkpt>
      <trkpt lat="44.08799" lon="3.26753">
        <ele>432.1</ele>
        <time>2025-02-15T12:18:38.000Z</time>
      </trkpt>
      <trkpt lat="44.08794" lon="3.2677">
        <ele>432.2</ele>
        <time>2025-02-15T12:18:41.000Z</time>
      </trkpt>
      <trkpt lat="44.0879" lon="3.26782">
        <ele>432.2</ele>
        <time>2025-02-15T12:18:43.000Z</time>
      </trkpt>
      <trkpt lat="44.08787" lon="3.26799">
        <ele>432.3</ele>
        <time>2025-02-15T12:18:46.000Z</time>
      </trkpt>
      <trkpt lat="44.08782" lon="3.26816">
        <ele>432.3</ele>
        <time>2025-02-15T12:18:49.000Z</time>
      </trkpt>
      <trkpt lat="44.08777" lon="3.26827">
        <ele>432.3</ele>
        <time>2025-02-15T12:18:51.000Z</time>
      </trkpt>
      <trkpt lat="44.08771" lon="3.26838">
        <ele>432.3</ele>
        <time>2025-02-15T12:18:53.000Z</time>
      </trkpt>
      <trkpt lat="44.08766" lon="3.26855">
        <ele>432.3</ele>
        <time>2025-02-15T12:18:56.000Z</time>
      </trkpt>
      <trkpt lat="44.08761" lon="3.26866">
        <ele>432.3</ele>
        <time>2025-02-15T12:18:58.000Z</time>
      </trkpt>
      <trkpt lat="44.08756" lon="3.26877">
        <ele>432.2</ele>
        <time>2025-02-15T12:19:00.000Z</time>
      </trkpt>
      <trkpt lat="44.08751" lon="3.26889">
        <ele>432.2</ele>
        <time>2025-02-15T12:19:02.000Z</time>
      </trkpt>
      <trkpt lat="44.08744" lon="3.269">
        <ele>432.2</ele>
        <time>2025-02-15T12:19:04.000Z</time>
      </trkpt>
      <trkpt lat="44.08741" lon="3.26913">
        <ele>432.2</ele>
        <time>2025-02-15T12:19:06.000Z</time>
      </trkpt>
      <trkpt lat="44.08737" lon="3.26926">
        <ele>432.2</ele>
        <time>2025-02-15T12:19:08.000Z</time>
      </trkpt>
      <trkpt lat="44.08734" lon="3.26938">
        <ele>432.2</ele>
        <time>2025-02-15T12:19:10.000Z</time>
      </trkpt>
      <trkpt lat="44.08732" lon="3.26951">
        <ele>432.2</ele>
        <time>2025-02-15T12:19:12.000Z</time>
      </trkpt>
      <trkpt lat="44.08731" lon="3.26963">
        <ele>432.1</ele>
        <time>2025-02-15T12:19:14.000Z</time>
      </trkpt>
      <trkpt lat="44.0873" lon="3.26976">
        <ele>432.1</ele>
        <time>2025-02-15T12:19:16.000Z</time>
      </trkpt>
      <trkpt lat="44.08728" lon="3.26989">
        <ele>432.2</ele>
        <time>2025-02-15T12:19:18.000Z</time>
      </trkpt>
      <trkpt lat="44.08727" lon="3.27004">
        <ele>432.2</ele>
        <time>2025-02-15T12:19:20.000Z</time>
      </trkpt>
      <trkpt lat="44.08727" lon="3.27019">
        <ele>432.3</ele>
        <time>2025-02-15T12:19:22.000Z</time>
      </trkpt>
      <trkpt lat="44.08725" lon="3.27033">
        <ele>432.3</ele>
        <time>2025-02-15T12:19:24.000Z</time>
      </trkpt>
      <trkpt lat="44.08724" lon="3.27047">
        <ele>432.3</ele>
        <time>2025-02-15T12:19:26.000Z</time>
      </trkpt>
      <trkpt lat="44.08722" lon="3.27061">
        <ele>432.3</ele>
        <time>2025-02-15T12:19:28.000Z</time>
      </trkpt>
      <trkpt lat="44.08721" lon="3.27074">
        <ele>432.4</ele>
        <time>2025-02-15T12:19:30.000Z</time>
      </trkpt>
      <trkpt lat="44.08723" lon="3.27088">
        <ele>432.4</ele>
        <time>2025-02-15T12:19:32.000Z</time>
      </trkpt>
      <trkpt lat="44.08724" lon="3.27101">
        <ele>432.4</ele>
        <time>2025-02-15T12:19:34.000Z</time>
      </trkpt>
      <trkpt lat="44.08725" lon="3.27114">
        <ele>432.4</ele>
        <time>2025-02-15T12:19:36.000Z</time>
      </trkpt>
      <trkpt lat="44.08725" lon="3.27133">
        <ele>432.4</ele>
        <time>2025-02-15T12:19:39.000Z</time>
      </trkpt>
      <trkpt lat="44.08725" lon="3.27145">
        <ele>432.5</ele>
        <time>2025-02-15T12:19:41.000Z</time>
      </trkpt>
      <trkpt lat="44.08726" lon="3.27159">
        <ele>432.6</ele>
        <time>2025-02-15T12:19:43.000Z</time>
      </trkpt>
      <trkpt lat="44.08726" lon="3.27172">
        <ele>432.7</ele>
        <time>2025-02-15T12:19:45.000Z</time>
      </trkpt>
      <trkpt lat="44.08727" lon="3.27185">
        <ele>432.8</ele>
        <time>2025-02-15T12:19:47.000Z</time>
      </trkpt>
      <trkpt lat="44.08728" lon="3.27198">
        <ele>432.9</ele>
        <time>2025-02-15T12:19:49.000Z</time>
      </trkpt>
      <trkpt lat="44.0873" lon="3.27211">
        <ele>432.9</ele>
        <time>2025-02-15T12:19:51.000Z</time>
      </trkpt>
      <trkpt lat="44.08732" lon="3.27225">
        <ele>433</ele>
        <time>2025-02-15T12:19:53.000Z</time>
      </trkpt>
      <trkpt lat="44.08734" lon="3.27238">
        <ele>433</ele>
        <time>2025-02-15T12:19:55.000Z</time>
      </trkpt>
      <trkpt lat="44.08736" lon="3.27251">
        <ele>433.1</ele>
        <time>2025-02-15T12:19:57.000Z</time>
      </trkpt>
      <trkpt lat="44.08738" lon="3.27264">
        <ele>433.1</ele>
        <time>2025-02-15T12:19:59.000Z</time>
      </trkpt>
      <trkpt lat="44.0874" lon="3.27277">
        <ele>433.1</ele>
        <time>2025-02-15T12:20:01.000Z</time>
      </trkpt>
      <trkpt lat="44.08741" lon="3.27295">
        <ele>433.2</ele>
        <time>2025-02-15T12:20:04.000Z</time>
      </trkpt>
      <trkpt lat="44.08741" lon="3.27314">
        <ele>433.2</ele>
        <time>2025-02-15T12:20:07.000Z</time>
      </trkpt>
      <trkpt lat="44.08743" lon="3.27332">
        <ele>433.3</ele>
        <time>2025-02-15T12:20:10.000Z</time>
      </trkpt>
      <trkpt lat="44.08746" lon="3.27344">
        <ele>433.3</ele>
        <time>2025-02-15T12:20:12.000Z</time>
      </trkpt>
      <trkpt lat="44.08749" lon="3.27357">
        <ele>433.4</ele>
        <time>2025-02-15T12:20:14.000Z</time>
      </trkpt>
      <trkpt lat="44.08754" lon="3.27381">
        <ele>433</ele>
        <time>2025-02-15T12:20:17.000Z</time>
      </trkpt>
      <trkpt lat="44.08757" lon="3.27408">
        <ele>433</ele>
        <time>2025-02-15T12:20:21.000Z</time>
      </trkpt>
      <trkpt lat="44.08756" lon="3.27432">
        <ele>433</ele>
        <time>2025-02-15T12:20:25.000Z</time>
      </trkpt>
      <trkpt lat="44.08753" lon="3.27456">
        <ele>434</ele>
        <time>2025-02-15T12:20:29.000Z</time>
      </trkpt>
      <trkpt lat="44.0875" lon="3.27479">
        <ele>434</ele>
        <time>2025-02-15T12:20:33.000Z</time>
      </trkpt>
      <trkpt lat="44.08748" lon="3.275">
        <ele>434</ele>
        <time>2025-02-15T12:20:37.000Z</time>
      </trkpt>
      <trkpt lat="44.0875" lon="3.27521">
        <ele>434</ele>
        <time>2025-02-15T12:20:41.000Z</time>
      </trkpt>
      <trkpt lat="44.08752" lon="3.27542">
        <ele>434</ele>
        <time>2025-02-15T12:20:45.000Z</time>
      </trkpt>
      <trkpt lat="44.08755" lon="3.27562">
        <ele>434</ele>
        <time>2025-02-15T12:20:49.000Z</time>
      </trkpt>
      <trkpt lat="44.08757" lon="3.27581">
        <ele>434</ele>
        <time>2025-02-15T12:20:53.000Z</time>
      </trkpt>
      <trkpt lat="44.08756" lon="3.276">
        <ele>435</ele>
        <time>2025-02-15T12:20:57.000Z</time>
      </trkpt>
      <trkpt lat="44.08751" lon="3.27618">
        <ele>435</ele>
        <time>2025-02-15T12:21:01.000Z</time>
      </trkpt>
      <trkpt lat="44.0874" lon="3.27636">
        <ele>435</ele>
        <time>2025-02-15T12:21:05.000Z</time>
      </trkpt>
      <trkpt lat="44.08729" lon="3.2765">
        <ele>435</ele>
        <time>2025-02-15T12:21:09.000Z</time>
      </trkpt>
      <trkpt lat="44.08714" lon="3.27651">
        <ele>435</ele>
        <time>2025-02-15T12:21:13.000Z</time>
      </trkpt>
      <trkpt lat="44.087" lon="3.2764">
        <ele>436</ele>
        <time>2025-02-15T12:21:17.000Z</time>
      </trkpt>
      <trkpt lat="44.08691" lon="3.27625">
        <ele>436</ele>
        <time>2025-02-15T12:21:21.000Z</time>
      </trkpt>
      <trkpt lat="44.08681" lon="3.27608">
        <ele>436</ele>
        <time>2025-02-15T12:21:25.000Z</time>
      </trkpt>
      <trkpt lat="44.08656" lon="3.27591">
        <ele>436</ele>
        <time>2025-02-15T12:21:29.000Z</time>
      </trkpt>
      <trkpt lat="44.08601" lon="3.27577">
        <ele>436.8</ele>
        <time>2025-02-15T12:21:32.000Z</time>
      </trkpt>
      <trkpt lat="44.08591" lon="3.2757">
        <ele>436.9</ele>
        <time>2025-02-15T12:21:34.000Z</time>
      </trkpt>
      <trkpt lat="44.08583" lon="3.27561">
        <ele>437.1</ele>
        <time>2025-02-15T12:21:37.000Z</time>
      </trkpt>
      <trkpt lat="44.08575" lon="3.27551">
        <ele>437.2</ele>
        <time>2025-02-15T12:21:40.000Z</time>
      </trkpt>
      <trkpt lat="44.08566" lon="3.2754">
        <ele>437.3</ele>
        <time>2025-02-15T12:21:43.000Z</time>
      </trkpt>
      <trkpt lat="44.08557" lon="3.27531">
        <ele>437.4</ele>
        <time>2025-02-15T12:21:47.000Z</time>
      </trkpt>
      <trkpt lat="44.08547" lon="3.27522">
        <ele>437.5</ele>
        <time>2025-02-15T12:21:51.000Z</time>
      </trkpt>
      <trkpt lat="44.08538" lon="3.27513">
        <ele>437.6</ele>
        <time>2025-02-15T12:21:55.000Z</time>
      </trkpt>
      <trkpt lat="44.08531" lon="3.27506">
        <ele>437.6</ele>
        <time>2025-02-15T12:21:58.000Z</time>
      </trkpt>
      <trkpt lat="44.08523" lon="3.27498">
        <ele>437.6</ele>
        <time>2025-02-15T12:22:01.000Z</time>
      </trkpt>
      <trkpt lat="44.08514" lon="3.27491">
        <ele>437.7</ele>
        <time>2025-02-15T12:22:04.000Z</time>
      </trkpt>
      <trkpt lat="44.08504" lon="3.27484">
        <ele>437.9</ele>
        <time>2025-02-15T12:22:07.000Z</time>
      </trkpt>
      <trkpt lat="44.08494" lon="3.27478">
        <ele>437.9</ele>
        <time>2025-02-15T12:22:10.000Z</time>
      </trkpt>
      <trkpt lat="44.08483" lon="3.27473">
        <ele>438.1</ele>
        <time>2025-02-15T12:22:13.000Z</time>
      </trkpt>
      <trkpt lat="44.08471" lon="3.2747">
        <ele>438.2</ele>
        <time>2025-02-15T12:22:16.000Z</time>
      </trkpt>
      <trkpt lat="44.08461" lon="3.27468">
        <ele>438.3</ele>
        <time>2025-02-15T12:22:18.000Z</time>
      </trkpt>
      <trkpt lat="44.08452" lon="3.27466">
        <ele>438.4</ele>
        <time>2025-02-15T12:22:20.000Z</time>
      </trkpt>
      <trkpt lat="44.08442" lon="3.27466">
        <ele>438.4</ele>
        <time>2025-02-15T12:22:22.000Z</time>
      </trkpt>
      <trkpt lat="44.08432" lon="3.27466">
        <ele>438.5</ele>
        <time>2025-02-15T12:22:24.000Z</time>
      </trkpt>
      <trkpt lat="44.08422" lon="3.27466">
        <ele>438.5</ele>
        <time>2025-02-15T12:22:26.000Z</time>
      </trkpt>
      <trkpt lat="44.08412" lon="3.27468">
        <ele>438.6</ele>
        <time>2025-02-15T12:22:28.000Z</time>
      </trkpt>
      <trkpt lat="44.08402" lon="3.27471">
        <ele>438.6</ele>
        <time>2025-02-15T12:22:30.000Z</time>
      </trkpt>
      <trkpt lat="44.08393" lon="3.27475">
        <ele>438.6</ele>
        <time>2025-02-15T12:22:32.000Z</time>
      </trkpt>
      <trkpt lat="44.08383" lon="3.27479">
        <ele>438.6</ele>
        <time>2025-02-15T12:22:34.000Z</time>
      </trkpt>
      <trkpt lat="44.08374" lon="3.27482">
        <ele>438.6</ele>
        <time>2025-02-15T12:22:36.000Z</time>
      </trkpt>
      <trkpt lat="44.08365" lon="3.27486">
        <ele>438.6</ele>
        <time>2025-02-15T12:22:38.000Z</time>
      </trkpt>
      <trkpt lat="44.08356" lon="3.2749">
        <ele>438.6</ele>
        <time>2025-02-15T12:22:40.000Z</time>
      </trkpt>
      <trkpt lat="44.08346" lon="3.27494">
        <ele>438.6</ele>
        <time>2025-02-15T12:22:42.000Z</time>
      </trkpt>
      <trkpt lat="44.08336" lon="3.27499">
        <ele>438.6</ele>
        <time>2025-02-15T12:22:44.000Z</time>
      </trkpt>
      <trkpt lat="44.08328" lon="3.27503">
        <ele>438.6</ele>
        <time>2025-02-15T12:22:46.000Z</time>
      </trkpt>
      <trkpt lat="44.08318" lon="3.2751">
        <ele>438.6</ele>
        <time>2025-02-15T12:22:48.000Z</time>
      </trkpt>
      <trkpt lat="44.0831" lon="3.27515">
        <ele>438.6</ele>
        <time>2025-02-15T12:22:50.000Z</time>
      </trkpt>
      <trkpt lat="44.08301" lon="3.27522">
        <ele>438.6</ele>
        <time>2025-02-15T12:22:52.000Z</time>
      </trkpt>
      <trkpt lat="44.08293" lon="3.27529">
        <ele>438.6</ele>
        <time>2025-02-15T12:22:54.000Z</time>
      </trkpt>
      <trkpt lat="44.08285" lon="3.27536">
        <ele>438.5</ele>
        <time>2025-02-15T12:22:56.000Z</time>
      </trkpt>
      <trkpt lat="44.08277" lon="3.27543">
        <ele>438.5</ele>
        <time>2025-02-15T12:22:58.000Z</time>
      </trkpt>
      <trkpt lat="44.08269" lon="3.27551">
        <ele>438.5</ele>
        <time>2025-02-15T12:23:00.000Z</time>
      </trkpt>
      <trkpt lat="44.08261" lon="3.27559">
        <ele>438.5</ele>
        <time>2025-02-15T12:23:02.000Z</time>
      </trkpt>
      <trkpt lat="44.08253" lon="3.27565">
        <ele>438.5</ele>
        <time>2025-02-15T12:23:04.000Z</time>
      </trkpt>
      <trkpt lat="44.08246" lon="3.27573">
        <ele>438.4</ele>
        <time>2025-02-15T12:23:06.000Z</time>
      </trkpt>
      <trkpt lat="44.08239" lon="3.27583">
        <ele>438.4</ele>
        <time>2025-02-15T12:23:08.000Z</time>
      </trkpt>
      <trkpt lat="44.08234" lon="3.27595">
        <ele>438.4</ele>
        <time>2025-02-15T12:23:10.000Z</time>
      </trkpt>
      <trkpt lat="44.08229" lon="3.27607">
        <ele>438.4</ele>
        <time>2025-02-15T12:23:12.000Z</time>
      </trkpt>
      <trkpt lat="44.08225" lon="3.27619">
        <ele>438.3</ele>
        <time>2025-02-15T12:23:14.000Z</time>
      </trkpt>
      <trkpt lat="44.0822" lon="3.27631">
        <ele>438.3</ele>
        <time>2025-02-15T12:23:16.000Z</time>
      </trkpt>
      <trkpt lat="44.08216" lon="3.27642">
        <ele>438.3</ele>
        <time>2025-02-15T12:23:18.000Z</time>
      </trkpt>
      <trkpt lat="44.0821" lon="3.27655">
        <ele>438.3</ele>
        <time>2025-02-15T12:23:20.000Z</time>
      </trkpt>
      <trkpt lat="44.08206" lon="3.27666">
        <ele>438.3</ele>
        <time>2025-02-15T12:23:22.000Z</time>
      </trkpt>
      <trkpt lat="44.08201" lon="3.27677">
        <ele>438.3</ele>
        <time>2025-02-15T12:23:24.000Z</time>
      </trkpt>
      <trkpt lat="44.08197" lon="3.27689">
        <ele>438.3</ele>
        <time>2025-02-15T12:23:26.000Z</time>
      </trkpt>
      <trkpt lat="44.08194" lon="3.27701">
        <ele>438.4</ele>
        <time>2025-02-15T12:23:28.000Z</time>
      </trkpt>
      <trkpt lat="44.0819" lon="3.27714">
        <ele>438.4</ele>
        <time>2025-02-15T12:23:30.000Z</time>
      </trkpt>
      <trkpt lat="44.08187" lon="3.27726">
        <ele>438.5</ele>
        <time>2025-02-15T12:23:32.000Z</time>
      </trkpt>
      <trkpt lat="44.08183" lon="3.27739">
        <ele>438.5</ele>
        <time>2025-02-15T12:23:34.000Z</time>
      </trkpt>
      <trkpt lat="44.0818" lon="3.27751">
        <ele>438.6</ele>
        <time>2025-02-15T12:23:36.000Z</time>
      </trkpt>
      <trkpt lat="44.08176" lon="3.27763">
        <ele>438.7</ele>
        <time>2025-02-15T12:23:38.000Z</time>
      </trkpt>
      <trkpt lat="44.08172" lon="3.27774">
        <ele>438.8</ele>
        <time>2025-02-15T12:23:40.000Z</time>
      </trkpt>
      <trkpt lat="44.08166" lon="3.27785">
        <ele>438.9</ele>
        <time>2025-02-15T12:23:42.000Z</time>
      </trkpt>
      <trkpt lat="44.08161" lon="3.27795">
        <ele>438.9</ele>
        <time>2025-02-15T12:23:44.000Z</time>
      </trkpt>
      <trkpt lat="44.08154" lon="3.2781">
        <ele>439</ele>
        <time>2025-02-15T12:23:47.000Z</time>
      </trkpt>
      <trkpt lat="44.08145" lon="3.27822">
        <ele>439.1</ele>
        <time>2025-02-15T12:23:50.000Z</time>
      </trkpt>
      <trkpt lat="44.08137" lon="3.27834">
        <ele>439.2</ele>
        <time>2025-02-15T12:23:53.000Z</time>
      </trkpt>
      <trkpt lat="44.08127" lon="3.27847">
        <ele>439.3</ele>
        <time>2025-02-15T12:23:56.000Z</time>
      </trkpt>
      <trkpt lat="44.08118" lon="3.27858">
        <ele>439.3</ele>
        <time>2025-02-15T12:23:59.000Z</time>
      </trkpt>
      <trkpt lat="44.08109" lon="3.27869">
        <ele>439.4</ele>
        <time>2025-02-15T12:24:02.000Z</time>
      </trkpt>
      <trkpt lat="44.08099" lon="3.2788">
        <ele>439.6</ele>
        <time>2025-02-15T12:24:05.000Z</time>
      </trkpt>
      <trkpt lat="44.0809" lon="3.27887">
        <ele>439.7</ele>
        <time>2025-02-15T12:24:07.000Z</time>
      </trkpt>
      <trkpt lat="44.0808" lon="3.27893">
        <ele>439.7</ele>
        <time>2025-02-15T12:24:09.000Z</time>
      </trkpt>
      <trkpt lat="44.08071" lon="3.279">
        <ele>439.8</ele>
        <time>2025-02-15T12:24:11.000Z</time>
      </trkpt>
      <trkpt lat="44.0806" lon="3.27906">
        <ele>439.9</ele>
        <time>2025-02-15T12:24:13.000Z</time>
      </trkpt>
      <trkpt lat="44.0805" lon="3.27912">
        <ele>440</ele>
        <time>2025-02-15T12:24:15.000Z</time>
      </trkpt>
      <trkpt lat="44.08041" lon="3.27917">
        <ele>440.2</ele>
        <time>2025-02-15T12:24:17.000Z</time>
      </trkpt>
      <trkpt lat="44.08033" lon="3.27924">
        <ele>440.4</ele>
        <time>2025-02-15T12:24:19.000Z</time>
      </trkpt>
      <trkpt lat="44.08021" lon="3.2793">
        <ele>440.7</ele>
        <time>2025-02-15T12:24:22.000Z</time>
      </trkpt>
      <trkpt lat="44.0801" lon="3.27935">
        <ele>441</ele>
        <time>2025-02-15T12:24:25.000Z</time>
      </trkpt>
      <trkpt lat="44.07999" lon="3.27941">
        <ele>441.2</ele>
        <time>2025-02-15T12:24:28.000Z</time>
      </trkpt>
      <trkpt lat="44.07991" lon="3.27947">
        <ele>441.3</ele>
        <time>2025-02-15T12:24:30.000Z</time>
      </trkpt>
      <trkpt lat="44.07982" lon="3.27953">
        <ele>441.4</ele>
        <time>2025-02-15T12:24:32.000Z</time>
      </trkpt>
      <trkpt lat="44.07973" lon="3.27959">
        <ele>441.5</ele>
        <time>2025-02-15T12:24:34.000Z</time>
      </trkpt>
      <trkpt lat="44.07961" lon="3.27966">
        <ele>441.6</ele>
        <time>2025-02-15T12:24:37.000Z</time>
      </trkpt>
      <trkpt lat="44.07952" lon="3.27974">
        <ele>441.6</ele>
        <time>2025-02-15T12:24:39.000Z</time>
      </trkpt>
      <trkpt lat="44.07943" lon="3.27978">
        <ele>441.6</ele>
        <time>2025-02-15T12:24:41.000Z</time>
      </trkpt>
      <trkpt lat="44.07935" lon="3.27983">
        <ele>441.7</ele>
        <time>2025-02-15T12:24:43.000Z</time>
      </trkpt>
      <trkpt lat="44.07926" lon="3.27987">
        <ele>441.7</ele>
        <time>2025-02-15T12:24:45.000Z</time>
      </trkpt>
      <trkpt lat="44.07914" lon="3.27992">
        <ele>441.7</ele>
        <time>2025-02-15T12:24:48.000Z</time>
      </trkpt>
      <trkpt lat="44.07901" lon="3.27995">
        <ele>441.8</ele>
        <time>2025-02-15T12:24:51.000Z</time>
      </trkpt>
      <trkpt lat="44.07889" lon="3.27999">
        <ele>441.8</ele>
        <time>2025-02-15T12:24:54.000Z</time>
      </trkpt>
      <trkpt lat="44.07877" lon="3.28003">
        <ele>441.9</ele>
        <time>2025-02-15T12:24:57.000Z</time>
      </trkpt>
      <trkpt lat="44.07866" lon="3.28007">
        <ele>442</ele>
        <time>2025-02-15T12:25:00.000Z</time>
      </trkpt>
      <trkpt lat="44.07854" lon="3.28009">
        <ele>442.1</ele>
        <time>2025-02-15T12:25:03.000Z</time>
      </trkpt>
      <trkpt lat="44.07843" lon="3.2801">
        <ele>442.2</ele>
        <time>2025-02-15T12:25:06.000Z</time>
      </trkpt>
      <trkpt lat="44.07823" lon="3.28011">
        <ele>442</ele>
        <time>2025-02-15T12:25:10.000Z</time>
      </trkpt>
      <trkpt lat="44.07813" lon="3.28015">
        <ele>442.5</ele>
        <time>2025-02-15T12:25:13.000Z</time>
      </trkpt>
      <trkpt lat="44.07805" lon="3.28021">
        <ele>442</ele>
        <time>2025-02-15T12:25:15.000Z</time>
      </trkpt>
      <trkpt lat="44.07797" lon="3.28029">
        <ele>443</ele>
        <time>2025-02-15T12:25:18.000Z</time>
      </trkpt>
      <trkpt lat="44.07787" lon="3.28039">
        <ele>443.1</ele>
        <time>2025-02-15T12:25:21.000Z</time>
      </trkpt>
      <trkpt lat="44.0778" lon="3.28047">
        <ele>443.2</ele>
        <time>2025-02-15T12:25:23.000Z</time>
      </trkpt>
      <trkpt lat="44.07773" lon="3.28059">
        <ele>443.4</ele>
        <time>2025-02-15T12:25:26.000Z</time>
      </trkpt>
      <trkpt lat="44.07766" lon="3.28069">
        <ele>443</ele>
        <time>2025-02-15T12:25:28.000Z</time>
      </trkpt>
      <trkpt lat="44.07751" lon="3.28087">
        <ele>443</ele>
        <time>2025-02-15T12:25:32.000Z</time>
      </trkpt>
      <trkpt lat="44.07737" lon="3.28107">
        <ele>443</ele>
        <time>2025-02-15T12:25:36.000Z</time>
      </trkpt>
      <trkpt lat="44.07728" lon="3.2813">
        <ele>443</ele>
        <time>2025-02-15T12:25:40.000Z</time>
      </trkpt>
      <trkpt lat="44.07722" lon="3.28155">
        <ele>443</ele>
        <time>2025-02-15T12:25:44.000Z</time>
      </trkpt>
      <trkpt lat="44.07718" lon="3.2818">
        <ele>443</ele>
        <time>2025-02-15T12:25:48.000Z</time>
      </trkpt>
      <trkpt lat="44.07714" lon="3.28204">
        <ele>444</ele>
        <time>2025-02-15T12:25:52.000Z</time>
      </trkpt>
      <trkpt lat="44.07706" lon="3.28224">
        <ele>444</ele>
        <time>2025-02-15T12:25:56.000Z</time>
      </trkpt>
      <trkpt lat="44.07682" lon="3.28243">
        <ele>444</ele>
        <time>2025-02-15T12:26:00.000Z</time>
      </trkpt>
      <trkpt lat="44.0768" lon="3.28262">
        <ele>444</ele>
        <time>2025-02-15T12:26:04.000Z</time>
      </trkpt>
      <trkpt lat="44.07677" lon="3.28285">
        <ele>444</ele>
        <time>2025-02-15T12:26:08.000Z</time>
      </trkpt>
      <trkpt lat="44.07668" lon="3.28298">
        <ele>444.4</ele>
        <time>2025-02-15T12:26:11.000Z</time>
      </trkpt>
      <trkpt lat="44.07666" lon="3.28314">
        <ele>444.8</ele>
        <time>2025-02-15T12:26:14.000Z</time>
      </trkpt>
      <trkpt lat="44.07672" lon="3.28326">
        <ele>445</ele>
        <time>2025-02-15T12:26:16.000Z</time>
      </trkpt>
      <trkpt lat="44.07672" lon="3.28343">
        <ele>445.1</ele>
        <time>2025-02-15T12:26:19.000Z</time>
      </trkpt>
      <trkpt lat="44.07668" lon="3.28355">
        <ele>445.1</ele>
        <time>2025-02-15T12:26:21.000Z</time>
      </trkpt>
      <trkpt lat="44.07663" lon="3.28366">
        <ele>445.2</ele>
        <time>2025-02-15T12:26:23.000Z</time>
      </trkpt>
      <trkpt lat="44.07655" lon="3.28376">
        <ele>445.2</ele>
        <time>2025-02-15T12:26:25.000Z</time>
      </trkpt>
      <trkpt lat="44.07648" lon="3.28387">
        <ele>445.3</ele>
        <time>2025-02-15T12:26:27.000Z</time>
      </trkpt>
      <trkpt lat="44.07639" lon="3.28399">
        <ele>445.3</ele>
        <time>2025-02-15T12:26:30.000Z</time>
      </trkpt>
      <trkpt lat="44.07629" lon="3.28411">
        <ele>445.4</ele>
        <time>2025-02-15T12:26:33.000Z</time>
      </trkpt>
      <trkpt lat="44.07621" lon="3.28419">
        <ele>445.4</ele>
        <time>2025-02-15T12:26:35.000Z</time>
      </trkpt>
      <trkpt lat="44.07613" lon="3.28427">
        <ele>445.4</ele>
        <time>2025-02-15T12:26:37.000Z</time>
      </trkpt>
      <trkpt lat="44.07606" lon="3.28435">
        <ele>445.4</ele>
        <time>2025-02-15T12:26:39.000Z</time>
      </trkpt>
      <trkpt lat="44.07597" lon="3.28441">
        <ele>445.4</ele>
        <time>2025-02-15T12:26:41.000Z</time>
      </trkpt>
      <trkpt lat="44.07589" lon="3.28448">
        <ele>445.4</ele>
        <time>2025-02-15T12:26:43.000Z</time>
      </trkpt>
      <trkpt lat="44.07581" lon="3.28455">
        <ele>445.4</ele>
        <time>2025-02-15T12:26:45.000Z</time>
      </trkpt>
      <trkpt lat="44.07571" lon="3.28465">
        <ele>445.4</ele>
        <time>2025-02-15T12:26:48.000Z</time>
      </trkpt>
      <trkpt lat="44.07563" lon="3.28472">
        <ele>445.5</ele>
        <time>2025-02-15T12:26:50.000Z</time>
      </trkpt>
      <trkpt lat="44.07552" lon="3.28482">
        <ele>445.5</ele>
        <time>2025-02-15T12:26:53.000Z</time>
      </trkpt>
      <trkpt lat="44.07544" lon="3.28489">
        <ele>445.5</ele>
        <time>2025-02-15T12:26:55.000Z</time>
      </trkpt>
      <trkpt lat="44.07532" lon="3.28498">
        <ele>445.6</ele>
        <time>2025-02-15T12:26:58.000Z</time>
      </trkpt>
      <trkpt lat="44.07524" lon="3.28504">
        <ele>445.7</ele>
        <time>2025-02-15T12:27:00.000Z</time>
      </trkpt>
      <trkpt lat="44.07515" lon="3.2851">
        <ele>445.8</ele>
        <time>2025-02-15T12:27:02.000Z</time>
      </trkpt>
      <trkpt lat="44.07505" lon="3.28513">
        <ele>445.9</ele>
        <time>2025-02-15T12:27:04.000Z</time>
      </trkpt>
      <trkpt lat="44.07495" lon="3.28512">
        <ele>446</ele>
        <time>2025-02-15T12:27:06.000Z</time>
      </trkpt>
      <trkpt lat="44.07486" lon="3.2851">
        <ele>446.2</ele>
        <time>2025-02-15T12:27:08.000Z</time>
      </trkpt>
      <trkpt lat="44.07473" lon="3.28505">
        <ele>446.4</ele>
        <time>2025-02-15T12:27:11.000Z</time>
      </trkpt>
      <trkpt lat="44.07461" lon="3.285">
        <ele>446.6</ele>
        <time>2025-02-15T12:27:14.000Z</time>
      </trkpt>
      <trkpt lat="44.07448" lon="3.28497">
        <ele>446.8</ele>
        <time>2025-02-15T12:27:17.000Z</time>
      </trkpt>
      <trkpt lat="44.07435" lon="3.28497">
        <ele>447</ele>
        <time>2025-02-15T12:27:20.000Z</time>
      </trkpt>
      <trkpt lat="44.07422" lon="3.28501">
        <ele>447.2</ele>
        <time>2025-02-15T12:27:23.000Z</time>
      </trkpt>
      <trkpt lat="44.07412" lon="3.28507">
        <ele>447.5</ele>
        <time>2025-02-15T12:27:26.000Z</time>
      </trkpt>
      <trkpt lat="44.07403" lon="3.28512">
        <ele>447.8</ele>
        <time>2025-02-15T12:27:30.000Z</time>
      </trkpt>
      <trkpt lat="44.07411" lon="3.28503">
        <ele>448.5</ele>
        <time>2025-02-15T12:27:52.000Z</time>
      </trkpt>
      <trkpt lat="44.07406" lon="3.28491">
        <ele>448.6</ele>
        <time>2025-02-15T12:27:57.000Z</time>
      </trkpt>
      <trkpt lat="44.07416" lon="3.28493">
        <ele>447.9</ele>
        <time>2025-02-15T12:28:52.000Z</time>
      </trkpt>
      <trkpt lat="44.07417" lon="3.28505">
        <ele>447.9</ele>
        <time>2025-02-15T12:28:57.000Z</time>
      </trkpt>
      <trkpt lat="44.07411" lon="3.28516">
        <ele>447.9</ele>
        <time>2025-02-15T12:29:04.000Z</time>
      </trkpt>
      <trkpt lat="44.07402" lon="3.28523">
        <ele>448</ele>
        <time>2025-02-15T12:29:10.000Z</time>
      </trkpt>
      <trkpt lat="44.07393" lon="3.2853">
        <ele>448</ele>
        <time>2025-02-15T12:29:13.000Z</time>
      </trkpt>
      <trkpt lat="44.07386" lon="3.28543">
        <ele>448.1</ele>
        <time>2025-02-15T12:29:16.000Z</time>
      </trkpt>
      <trkpt lat="44.07382" lon="3.28554">
        <ele>448.2</ele>
        <time>2025-02-15T12:29:19.000Z</time>
      </trkpt>
      <trkpt lat="44.07377" lon="3.28565">
        <ele>448.3</ele>
        <time>2025-02-15T12:29:22.000Z</time>
      </trkpt>
      <trkpt lat="44.07371" lon="3.28577">
        <ele>448.4</ele>
        <time>2025-02-15T12:29:25.000Z</time>
      </trkpt>
      <trkpt lat="44.07365" lon="3.2859">
        <ele>448.7</ele>
        <time>2025-02-15T12:29:28.000Z</time>
      </trkpt>
      <trkpt lat="44.07358" lon="3.28604">
        <ele>448.9</ele>
        <time>2025-02-15T12:29:31.000Z</time>
      </trkpt>
      <trkpt lat="44.07352" lon="3.28617">
        <ele>449</ele>
        <time>2025-02-15T12:29:34.000Z</time>
      </trkpt>
      <trkpt lat="44.07343" lon="3.28629">
        <ele>449.2</ele>
        <time>2025-02-15T12:29:37.000Z</time>
      </trkpt>
      <trkpt lat="44.07334" lon="3.28637">
        <ele>449.3</ele>
        <time>2025-02-15T12:29:39.000Z</time>
      </trkpt>
      <trkpt lat="44.07328" lon="3.28647">
        <ele>449.5</ele>
        <time>2025-02-15T12:29:41.000Z</time>
      </trkpt>
      <trkpt lat="44.0732" lon="3.2866">
        <ele>449.8</ele>
        <time>2025-02-15T12:29:44.000Z</time>
      </trkpt>
      <trkpt lat="44.07315" lon="3.28674">
        <ele>450</ele>
        <time>2025-02-15T12:29:47.000Z</time>
      </trkpt>
      <trkpt lat="44.07304" lon="3.28686">
        <ele>450.3</ele>
        <time>2025-02-15T12:29:50.000Z</time>
      </trkpt>
      <trkpt lat="44.07296" lon="3.28694">
        <ele>450.4</ele>
        <time>2025-02-15T12:29:52.000Z</time>
      </trkpt>
      <trkpt lat="44.07289" lon="3.28707">
        <ele>450.6</ele>
        <time>2025-02-15T12:29:55.000Z</time>
      </trkpt>
      <trkpt lat="44.07282" lon="3.28719">
        <ele>450.8</ele>
        <time>2025-02-15T12:29:58.000Z</time>
      </trkpt>
      <trkpt lat="44.07273" lon="3.28731">
        <ele>451.1</ele>
        <time>2025-02-15T12:30:01.000Z</time>
      </trkpt>
      <trkpt lat="44.07265" lon="3.28743">
        <ele>451.4</ele>
        <time>2025-02-15T12:30:04.000Z</time>
      </trkpt>
      <trkpt lat="44.07256" lon="3.28755">
        <ele>451.6</ele>
        <time>2025-02-15T12:30:07.000Z</time>
      </trkpt>
      <trkpt lat="44.07248" lon="3.28768">
        <ele>451.9</ele>
        <time>2025-02-15T12:30:10.000Z</time>
      </trkpt>
      <trkpt lat="44.07238" lon="3.28779">
        <ele>452.1</ele>
        <time>2025-02-15T12:30:13.000Z</time>
      </trkpt>
      <trkpt lat="44.0723" lon="3.2879">
        <ele>452.4</ele>
        <time>2025-02-15T12:30:16.000Z</time>
      </trkpt>
      <trkpt lat="44.07225" lon="3.28801">
        <ele>452.8</ele>
        <time>2025-02-15T12:30:19.000Z</time>
      </trkpt>
      <trkpt lat="44.07219" lon="3.28812">
        <ele>453</ele>
        <time>2025-02-15T12:30:22.000Z</time>
      </trkpt>
      <trkpt lat="44.07212" lon="3.28827">
        <ele>452.9</ele>
        <time>2025-02-15T12:30:25.000Z</time>
      </trkpt>
      <trkpt lat="44.07203" lon="3.28836">
        <ele>452.4</ele>
        <time>2025-02-15T12:30:27.000Z</time>
      </trkpt>
      <trkpt lat="44.07194" lon="3.28845">
        <ele>451.6</ele>
        <time>2025-02-15T12:30:29.000Z</time>
      </trkpt>
      <trkpt lat="44.07193" lon="3.2886">
        <ele>450.1</ele>
        <time>2025-02-15T12:30:32.000Z</time>
      </trkpt>
      <trkpt lat="44.07195" lon="3.28874">
        <ele>447.6</ele>
        <time>2025-02-15T12:30:36.000Z</time>
      </trkpt>
      <trkpt lat="44.07204" lon="3.289">
        <ele>443</ele>
        <time>2025-02-15T12:30:43.000Z</time>
      </trkpt>
      <trkpt lat="44.07211" lon="3.28909">
        <ele>442.3</ele>
        <time>2025-02-15T12:30:46.000Z</time>
      </trkpt>
      <trkpt lat="44.07218" lon="3.2892">
        <ele>439.9</ele>
        <time>2025-02-15T12:30:54.000Z</time>
      </trkpt>
      <trkpt lat="44.07224" lon="3.2893">
        <ele>438.7</ele>
        <time>2025-02-15T12:31:00.000Z</time>
      </trkpt>
      <trkpt lat="44.07232" lon="3.28941">
        <ele>438.1</ele>
        <time>2025-02-15T12:31:04.000Z</time>
      </trkpt>
      <trkpt lat="44.07241" lon="3.28941">
        <ele>437.6</ele>
        <time>2025-02-15T12:31:08.000Z</time>
      </trkpt>
      <trkpt lat="44.07251" lon="3.28935">
        <ele>437.1</ele>
        <time>2025-02-15T12:31:11.000Z</time>
      </trkpt>
      <trkpt lat="44.0726" lon="3.28929">
        <ele>436.8</ele>
        <time>2025-02-15T12:31:13.000Z</time>
      </trkpt>
      <trkpt lat="44.0727" lon="3.28921">
        <ele>436.4</ele>
        <time>2025-02-15T12:31:16.000Z</time>
      </trkpt>
      <trkpt lat="44.07281" lon="3.2891">
        <ele>435.8</ele>
        <time>2025-02-15T12:31:19.000Z</time>
      </trkpt>
      <trkpt lat="44.07294" lon="3.28902">
        <ele>435.4</ele>
        <time>2025-02-15T12:31:21.000Z</time>
      </trkpt>
      <trkpt lat="44.07307" lon="3.28896">
        <ele>434.9</ele>
        <time>2025-02-15T12:31:23.000Z</time>
      </trkpt>
      <trkpt lat="44.07319" lon="3.28887">
        <ele>434.5</ele>
        <time>2025-02-15T12:31:25.000Z</time>
      </trkpt>
      <trkpt lat="44.07331" lon="3.28881">
        <ele>434.1</ele>
        <time>2025-02-15T12:31:27.000Z</time>
      </trkpt>
      <trkpt lat="44.0734" lon="3.28874">
        <ele>433.6</ele>
        <time>2025-02-15T12:31:30.000Z</time>
      </trkpt>
      <trkpt lat="44.07351" lon="3.28868">
        <ele>433.2</ele>
        <time>2025-02-15T12:31:35.000Z</time>
      </trkpt>
      <trkpt lat="44.07359" lon="3.28862">
        <ele>433</ele>
        <time>2025-02-15T12:31:39.000Z</time>
      </trkpt>
      <trkpt lat="44.07365" lon="3.28847">
        <ele>432.8</ele>
        <time>2025-02-15T12:31:43.000Z</time>
      </trkpt>
      <trkpt lat="44.0737" lon="3.28836">
        <ele>432.6</ele>
        <time>2025-02-15T12:31:46.000Z</time>
      </trkpt>
      <trkpt lat="44.07379" lon="3.2883">
        <ele>432.7</ele>
        <time>2025-02-15T12:31:52.000Z</time>
      </trkpt>
      <trkpt lat="44.07388" lon="3.28827">
        <ele>433.3</ele>
        <time>2025-02-15T12:31:59.000Z</time>
      </trkpt>
      <trkpt lat="44.07397" lon="3.28822">
        <ele>434</ele>
        <time>2025-02-15T12:32:05.000Z</time>
      </trkpt>
      <trkpt lat="44.07406" lon="3.2882">
        <ele>434.5</ele>
        <time>2025-02-15T12:32:10.000Z</time>
      </trkpt>
      <trkpt lat="44.07416" lon="3.28819">
        <ele>435.4</ele>
        <time>2025-02-15T12:32:16.000Z</time>
      </trkpt>
      <trkpt lat="44.07426" lon="3.28819">
        <ele>436.5</ele>
        <time>2025-02-15T12:32:23.000Z</time>
      </trkpt>
      <trkpt lat="44.07435" lon="3.28818">
        <ele>437.5</ele>
        <time>2025-02-15T12:32:29.000Z</time>
      </trkpt>
      <trkpt lat="44.07444" lon="3.28813">
        <ele>438.3</ele>
        <time>2025-02-15T12:32:35.000Z</time>
      </trkpt>
      <trkpt lat="44.07453" lon="3.2881">
        <ele>439.1</ele>
        <time>2025-02-15T12:32:42.000Z</time>
      </trkpt>
      <trkpt lat="44.07463" lon="3.28808">
        <ele>440.1</ele>
        <time>2025-02-15T12:32:48.000Z</time>
      </trkpt>
      <trkpt lat="44.07473" lon="3.28804">
        <ele>441.5</ele>
        <time>2025-02-15T12:32:55.000Z</time>
      </trkpt>
      <trkpt lat="44.07482" lon="3.28798">
        <ele>443.1</ele>
        <time>2025-02-15T12:33:03.000Z</time>
      </trkpt>
      <trkpt lat="44.07491" lon="3.28791">
        <ele>444.8</ele>
        <time>2025-02-15T12:33:11.000Z</time>
      </trkpt>
      <trkpt lat="44.07499" lon="3.28784">
        <ele>446.3</ele>
        <time>2025-02-15T12:33:18.000Z</time>
      </trkpt>
      <trkpt lat="44.07507" lon="3.28778">
        <ele>447.8</ele>
        <time>2025-02-15T12:33:25.000Z</time>
      </trkpt>
      <trkpt lat="44.07515" lon="3.28772">
        <ele>449.2</ele>
        <time>2025-02-15T12:33:33.000Z</time>
      </trkpt>
      <trkpt lat="44.07524" lon="3.28779">
        <ele>458.1</ele>
        <time>2025-02-15T12:34:22.000Z</time>
      </trkpt>
      <trkpt lat="44.07534" lon="3.28781">
        <ele>458.8</ele>
        <time>2025-02-15T12:34:28.000Z</time>
      </trkpt>
      <trkpt lat="44.07543" lon="3.28782">
        <ele>460.1</ele>
        <time>2025-02-15T12:34:35.000Z</time>
      </trkpt>
      <trkpt lat="44.07551" lon="3.28775">
        <ele>461.4</ele>
        <time>2025-02-15T12:34:42.000Z</time>
      </trkpt>
      <trkpt lat="44.0756" lon="3.28767">
        <ele>462.1</ele>
        <time>2025-02-15T12:34:47.000Z</time>
      </trkpt>
      <trkpt lat="44.07569" lon="3.28761">
        <ele>462.9</ele>
        <time>2025-02-15T12:34:54.000Z</time>
      </trkpt>
      <trkpt lat="44.07577" lon="3.28754">
        <ele>463.7</ele>
        <time>2025-02-15T12:35:01.000Z</time>
      </trkpt>
      <trkpt lat="44.07584" lon="3.28745">
        <ele>464.5</ele>
        <time>2025-02-15T12:35:07.000Z</time>
      </trkpt>
      <trkpt lat="44.0759" lon="3.28736">
        <ele>465.2</ele>
        <time>2025-02-15T12:35:13.000Z</time>
      </trkpt>
      <trkpt lat="44.076" lon="3.28734">
        <ele>466.2</ele>
        <time>2025-02-15T12:35:21.000Z</time>
      </trkpt>
      <trkpt lat="44.0761" lon="3.2874">
        <ele>466.9</ele>
        <time>2025-02-15T12:35:27.000Z</time>
      </trkpt>
      <trkpt lat="44.07619" lon="3.28746">
        <ele>467.5</ele>
        <time>2025-02-15T12:35:32.000Z</time>
      </trkpt>
      <trkpt lat="44.07628" lon="3.28752">
        <ele>467.9</ele>
        <time>2025-02-15T12:35:37.000Z</time>
      </trkpt>
      <trkpt lat="44.07636" lon="3.2876">
        <ele>468.2</ele>
        <time>2025-02-15T12:35:41.000Z</time>
      </trkpt>
      <trkpt lat="44.07644" lon="3.28767">
        <ele>468.4</ele>
        <time>2025-02-15T12:35:45.000Z</time>
      </trkpt>
      <trkpt lat="44.07654" lon="3.28772">
        <ele>469.2</ele>
        <time>2025-02-15T12:35:52.000Z</time>
      </trkpt>
      <trkpt lat="44.07663" lon="3.28771">
        <ele>470.5</ele>
        <time>2025-02-15T12:35:59.000Z</time>
      </trkpt>
      <trkpt lat="44.0767" lon="3.28761">
        <ele>472</ele>
        <time>2025-02-15T12:36:07.000Z</time>
      </trkpt>
      <trkpt lat="44.07667" lon="3.28774">
        <ele>476.1</ele>
        <time>2025-02-15T12:36:29.000Z</time>
      </trkpt>
      <trkpt lat="44.07662" lon="3.28785">
        <ele>477.2</ele>
        <time>2025-02-15T12:36:35.000Z</time>
      </trkpt>
      <trkpt lat="44.07652" lon="3.28789">
        <ele>477.9</ele>
        <time>2025-02-15T12:36:41.000Z</time>
      </trkpt>
      <trkpt lat="44.07642" lon="3.2879">
        <ele>478.6</ele>
        <time>2025-02-15T12:36:47.000Z</time>
      </trkpt>
      <trkpt lat="44.07633" lon="3.28783">
        <ele>479.3</ele>
        <time>2025-02-15T12:36:53.000Z</time>
      </trkpt>
      <trkpt lat="44.07624" lon="3.28777">
        <ele>480.2</ele>
        <time>2025-02-15T12:36:59.000Z</time>
      </trkpt>
      <trkpt lat="44.07627" lon="3.2879">
        <ele>483</ele>
        <time>2025-02-15T12:37:13.000Z</time>
      </trkpt>
      <trkpt lat="44.07636" lon="3.28798">
        <ele>484.3</ele>
        <time>2025-02-15T12:37:20.000Z</time>
      </trkpt>
      <trkpt lat="44.07627" lon="3.28797">
        <ele>485.7</ele>
        <time>2025-02-15T12:37:30.000Z</time>
      </trkpt>
      <trkpt lat="44.07627" lon="3.2881">
        <ele>488.6</ele>
        <time>2025-02-15T12:37:50.000Z</time>
      </trkpt>
      <trkpt lat="44.07618" lon="3.28804">
        <ele>490.3</ele>
        <time>2025-02-15T12:37:58.000Z</time>
      </trkpt>
      <trkpt lat="44.07608" lon="3.28799">
        <ele>491.8</ele>
        <time>2025-02-15T12:38:05.000Z</time>
      </trkpt>
      <trkpt lat="44.07598" lon="3.28797">
        <ele>493</ele>
        <time>2025-02-15T12:38:11.000Z</time>
      </trkpt>
      <trkpt lat="44.07601" lon="3.2881">
        <ele>496.2</ele>
        <time>2025-02-15T12:38:27.000Z</time>
      </trkpt>
      <trkpt lat="44.07609" lon="3.28818">
        <ele>497.2</ele>
        <time>2025-02-15T12:38:33.000Z</time>
      </trkpt>
      <trkpt lat="44.07617" lon="3.28826">
        <ele>498.1</ele>
        <time>2025-02-15T12:38:39.000Z</time>
      </trkpt>
      <trkpt lat="44.07623" lon="3.28837">
        <ele>498.9</ele>
        <time>2025-02-15T12:38:44.000Z</time>
      </trkpt>
      <trkpt lat="44.0763" lon="3.28847">
        <ele>499.8</ele>
        <time>2025-02-15T12:38:49.000Z</time>
      </trkpt>
      <trkpt lat="44.07636" lon="3.28856">
        <ele>501.2</ele>
        <time>2025-02-15T12:38:56.000Z</time>
      </trkpt>
      <trkpt lat="44.07643" lon="3.28864">
        <ele>503.2</ele>
        <time>2025-02-15T12:39:04.000Z</time>
      </trkpt>
      <trkpt lat="44.07651" lon="3.28873">
        <ele>504.9</ele>
        <time>2025-02-15T12:39:11.000Z</time>
      </trkpt>
      <trkpt lat="44.0766" lon="3.28877">
        <ele>506.2</ele>
        <time>2025-02-15T12:39:17.000Z</time>
      </trkpt>
      <trkpt lat="44.0767" lon="3.28879">
        <ele>507.4</ele>
        <time>2025-02-15T12:39:23.000Z</time>
      </trkpt>
      <trkpt lat="44.07679" lon="3.28876">
        <ele>508.2</ele>
        <time>2025-02-15T12:39:29.000Z</time>
      </trkpt>
      <trkpt lat="44.07688" lon="3.28873">
        <ele>509</ele>
        <time>2025-02-15T12:39:35.000Z</time>
      </trkpt>
      <trkpt lat="44.07697" lon="3.28867">
        <ele>510.2</ele>
        <time>2025-02-15T12:39:43.000Z</time>
      </trkpt>
      <trkpt lat="44.07707" lon="3.28865">
        <ele>511.5</ele>
        <time>2025-02-15T12:39:50.000Z</time>
      </trkpt>
      <trkpt lat="44.07716" lon="3.28862">
        <ele>512.7</ele>
        <time>2025-02-15T12:39:57.000Z</time>
      </trkpt>
      <trkpt lat="44.07725" lon="3.28857">
        <ele>513.9</ele>
        <time>2025-02-15T12:40:05.000Z</time>
      </trkpt>
      <trkpt lat="44.07734" lon="3.28852">
        <ele>515.3</ele>
        <time>2025-02-15T12:40:13.000Z</time>
      </trkpt>
      <trkpt lat="44.07743" lon="3.28847">
        <ele>516.8</ele>
        <time>2025-02-15T12:40:20.000Z</time>
      </trkpt>
      <trkpt lat="44.07752" lon="3.28843">
        <ele>518.2</ele>
        <time>2025-02-15T12:40:27.000Z</time>
      </trkpt>
      <trkpt lat="44.07761" lon="3.28838">
        <ele>519.5</ele>
        <time>2025-02-15T12:40:34.000Z</time>
      </trkpt>
      <trkpt lat="44.07771" lon="3.28835">
        <ele>520.7</ele>
        <time>2025-02-15T12:40:41.000Z</time>
      </trkpt>
      <trkpt lat="44.07781" lon="3.28834">
        <ele>522.1</ele>
        <time>2025-02-15T12:40:50.000Z</time>
      </trkpt>
      <trkpt lat="44.0779" lon="3.2883">
        <ele>523.5</ele>
        <time>2025-02-15T12:40:58.000Z</time>
      </trkpt>
      <trkpt lat="44.07799" lon="3.28827">
        <ele>525.4</ele>
        <time>2025-02-15T12:41:07.000Z</time>
      </trkpt>
      <trkpt lat="44.07808" lon="3.28826">
        <ele>527.4</ele>
        <time>2025-02-15T12:41:15.000Z</time>
      </trkpt>
      <trkpt lat="44.07817" lon="3.2882">
        <ele>529.7</ele>
        <time>2025-02-15T12:41:24.000Z</time>
      </trkpt>
      <trkpt lat="44.07824" lon="3.28812">
        <ele>531.7</ele>
        <time>2025-02-15T12:41:33.000Z</time>
      </trkpt>
      <trkpt lat="44.07833" lon="3.28805">
        <ele>533.3</ele>
        <time>2025-02-15T12:41:42.000Z</time>
      </trkpt>
      <trkpt lat="44.0784" lon="3.28798">
        <ele>534.7</ele>
        <time>2025-02-15T12:41:50.000Z</time>
      </trkpt>
      <trkpt lat="44.07849" lon="3.28791">
        <ele>535.6</ele>
        <time>2025-02-15T12:41:58.000Z</time>
      </trkpt>
      <trkpt lat="44.07857" lon="3.28784">
        <ele>536.9</ele>
        <time>2025-02-15T12:42:07.000Z</time>
      </trkpt>
      <trkpt lat="44.07866" lon="3.28777">
        <ele>538</ele>
        <time>2025-02-15T12:42:14.000Z</time>
      </trkpt>
      <trkpt lat="44.07874" lon="3.28771">
        <ele>539.2</ele>
        <time>2025-02-15T12:42:22.000Z</time>
      </trkpt>
      <trkpt lat="44.07882" lon="3.28764">
        <ele>540.6</ele>
        <time>2025-02-15T12:42:30.000Z</time>
      </trkpt>
      <trkpt lat="44.0789" lon="3.28757">
        <ele>542.6</ele>
        <time>2025-02-15T12:42:38.000Z</time>
      </trkpt>
      <trkpt lat="44.07899" lon="3.28754">
        <ele>547.5</ele>
        <time>2025-02-15T12:43:00.000Z</time>
      </trkpt>
      <trkpt lat="44.07909" lon="3.28753">
        <ele>548.7</ele>
        <time>2025-02-15T12:43:09.000Z</time>
      </trkpt>
      <trkpt lat="44.07918" lon="3.2875">
        <ele>550.7</ele>
        <time>2025-02-15T12:43:19.000Z</time>
      </trkpt>
      <trkpt lat="44.07926" lon="3.28743">
        <ele>552.2</ele>
        <time>2025-02-15T12:43:27.000Z</time>
      </trkpt>
      <trkpt lat="44.07934" lon="3.28737">
        <ele>553.4</ele>
        <time>2025-02-15T12:43:34.000Z</time>
      </trkpt>
      <trkpt lat="44.07941" lon="3.28728">
        <ele>554.7</ele>
        <time>2025-02-15T12:43:42.000Z</time>
      </trkpt>
      <trkpt lat="44.07946" lon="3.28716">
        <ele>556.2</ele>
        <time>2025-02-15T12:43:51.000Z</time>
      </trkpt>
      <trkpt lat="44.07952" lon="3.28705">
        <ele>557.7</ele>
        <time>2025-02-15T12:44:00.000Z</time>
      </trkpt>
      <trkpt lat="44.07959" lon="3.28695">
        <ele>558.9</ele>
        <time>2025-02-15T12:44:07.000Z</time>
      </trkpt>
      <trkpt lat="44.07967" lon="3.28687">
        <ele>560.2</ele>
        <time>2025-02-15T12:44:14.000Z</time>
      </trkpt>
      <trkpt lat="44.07973" lon="3.28679">
        <ele>561.7</ele>
        <time>2025-02-15T12:44:22.000Z</time>
      </trkpt>
      <trkpt lat="44.07982" lon="3.28671">
        <ele>563.3</ele>
        <time>2025-02-15T12:44:30.000Z</time>
      </trkpt>
      <trkpt lat="44.07987" lon="3.2866">
        <ele>564.3</ele>
        <time>2025-02-15T12:44:35.000Z</time>
      </trkpt>
      <trkpt lat="44.07991" lon="3.28647">
        <ele>565.8</ele>
        <time>2025-02-15T12:44:43.000Z</time>
      </trkpt>
      <trkpt lat="44.07995" lon="3.28634">
        <ele>567.5</ele>
        <time>2025-02-15T12:44:51.000Z</time>
      </trkpt>
      <trkpt lat="44.07997" lon="3.28622">
        <ele>569.1</ele>
        <time>2025-02-15T12:44:58.000Z</time>
      </trkpt>
      <trkpt lat="44.08" lon="3.28608">
        <ele>570.4</ele>
        <time>2025-02-15T12:45:05.000Z</time>
      </trkpt>
      <trkpt lat="44.08004" lon="3.28597">
        <ele>571.6</ele>
        <time>2025-02-15T12:45:11.000Z</time>
      </trkpt>
      <trkpt lat="44.08007" lon="3.2861">
        <ele>573.8</ele>
        <time>2025-02-15T12:45:23.000Z</time>
      </trkpt>
      <trkpt lat="44.08006" lon="3.28624">
        <ele>574.6</ele>
        <time>2025-02-15T12:45:29.000Z</time>
      </trkpt>
      <trkpt lat="44.08005" lon="3.28638">
        <ele>575.3</ele>
        <time>2025-02-15T12:45:34.000Z</time>
      </trkpt>
      <trkpt lat="44.08004" lon="3.28651">
        <ele>575.9</ele>
        <time>2025-02-15T12:45:39.000Z</time>
      </trkpt>
      <trkpt lat="44.08001" lon="3.28665">
        <ele>576.5</ele>
        <time>2025-02-15T12:45:44.000Z</time>
      </trkpt>
      <trkpt lat="44.07999" lon="3.28679">
        <ele>577.1</ele>
        <time>2025-02-15T12:45:49.000Z</time>
      </trkpt>
      <trkpt lat="44.07996" lon="3.28691">
        <ele>577.5</ele>
        <time>2025-02-15T12:45:53.000Z</time>
      </trkpt>
      <trkpt lat="44.07993" lon="3.28704">
        <ele>578.1</ele>
        <time>2025-02-15T12:45:57.000Z</time>
      </trkpt>
      <trkpt lat="44.0799" lon="3.28718">
        <ele>578.8</ele>
        <time>2025-02-15T12:46:02.000Z</time>
      </trkpt>
      <trkpt lat="44.07988" lon="3.28732">
        <ele>579.4</ele>
        <time>2025-02-15T12:46:07.000Z</time>
      </trkpt>
      <trkpt lat="44.07985" lon="3.28746">
        <ele>580.1</ele>
        <time>2025-02-15T12:46:12.000Z</time>
      </trkpt>
      <trkpt lat="44.07982" lon="3.28759">
        <ele>580.8</ele>
        <time>2025-02-15T12:46:17.000Z</time>
      </trkpt>
      <trkpt lat="44.0798" lon="3.28773">
        <ele>581.6</ele>
        <time>2025-02-15T12:46:22.000Z</time>
      </trkpt>
      <trkpt lat="44.07976" lon="3.28785">
        <ele>582.1</ele>
        <time>2025-02-15T12:46:26.000Z</time>
      </trkpt>
      <trkpt lat="44.0797" lon="3.28798">
        <ele>583</ele>
        <time>2025-02-15T12:46:31.000Z</time>
      </trkpt>
      <trkpt lat="44.07963" lon="3.28808">
        <ele>583.6</ele>
        <time>2025-02-15T12:46:35.000Z</time>
      </trkpt>
      <trkpt lat="44.07956" lon="3.28817">
        <ele>584.3</ele>
        <time>2025-02-15T12:46:39.000Z</time>
      </trkpt>
      <trkpt lat="44.07947" lon="3.28827">
        <ele>584.9</ele>
        <time>2025-02-15T12:46:43.000Z</time>
      </trkpt>
      <trkpt lat="44.0794" lon="3.28835">
        <ele>585.4</ele>
        <time>2025-02-15T12:46:46.000Z</time>
      </trkpt>
      <trkpt lat="44.07933" lon="3.28843">
        <ele>586</ele>
        <time>2025-02-15T12:46:49.000Z</time>
      </trkpt>
      <trkpt lat="44.07925" lon="3.28855">
        <ele>586.7</ele>
        <time>2025-02-15T12:46:53.000Z</time>
      </trkpt>
      <trkpt lat="44.07918" lon="3.28864">
        <ele>587.2</ele>
        <time>2025-02-15T12:46:56.000Z</time>
      </trkpt>
      <trkpt lat="44.07911" lon="3.28872">
        <ele>587.8</ele>
        <time>2025-02-15T12:46:59.000Z</time>
      </trkpt>
      <trkpt lat="44.07904" lon="3.28881">
        <ele>588.3</ele>
        <time>2025-02-15T12:47:02.000Z</time>
      </trkpt>
      <trkpt lat="44.07897" lon="3.28889">
        <ele>588.9</ele>
        <time>2025-02-15T12:47:05.000Z</time>
      </trkpt>
      <trkpt lat="44.0789" lon="3.28898">
        <ele>589.5</ele>
        <time>2025-02-15T12:47:08.000Z</time>
      </trkpt>
      <trkpt lat="44.07883" lon="3.28911">
        <ele>590.3</ele>
        <time>2025-02-15T12:47:12.000Z</time>
      </trkpt>
      <trkpt lat="44.07876" lon="3.28924">
        <ele>591.2</ele>
        <time>2025-02-15T12:47:16.000Z</time>
      </trkpt>
      <trkpt lat="44.0787" lon="3.28934">
        <ele>591.8</ele>
        <time>2025-02-15T12:47:19.000Z</time>
      </trkpt>
      <trkpt lat="44.07864" lon="3.28943">
        <ele>592.4</ele>
        <time>2025-02-15T12:47:22.000Z</time>
      </trkpt>
      <trkpt lat="44.07856" lon="3.28952">
        <ele>593</ele>
        <time>2025-02-15T12:47:25.000Z</time>
      </trkpt>
      <trkpt lat="44.07847" lon="3.28959">
        <ele>593.5</ele>
        <time>2025-02-15T12:47:28.000Z</time>
      </trkpt>
      <trkpt lat="44.07838" lon="3.28968">
        <ele>594.1</ele>
        <time>2025-02-15T12:47:31.000Z</time>
      </trkpt>
      <trkpt lat="44.07831" lon="3.28977">
        <ele>594.7</ele>
        <time>2025-02-15T12:47:34.000Z</time>
      </trkpt>
      <trkpt lat="44.07825" lon="3.28987">
        <ele>595.3</ele>
        <time>2025-02-15T12:47:37.000Z</time>
      </trkpt>
      <trkpt lat="44.07819" lon="3.29">
        <ele>596.1</ele>
        <time>2025-02-15T12:47:41.000Z</time>
      </trkpt>
      <trkpt lat="44.07813" lon="3.29014">
        <ele>597</ele>
        <time>2025-02-15T12:47:45.000Z</time>
      </trkpt>
      <trkpt lat="44.07807" lon="3.29028">
        <ele>597.8</ele>
        <time>2025-02-15T12:47:49.000Z</time>
      </trkpt>
      <trkpt lat="44.07802" lon="3.29038">
        <ele>598.4</ele>
        <time>2025-02-15T12:47:52.000Z</time>
      </trkpt>
      <trkpt lat="44.07796" lon="3.29048">
        <ele>599</ele>
        <time>2025-02-15T12:47:55.000Z</time>
      </trkpt>
      <trkpt lat="44.07789" lon="3.29057">
        <ele>599.6</ele>
        <time>2025-02-15T12:47:58.000Z</time>
      </trkpt>
      <trkpt lat="44.07781" lon="3.29065">
        <ele>600.2</ele>
        <time>2025-02-15T12:48:01.000Z</time>
      </trkpt>
      <trkpt lat="44.07773" lon="3.29072">
        <ele>600.9</ele>
        <time>2025-02-15T12:48:04.000Z</time>
      </trkpt>
      <trkpt lat="44.07765" lon="3.29079">
        <ele>601.4</ele>
        <time>2025-02-15T12:48:07.000Z</time>
      </trkpt>
      <trkpt lat="44.07755" lon="3.29084">
        <ele>601.9</ele>
        <time>2025-02-15T12:48:10.000Z</time>
      </trkpt>
      <trkpt lat="44.07746" lon="3.29087">
        <ele>602.5</ele>
        <time>2025-02-15T12:48:13.000Z</time>
      </trkpt>
      <trkpt lat="44.07734" lon="3.2909">
        <ele>603.3</ele>
        <time>2025-02-15T12:48:17.000Z</time>
      </trkpt>
      <trkpt lat="44.07726" lon="3.29096">
        <ele>603.9</ele>
        <time>2025-02-15T12:48:20.000Z</time>
      </trkpt>
      <trkpt lat="44.07718" lon="3.29104">
        <ele>604.6</ele>
        <time>2025-02-15T12:48:23.000Z</time>
      </trkpt>
      <trkpt lat="44.07708" lon="3.29113">
        <ele>605.4</ele>
        <time>2025-02-15T12:48:27.000Z</time>
      </trkpt>
      <trkpt lat="44.077" lon="3.2912">
        <ele>606</ele>
        <time>2025-02-15T12:48:30.000Z</time>
      </trkpt>
      <trkpt lat="44.07692" lon="3.29126">
        <ele>606.7</ele>
        <time>2025-02-15T12:48:33.000Z</time>
      </trkpt>
      <trkpt lat="44.07681" lon="3.2913">
        <ele>607.4</ele>
        <time>2025-02-15T12:48:37.000Z</time>
      </trkpt>
      <trkpt lat="44.07671" lon="3.29129">
        <ele>608.4</ele>
        <time>2025-02-15T12:48:42.000Z</time>
      </trkpt>
      <trkpt lat="44.07661" lon="3.29133">
        <ele>609.6</ele>
        <time>2025-02-15T12:48:48.000Z</time>
      </trkpt>
      <trkpt lat="44.07659" lon="3.29148">
        <ele>610.3</ele>
        <time>2025-02-15T12:48:52.000Z</time>
      </trkpt>
      <trkpt lat="44.07664" lon="3.29159">
        <ele>611</ele>
        <time>2025-02-15T12:48:56.000Z</time>
      </trkpt>
      <trkpt lat="44.07674" lon="3.29164">
        <ele>611.7</ele>
        <time>2025-02-15T12:49:00.000Z</time>
      </trkpt>
      <trkpt lat="44.07685" lon="3.29166">
        <ele>612.4</ele>
        <time>2025-02-15T12:49:04.000Z</time>
      </trkpt>
      <trkpt lat="44.07692" lon="3.29175">
        <ele>612.9</ele>
        <time>2025-02-15T12:49:07.000Z</time>
      </trkpt>
      <trkpt lat="44.07699" lon="3.29185">
        <ele>613.4</ele>
        <time>2025-02-15T12:49:10.000Z</time>
      </trkpt>
      <trkpt lat="44.07705" lon="3.29194">
        <ele>614</ele>
        <time>2025-02-15T12:49:13.000Z</time>
      </trkpt>
      <trkpt lat="44.07713" lon="3.29201">
        <ele>614.4</ele>
        <time>2025-02-15T12:49:16.000Z</time>
      </trkpt>
      <trkpt lat="44.07722" lon="3.29206">
        <ele>614.9</ele>
        <time>2025-02-15T12:49:19.000Z</time>
      </trkpt>
      <trkpt lat="44.07732" lon="3.2921">
        <ele>615.4</ele>
        <time>2025-02-15T12:49:22.000Z</time>
      </trkpt>
      <trkpt lat="44.0774" lon="3.29216">
        <ele>615.9</ele>
        <time>2025-02-15T12:49:25.000Z</time>
      </trkpt>
      <trkpt lat="44.07749" lon="3.29226">
        <ele>616.4</ele>
        <time>2025-02-15T12:49:29.000Z</time>
      </trkpt>
      <trkpt lat="44.07755" lon="3.29239">
        <ele>616.9</ele>
        <time>2025-02-15T12:49:33.000Z</time>
      </trkpt>
      <trkpt lat="44.0776" lon="3.29252">
        <ele>617.3</ele>
        <time>2025-02-15T12:49:37.000Z</time>
      </trkpt>
      <trkpt lat="44.07765" lon="3.29264">
        <ele>617.8</ele>
        <time>2025-02-15T12:49:41.000Z</time>
      </trkpt>
      <trkpt lat="44.07771" lon="3.29277">
        <ele>618.3</ele>
        <time>2025-02-15T12:49:45.000Z</time>
      </trkpt>
      <trkpt lat="44.07775" lon="3.29291">
        <ele>618.8</ele>
        <time>2025-02-15T12:49:49.000Z</time>
      </trkpt>
      <trkpt lat="44.07778" lon="3.29306">
        <ele>619.4</ele>
        <time>2025-02-15T12:49:53.000Z</time>
      </trkpt>
      <trkpt lat="44.07784" lon="3.2932">
        <ele>619.9</ele>
        <time>2025-02-15T12:49:57.000Z</time>
      </trkpt>
      <trkpt lat="44.07789" lon="3.2933">
        <ele>620.3</ele>
        <time>2025-02-15T12:50:00.000Z</time>
      </trkpt>
      <trkpt lat="44.07793" lon="3.29342">
        <ele>620.7</ele>
        <time>2025-02-15T12:50:03.000Z</time>
      </trkpt>
      <trkpt lat="44.07797" lon="3.29353">
        <ele>621</ele>
        <time>2025-02-15T12:50:06.000Z</time>
      </trkpt>
      <trkpt lat="44.07802" lon="3.29366">
        <ele>621.4</ele>
        <time>2025-02-15T12:50:10.000Z</time>
      </trkpt>
      <trkpt lat="44.07808" lon="3.29379">
        <ele>621.9</ele>
        <time>2025-02-15T12:50:14.000Z</time>
      </trkpt>
      <trkpt lat="44.07816" lon="3.29387">
        <ele>622.2</ele>
        <time>2025-02-15T12:50:17.000Z</time>
      </trkpt>
      <trkpt lat="44.07824" lon="3.29393">
        <ele>622.6</ele>
        <time>2025-02-15T12:50:20.000Z</time>
      </trkpt>
      <trkpt lat="44.07833" lon="3.29401">
        <ele>623.1</ele>
        <time>2025-02-15T12:50:23.000Z</time>
      </trkpt>
      <trkpt lat="44.07841" lon="3.2941">
        <ele>623.5</ele>
        <time>2025-02-15T12:50:26.000Z</time>
      </trkpt>
      <trkpt lat="44.0785" lon="3.29419">
        <ele>623.9</ele>
        <time>2025-02-15T12:50:29.000Z</time>
      </trkpt>
      <trkpt lat="44.07857" lon="3.29428">
        <ele>624.2</ele>
        <time>2025-02-15T12:50:32.000Z</time>
      </trkpt>
      <trkpt lat="44.07864" lon="3.29438">
        <ele>624.4</ele>
        <time>2025-02-15T12:50:35.000Z</time>
      </trkpt>
      <trkpt lat="44.07871" lon="3.29448">
        <ele>624.5</ele>
        <time>2025-02-15T12:50:38.000Z</time>
      </trkpt>
      <trkpt lat="44.0788" lon="3.2946">
        <ele>624.6</ele>
        <time>2025-02-15T12:50:41.000Z</time>
      </trkpt>
      <trkpt lat="44.07889" lon="3.29474">
        <ele>624.5</ele>
        <time>2025-02-15T12:50:44.000Z</time>
      </trkpt>
      <trkpt lat="44.07892" lon="3.29486">
        <ele>624.4</ele>
        <time>2025-02-15T12:50:46.000Z</time>
      </trkpt>
      <trkpt lat="44.079" lon="3.29499">
        <ele>624.4</ele>
        <time>2025-02-15T12:50:49.000Z</time>
      </trkpt>
      <trkpt lat="44.07911" lon="3.29512">
        <ele>624.3</ele>
        <time>2025-02-15T12:50:52.000Z</time>
      </trkpt>
      <trkpt lat="44.07917" lon="3.29525">
        <ele>624.2</ele>
        <time>2025-02-15T12:50:55.000Z</time>
      </trkpt>
      <trkpt lat="44.07923" lon="3.29538">
        <ele>624.2</ele>
        <time>2025-02-15T12:50:58.000Z</time>
      </trkpt>
      <trkpt lat="44.07929" lon="3.29552">
        <ele>624.1</ele>
        <time>2025-02-15T12:51:01.000Z</time>
      </trkpt>
      <trkpt lat="44.07934" lon="3.29565">
        <ele>624</ele>
        <time>2025-02-15T12:51:04.000Z</time>
      </trkpt>
      <trkpt lat="44.07937" lon="3.29578">
        <ele>624</ele>
        <time>2025-02-15T12:51:07.000Z</time>
      </trkpt>
      <trkpt lat="44.07927" lon="3.29588">
        <ele>623.9</ele>
        <time>2025-02-15T12:51:10.000Z</time>
      </trkpt>
      <trkpt lat="44.0792" lon="3.29597">
        <ele>623.5</ele>
        <time>2025-02-15T12:54:01.000Z</time>
      </trkpt>
      <trkpt lat="44.0792" lon="3.29611">
        <ele>624.5</ele>
        <time>2025-02-15T12:54:09.000Z</time>
      </trkpt>
      <trkpt lat="44.07927" lon="3.29619">
        <ele>626</ele>
        <time>2025-02-15T12:54:16.000Z</time>
      </trkpt>
      <trkpt lat="44.07936" lon="3.29625">
        <ele>627.5</ele>
        <time>2025-02-15T12:54:23.000Z</time>
      </trkpt>
      <trkpt lat="44.07942" lon="3.29635">
        <ele>629</ele>
        <time>2025-02-15T12:54:31.000Z</time>
      </trkpt>
      <trkpt lat="44.07932" lon="3.29634">
        <ele>631.3</ele>
        <time>2025-02-15T12:54:45.000Z</time>
      </trkpt>
      <trkpt lat="44.07923" lon="3.29637">
        <ele>632.7</ele>
        <time>2025-02-15T12:54:56.000Z</time>
      </trkpt>
      <trkpt lat="44.07929" lon="3.29648">
        <ele>634.6</ele>
        <time>2025-02-15T12:55:08.000Z</time>
      </trkpt>
      <trkpt lat="44.07936" lon="3.29657">
        <ele>636</ele>
        <time>2025-02-15T12:55:17.000Z</time>
      </trkpt>
      <trkpt lat="44.07942" lon="3.29666">
        <ele>637.1</ele>
        <time>2025-02-15T12:55:25.000Z</time>
      </trkpt>
      <trkpt lat="44.07948" lon="3.29677">
        <ele>638.3</ele>
        <time>2025-02-15T12:55:33.000Z</time>
      </trkpt>
      <trkpt lat="44.07955" lon="3.29687">
        <ele>639.1</ele>
        <time>2025-02-15T12:55:40.000Z</time>
      </trkpt>
      <trkpt lat="44.07961" lon="3.29698">
        <ele>639.9</ele>
        <time>2025-02-15T12:55:48.000Z</time>
      </trkpt>
      <trkpt lat="44.07968" lon="3.29708">
        <ele>640.5</ele>
        <time>2025-02-15T12:55:55.000Z</time>
      </trkpt>
      <trkpt lat="44.07971" lon="3.2972">
        <ele>641.7</ele>
        <time>2025-02-15T12:56:04.000Z</time>
      </trkpt>
      <trkpt lat="44.07978" lon="3.29731">
        <ele>642.7</ele>
        <time>2025-02-15T12:56:11.000Z</time>
      </trkpt>
      <trkpt lat="44.07984" lon="3.29741">
        <ele>643.9</ele>
        <time>2025-02-15T12:56:18.000Z</time>
      </trkpt>
      <trkpt lat="44.07991" lon="3.29749">
        <ele>645.6</ele>
        <time>2025-02-15T12:56:27.000Z</time>
      </trkpt>
      <trkpt lat="44.08" lon="3.29757">
        <ele>646.9</ele>
        <time>2025-02-15T12:56:35.000Z</time>
      </trkpt>
      <trkpt lat="44.08009" lon="3.29765">
        <ele>648.2</ele>
        <time>2025-02-15T12:56:42.000Z</time>
      </trkpt>
      <trkpt lat="44.08017" lon="3.2977">
        <ele>650.4</ele>
        <time>2025-02-15T12:56:53.000Z</time>
      </trkpt>
      <trkpt lat="44.08026" lon="3.29779">
        <ele>653.4</ele>
        <time>2025-02-15T12:57:10.000Z</time>
      </trkpt>
      <trkpt lat="44.08034" lon="3.29788">
        <ele>655.3</ele>
        <time>2025-02-15T12:57:21.000Z</time>
      </trkpt>
      <trkpt lat="44.08042" lon="3.29794">
        <ele>656.8</ele>
        <time>2025-02-15T12:57:31.000Z</time>
      </trkpt>
      <trkpt lat="44.0805" lon="3.29799">
        <ele>658</ele>
        <time>2025-02-15T12:57:38.000Z</time>
      </trkpt>
      <trkpt lat="44.08058" lon="3.29806">
        <ele>659.4</ele>
        <time>2025-02-15T12:57:48.000Z</time>
      </trkpt>
      <trkpt lat="44.08067" lon="3.29812">
        <ele>660.7</ele>
        <time>2025-02-15T12:57:55.000Z</time>
      </trkpt>
      <trkpt lat="44.08076" lon="3.29818">
        <ele>662.3</ele>
        <time>2025-02-15T12:58:03.000Z</time>
      </trkpt>
      <trkpt lat="44.08082" lon="3.29828">
        <ele>664.2</ele>
        <time>2025-02-15T12:58:14.000Z</time>
      </trkpt>
      <trkpt lat="44.08088" lon="3.29838">
        <ele>665.2</ele>
        <time>2025-02-15T12:58:21.000Z</time>
      </trkpt>
      <trkpt lat="44.08095" lon="3.29846">
        <ele>666.1</ele>
        <time>2025-02-15T12:58:27.000Z</time>
      </trkpt>
      <trkpt lat="44.08104" lon="3.29852">
        <ele>666.8</ele>
        <time>2025-02-15T12:58:33.000Z</time>
      </trkpt>
      <trkpt lat="44.0811" lon="3.29861">
        <ele>668</ele>
        <time>2025-02-15T12:58:44.000Z</time>
      </trkpt>
      <trkpt lat="44.08118" lon="3.29867">
        <ele>670.1</ele>
        <time>2025-02-15T12:59:03.000Z</time>
      </trkpt>
      <trkpt lat="44.08127" lon="3.29875">
        <ele>671.2</ele>
        <time>2025-02-15T12:59:11.000Z</time>
      </trkpt>
      <trkpt lat="44.08136" lon="3.29882">
        <ele>672.5</ele>
        <time>2025-02-15T12:59:19.000Z</time>
      </trkpt>
      <trkpt lat="44.08144" lon="3.29886">
        <ele>673.2</ele>
        <time>2025-02-15T12:59:25.000Z</time>
      </trkpt>
      <trkpt lat="44.08154" lon="3.29889">
        <ele>673.9</ele>
        <time>2025-02-15T12:59:33.000Z</time>
      </trkpt>
      <trkpt lat="44.08164" lon="3.29892">
        <ele>674.3</ele>
        <time>2025-02-15T12:59:39.000Z</time>
      </trkpt>
      <trkpt lat="44.08172" lon="3.29899">
        <ele>674.5</ele>
        <time>2025-02-15T12:59:44.000Z</time>
      </trkpt>
      <trkpt lat="44.0818" lon="3.29893">
        <ele>674.6</ele>
        <time>2025-02-15T12:59:50.000Z</time>
      </trkpt>
      <trkpt lat="44.08186" lon="3.29881">
        <ele>675</ele>
        <time>2025-02-15T12:59:59.000Z</time>
      </trkpt>
      <trkpt lat="44.08195" lon="3.29879">
        <ele>675.8</ele>
        <time>2025-02-15T13:00:07.000Z</time>
      </trkpt>
      <trkpt lat="44.08204" lon="3.2988">
        <ele>677.1</ele>
        <time>2025-02-15T13:00:14.000Z</time>
      </trkpt>
      <trkpt lat="44.08213" lon="3.29883">
        <ele>678.3</ele>
        <time>2025-02-15T13:00:22.000Z</time>
      </trkpt>
      <trkpt lat="44.08223" lon="3.29886">
        <ele>679.8</ele>
        <time>2025-02-15T13:00:31.000Z</time>
      </trkpt>
      <trkpt lat="44.08232" lon="3.2989">
        <ele>681.3</ele>
        <time>2025-02-15T13:00:38.000Z</time>
      </trkpt>
      <trkpt lat="44.0824" lon="3.29895">
        <ele>683</ele>
        <time>2025-02-15T13:00:46.000Z</time>
      </trkpt>
      <trkpt lat="44.08249" lon="3.29903">
        <ele>685</ele>
        <time>2025-02-15T13:00:56.000Z</time>
      </trkpt>
      <trkpt lat="44.08257" lon="3.29909">
        <ele>686.6</ele>
        <time>2025-02-15T13:01:04.000Z</time>
      </trkpt>
      <trkpt lat="44.08265" lon="3.29915">
        <ele>688.3</ele>
        <time>2025-02-15T13:01:12.000Z</time>
      </trkpt>
      <trkpt lat="44.08273" lon="3.29922">
        <ele>689.9</ele>
        <time>2025-02-15T13:01:20.000Z</time>
      </trkpt>
      <trkpt lat="44.08281" lon="3.29929">
        <ele>691.4</ele>
        <time>2025-02-15T13:01:27.000Z</time>
      </trkpt>
      <trkpt lat="44.08289" lon="3.29936">
        <ele>693</ele>
        <time>2025-02-15T13:01:35.000Z</time>
      </trkpt>
      <trkpt lat="44.08295" lon="3.29945">
        <ele>694.6</ele>
        <time>2025-02-15T13:01:45.000Z</time>
      </trkpt>
      <trkpt lat="44.08305" lon="3.2995">
        <ele>695.6</ele>
        <time>2025-02-15T13:01:51.000Z</time>
      </trkpt>
      <trkpt lat="44.08314" lon="3.29958">
        <ele>696.6</ele>
        <time>2025-02-15T13:01:59.000Z</time>
      </trkpt>
      <trkpt lat="44.08324" lon="3.29961">
        <ele>698</ele>
        <time>2025-02-15T13:03:10.000Z</time>
      </trkpt>
      <trkpt lat="44.08318" lon="3.2995">
        <ele>697.5</ele>
        <time>2025-02-15T13:03:23.000Z</time>
      </trkpt>
      <trkpt lat="44.08312" lon="3.29941">
        <ele>697.9</ele>
        <time>2025-02-15T13:03:31.000Z</time>
      </trkpt>
      <trkpt lat="44.0831" lon="3.29927">
        <ele>698.7</ele>
        <time>2025-02-15T13:03:39.000Z</time>
      </trkpt>
      <trkpt lat="44.08307" lon="3.29916">
        <ele>699.9</ele>
        <time>2025-02-15T13:03:48.000Z</time>
      </trkpt>
      <trkpt lat="44.08305" lon="3.29903">
        <ele>701.4</ele>
        <time>2025-02-15T13:03:57.000Z</time>
      </trkpt>
      <trkpt lat="44.08302" lon="3.29891">
        <ele>703.3</ele>
        <time>2025-02-15T13:04:07.000Z</time>
      </trkpt>
      <trkpt lat="44.08297" lon="3.29879">
        <ele>705.5</ele>
        <time>2025-02-15T13:04:18.000Z</time>
      </trkpt>
      <trkpt lat="44.08292" lon="3.29868">
        <ele>707.5</ele>
        <time>2025-02-15T13:04:28.000Z</time>
      </trkpt>
      <trkpt lat="44.08301" lon="3.29867">
        <ele>712.1</ele>
        <time>2025-02-15T13:04:49.000Z</time>
      </trkpt>
      <trkpt lat="44.0831" lon="3.29873">
        <ele>713.5</ele>
        <time>2025-02-15T13:04:56.000Z</time>
      </trkpt>
      <trkpt lat="44.08318" lon="3.2988">
        <ele>715</ele>
        <time>2025-02-15T13:05:04.000Z</time>
      </trkpt>
      <trkpt lat="44.08324" lon="3.2989">
        <ele>716.7</ele>
        <time>2025-02-15T13:05:13.000Z</time>
      </trkpt>
      <trkpt lat="44.08329" lon="3.29901">
        <ele>718.1</ele>
        <time>2025-02-15T13:05:21.000Z</time>
      </trkpt>
      <trkpt lat="44.08336" lon="3.29909">
        <ele>719.8</ele>
        <time>2025-02-15T13:05:29.000Z</time>
      </trkpt>
      <trkpt lat="44.08343" lon="3.29919">
        <ele>721.4</ele>
        <time>2025-02-15T13:05:37.000Z</time>
      </trkpt>
      <trkpt lat="44.08349" lon="3.29929">
        <ele>723</ele>
        <time>2025-02-15T13:05:45.000Z</time>
      </trkpt>
      <trkpt lat="44.08357" lon="3.29936">
        <ele>724.1</ele>
        <time>2025-02-15T13:05:52.000Z</time>
      </trkpt>
      <trkpt lat="44.08364" lon="3.29944">
        <ele>725.6</ele>
        <time>2025-02-15T13:06:00.000Z</time>
      </trkpt>
      <trkpt lat="44.08372" lon="3.29952">
        <ele>727</ele>
        <time>2025-02-15T13:06:07.000Z</time>
      </trkpt>
      <trkpt lat="44.0838" lon="3.29958">
        <ele>728.5</ele>
        <time>2025-02-15T13:06:15.000Z</time>
      </trkpt>
      <trkpt lat="44.08389" lon="3.29962">
        <ele>729.9</ele>
        <time>2025-02-15T13:06:23.000Z</time>
      </trkpt>
      <trkpt lat="44.08399" lon="3.29963">
        <ele>731.3</ele>
        <time>2025-02-15T13:06:31.000Z</time>
      </trkpt>
      <trkpt lat="44.08409" lon="3.29969">
        <ele>732.9</ele>
        <time>2025-02-15T13:06:41.000Z</time>
      </trkpt>
      <trkpt lat="44.08405" lon="3.29958">
        <ele>735.6</ele>
        <time>2025-02-15T13:06:56.000Z</time>
      </trkpt>
      <trkpt lat="44.08399" lon="3.29947">
        <ele>736.8</ele>
        <time>2025-02-15T13:07:03.000Z</time>
      </trkpt>
      <trkpt lat="44.08393" lon="3.29938">
        <ele>738.2</ele>
        <time>2025-02-15T13:07:11.000Z</time>
      </trkpt>
      <trkpt lat="44.08387" lon="3.29927">
        <ele>739.7</ele>
        <time>2025-02-15T13:07:19.000Z</time>
      </trkpt>
      <trkpt lat="44.08381" lon="3.29916">
        <ele>741.5</ele>
        <time>2025-02-15T13:07:28.000Z</time>
      </trkpt>
      <trkpt lat="44.08377" lon="3.29904">
        <ele>743</ele>
        <time>2025-02-15T13:07:36.000Z</time>
      </trkpt>
      <trkpt lat="44.08373" lon="3.29892">
        <ele>744.5</ele>
        <time>2025-02-15T13:07:43.000Z</time>
      </trkpt>
      <trkpt lat="44.08369" lon="3.2988">
        <ele>746.1</ele>
        <time>2025-02-15T13:07:51.000Z</time>
      </trkpt>
      <trkpt lat="44.08365" lon="3.29868">
        <ele>747.7</ele>
        <time>2025-02-15T13:07:59.000Z</time>
      </trkpt>
      <trkpt lat="44.08359" lon="3.29856">
        <ele>749.2</ele>
        <time>2025-02-15T13:08:08.000Z</time>
      </trkpt>
      <trkpt lat="44.08353" lon="3.29847">
        <ele>750.3</ele>
        <time>2025-02-15T13:08:15.000Z</time>
      </trkpt>
      <trkpt lat="44.08346" lon="3.29838">
        <ele>751.3</ele>
        <time>2025-02-15T13:08:22.000Z</time>
      </trkpt>
      <trkpt lat="44.0834" lon="3.29828">
        <ele>752.7</ele>
        <time>2025-02-15T13:08:29.000Z</time>
      </trkpt>
      <trkpt lat="44.08334" lon="3.29818">
        <ele>754.3</ele>
        <time>2025-02-15T13:08:37.000Z</time>
      </trkpt>
      <trkpt lat="44.08328" lon="3.29807">
        <ele>755.8</ele>
        <time>2025-02-15T13:08:45.000Z</time>
      </trkpt>
      <trkpt lat="44.08323" lon="3.29795">
        <ele>757.3</ele>
        <time>2025-02-15T13:08:53.000Z</time>
      </trkpt>
      <trkpt lat="44.08317" lon="3.29784">
        <ele>759.2</ele>
        <time>2025-02-15T13:09:02.000Z</time>
      </trkpt>
      <trkpt lat="44.08311" lon="3.29773">
        <ele>760.8</ele>
        <time>2025-02-15T13:09:10.000Z</time>
      </trkpt>
      <trkpt lat="44.08305" lon="3.29762">
        <ele>762.2</ele>
        <time>2025-02-15T13:09:18.000Z</time>
      </trkpt>
      <trkpt lat="44.08298" lon="3.29754">
        <ele>763.6</ele>
        <time>2025-02-15T13:09:26.000Z</time>
      </trkpt>
      <trkpt lat="44.08292" lon="3.29744">
        <ele>764.8</ele>
        <time>2025-02-15T13:09:33.000Z</time>
      </trkpt>
      <trkpt lat="44.08302" lon="3.29745">
        <ele>767.7</ele>
        <time>2025-02-15T13:09:49.000Z</time>
      </trkpt>
      <trkpt lat="44.0831" lon="3.29738">
        <ele>769.5</ele>
        <time>2025-02-15T13:09:58.000Z</time>
      </trkpt>
      <trkpt lat="44.08305" lon="3.29726">
        <ele>771.2</ele>
        <time>2025-02-15T13:10:06.000Z</time>
      </trkpt>
      <trkpt lat="44.08299" lon="3.29715">
        <ele>773</ele>
        <time>2025-02-15T13:10:15.000Z</time>
      </trkpt>
      <trkpt lat="44.08294" lon="3.29703">
        <ele>774.7</ele>
        <time>2025-02-15T13:10:25.000Z</time>
      </trkpt>
      <trkpt lat="44.08289" lon="3.29692">
        <ele>776.2</ele>
        <time>2025-02-15T13:10:33.000Z</time>
      </trkpt>
      <trkpt lat="44.08282" lon="3.29683">
        <ele>777.8</ele>
        <time>2025-02-15T13:10:42.000Z</time>
      </trkpt>
      <trkpt lat="44.08276" lon="3.29672">
        <ele>779.6</ele>
        <time>2025-02-15T13:10:51.000Z</time>
      </trkpt>
      <trkpt lat="44.0827" lon="3.29662">
        <ele>780.8</ele>
        <time>2025-02-15T13:10:58.000Z</time>
      </trkpt>
      <trkpt lat="44.08264" lon="3.29652">
        <ele>782.2</ele>
        <time>2025-02-15T13:11:05.000Z</time>
      </trkpt>
      <trkpt lat="44.08257" lon="3.29641">
        <ele>783.6</ele>
        <time>2025-02-15T13:11:12.000Z</time>
      </trkpt>
      <trkpt lat="44.08249" lon="3.29632">
        <ele>785</ele>
        <time>2025-02-15T13:11:20.000Z</time>
      </trkpt>
      <trkpt lat="44.08241" lon="3.29623">
        <ele>786.6</ele>
        <time>2025-02-15T13:11:28.000Z</time>
      </trkpt>
      <trkpt lat="44.08232" lon="3.29619">
        <ele>788</ele>
        <time>2025-02-15T13:11:35.000Z</time>
      </trkpt>
      <trkpt lat="44.08223" lon="3.29614">
        <ele>789.9</ele>
        <time>2025-02-15T13:11:43.000Z</time>
      </trkpt>
      <trkpt lat="44.08233" lon="3.29611">
        <ele>792.3</ele>
        <time>2025-02-15T13:11:54.000Z</time>
      </trkpt>
      <trkpt lat="44.08242" lon="3.29613">
        <ele>793.3</ele>
        <time>2025-02-15T13:12:00.000Z</time>
      </trkpt>
      <trkpt lat="44.08252" lon="3.29615">
        <ele>794.2</ele>
        <time>2025-02-15T13:12:06.000Z</time>
      </trkpt>
      <trkpt lat="44.08261" lon="3.29617">
        <ele>795.3</ele>
        <time>2025-02-15T13:12:13.000Z</time>
      </trkpt>
      <trkpt lat="44.0827" lon="3.2962">
        <ele>796.2</ele>
        <time>2025-02-15T13:12:19.000Z</time>
      </trkpt>
      <trkpt lat="44.08277" lon="3.29611">
        <ele>797.4</ele>
        <time>2025-02-15T13:12:26.000Z</time>
      </trkpt>
      <trkpt lat="44.08284" lon="3.296">
        <ele>798.7</ele>
        <time>2025-02-15T13:12:32.000Z</time>
      </trkpt>
      <trkpt lat="44.08291" lon="3.29593">
        <ele>799.7</ele>
        <time>2025-02-15T13:12:37.000Z</time>
      </trkpt>
      <trkpt lat="44.08299" lon="3.29583">
        <ele>800.8</ele>
        <time>2025-02-15T13:12:43.000Z</time>
      </trkpt>
      <trkpt lat="44.08306" lon="3.29573">
        <ele>801.8</ele>
        <time>2025-02-15T13:12:49.000Z</time>
      </trkpt>
      <trkpt lat="44.08312" lon="3.29562">
        <ele>802.4</ele>
        <time>2025-02-15T13:12:53.000Z</time>
      </trkpt>
      <trkpt lat="44.08318" lon="3.2955">
        <ele>802.9</ele>
        <time>2025-02-15T13:12:57.000Z</time>
      </trkpt>
      <trkpt lat="44.08325" lon="3.29539">
        <ele>803.3</ele>
        <time>2025-02-15T13:13:01.000Z</time>
      </trkpt>
      <trkpt lat="44.08332" lon="3.29529">
        <ele>803.5</ele>
        <time>2025-02-15T13:13:04.000Z</time>
      </trkpt>
      <trkpt lat="44.0834" lon="3.2952">
        <ele>803.8</ele>
        <time>2025-02-15T13:13:07.000Z</time>
      </trkpt>
      <trkpt lat="44.0835" lon="3.29516">
        <ele>804</ele>
        <time>2025-02-15T13:13:10.000Z</time>
      </trkpt>
      <trkpt lat="44.0836" lon="3.29512">
        <ele>804.2</ele>
        <time>2025-02-15T13:13:14.000Z</time>
      </trkpt>
      <trkpt lat="44.0837" lon="3.29504">
        <ele>804.5</ele>
        <time>2025-02-15T13:13:18.000Z</time>
      </trkpt>
      <trkpt lat="44.0838" lon="3.29501">
        <ele>804.6</ele>
        <time>2025-02-15T13:13:21.000Z</time>
      </trkpt>
      <trkpt lat="44.08389" lon="3.29497">
        <ele>804.8</ele>
        <time>2025-02-15T13:13:24.000Z</time>
      </trkpt>
      <trkpt lat="44.08399" lon="3.29492">
        <ele>804.9</ele>
        <time>2025-02-15T13:13:27.000Z</time>
      </trkpt>
      <trkpt lat="44.08409" lon="3.29491">
        <ele>805</ele>
        <time>2025-02-15T13:13:30.000Z</time>
      </trkpt>
      <trkpt lat="44.08418" lon="3.29493">
        <ele>805.2</ele>
        <time>2025-02-15T13:13:34.000Z</time>
      </trkpt>
      <trkpt lat="44.08427" lon="3.29496">
        <ele>805.6</ele>
        <time>2025-02-15T13:13:40.000Z</time>
      </trkpt>
      <trkpt lat="44.08437" lon="3.29494">
        <ele>807.6</ele>
        <time>2025-02-15T13:14:15.000Z</time>
      </trkpt>
      <trkpt lat="44.08447" lon="3.295">
        <ele>807.8</ele>
        <time>2025-02-15T13:14:20.000Z</time>
      </trkpt>
      <trkpt lat="44.08457" lon="3.29505">
        <ele>808</ele>
        <time>2025-02-15T13:14:25.000Z</time>
      </trkpt>
      <trkpt lat="44.08466" lon="3.29511">
        <ele>808.2</ele>
        <time>2025-02-15T13:14:30.000Z</time>
      </trkpt>
      <trkpt lat="44.08475" lon="3.29516">
        <ele>808.4</ele>
        <time>2025-02-15T13:14:35.000Z</time>
      </trkpt>
      <trkpt lat="44.08484" lon="3.29521">
        <ele>808.6</ele>
        <time>2025-02-15T13:14:40.000Z</time>
      </trkpt>
      <trkpt lat="44.08493" lon="3.29527">
        <ele>808.8</ele>
        <time>2025-02-15T13:14:45.000Z</time>
      </trkpt>
      <trkpt lat="44.08502" lon="3.29531">
        <ele>808.9</ele>
        <time>2025-02-15T13:14:49.000Z</time>
      </trkpt>
      <trkpt lat="44.08513" lon="3.29536">
        <ele>809.1</ele>
        <time>2025-02-15T13:14:53.000Z</time>
      </trkpt>
      <trkpt lat="44.08524" lon="3.29539">
        <ele>809.2</ele>
        <time>2025-02-15T13:14:56.000Z</time>
      </trkpt>
      <trkpt lat="44.08536" lon="3.29543">
        <ele>809.1</ele>
        <time>2025-02-15T13:14:59.000Z</time>
      </trkpt>
      <trkpt lat="44.08549" lon="3.29548">
        <ele>808.8</ele>
        <time>2025-02-15T13:15:02.000Z</time>
      </trkpt>
      <trkpt lat="44.08558" lon="3.29552">
        <ele>808.7</ele>
        <time>2025-02-15T13:15:04.000Z</time>
      </trkpt>
      <trkpt lat="44.08568" lon="3.29558">
        <ele>808.4</ele>
        <time>2025-02-15T13:15:06.000Z</time>
      </trkpt>
      <trkpt lat="44.08579" lon="3.29565">
        <ele>808.1</ele>
        <time>2025-02-15T13:15:08.000Z</time>
      </trkpt>
      <trkpt lat="44.08588" lon="3.29573">
        <ele>807.7</ele>
        <time>2025-02-15T13:15:10.000Z</time>
      </trkpt>
      <trkpt lat="44.08596" lon="3.29584">
        <ele>807.3</ele>
        <time>2025-02-15T13:15:12.000Z</time>
      </trkpt>
      <trkpt lat="44.08604" lon="3.29595">
        <ele>806.9</ele>
        <time>2025-02-15T13:15:14.000Z</time>
      </trkpt>
      <trkpt lat="44.08612" lon="3.29605">
        <ele>806.5</ele>
        <time>2025-02-15T13:15:16.000Z</time>
      </trkpt>
      <trkpt lat="44.08621" lon="3.29615">
        <ele>806.2</ele>
        <time>2025-02-15T13:15:18.000Z</time>
      </trkpt>
      <trkpt lat="44.0863" lon="3.29627">
        <ele>805.7</ele>
        <time>2025-02-15T13:15:20.000Z</time>
      </trkpt>
      <trkpt lat="44.08637" lon="3.29641">
        <ele>805.3</ele>
        <time>2025-02-15T13:15:22.000Z</time>
      </trkpt>
      <trkpt lat="44.08646" lon="3.29654">
        <ele>804.9</ele>
        <time>2025-02-15T13:15:24.000Z</time>
      </trkpt>
      <trkpt lat="44.08656" lon="3.29666">
        <ele>804.5</ele>
        <time>2025-02-15T13:15:26.000Z</time>
      </trkpt>
      <trkpt lat="44.08665" lon="3.29677">
        <ele>804.2</ele>
        <time>2025-02-15T13:15:28.000Z</time>
      </trkpt>
      <trkpt lat="44.08674" lon="3.29686">
        <ele>804</ele>
        <time>2025-02-15T13:15:30.000Z</time>
      </trkpt>
      <trkpt lat="44.08683" lon="3.29691">
        <ele>803.7</ele>
        <time>2025-02-15T13:15:32.000Z</time>
      </trkpt>
      <trkpt lat="44.08693" lon="3.29695">
        <ele>803.6</ele>
        <time>2025-02-15T13:15:34.000Z</time>
      </trkpt>
      <trkpt lat="44.08705" lon="3.29698">
        <ele>803.3</ele>
        <time>2025-02-15T13:15:37.000Z</time>
      </trkpt>
      <trkpt lat="44.08716" lon="3.297">
        <ele>803.1</ele>
        <time>2025-02-15T13:15:41.000Z</time>
      </trkpt>
      <trkpt lat="44.08726" lon="3.29701">
        <ele>803</ele>
        <time>2025-02-15T13:15:46.000Z</time>
      </trkpt>
      <trkpt lat="44.08735" lon="3.29695">
        <ele>803.4</ele>
        <time>2025-02-15T13:15:51.000Z</time>
      </trkpt>
      <trkpt lat="44.08745" lon="3.29701">
        <ele>803.9</ele>
        <time>2025-02-15T13:15:57.000Z</time>
      </trkpt>
      <trkpt lat="44.08754" lon="3.29703">
        <ele>804.3</ele>
        <time>2025-02-15T13:16:01.000Z</time>
      </trkpt>
      <trkpt lat="44.08764" lon="3.29702">
        <ele>804.8</ele>
        <time>2025-02-15T13:16:06.000Z</time>
      </trkpt>
      <trkpt lat="44.0877" lon="3.29693">
        <ele>805.2</ele>
        <time>2025-02-15T13:16:12.000Z</time>
      </trkpt>
      <trkpt lat="44.08773" lon="3.29706">
        <ele>806.6</ele>
        <time>2025-02-15T13:16:29.000Z</time>
      </trkpt>
      <trkpt lat="44.08782" lon="3.29712">
        <ele>806.8</ele>
        <time>2025-02-15T13:16:33.000Z</time>
      </trkpt>
      <trkpt lat="44.08793" lon="3.29716">
        <ele>807</ele>
        <time>2025-02-15T13:16:37.000Z</time>
      </trkpt>
      <trkpt lat="44.08803" lon="3.29716">
        <ele>807.2</ele>
        <time>2025-02-15T13:16:40.000Z</time>
      </trkpt>
      <trkpt lat="44.08815" lon="3.29716">
        <ele>807.3</ele>
        <time>2025-02-15T13:16:43.000Z</time>
      </trkpt>
      <trkpt lat="44.08827" lon="3.29712">
        <ele>807.6</ele>
        <time>2025-02-15T13:16:46.000Z</time>
      </trkpt>
      <trkpt lat="44.08838" lon="3.29704">
        <ele>807.8</ele>
        <time>2025-02-15T13:16:49.000Z</time>
      </trkpt>
      <trkpt lat="44.08848" lon="3.29695">
        <ele>807.9</ele>
        <time>2025-02-15T13:16:52.000Z</time>
      </trkpt>
      <trkpt lat="44.08858" lon="3.29686">
        <ele>808.1</ele>
        <time>2025-02-15T13:16:55.000Z</time>
      </trkpt>
      <trkpt lat="44.08868" lon="3.29675">
        <ele>808.3</ele>
        <time>2025-02-15T13:16:58.000Z</time>
      </trkpt>
      <trkpt lat="44.08878" lon="3.29666">
        <ele>808.4</ele>
        <time>2025-02-15T13:17:01.000Z</time>
      </trkpt>
      <trkpt lat="44.08888" lon="3.29659">
        <ele>808.5</ele>
        <time>2025-02-15T13:17:04.000Z</time>
      </trkpt>
      <trkpt lat="44.08899" lon="3.29657">
        <ele>808.7</ele>
        <time>2025-02-15T13:17:07.000Z</time>
      </trkpt>
      <trkpt lat="44.0891" lon="3.29658">
        <ele>809</ele>
        <time>2025-02-15T13:17:10.000Z</time>
      </trkpt>
      <trkpt lat="44.0892" lon="3.29662">
        <ele>809.3</ele>
        <time>2025-02-15T13:17:13.000Z</time>
      </trkpt>
      <trkpt lat="44.08931" lon="3.29668">
        <ele>809.6</ele>
        <time>2025-02-15T13:17:16.000Z</time>
      </trkpt>
      <trkpt lat="44.0894" lon="3.29676">
        <ele>809.8</ele>
        <time>2025-02-15T13:17:19.000Z</time>
      </trkpt>
      <trkpt lat="44.0895" lon="3.29685">
        <ele>810.1</ele>
        <time>2025-02-15T13:17:22.000Z</time>
      </trkpt>
      <trkpt lat="44.08958" lon="3.29697">
        <ele>810.4</ele>
        <time>2025-02-15T13:17:25.000Z</time>
      </trkpt>
      <trkpt lat="44.08966" lon="3.2971">
        <ele>810.7</ele>
        <time>2025-02-15T13:17:28.000Z</time>
      </trkpt>
      <trkpt lat="44.08972" lon="3.29724">
        <ele>811</ele>
        <time>2025-02-15T13:17:31.000Z</time>
      </trkpt>
      <trkpt lat="44.08977" lon="3.29738">
        <ele>811.4</ele>
        <time>2025-02-15T13:17:34.000Z</time>
      </trkpt>
      <trkpt lat="44.0898" lon="3.29754">
        <ele>811.7</ele>
        <time>2025-02-15T13:17:37.000Z</time>
      </trkpt>
      <trkpt lat="44.08982" lon="3.2977">
        <ele>812</ele>
        <time>2025-02-15T13:17:40.000Z</time>
      </trkpt>
      <trkpt lat="44.08985" lon="3.29785">
        <ele>812.4</ele>
        <time>2025-02-15T13:17:43.000Z</time>
      </trkpt>
      <trkpt lat="44.08988" lon="3.298">
        <ele>812.8</ele>
        <time>2025-02-15T13:17:46.000Z</time>
      </trkpt>
      <trkpt lat="44.08995" lon="3.29814">
        <ele>813.2</ele>
        <time>2025-02-15T13:17:49.000Z</time>
      </trkpt>
      <trkpt lat="44.09003" lon="3.29826">
        <ele>813.5</ele>
        <time>2025-02-15T13:17:52.000Z</time>
      </trkpt>
      <trkpt lat="44.09013" lon="3.29835">
        <ele>813.9</ele>
        <time>2025-02-15T13:17:55.000Z</time>
      </trkpt>
      <trkpt lat="44.09024" lon="3.29843">
        <ele>814.2</ele>
        <time>2025-02-15T13:17:58.000Z</time>
      </trkpt>
      <trkpt lat="44.09034" lon="3.2985">
        <ele>814.5</ele>
        <time>2025-02-15T13:18:01.000Z</time>
      </trkpt>
      <trkpt lat="44.09046" lon="3.29857">
        <ele>814.8</ele>
        <time>2025-02-15T13:18:04.000Z</time>
      </trkpt>
      <trkpt lat="44.09057" lon="3.29862">
        <ele>815.2</ele>
        <time>2025-02-15T13:18:07.000Z</time>
      </trkpt>
      <trkpt lat="44.09069" lon="3.29867">
        <ele>815.6</ele>
        <time>2025-02-15T13:18:10.000Z</time>
      </trkpt>
      <trkpt lat="44.09081" lon="3.29874">
        <ele>816</ele>
        <time>2025-02-15T13:18:13.000Z</time>
      </trkpt>
      <trkpt lat="44.09093" lon="3.29881">
        <ele>816.3</ele>
        <time>2025-02-15T13:18:16.000Z</time>
      </trkpt>
      <trkpt lat="44.09104" lon="3.29888">
        <ele>816.6</ele>
        <time>2025-02-15T13:18:19.000Z</time>
      </trkpt>
      <trkpt lat="44.09115" lon="3.29897">
        <ele>817</ele>
        <time>2025-02-15T13:18:22.000Z</time>
      </trkpt>
      <trkpt lat="44.09121" lon="3.29911">
        <ele>817.3</ele>
        <time>2025-02-15T13:18:25.000Z</time>
      </trkpt>
      <trkpt lat="44.0912" lon="3.29929">
        <ele>817.7</ele>
        <time>2025-02-15T13:18:28.000Z</time>
      </trkpt>
      <trkpt lat="44.09112" lon="3.29943">
        <ele>818.1</ele>
        <time>2025-02-15T13:18:31.000Z</time>
      </trkpt>
      <trkpt lat="44.09099" lon="3.2995">
        <ele>818.5</ele>
        <time>2025-02-15T13:18:34.000Z</time>
      </trkpt>
      <trkpt lat="44.09086" lon="3.29954">
        <ele>819</ele>
        <time>2025-02-15T13:18:37.000Z</time>
      </trkpt>
      <trkpt lat="44.09074" lon="3.29961">
        <ele>819.4</ele>
        <time>2025-02-15T13:18:40.000Z</time>
      </trkpt>
      <trkpt lat="44.09063" lon="3.2997">
        <ele>819.9</ele>
        <time>2025-02-15T13:18:43.000Z</time>
      </trkpt>
      <trkpt lat="44.09052" lon="3.29979">
        <ele>820.4</ele>
        <time>2025-02-15T13:18:46.000Z</time>
      </trkpt>
      <trkpt lat="44.09042" lon="3.29988">
        <ele>820.8</ele>
        <time>2025-02-15T13:18:49.000Z</time>
      </trkpt>
      <trkpt lat="44.09033" lon="3.29998">
        <ele>821.2</ele>
        <time>2025-02-15T13:18:52.000Z</time>
      </trkpt>
      <trkpt lat="44.09024" lon="3.30011">
        <ele>821.7</ele>
        <time>2025-02-15T13:18:55.000Z</time>
      </trkpt>
      <trkpt lat="44.09017" lon="3.30024">
        <ele>822.1</ele>
        <time>2025-02-15T13:18:58.000Z</time>
      </trkpt>
      <trkpt lat="44.0901" lon="3.30039">
        <ele>822.5</ele>
        <time>2025-02-15T13:19:01.000Z</time>
      </trkpt>
      <trkpt lat="44.09003" lon="3.30054">
        <ele>822.9</ele>
        <time>2025-02-15T13:19:04.000Z</time>
      </trkpt>
      <trkpt lat="44.08993" lon="3.30066">
        <ele>823.2</ele>
        <time>2025-02-15T13:19:07.000Z</time>
      </trkpt>
      <trkpt lat="44.08981" lon="3.30074">
        <ele>823.6</ele>
        <time>2025-02-15T13:19:10.000Z</time>
      </trkpt>
      <trkpt lat="44.08972" lon="3.30078">
        <ele>823.8</ele>
        <time>2025-02-15T13:19:12.000Z</time>
      </trkpt>
      <trkpt lat="44.08964" lon="3.30083">
        <ele>824.1</ele>
        <time>2025-02-15T13:19:14.000Z</time>
      </trkpt>
      <trkpt lat="44.08955" lon="3.30088">
        <ele>824.3</ele>
        <time>2025-02-15T13:19:16.000Z</time>
      </trkpt>
      <trkpt lat="44.08943" lon="3.30096">
        <ele>824.7</ele>
        <time>2025-02-15T13:19:19.000Z</time>
      </trkpt>
      <trkpt lat="44.08932" lon="3.30104">
        <ele>825</ele>
        <time>2025-02-15T13:19:22.000Z</time>
      </trkpt>
      <trkpt lat="44.0892" lon="3.30113">
        <ele>825.4</ele>
        <time>2025-02-15T13:19:25.000Z</time>
      </trkpt>
      <trkpt lat="44.08909" lon="3.30123">
        <ele>825.8</ele>
        <time>2025-02-15T13:19:28.000Z</time>
      </trkpt>
      <trkpt lat="44.08899" lon="3.30131">
        <ele>826.2</ele>
        <time>2025-02-15T13:19:31.000Z</time>
      </trkpt>
      <trkpt lat="44.08889" lon="3.30141">
        <ele>826.6</ele>
        <time>2025-02-15T13:19:34.000Z</time>
      </trkpt>
      <trkpt lat="44.08879" lon="3.30151">
        <ele>827</ele>
        <time>2025-02-15T13:19:37.000Z</time>
      </trkpt>
      <trkpt lat="44.0887" lon="3.30162">
        <ele>827.4</ele>
        <time>2025-02-15T13:19:40.000Z</time>
      </trkpt>
      <trkpt lat="44.08861" lon="3.30174">
        <ele>827.8</ele>
        <time>2025-02-15T13:19:43.000Z</time>
      </trkpt>
      <trkpt lat="44.08852" lon="3.30187">
        <ele>828.2</ele>
        <time>2025-02-15T13:19:46.000Z</time>
      </trkpt>
      <trkpt lat="44.08845" lon="3.302">
        <ele>828.5</ele>
        <time>2025-02-15T13:19:49.000Z</time>
      </trkpt>
      <trkpt lat="44.08837" lon="3.30215">
        <ele>828.9</ele>
        <time>2025-02-15T13:19:52.000Z</time>
      </trkpt>
      <trkpt lat="44.08831" lon="3.30231">
        <ele>829.3</ele>
        <time>2025-02-15T13:19:55.000Z</time>
      </trkpt>
      <trkpt lat="44.08829" lon="3.30244">
        <ele>829.5</ele>
        <time>2025-02-15T13:19:57.000Z</time>
      </trkpt>
      <trkpt lat="44.08829" lon="3.30257">
        <ele>829.8</ele>
        <time>2025-02-15T13:19:59.000Z</time>
      </trkpt>
      <trkpt lat="44.08831" lon="3.30275">
        <ele>830.1</ele>
        <time>2025-02-15T13:20:02.000Z</time>
      </trkpt>
      <trkpt lat="44.08836" lon="3.30292">
        <ele>830.5</ele>
        <time>2025-02-15T13:20:05.000Z</time>
      </trkpt>
      <trkpt lat="44.0884" lon="3.30303">
        <ele>830.8</ele>
        <time>2025-02-15T13:20:07.000Z</time>
      </trkpt>
      <trkpt lat="44.08848" lon="3.30318">
        <ele>831.2</ele>
        <time>2025-02-15T13:20:10.000Z</time>
      </trkpt>
      <trkpt lat="44.08854" lon="3.30329">
        <ele>831.4</ele>
        <time>2025-02-15T13:20:12.000Z</time>
      </trkpt>
      <trkpt lat="44.08861" lon="3.30339">
        <ele>831.6</ele>
        <time>2025-02-15T13:20:14.000Z</time>
      </trkpt>
      <trkpt lat="44.08867" lon="3.30348">
        <ele>831.9</ele>
        <time>2025-02-15T13:20:16.000Z</time>
      </trkpt>
      <trkpt lat="44.08875" lon="3.30357">
        <ele>832.1</ele>
        <time>2025-02-15T13:20:18.000Z</time>
      </trkpt>
      <trkpt lat="44.08882" lon="3.30365">
        <ele>832.4</ele>
        <time>2025-02-15T13:20:20.000Z</time>
      </trkpt>
      <trkpt lat="44.0889" lon="3.30373">
        <ele>832.8</ele>
        <time>2025-02-15T13:20:22.000Z</time>
      </trkpt>
      <trkpt lat="44.08898" lon="3.30381">
        <ele>833.1</ele>
        <time>2025-02-15T13:20:24.000Z</time>
      </trkpt>
      <trkpt lat="44.08906" lon="3.30388">
        <ele>833.4</ele>
        <time>2025-02-15T13:20:26.000Z</time>
      </trkpt>
      <trkpt lat="44.08915" lon="3.30395">
        <ele>833.6</ele>
        <time>2025-02-15T13:20:28.000Z</time>
      </trkpt>
      <trkpt lat="44.08924" lon="3.30401">
        <ele>833.9</ele>
        <time>2025-02-15T13:20:30.000Z</time>
      </trkpt>
      <trkpt lat="44.08933" lon="3.30406">
        <ele>834.2</ele>
        <time>2025-02-15T13:20:32.000Z</time>
      </trkpt>
      <trkpt lat="44.08943" lon="3.3041">
        <ele>834.5</ele>
        <time>2025-02-15T13:20:34.000Z</time>
      </trkpt>
      <trkpt lat="44.08952" lon="3.30415">
        <ele>834.9</ele>
        <time>2025-02-15T13:20:36.000Z</time>
      </trkpt>
      <trkpt lat="44.08962" lon="3.3042">
        <ele>835.2</ele>
        <time>2025-02-15T13:20:38.000Z</time>
      </trkpt>
      <trkpt lat="44.0897" lon="3.30428">
        <ele>835.5</ele>
        <time>2025-02-15T13:20:40.000Z</time>
      </trkpt>
      <trkpt lat="44.08978" lon="3.30437">
        <ele>835.8</ele>
        <time>2025-02-15T13:20:42.000Z</time>
      </trkpt>
      <trkpt lat="44.08985" lon="3.30448">
        <ele>836</ele>
        <time>2025-02-15T13:20:44.000Z</time>
      </trkpt>
      <trkpt lat="44.08991" lon="3.30459">
        <ele>836.3</ele>
        <time>2025-02-15T13:20:46.000Z</time>
      </trkpt>
      <trkpt lat="44.08997" lon="3.3047">
        <ele>836.5</ele>
        <time>2025-02-15T13:20:48.000Z</time>
      </trkpt>
      <trkpt lat="44.09003" lon="3.30481">
        <ele>836.8</ele>
        <time>2025-02-15T13:20:50.000Z</time>
      </trkpt>
      <trkpt lat="44.09009" lon="3.30491">
        <ele>837</ele>
        <time>2025-02-15T13:20:52.000Z</time>
      </trkpt>
      <trkpt lat="44.09015" lon="3.30502">
        <ele>837.3</ele>
        <time>2025-02-15T13:20:54.000Z</time>
      </trkpt>
      <trkpt lat="44.0902" lon="3.30518">
        <ele>837.6</ele>
        <time>2025-02-15T13:20:57.000Z</time>
      </trkpt>
      <trkpt lat="44.0902" lon="3.30537">
        <ele>837.9</ele>
        <time>2025-02-15T13:21:00.000Z</time>
      </trkpt>
      <trkpt lat="44.0902" lon="3.30553">
        <ele>838.1</ele>
        <time>2025-02-15T13:21:02.000Z</time>
      </trkpt>
      <trkpt lat="44.09021" lon="3.3057">
        <ele>838.2</ele>
        <time>2025-02-15T13:21:04.000Z</time>
      </trkpt>
      <trkpt lat="44.09025" lon="3.30588">
        <ele>838.2</ele>
        <time>2025-02-15T13:21:06.000Z</time>
      </trkpt>
      <trkpt lat="44.09031" lon="3.30605">
        <ele>838.2</ele>
        <time>2025-02-15T13:21:08.000Z</time>
      </trkpt>
      <trkpt lat="44.09037" lon="3.30622">
        <ele>838.1</ele>
        <time>2025-02-15T13:21:10.000Z</time>
      </trkpt>
      <trkpt lat="44.09041" lon="3.30639">
        <ele>838</ele>
        <time>2025-02-15T13:21:12.000Z</time>
      </trkpt>
      <trkpt lat="44.09045" lon="3.30657">
        <ele>837.9</ele>
        <time>2025-02-15T13:21:14.000Z</time>
      </trkpt>
      <trkpt lat="44.09047" lon="3.30676">
        <ele>837.8</ele>
        <time>2025-02-15T13:21:16.000Z</time>
      </trkpt>
      <trkpt lat="44.09046" lon="3.30695">
        <ele>837.6</ele>
        <time>2025-02-15T13:21:18.000Z</time>
      </trkpt>
      <trkpt lat="44.09042" lon="3.30713">
        <ele>837.4</ele>
        <time>2025-02-15T13:21:20.000Z</time>
      </trkpt>
      <trkpt lat="44.09042" lon="3.30733">
        <ele>837</ele>
        <time>2025-02-15T13:21:22.000Z</time>
      </trkpt>
      <trkpt lat="44.09048" lon="3.30751">
        <ele>836.6</ele>
        <time>2025-02-15T13:21:24.000Z</time>
      </trkpt>
      <trkpt lat="44.09059" lon="3.30765">
        <ele>836.1</ele>
        <time>2025-02-15T13:21:26.000Z</time>
      </trkpt>
      <trkpt lat="44.09069" lon="3.3078">
        <ele>835.7</ele>
        <time>2025-02-15T13:21:28.000Z</time>
      </trkpt>
      <trkpt lat="44.09074" lon="3.30799">
        <ele>835.4</ele>
        <time>2025-02-15T13:21:30.000Z</time>
      </trkpt>
      <trkpt lat="44.09074" lon="3.30821">
        <ele>835</ele>
        <time>2025-02-15T13:21:32.000Z</time>
      </trkpt>
      <trkpt lat="44.09074" lon="3.30843">
        <ele>834.7</ele>
        <time>2025-02-15T13:21:34.000Z</time>
      </trkpt>
      <trkpt lat="44.09076" lon="3.3086">
        <ele>834.5</ele>
        <time>2025-02-15T13:21:36.000Z</time>
      </trkpt>
      <trkpt lat="44.0908" lon="3.30872">
        <ele>834.3</ele>
        <time>2025-02-15T13:21:38.000Z</time>
      </trkpt>
      <trkpt lat="44.09087" lon="3.30887">
        <ele>834.2</ele>
        <time>2025-02-15T13:21:41.000Z</time>
      </trkpt>
      <trkpt lat="44.09093" lon="3.30899">
        <ele>834.2</ele>
        <time>2025-02-15T13:21:44.000Z</time>
      </trkpt>
      <trkpt lat="44.09099" lon="3.30912">
        <ele>834.3</ele>
        <time>2025-02-15T13:21:47.000Z</time>
      </trkpt>
      <trkpt lat="44.09105" lon="3.30927">
        <ele>834.5</ele>
        <time>2025-02-15T13:21:50.000Z</time>
      </trkpt>
      <trkpt lat="44.0911" lon="3.30942">
        <ele>834.8</ele>
        <time>2025-02-15T13:21:53.000Z</time>
      </trkpt>
      <trkpt lat="44.09116" lon="3.30956">
        <ele>835.1</ele>
        <time>2025-02-15T13:21:56.000Z</time>
      </trkpt>
      <trkpt lat="44.09121" lon="3.30971">
        <ele>835.4</ele>
        <time>2025-02-15T13:21:59.000Z</time>
      </trkpt>
      <trkpt lat="44.09125" lon="3.30983">
        <ele>835.5</ele>
        <time>2025-02-15T13:22:01.000Z</time>
      </trkpt>
      <trkpt lat="44.09131" lon="3.30998">
        <ele>835.8</ele>
        <time>2025-02-15T13:22:04.000Z</time>
      </trkpt>
      <trkpt lat="44.09137" lon="3.31015">
        <ele>836.1</ele>
        <time>2025-02-15T13:22:07.000Z</time>
      </trkpt>
      <trkpt lat="44.09143" lon="3.31031">
        <ele>836.5</ele>
        <time>2025-02-15T13:22:10.000Z</time>
      </trkpt>
      <trkpt lat="44.09145" lon="3.31047">
        <ele>836.8</ele>
        <time>2025-02-15T13:22:13.000Z</time>
      </trkpt>
      <trkpt lat="44.09146" lon="3.31063">
        <ele>837.2</ele>
        <time>2025-02-15T13:22:16.000Z</time>
      </trkpt>
      <trkpt lat="44.09147" lon="3.31081">
        <ele>837.5</ele>
        <time>2025-02-15T13:22:19.000Z</time>
      </trkpt>
      <trkpt lat="44.09152" lon="3.31097">
        <ele>837.9</ele>
        <time>2025-02-15T13:22:22.000Z</time>
      </trkpt>
      <trkpt lat="44.09155" lon="3.31114">
        <ele>838.2</ele>
        <time>2025-02-15T13:22:25.000Z</time>
      </trkpt>
      <trkpt lat="44.09159" lon="3.31126">
        <ele>838.5</ele>
        <time>2025-02-15T13:22:27.000Z</time>
      </trkpt>
      <trkpt lat="44.09165" lon="3.31142">
        <ele>838.9</ele>
        <time>2025-02-15T13:22:30.000Z</time>
      </trkpt>
      <trkpt lat="44.09172" lon="3.31158">
        <ele>839.3</ele>
        <time>2025-02-15T13:22:33.000Z</time>
      </trkpt>
      <trkpt lat="44.09176" lon="3.31173">
        <ele>839.7</ele>
        <time>2025-02-15T13:22:36.000Z</time>
      </trkpt>
      <trkpt lat="44.09179" lon="3.3119">
        <ele>840</ele>
        <time>2025-02-15T13:22:39.000Z</time>
      </trkpt>
      <trkpt lat="44.0918" lon="3.31207">
        <ele>840.5</ele>
        <time>2025-02-15T13:22:42.000Z</time>
      </trkpt>
      <trkpt lat="44.09183" lon="3.31223">
        <ele>841</ele>
        <time>2025-02-15T13:22:45.000Z</time>
      </trkpt>
      <trkpt lat="44.09185" lon="3.31238">
        <ele>841.5</ele>
        <time>2025-02-15T13:22:48.000Z</time>
      </trkpt>
      <trkpt lat="44.09178" lon="3.31248">
        <ele>842.1</ele>
        <time>2025-02-15T13:22:51.000Z</time>
      </trkpt>
      <trkpt lat="44.0917" lon="3.3126">
        <ele>842.9</ele>
        <time>2025-02-15T13:22:55.000Z</time>
      </trkpt>
      <trkpt lat="44.09169" lon="3.31275">
        <ele>843.9</ele>
        <time>2025-02-15T13:22:59.000Z</time>
      </trkpt>
      <trkpt lat="44.09169" lon="3.31289">
        <ele>844.8</ele>
        <time>2025-02-15T13:23:03.000Z</time>
      </trkpt>
      <trkpt lat="44.09171" lon="3.31304">
        <ele>845.7</ele>
        <time>2025-02-15T13:23:07.000Z</time>
      </trkpt>
      <trkpt lat="44.09173" lon="3.3132">
        <ele>846.5</ele>
        <time>2025-02-15T13:23:11.000Z</time>
      </trkpt>
      <trkpt lat="44.09175" lon="3.31335">
        <ele>847.3</ele>
        <time>2025-02-15T13:23:15.000Z</time>
      </trkpt>
      <trkpt lat="44.09178" lon="3.31351">
        <ele>848</ele>
        <time>2025-02-15T13:23:19.000Z</time>
      </trkpt>
      <trkpt lat="44.09182" lon="3.31365">
        <ele>848.6</ele>
        <time>2025-02-15T13:23:23.000Z</time>
      </trkpt>
      <trkpt lat="44.09185" lon="3.31377">
        <ele>849.1</ele>
        <time>2025-02-15T13:23:26.000Z</time>
      </trkpt>
      <trkpt lat="44.09184" lon="3.31394">
        <ele>849.8</ele>
        <time>2025-02-15T13:23:30.000Z</time>
      </trkpt>
      <trkpt lat="44.09183" lon="3.31409">
        <ele>850.6</ele>
        <time>2025-02-15T13:23:34.000Z</time>
      </trkpt>
      <trkpt lat="44.09184" lon="3.31425">
        <ele>851.3</ele>
        <time>2025-02-15T13:23:38.000Z</time>
      </trkpt>
      <trkpt lat="44.09185" lon="3.31438">
        <ele>851.8</ele>
        <time>2025-02-15T13:23:41.000Z</time>
      </trkpt>
      <trkpt lat="44.09185" lon="3.31451">
        <ele>852.3</ele>
        <time>2025-02-15T13:23:44.000Z</time>
      </trkpt>
      <trkpt lat="44.09185" lon="3.31464">
        <ele>852.8</ele>
        <time>2025-02-15T13:23:47.000Z</time>
      </trkpt>
      <trkpt lat="44.09185" lon="3.31477">
        <ele>853.2</ele>
        <time>2025-02-15T13:23:50.000Z</time>
      </trkpt>
      <trkpt lat="44.09185" lon="3.31491">
        <ele>853.6</ele>
        <time>2025-02-15T13:23:53.000Z</time>
      </trkpt>
      <trkpt lat="44.09187" lon="3.31505">
        <ele>854</ele>
        <time>2025-02-15T13:23:56.000Z</time>
      </trkpt>
      <trkpt lat="44.09188" lon="3.31521">
        <ele>854.5</ele>
        <time>2025-02-15T13:23:59.000Z</time>
      </trkpt>
      <trkpt lat="44.09189" lon="3.31535">
        <ele>855</ele>
        <time>2025-02-15T13:24:02.000Z</time>
      </trkpt>
      <trkpt lat="44.09189" lon="3.31548">
        <ele>855.7</ele>
        <time>2025-02-15T13:24:05.000Z</time>
      </trkpt>
      <trkpt lat="44.09187" lon="3.31563">
        <ele>856.7</ele>
        <time>2025-02-15T13:24:09.000Z</time>
      </trkpt>
      <trkpt lat="44.09186" lon="3.31578">
        <ele>857.7</ele>
        <time>2025-02-15T13:24:13.000Z</time>
      </trkpt>
      <trkpt lat="44.09184" lon="3.31593">
        <ele>858.5</ele>
        <time>2025-02-15T13:24:17.000Z</time>
      </trkpt>
      <trkpt lat="44.09183" lon="3.31608">
        <ele>859.2</ele>
        <time>2025-02-15T13:24:21.000Z</time>
      </trkpt>
      <trkpt lat="44.09182" lon="3.31624">
        <ele>860</ele>
        <time>2025-02-15T13:24:25.000Z</time>
      </trkpt>
      <trkpt lat="44.09181" lon="3.31639">
        <ele>860.6</ele>
        <time>2025-02-15T13:24:29.000Z</time>
      </trkpt>
      <trkpt lat="44.0918" lon="3.31655">
        <ele>861.4</ele>
        <time>2025-02-15T13:24:33.000Z</time>
      </trkpt>
      <trkpt lat="44.09178" lon="3.31667">
        <ele>862</ele>
        <time>2025-02-15T13:24:36.000Z</time>
      </trkpt>
      <trkpt lat="44.09176" lon="3.31682">
        <ele>862.8</ele>
        <time>2025-02-15T13:24:40.000Z</time>
      </trkpt>
      <trkpt lat="44.09173" lon="3.31697">
        <ele>863.7</ele>
        <time>2025-02-15T13:24:44.000Z</time>
      </trkpt>
      <trkpt lat="44.09171" lon="3.31711">
        <ele>864.7</ele>
        <time>2025-02-15T13:24:48.000Z</time>
      </trkpt>
      <trkpt lat="44.09168" lon="3.31725">
        <ele>865.7</ele>
        <time>2025-02-15T13:24:52.000Z</time>
      </trkpt>
      <trkpt lat="44.09165" lon="3.31739">
        <ele>866.7</ele>
        <time>2025-02-15T13:24:56.000Z</time>
      </trkpt>
      <trkpt lat="44.09161" lon="3.31752">
        <ele>867.7</ele>
        <time>2025-02-15T13:25:00.000Z</time>
      </trkpt>
      <trkpt lat="44.09158" lon="3.31765">
        <ele>868.8</ele>
        <time>2025-02-15T13:25:04.000Z</time>
      </trkpt>
      <trkpt lat="44.09155" lon="3.31778">
        <ele>869.7</ele>
        <time>2025-02-15T13:25:08.000Z</time>
      </trkpt>
      <trkpt lat="44.09151" lon="3.31791">
        <ele>870.6</ele>
        <time>2025-02-15T13:25:12.000Z</time>
      </trkpt>
      <trkpt lat="44.09147" lon="3.31804">
        <ele>871.4</ele>
        <time>2025-02-15T13:25:16.000Z</time>
      </trkpt>
      <trkpt lat="44.09144" lon="3.31816">
        <ele>872.3</ele>
        <time>2025-02-15T13:25:20.000Z</time>
      </trkpt>
      <trkpt lat="44.09141" lon="3.31829">
        <ele>873.1</ele>
        <time>2025-02-15T13:25:24.000Z</time>
      </trkpt>
      <trkpt lat="44.09138" lon="3.31844">
        <ele>873.9</ele>
        <time>2025-02-15T13:25:28.000Z</time>
      </trkpt>
      <trkpt lat="44.09135" lon="3.31858">
        <ele>874.7</ele>
        <time>2025-02-15T13:25:32.000Z</time>
      </trkpt>
      <trkpt lat="44.09136" lon="3.31871">
        <ele>875.4</ele>
        <time>2025-02-15T13:25:36.000Z</time>
      </trkpt>
      <trkpt lat="44.09145" lon="3.31879">
        <ele>876.3</ele>
        <time>2025-02-15T13:25:41.000Z</time>
      </trkpt>
      <trkpt lat="44.09155" lon="3.31888">
        <ele>876.8</ele>
        <time>2025-02-15T13:25:45.000Z</time>
      </trkpt>
      <trkpt lat="44.09164" lon="3.31896">
        <ele>877.2</ele>
        <time>2025-02-15T13:25:48.000Z</time>
      </trkpt>
      <trkpt lat="44.09173" lon="3.31905">
        <ele>877.5</ele>
        <time>2025-02-15T13:25:51.000Z</time>
      </trkpt>
      <trkpt lat="44.0918" lon="3.31916">
        <ele>877.7</ele>
        <time>2025-02-15T13:25:54.000Z</time>
      </trkpt>
      <trkpt lat="44.09189" lon="3.31927">
        <ele>878</ele>
        <time>2025-02-15T13:25:57.000Z</time>
      </trkpt>
      <trkpt lat="44.09195" lon="3.31939">
        <ele>878.1</ele>
        <time>2025-02-15T13:26:00.000Z</time>
      </trkpt>
      <trkpt lat="44.09201" lon="3.3195">
        <ele>878.3</ele>
        <time>2025-02-15T13:26:03.000Z</time>
      </trkpt>
      <trkpt lat="44.09208" lon="3.31961">
        <ele>878.5</ele>
        <time>2025-02-15T13:26:06.000Z</time>
      </trkpt>
      <trkpt lat="44.09213" lon="3.31971">
        <ele>878.6</ele>
        <time>2025-02-15T13:26:09.000Z</time>
      </trkpt>
      <trkpt lat="44.09223" lon="3.31981">
        <ele>878.8</ele>
        <time>2025-02-15T13:26:13.000Z</time>
      </trkpt>
      <trkpt lat="44.09233" lon="3.31988">
        <ele>879</ele>
        <time>2025-02-15T13:26:17.000Z</time>
      </trkpt>
      <trkpt lat="44.09243" lon="3.31996">
        <ele>879.2</ele>
        <time>2025-02-15T13:26:21.000Z</time>
      </trkpt>
      <trkpt lat="44.09252" lon="3.32004">
        <ele>879.4</ele>
        <time>2025-02-15T13:26:25.000Z</time>
      </trkpt>
      <trkpt lat="44.09261" lon="3.32013">
        <ele>879.9</ele>
        <time>2025-02-15T13:26:29.000Z</time>
      </trkpt>
      <trkpt lat="44.09269" lon="3.32021">
        <ele>880.4</ele>
        <time>2025-02-15T13:26:33.000Z</time>
      </trkpt>
      <trkpt lat="44.09278" lon="3.32029">
        <ele>881</ele>
        <time>2025-02-15T13:26:37.000Z</time>
      </trkpt>
      <trkpt lat="44.09286" lon="3.32034">
        <ele>881.6</ele>
        <time>2025-02-15T13:26:41.000Z</time>
      </trkpt>
      <trkpt lat="44.09294" lon="3.32041">
        <ele>882.2</ele>
        <time>2025-02-15T13:26:45.000Z</time>
      </trkpt>
      <trkpt lat="44.09304" lon="3.32048">
        <ele>883.2</ele>
        <time>2025-02-15T13:26:50.000Z</time>
      </trkpt>
      <trkpt lat="44.09314" lon="3.32055">
        <ele>884.1</ele>
        <time>2025-02-15T13:26:55.000Z</time>
      </trkpt>
      <trkpt lat="44.09323" lon="3.32063">
        <ele>884.9</ele>
        <time>2025-02-15T13:27:00.000Z</time>
      </trkpt>
      <trkpt lat="44.0933" lon="3.3207">
        <ele>885.6</ele>
        <time>2025-02-15T13:27:04.000Z</time>
      </trkpt>
      <trkpt lat="44.09338" lon="3.32077">
        <ele>886.6</ele>
        <time>2025-02-15T13:27:09.000Z</time>
      </trkpt>
      <trkpt lat="44.09347" lon="3.32083">
        <ele>887.7</ele>
        <time>2025-02-15T13:27:14.000Z</time>
      </trkpt>
      <trkpt lat="44.09355" lon="3.32088">
        <ele>888.7</ele>
        <time>2025-02-15T13:27:19.000Z</time>
      </trkpt>
      <trkpt lat="44.09364" lon="3.32092">
        <ele>889.6</ele>
        <time>2025-02-15T13:27:24.000Z</time>
      </trkpt>
      <trkpt lat="44.09374" lon="3.32098">
        <ele>890.4</ele>
        <time>2025-02-15T13:27:29.000Z</time>
      </trkpt>
      <trkpt lat="44.09384" lon="3.32105">
        <ele>891.4</ele>
        <time>2025-02-15T13:27:34.000Z</time>
      </trkpt>
      <trkpt lat="44.09392" lon="3.32112">
        <ele>892.2</ele>
        <time>2025-02-15T13:27:38.000Z</time>
      </trkpt>
      <trkpt lat="44.09401" lon="3.32119">
        <ele>892.9</ele>
        <time>2025-02-15T13:27:42.000Z</time>
      </trkpt>
      <trkpt lat="44.0941" lon="3.32127">
        <ele>893.7</ele>
        <time>2025-02-15T13:27:46.000Z</time>
      </trkpt>
      <trkpt lat="44.09419" lon="3.32135">
        <ele>894.5</ele>
        <time>2025-02-15T13:27:50.000Z</time>
      </trkpt>
      <trkpt lat="44.09428" lon="3.32142">
        <ele>895.4</ele>
        <time>2025-02-15T13:27:54.000Z</time>
      </trkpt>
      <trkpt lat="44.09436" lon="3.32151">
        <ele>896.3</ele>
        <time>2025-02-15T13:27:58.000Z</time>
      </trkpt>
      <trkpt lat="44.09445" lon="3.32159">
        <ele>897.2</ele>
        <time>2025-02-15T13:28:02.000Z</time>
      </trkpt>
      <trkpt lat="44.09453" lon="3.3217">
        <ele>898</ele>
        <time>2025-02-15T13:28:06.000Z</time>
      </trkpt>
      <trkpt lat="44.09462" lon="3.32179">
        <ele>898.8</ele>
        <time>2025-02-15T13:28:10.000Z</time>
      </trkpt>
      <trkpt lat="44.09471" lon="3.32187">
        <ele>899.5</ele>
        <time>2025-02-15T13:28:14.000Z</time>
      </trkpt>
      <trkpt lat="44.0948" lon="3.32193">
        <ele>899.9</ele>
        <time>2025-02-15T13:28:17.000Z</time>
      </trkpt>
      <trkpt lat="44.09489" lon="3.32198">
        <ele>900.3</ele>
        <time>2025-02-15T13:28:20.000Z</time>
      </trkpt>
      <trkpt lat="44.09497" lon="3.32206">
        <ele>900.6</ele>
        <time>2025-02-15T13:28:23.000Z</time>
      </trkpt>
      <trkpt lat="44.09505" lon="3.32213">
        <ele>901</ele>
        <time>2025-02-15T13:28:26.000Z</time>
      </trkpt>
      <trkpt lat="44.09514" lon="3.32221">
        <ele>901.4</ele>
        <time>2025-02-15T13:28:30.000Z</time>
      </trkpt>
      <trkpt lat="44.09524" lon="3.3223">
        <ele>901.6</ele>
        <time>2025-02-15T13:28:33.000Z</time>
      </trkpt>
      <trkpt lat="44.0953" lon="3.32239">
        <ele>901.6</ele>
        <time>2025-02-15T13:28:35.000Z</time>
      </trkpt>
      <trkpt lat="44.09538" lon="3.32249">
        <ele>901.6</ele>
        <time>2025-02-15T13:28:37.000Z</time>
      </trkpt>
      <trkpt lat="44.09547" lon="3.32259">
        <ele>901.4</ele>
        <time>2025-02-15T13:28:39.000Z</time>
      </trkpt>
      <trkpt lat="44.09559" lon="3.32263">
        <ele>901.1</ele>
        <time>2025-02-15T13:28:41.000Z</time>
      </trkpt>
      <trkpt lat="44.09575" lon="3.32264">
        <ele>900.7</ele>
        <time>2025-02-15T13:28:43.000Z</time>
      </trkpt>
      <trkpt lat="44.0959" lon="3.32262">
        <ele>900.3</ele>
        <time>2025-02-15T13:28:45.000Z</time>
      </trkpt>
      <trkpt lat="44.09602" lon="3.32264">
        <ele>899.9</ele>
        <time>2025-02-15T13:28:47.000Z</time>
      </trkpt>
      <trkpt lat="44.09611" lon="3.32264">
        <ele>899.4</ele>
        <time>2025-02-15T13:28:50.000Z</time>
      </trkpt>
      <trkpt lat="44.09621" lon="3.32267">
        <ele>898.9</ele>
        <time>2025-02-15T13:28:54.000Z</time>
      </trkpt>
      <trkpt lat="44.0963" lon="3.32266">
        <ele>898.6</ele>
        <time>2025-02-15T13:28:58.000Z</time>
      </trkpt>
      <trkpt lat="44.09639" lon="3.32271">
        <ele>898.6</ele>
        <time>2025-02-15T13:29:02.000Z</time>
      </trkpt>
      <trkpt lat="44.09647" lon="3.3228">
        <ele>898.7</ele>
        <time>2025-02-15T13:29:07.000Z</time>
      </trkpt>
      <trkpt lat="44.09656" lon="3.32289">
        <ele>898.8</ele>
        <time>2025-02-15T13:29:11.000Z</time>
      </trkpt>
      <trkpt lat="44.09665" lon="3.32291">
        <ele>899.1</ele>
        <time>2025-02-15T13:29:15.000Z</time>
      </trkpt>
      <trkpt lat="44.09674" lon="3.32294">
        <ele>899.6</ele>
        <time>2025-02-15T13:29:19.000Z</time>
      </trkpt>
      <trkpt lat="44.09684" lon="3.323">
        <ele>900.2</ele>
        <time>2025-02-15T13:29:24.000Z</time>
      </trkpt>
      <trkpt lat="44.09691" lon="3.32312">
        <ele>900.8</ele>
        <time>2025-02-15T13:29:29.000Z</time>
      </trkpt>
      <trkpt lat="44.09698" lon="3.32325">
        <ele>901.3</ele>
        <time>2025-02-15T13:29:33.000Z</time>
      </trkpt>
      <trkpt lat="44.09705" lon="3.32338">
        <ele>901.7</ele>
        <time>2025-02-15T13:29:37.000Z</time>
      </trkpt>
      <trkpt lat="44.09712" lon="3.32351">
        <ele>902.1</ele>
        <time>2025-02-15T13:29:41.000Z</time>
      </trkpt>
      <trkpt lat="44.09716" lon="3.32365">
        <ele>902.4</ele>
        <time>2025-02-15T13:29:45.000Z</time>
      </trkpt>
      <trkpt lat="44.09717" lon="3.32378">
        <ele>902.6</ele>
        <time>2025-02-15T13:29:48.000Z</time>
      </trkpt>
      <trkpt lat="44.0972" lon="3.3239">
        <ele>902.7</ele>
        <time>2025-02-15T13:29:51.000Z</time>
      </trkpt>
      <trkpt lat="44.09727" lon="3.32402">
        <ele>903</ele>
        <time>2025-02-15T13:29:55.000Z</time>
      </trkpt>
      <trkpt lat="44.09727" lon="3.32418">
        <ele>903.2</ele>
        <time>2025-02-15T13:29:59.000Z</time>
      </trkpt>
      <trkpt lat="44.0973" lon="3.32431">
        <ele>903.3</ele>
        <time>2025-02-15T13:30:02.000Z</time>
      </trkpt>
      <trkpt lat="44.09735" lon="3.32443">
        <ele>903.4</ele>
        <time>2025-02-15T13:30:05.000Z</time>
      </trkpt>
      <trkpt lat="44.09741" lon="3.32455">
        <ele>903.4</ele>
        <time>2025-02-15T13:30:08.000Z</time>
      </trkpt>
      <trkpt lat="44.09746" lon="3.3247">
        <ele>903.4</ele>
        <time>2025-02-15T13:30:11.000Z</time>
      </trkpt>
      <trkpt lat="44.09752" lon="3.3248">
        <ele>903.3</ele>
        <time>2025-02-15T13:30:14.000Z</time>
      </trkpt>
      <trkpt lat="44.09758" lon="3.32492">
        <ele>903.1</ele>
        <time>2025-02-15T13:30:18.000Z</time>
      </trkpt>
      <trkpt lat="44.09761" lon="3.32506">
        <ele>902.7</ele>
        <time>2025-02-15T13:30:23.000Z</time>
      </trkpt>
      <trkpt lat="44.09756" lon="3.32518">
        <ele>902.3</ele>
        <time>2025-02-15T13:30:30.000Z</time>
      </trkpt>
      <trkpt lat="44.0976" lon="3.32531">
        <ele>902.2</ele>
        <time>2025-02-15T13:30:35.000Z</time>
      </trkpt>
      <trkpt lat="44.09765" lon="3.32543">
        <ele>902.1</ele>
        <time>2025-02-15T13:30:40.000Z</time>
      </trkpt>
      <trkpt lat="44.0977" lon="3.32554">
        <ele>902</ele>
        <time>2025-02-15T13:30:45.000Z</time>
      </trkpt>
      <trkpt lat="44.09775" lon="3.32566">
        <ele>902</ele>
        <time>2025-02-15T13:30:49.000Z</time>
      </trkpt>
      <trkpt lat="44.09781" lon="3.32577">
        <ele>901.8</ele>
        <time>2025-02-15T13:30:54.000Z</time>
      </trkpt>
      <trkpt lat="44.09784" lon="3.3259">
        <ele>901.7</ele>
        <time>2025-02-15T13:31:00.000Z</time>
      </trkpt>
      <trkpt lat="44.09788" lon="3.32602">
        <ele>901.7</ele>
        <time>2025-02-15T13:31:05.000Z</time>
      </trkpt>
      <trkpt lat="44.09793" lon="3.32614">
        <ele>901.7</ele>
        <time>2025-02-15T13:31:09.000Z</time>
      </trkpt>
      <trkpt lat="44.098" lon="3.32627">
        <ele>901.7</ele>
        <time>2025-02-15T13:31:13.000Z</time>
      </trkpt>
      <trkpt lat="44.09806" lon="3.32638">
        <ele>901.6</ele>
        <time>2025-02-15T13:31:16.000Z</time>
      </trkpt>
      <trkpt lat="44.09809" lon="3.32651">
        <ele>901.5</ele>
        <time>2025-02-15T13:31:20.000Z</time>
      </trkpt>
      <trkpt lat="44.09818" lon="3.32656">
        <ele>901.4</ele>
        <time>2025-02-15T13:31:24.000Z</time>
      </trkpt>
      <trkpt lat="44.09828" lon="3.32662">
        <ele>901.4</ele>
        <time>2025-02-15T13:31:28.000Z</time>
      </trkpt>
      <trkpt lat="44.09837" lon="3.3267">
        <ele>901.5</ele>
        <time>2025-02-15T13:31:32.000Z</time>
      </trkpt>
      <trkpt lat="44.09846" lon="3.3268">
        <ele>901.5</ele>
        <time>2025-02-15T13:31:36.000Z</time>
      </trkpt>
      <trkpt lat="44.09854" lon="3.32689">
        <ele>901.6</ele>
        <time>2025-02-15T13:31:39.000Z</time>
      </trkpt>
      <trkpt lat="44.09862" lon="3.32698">
        <ele>901.7</ele>
        <time>2025-02-15T13:31:42.000Z</time>
      </trkpt>
      <trkpt lat="44.0987" lon="3.32709">
        <ele>901.7</ele>
        <time>2025-02-15T13:31:45.000Z</time>
      </trkpt>
      <trkpt lat="44.09878" lon="3.32721">
        <ele>901.7</ele>
        <time>2025-02-15T13:31:48.000Z</time>
      </trkpt>
      <trkpt lat="44.09884" lon="3.32733">
        <ele>901.7</ele>
        <time>2025-02-15T13:31:51.000Z</time>
      </trkpt>
      <trkpt lat="44.09893" lon="3.32743">
        <ele>901.5</ele>
        <time>2025-02-15T13:31:54.000Z</time>
      </trkpt>
      <trkpt lat="44.09902" lon="3.32753">
        <ele>901.4</ele>
        <time>2025-02-15T13:31:57.000Z</time>
      </trkpt>
      <trkpt lat="44.0991" lon="3.32763">
        <ele>901.1</ele>
        <time>2025-02-15T13:32:00.000Z</time>
      </trkpt>
      <trkpt lat="44.09919" lon="3.32776">
        <ele>900.9</ele>
        <time>2025-02-15T13:32:03.000Z</time>
      </trkpt>
      <trkpt lat="44.09928" lon="3.32789">
        <ele>900.7</ele>
        <time>2025-02-15T13:32:06.000Z</time>
      </trkpt>
      <trkpt lat="44.09938" lon="3.32801">
        <ele>900.5</ele>
        <time>2025-02-15T13:32:09.000Z</time>
      </trkpt>
      <trkpt lat="44.09946" lon="3.3281">
        <ele>900.3</ele>
        <time>2025-02-15T13:32:11.000Z</time>
      </trkpt>
      <trkpt lat="44.09953" lon="3.32819">
        <ele>900.2</ele>
        <time>2025-02-15T13:32:13.000Z</time>
      </trkpt>
      <trkpt lat="44.0996" lon="3.32828">
        <ele>900.2</ele>
        <time>2025-02-15T13:32:15.000Z</time>
      </trkpt>
      <trkpt lat="44.09967" lon="3.32838">
        <ele>900.1</ele>
        <time>2025-02-15T13:32:17.000Z</time>
      </trkpt>
      <trkpt lat="44.09974" lon="3.32848">
        <ele>900</ele>
        <time>2025-02-15T13:32:19.000Z</time>
      </trkpt>
      <trkpt lat="44.0998" lon="3.32858">
        <ele>900</ele>
        <time>2025-02-15T13:32:21.000Z</time>
      </trkpt>
      <trkpt lat="44.09987" lon="3.32867">
        <ele>900</ele>
        <time>2025-02-15T13:32:23.000Z</time>
      </trkpt>
      <trkpt lat="44.09996" lon="3.32879">
        <ele>900</ele>
        <time>2025-02-15T13:32:26.000Z</time>
      </trkpt>
      <trkpt lat="44.10006" lon="3.32891">
        <ele>900</ele>
        <time>2025-02-15T13:32:29.000Z</time>
      </trkpt>
      <trkpt lat="44.10015" lon="3.32902">
        <ele>900.3</ele>
        <time>2025-02-15T13:32:32.000Z</time>
      </trkpt>
      <trkpt lat="44.10024" lon="3.32914">
        <ele>900.6</ele>
        <time>2025-02-15T13:32:35.000Z</time>
      </trkpt>
      <trkpt lat="44.10032" lon="3.32926">
        <ele>901</ele>
        <time>2025-02-15T13:32:38.000Z</time>
      </trkpt>
      <trkpt lat="44.10041" lon="3.32936">
        <ele>901.5</ele>
        <time>2025-02-15T13:32:41.000Z</time>
      </trkpt>
      <trkpt lat="44.1005" lon="3.32944">
        <ele>902</ele>
        <time>2025-02-15T13:32:44.000Z</time>
      </trkpt>
      <trkpt lat="44.10059" lon="3.32952">
        <ele>902.5</ele>
        <time>2025-02-15T13:32:48.000Z</time>
      </trkpt>
      <trkpt lat="44.10066" lon="3.32959">
        <ele>903.1</ele>
        <time>2025-02-15T13:32:52.000Z</time>
      </trkpt>
      <trkpt lat="44.10074" lon="3.32968">
        <ele>903.5</ele>
        <time>2025-02-15T13:32:56.000Z</time>
      </trkpt>
      <trkpt lat="44.1008" lon="3.32978">
        <ele>903.9</ele>
        <time>2025-02-15T13:33:00.000Z</time>
      </trkpt>
      <trkpt lat="44.10089" lon="3.32989">
        <ele>904.3</ele>
        <time>2025-02-15T13:33:04.000Z</time>
      </trkpt>
      <trkpt lat="44.10096" lon="3.32997">
        <ele>904.5</ele>
        <time>2025-02-15T13:33:07.000Z</time>
      </trkpt>
      <trkpt lat="44.10104" lon="3.33006">
        <ele>904.7</ele>
        <time>2025-02-15T13:33:10.000Z</time>
      </trkpt>
      <trkpt lat="44.10115" lon="3.33013">
        <ele>904.8</ele>
        <time>2025-02-15T13:33:13.000Z</time>
      </trkpt>
      <trkpt lat="44.10126" lon="3.33019">
        <ele>904.8</ele>
        <time>2025-02-15T13:33:16.000Z</time>
      </trkpt>
      <trkpt lat="44.10138" lon="3.33027">
        <ele>904.7</ele>
        <time>2025-02-15T13:33:19.000Z</time>
      </trkpt>
      <trkpt lat="44.10146" lon="3.33034">
        <ele>904.6</ele>
        <time>2025-02-15T13:33:21.000Z</time>
      </trkpt>
      <trkpt lat="44.10155" lon="3.3304">
        <ele>904.5</ele>
        <time>2025-02-15T13:33:23.000Z</time>
      </trkpt>
      <trkpt lat="44.10163" lon="3.33047">
        <ele>904.3</ele>
        <time>2025-02-15T13:33:25.000Z</time>
      </trkpt>
      <trkpt lat="44.10172" lon="3.33057">
        <ele>904.1</ele>
        <time>2025-02-15T13:33:28.000Z</time>
      </trkpt>
      <trkpt lat="44.10178" lon="3.33068">
        <ele>904</ele>
        <time>2025-02-15T13:33:31.000Z</time>
      </trkpt>
      <trkpt lat="44.10183" lon="3.33082">
        <ele>903.9</ele>
        <time>2025-02-15T13:33:35.000Z</time>
      </trkpt>
      <trkpt lat="44.10186" lon="3.33095">
        <ele>903.8</ele>
        <time>2025-02-15T13:33:39.000Z</time>
      </trkpt>
      <trkpt lat="44.10191" lon="3.33105">
        <ele>903.9</ele>
        <time>2025-02-15T13:33:43.000Z</time>
      </trkpt>
      <trkpt lat="44.10198" lon="3.33115">
        <ele>904.1</ele>
        <time>2025-02-15T13:33:47.000Z</time>
      </trkpt>
      <trkpt lat="44.10203" lon="3.33126">
        <ele>904.5</ele>
        <time>2025-02-15T13:33:51.000Z</time>
      </trkpt>
      <trkpt lat="44.10209" lon="3.33136">
        <ele>904.9</ele>
        <time>2025-02-15T13:33:55.000Z</time>
      </trkpt>
      <trkpt lat="44.10216" lon="3.33146">
        <ele>905.3</ele>
        <time>2025-02-15T13:33:59.000Z</time>
      </trkpt>
      <trkpt lat="44.10222" lon="3.33158">
        <ele>906.1</ele>
        <time>2025-02-15T13:34:04.000Z</time>
      </trkpt>
      <trkpt lat="44.1023" lon="3.33166">
        <ele>906.7</ele>
        <time>2025-02-15T13:34:09.000Z</time>
      </trkpt>
      <trkpt lat="44.10238" lon="3.33172">
        <ele>907.5</ele>
        <time>2025-02-15T13:34:14.000Z</time>
      </trkpt>
      <trkpt lat="44.10246" lon="3.33181">
        <ele>908.4</ele>
        <time>2025-02-15T13:34:19.000Z</time>
      </trkpt>
      <trkpt lat="44.10253" lon="3.3319">
        <ele>909.1</ele>
        <time>2025-02-15T13:34:24.000Z</time>
      </trkpt>
      <trkpt lat="44.10259" lon="3.33202">
        <ele>909.7</ele>
        <time>2025-02-15T13:34:29.000Z</time>
      </trkpt>
      <trkpt lat="44.10264" lon="3.33214">
        <ele>910</ele>
        <time>2025-02-15T13:34:33.000Z</time>
      </trkpt>
      <trkpt lat="44.10267" lon="3.33227">
        <ele>910.4</ele>
        <time>2025-02-15T13:34:38.000Z</time>
      </trkpt>
      <trkpt lat="44.1027" lon="3.33241">
        <ele>911</ele>
        <time>2025-02-15T13:34:45.000Z</time>
      </trkpt>
      <trkpt lat="44.10281" lon="3.33242">
        <ele>911.5</ele>
        <time>2025-02-15T13:34:50.000Z</time>
      </trkpt>
      <trkpt lat="44.10292" lon="3.33239">
        <ele>911.7</ele>
        <time>2025-02-15T13:34:54.000Z</time>
      </trkpt>
      <trkpt lat="44.10302" lon="3.33234">
        <ele>911.9</ele>
        <time>2025-02-15T13:34:57.000Z</time>
      </trkpt>
      <trkpt lat="44.1031" lon="3.33228">
        <ele>912</ele>
        <time>2025-02-15T13:35:00.000Z</time>
      </trkpt>
      <trkpt lat="44.10319" lon="3.33221">
        <ele>912.1</ele>
        <time>2025-02-15T13:35:03.000Z</time>
      </trkpt>
      <trkpt lat="44.10328" lon="3.33214">
        <ele>912.2</ele>
        <time>2025-02-15T13:35:06.000Z</time>
      </trkpt>
      <trkpt lat="44.10339" lon="3.33211">
        <ele>912.3</ele>
        <time>2025-02-15T13:35:09.000Z</time>
      </trkpt>
      <trkpt lat="44.1035" lon="3.33208">
        <ele>912.3</ele>
        <time>2025-02-15T13:35:12.000Z</time>
      </trkpt>
      <trkpt lat="44.10362" lon="3.33201">
        <ele>912.4</ele>
        <time>2025-02-15T13:35:15.000Z</time>
      </trkpt>
      <trkpt lat="44.10373" lon="3.33194">
        <ele>912.4</ele>
        <time>2025-02-15T13:35:18.000Z</time>
      </trkpt>
      <trkpt lat="44.10382" lon="3.33187">
        <ele>912.5</ele>
        <time>2025-02-15T13:35:21.000Z</time>
      </trkpt>
      <trkpt lat="44.1039" lon="3.33181">
        <ele>912.6</ele>
        <time>2025-02-15T13:35:24.000Z</time>
      </trkpt>
      <trkpt lat="44.10401" lon="3.33174">
        <ele>912.9</ele>
        <time>2025-02-15T13:35:28.000Z</time>
      </trkpt>
      <trkpt lat="44.10409" lon="3.33169">
        <ele>913.2</ele>
        <time>2025-02-15T13:35:32.000Z</time>
      </trkpt>
      <trkpt lat="44.10419" lon="3.33169">
        <ele>913.6</ele>
        <time>2025-02-15T13:35:36.000Z</time>
      </trkpt>
      <trkpt lat="44.10428" lon="3.33176">
        <ele>913.9</ele>
        <time>2025-02-15T13:35:40.000Z</time>
      </trkpt>
      <trkpt lat="44.10438" lon="3.3318">
        <ele>914.3</ele>
        <time>2025-02-15T13:35:44.000Z</time>
      </trkpt>
      <trkpt lat="44.10447" lon="3.33184">
        <ele>914.5</ele>
        <time>2025-02-15T13:35:48.000Z</time>
      </trkpt>
      <trkpt lat="44.10454" lon="3.33197">
        <ele>914.8</ele>
        <time>2025-02-15T13:35:52.000Z</time>
      </trkpt>
      <trkpt lat="44.10459" lon="3.33209">
        <ele>914.9</ele>
        <time>2025-02-15T13:35:55.000Z</time>
      </trkpt>
      <trkpt lat="44.10464" lon="3.3322">
        <ele>915</ele>
        <time>2025-02-15T13:35:58.000Z</time>
      </trkpt>
      <trkpt lat="44.10472" lon="3.33229">
        <ele>915.2</ele>
        <time>2025-02-15T13:36:01.000Z</time>
      </trkpt>
      <trkpt lat="44.10477" lon="3.33241">
        <ele>915.3</ele>
        <time>2025-02-15T13:36:04.000Z</time>
      </trkpt>
      <trkpt lat="44.10479" lon="3.33255">
        <ele>915.4</ele>
        <time>2025-02-15T13:36:07.000Z</time>
      </trkpt>
      <trkpt lat="44.10481" lon="3.33269">
        <ele>915.5</ele>
        <time>2025-02-15T13:36:10.000Z</time>
      </trkpt>
      <trkpt lat="44.10483" lon="3.33282">
        <ele>915.5</ele>
        <time>2025-02-15T13:36:13.000Z</time>
      </trkpt>
      <trkpt lat="44.10485" lon="3.33297">
        <ele>915.6</ele>
        <time>2025-02-15T13:36:16.000Z</time>
      </trkpt>
      <trkpt lat="44.10488" lon="3.33311">
        <ele>915.7</ele>
        <time>2025-02-15T13:36:19.000Z</time>
      </trkpt>
      <trkpt lat="44.10491" lon="3.33323">
        <ele>915.8</ele>
        <time>2025-02-15T13:36:22.000Z</time>
      </trkpt>
      <trkpt lat="44.10494" lon="3.33337">
        <ele>916</ele>
        <time>2025-02-15T13:36:25.000Z</time>
      </trkpt>
      <trkpt lat="44.10497" lon="3.33351">
        <ele>916.1</ele>
        <time>2025-02-15T13:36:28.000Z</time>
      </trkpt>
      <trkpt lat="44.105" lon="3.33367">
        <ele>916.2</ele>
        <time>2025-02-15T13:36:31.000Z</time>
      </trkpt>
      <trkpt lat="44.10503" lon="3.33383">
        <ele>916.3</ele>
        <time>2025-02-15T13:36:34.000Z</time>
      </trkpt>
      <trkpt lat="44.10505" lon="3.334">
        <ele>916.4</ele>
        <time>2025-02-15T13:36:37.000Z</time>
      </trkpt>
      <trkpt lat="44.10509" lon="3.33415">
        <ele>916.5</ele>
        <time>2025-02-15T13:36:40.000Z</time>
      </trkpt>
      <trkpt lat="44.10513" lon="3.33429">
        <ele>916.6</ele>
        <time>2025-02-15T13:36:43.000Z</time>
      </trkpt>
      <trkpt lat="44.1052" lon="3.33441">
        <ele>916.7</ele>
        <time>2025-02-15T13:36:46.000Z</time>
      </trkpt>
      <trkpt lat="44.10528" lon="3.33451">
        <ele>916.7</ele>
        <time>2025-02-15T13:36:49.000Z</time>
      </trkpt>
      <trkpt lat="44.10536" lon="3.33459">
        <ele>916.8</ele>
        <time>2025-02-15T13:36:52.000Z</time>
      </trkpt>
      <trkpt lat="44.10545" lon="3.33467">
        <ele>916.8</ele>
        <time>2025-02-15T13:36:55.000Z</time>
      </trkpt>
      <trkpt lat="44.10555" lon="3.33477">
        <ele>916.9</ele>
        <time>2025-02-15T13:36:58.000Z</time>
      </trkpt>
      <trkpt lat="44.10565" lon="3.33485">
        <ele>916.9</ele>
        <time>2025-02-15T13:37:01.000Z</time>
      </trkpt>
      <trkpt lat="44.10575" lon="3.33496">
        <ele>917</ele>
        <time>2025-02-15T13:37:04.000Z</time>
      </trkpt>
      <trkpt lat="44.10585" lon="3.33507">
        <ele>917</ele>
        <time>2025-02-15T13:37:07.000Z</time>
      </trkpt>
      <trkpt lat="44.10595" lon="3.33518">
        <ele>917</ele>
        <time>2025-02-15T13:37:10.000Z</time>
      </trkpt>
      <trkpt lat="44.10605" lon="3.33529">
        <ele>917</ele>
        <time>2025-02-15T13:37:13.000Z</time>
      </trkpt>
      <trkpt lat="44.10614" lon="3.33538">
        <ele>917.1</ele>
        <time>2025-02-15T13:37:16.000Z</time>
      </trkpt>
      <trkpt lat="44.10622" lon="3.33547">
        <ele>917.1</ele>
        <time>2025-02-15T13:37:19.000Z</time>
      </trkpt>
      <trkpt lat="44.1063" lon="3.33556">
        <ele>917.2</ele>
        <time>2025-02-15T13:37:22.000Z</time>
      </trkpt>
      <trkpt lat="44.10638" lon="3.33565">
        <ele>917.3</ele>
        <time>2025-02-15T13:37:25.000Z</time>
      </trkpt>
      <trkpt lat="44.10647" lon="3.33574">
        <ele>917.4</ele>
        <time>2025-02-15T13:37:28.000Z</time>
      </trkpt>
      <trkpt lat="44.10655" lon="3.33583">
        <ele>917.7</ele>
        <time>2025-02-15T13:37:31.000Z</time>
      </trkpt>
      <trkpt lat="44.10663" lon="3.33592">
        <ele>918</ele>
        <time>2025-02-15T13:37:34.000Z</time>
      </trkpt>
      <trkpt lat="44.10672" lon="3.33601">
        <ele>918.2</ele>
        <time>2025-02-15T13:37:37.000Z</time>
      </trkpt>
      <trkpt lat="44.1068" lon="3.33609">
        <ele>918.4</ele>
        <time>2025-02-15T13:37:40.000Z</time>
      </trkpt>
      <trkpt lat="44.10687" lon="3.33618">
        <ele>918.7</ele>
        <time>2025-02-15T13:37:43.000Z</time>
      </trkpt>
      <trkpt lat="44.10696" lon="3.33627">
        <ele>918.9</ele>
        <time>2025-02-15T13:37:46.000Z</time>
      </trkpt>
      <trkpt lat="44.10705" lon="3.33635">
        <ele>919.2</ele>
        <time>2025-02-15T13:37:49.000Z</time>
      </trkpt>
      <trkpt lat="44.10714" lon="3.33644">
        <ele>919.4</ele>
        <time>2025-02-15T13:37:52.000Z</time>
      </trkpt>
      <trkpt lat="44.10723" lon="3.33655">
        <ele>919.6</ele>
        <time>2025-02-15T13:37:55.000Z</time>
      </trkpt>
      <trkpt lat="44.10733" lon="3.33666">
        <ele>919.7</ele>
        <time>2025-02-15T13:37:58.000Z</time>
      </trkpt>
      <trkpt lat="44.10743" lon="3.33676">
        <ele>919.9</ele>
        <time>2025-02-15T13:38:01.000Z</time>
      </trkpt>
      <trkpt lat="44.10753" lon="3.33686">
        <ele>920</ele>
        <time>2025-02-15T13:38:04.000Z</time>
      </trkpt>
      <trkpt lat="44.10763" lon="3.33697">
        <ele>920</ele>
        <time>2025-02-15T13:38:07.000Z</time>
      </trkpt>
      <trkpt lat="44.10773" lon="3.33707">
        <ele>920.1</ele>
        <time>2025-02-15T13:38:10.000Z</time>
      </trkpt>
      <trkpt lat="44.10783" lon="3.33716">
        <ele>920.2</ele>
        <time>2025-02-15T13:38:13.000Z</time>
      </trkpt>
      <trkpt lat="44.1079" lon="3.33725">
        <ele>920.2</ele>
        <time>2025-02-15T13:38:17.000Z</time>
      </trkpt>
      <trkpt lat="44.10797" lon="3.33733">
        <ele>920.3</ele>
        <time>2025-02-15T13:38:21.000Z</time>
      </trkpt>
      <trkpt lat="44.10804" lon="3.33743">
        <ele>920.3</ele>
        <time>2025-02-15T13:38:25.000Z</time>
      </trkpt>
      <trkpt lat="44.10812" lon="3.33753">
        <ele>920.3</ele>
        <time>2025-02-15T13:38:29.000Z</time>
      </trkpt>
      <trkpt lat="44.1082" lon="3.33763">
        <ele>920.4</ele>
        <time>2025-02-15T13:38:33.000Z</time>
      </trkpt>
      <trkpt lat="44.10827" lon="3.33771">
        <ele>920.4</ele>
        <time>2025-02-15T13:38:36.000Z</time>
      </trkpt>
      <trkpt lat="44.10833" lon="3.33781">
        <ele>920.4</ele>
        <time>2025-02-15T13:38:39.000Z</time>
      </trkpt>
      <trkpt lat="44.1084" lon="3.33789">
        <ele>920.4</ele>
        <time>2025-02-15T13:38:42.000Z</time>
      </trkpt>
      <trkpt lat="44.10846" lon="3.33799">
        <ele>920.4</ele>
        <time>2025-02-15T13:38:45.000Z</time>
      </trkpt>
      <trkpt lat="44.10852" lon="3.33809">
        <ele>920.4</ele>
        <time>2025-02-15T13:38:48.000Z</time>
      </trkpt>
      <trkpt lat="44.10858" lon="3.33818">
        <ele>920.4</ele>
        <time>2025-02-15T13:38:51.000Z</time>
      </trkpt>
      <trkpt lat="44.10863" lon="3.33834">
        <ele>920.4</ele>
        <time>2025-02-15T13:38:55.000Z</time>
      </trkpt>
      <trkpt lat="44.10867" lon="3.33847">
        <ele>920.4</ele>
        <time>2025-02-15T13:38:59.000Z</time>
      </trkpt>
      <trkpt lat="44.10875" lon="3.33853">
        <ele>920.4</ele>
        <time>2025-02-15T13:39:04.000Z</time>
      </trkpt>
      <trkpt lat="44.10885" lon="3.33853">
        <ele>920.4</ele>
        <time>2025-02-15T13:39:08.000Z</time>
      </trkpt>
      <trkpt lat="44.10894" lon="3.33854">
        <ele>920.5</ele>
        <time>2025-02-15T13:39:12.000Z</time>
      </trkpt>
      <trkpt lat="44.10905" lon="3.33856">
        <ele>920.6</ele>
        <time>2025-02-15T13:39:16.000Z</time>
      </trkpt>
      <trkpt lat="44.10915" lon="3.33857">
        <ele>920.6</ele>
        <time>2025-02-15T13:39:20.000Z</time>
      </trkpt>
      <trkpt lat="44.10926" lon="3.3386">
        <ele>920.7</ele>
        <time>2025-02-15T13:39:24.000Z</time>
      </trkpt>
      <trkpt lat="44.10936" lon="3.33859">
        <ele>920.6</ele>
        <time>2025-02-15T13:39:27.000Z</time>
      </trkpt>
      <trkpt lat="44.10947" lon="3.33858">
        <ele>920.6</ele>
        <time>2025-02-15T13:39:30.000Z</time>
      </trkpt>
      <trkpt lat="44.10956" lon="3.33865">
        <ele>920.5</ele>
        <time>2025-02-15T13:39:32.000Z</time>
      </trkpt>
      <trkpt lat="44.10957" lon="3.33879">
        <ele>920.5</ele>
        <time>2025-02-15T13:39:34.000Z</time>
      </trkpt>
      <trkpt lat="44.10957" lon="3.33893">
        <ele>920.4</ele>
        <time>2025-02-15T13:39:36.000Z</time>
      </trkpt>
      <trkpt lat="44.10958" lon="3.33907">
        <ele>920.4</ele>
        <time>2025-02-15T13:39:38.000Z</time>
      </trkpt>
      <trkpt lat="44.1096" lon="3.33921">
        <ele>920.4</ele>
        <time>2025-02-15T13:39:40.000Z</time>
      </trkpt>
      <trkpt lat="44.10963" lon="3.33934">
        <ele>920.3</ele>
        <time>2025-02-15T13:39:42.000Z</time>
      </trkpt>
      <trkpt lat="44.10968" lon="3.33945">
        <ele>920.3</ele>
        <time>2025-02-15T13:39:44.000Z</time>
      </trkpt>
      <trkpt lat="44.10974" lon="3.33957">
        <ele>920.3</ele>
        <time>2025-02-15T13:39:46.000Z</time>
      </trkpt>
      <trkpt lat="44.10979" lon="3.33968">
        <ele>920.3</ele>
        <time>2025-02-15T13:39:48.000Z</time>
      </trkpt>
      <trkpt lat="44.10985" lon="3.33979">
        <ele>920.3</ele>
        <time>2025-02-15T13:39:50.000Z</time>
      </trkpt>
      <trkpt lat="44.1099" lon="3.33991">
        <ele>920.2</ele>
        <time>2025-02-15T13:39:52.000Z</time>
      </trkpt>
      <trkpt lat="44.10996" lon="3.34001">
        <ele>920.2</ele>
        <time>2025-02-15T13:39:54.000Z</time>
      </trkpt>
      <trkpt lat="44.11002" lon="3.34012">
        <ele>920.2</ele>
        <time>2025-02-15T13:39:56.000Z</time>
      </trkpt>
      <trkpt lat="44.11007" lon="3.34023">
        <ele>920.1</ele>
        <time>2025-02-15T13:39:58.000Z</time>
      </trkpt>
      <trkpt lat="44.11013" lon="3.34034">
        <ele>920.1</ele>
        <time>2025-02-15T13:40:00.000Z</time>
      </trkpt>
      <trkpt lat="44.11018" lon="3.34045">
        <ele>920.1</ele>
        <time>2025-02-15T13:40:02.000Z</time>
      </trkpt>
      <trkpt lat="44.11023" lon="3.34056">
        <ele>920</ele>
        <time>2025-02-15T13:40:04.000Z</time>
      </trkpt>
      <trkpt lat="44.11029" lon="3.34068">
        <ele>920</ele>
        <time>2025-02-15T13:40:06.000Z</time>
      </trkpt>
      <trkpt lat="44.11033" lon="3.3408">
        <ele>920</ele>
        <time>2025-02-15T13:40:08.000Z</time>
      </trkpt>
      <trkpt lat="44.11036" lon="3.34093">
        <ele>920</ele>
        <time>2025-02-15T13:40:10.000Z</time>
      </trkpt>
      <trkpt lat="44.11039" lon="3.34106">
        <ele>919.9</ele>
        <time>2025-02-15T13:40:12.000Z</time>
      </trkpt>
      <trkpt lat="44.11042" lon="3.34119">
        <ele>919.9</ele>
        <time>2025-02-15T13:40:14.000Z</time>
      </trkpt>
      <trkpt lat="44.11045" lon="3.34133">
        <ele>919.9</ele>
        <time>2025-02-15T13:40:16.000Z</time>
      </trkpt>
      <trkpt lat="44.1105" lon="3.34146">
        <ele>919.9</ele>
        <time>2025-02-15T13:40:18.000Z</time>
      </trkpt>
      <trkpt lat="44.11056" lon="3.34158">
        <ele>919.9</ele>
        <time>2025-02-15T13:40:20.000Z</time>
      </trkpt>
      <trkpt lat="44.11062" lon="3.34168">
        <ele>919.9</ele>
        <time>2025-02-15T13:40:22.000Z</time>
      </trkpt>
      <trkpt lat="44.11069" lon="3.34179">
        <ele>919.9</ele>
        <time>2025-02-15T13:40:24.000Z</time>
      </trkpt>
      <trkpt lat="44.11076" lon="3.34189">
        <ele>919.9</ele>
        <time>2025-02-15T13:40:26.000Z</time>
      </trkpt>
      <trkpt lat="44.11082" lon="3.34198">
        <ele>919.8</ele>
        <time>2025-02-15T13:40:28.000Z</time>
      </trkpt>
      <trkpt lat="44.11089" lon="3.34207">
        <ele>919.8</ele>
        <time>2025-02-15T13:40:30.000Z</time>
      </trkpt>
      <trkpt lat="44.11098" lon="3.34221">
        <ele>919.8</ele>
        <time>2025-02-15T13:40:33.000Z</time>
      </trkpt>
      <trkpt lat="44.11105" lon="3.34229">
        <ele>919.8</ele>
        <time>2025-02-15T13:40:35.000Z</time>
      </trkpt>
      <trkpt lat="44.11111" lon="3.34239">
        <ele>919.8</ele>
        <time>2025-02-15T13:40:37.000Z</time>
      </trkpt>
      <trkpt lat="44.11117" lon="3.34249">
        <ele>919.8</ele>
        <time>2025-02-15T13:40:39.000Z</time>
      </trkpt>
      <trkpt lat="44.11123" lon="3.34259">
        <ele>919.9</ele>
        <time>2025-02-15T13:40:41.000Z</time>
      </trkpt>
      <trkpt lat="44.11128" lon="3.3427">
        <ele>919.9</ele>
        <time>2025-02-15T13:40:43.000Z</time>
      </trkpt>
      <trkpt lat="44.11132" lon="3.34281">
        <ele>919.9</ele>
        <time>2025-02-15T13:40:45.000Z</time>
      </trkpt>
      <trkpt lat="44.11135" lon="3.34294">
        <ele>919.9</ele>
        <time>2025-02-15T13:40:47.000Z</time>
      </trkpt>
      <trkpt lat="44.11139" lon="3.34305">
        <ele>920</ele>
        <time>2025-02-15T13:40:49.000Z</time>
      </trkpt>
      <trkpt lat="44.11145" lon="3.34322">
        <ele>920</ele>
        <time>2025-02-15T13:40:52.000Z</time>
      </trkpt>
      <trkpt lat="44.1115" lon="3.34339">
        <ele>920</ele>
        <time>2025-02-15T13:40:55.000Z</time>
      </trkpt>
      <trkpt lat="44.11154" lon="3.34351">
        <ele>920</ele>
        <time>2025-02-15T13:40:57.000Z</time>
      </trkpt>
      <trkpt lat="44.11157" lon="3.34363">
        <ele>920.1</ele>
        <time>2025-02-15T13:40:59.000Z</time>
      </trkpt>
      <trkpt lat="44.11162" lon="3.34375">
        <ele>920.1</ele>
        <time>2025-02-15T13:41:01.000Z</time>
      </trkpt>
      <trkpt lat="44.11167" lon="3.34387">
        <ele>920.2</ele>
        <time>2025-02-15T13:41:03.000Z</time>
      </trkpt>
      <trkpt lat="44.11174" lon="3.34397">
        <ele>920.2</ele>
        <time>2025-02-15T13:41:05.000Z</time>
      </trkpt>
      <trkpt lat="44.11183" lon="3.34403">
        <ele>920.3</ele>
        <time>2025-02-15T13:41:07.000Z</time>
      </trkpt>
      <trkpt lat="44.11192" lon="3.34407">
        <ele>920.3</ele>
        <time>2025-02-15T13:41:09.000Z</time>
      </trkpt>
      <trkpt lat="44.11204" lon="3.34412">
        <ele>920.4</ele>
        <time>2025-02-15T13:41:12.000Z</time>
      </trkpt>
      <trkpt lat="44.11212" lon="3.34418">
        <ele>920.5</ele>
        <time>2025-02-15T13:41:14.000Z</time>
      </trkpt>
      <trkpt lat="44.1122" lon="3.34434">
        <ele>920.8</ele>
        <time>2025-02-15T13:41:17.000Z</time>
      </trkpt>
      <trkpt lat="44.11221" lon="3.34452">
        <ele>921.1</ele>
        <time>2025-02-15T13:41:20.000Z</time>
      </trkpt>
      <trkpt lat="44.11221" lon="3.34471">
        <ele>921.5</ele>
        <time>2025-02-15T13:41:23.000Z</time>
      </trkpt>
      <trkpt lat="44.11222" lon="3.34488">
        <ele>921.8</ele>
        <time>2025-02-15T13:41:26.000Z</time>
      </trkpt>
      <trkpt lat="44.11225" lon="3.34505">
        <ele>922.2</ele>
        <time>2025-02-15T13:41:29.000Z</time>
      </trkpt>
      <trkpt lat="44.11232" lon="3.34521">
        <ele>922.5</ele>
        <time>2025-02-15T13:41:32.000Z</time>
      </trkpt>
      <trkpt lat="44.1124" lon="3.34534">
        <ele>922.9</ele>
        <time>2025-02-15T13:41:35.000Z</time>
      </trkpt>
      <trkpt lat="44.11249" lon="3.34547">
        <ele>923.2</ele>
        <time>2025-02-15T13:41:38.000Z</time>
      </trkpt>
      <trkpt lat="44.11258" lon="3.3456">
        <ele>923.4</ele>
        <time>2025-02-15T13:41:41.000Z</time>
      </trkpt>
      <trkpt lat="44.11266" lon="3.34574">
        <ele>923.7</ele>
        <time>2025-02-15T13:41:44.000Z</time>
      </trkpt>
      <trkpt lat="44.11271" lon="3.3459">
        <ele>924.1</ele>
        <time>2025-02-15T13:41:47.000Z</time>
      </trkpt>
      <trkpt lat="44.11272" lon="3.34607">
        <ele>924.4</ele>
        <time>2025-02-15T13:41:50.000Z</time>
      </trkpt>
      <trkpt lat="44.11272" lon="3.34625">
        <ele>924.7</ele>
        <time>2025-02-15T13:41:53.000Z</time>
      </trkpt>
      <trkpt lat="44.11271" lon="3.34638">
        <ele>924.9</ele>
        <time>2025-02-15T13:41:55.000Z</time>
      </trkpt>
      <trkpt lat="44.11269" lon="3.34657">
        <ele>925.1</ele>
        <time>2025-02-15T13:41:58.000Z</time>
      </trkpt>
      <trkpt lat="44.1127" lon="3.3467">
        <ele>925.2</ele>
        <time>2025-02-15T13:42:00.000Z</time>
      </trkpt>
      <trkpt lat="44.11273" lon="3.34683">
        <ele>925.4</ele>
        <time>2025-02-15T13:42:02.000Z</time>
      </trkpt>
      <trkpt lat="44.11277" lon="3.34694">
        <ele>925.5</ele>
        <time>2025-02-15T13:42:04.000Z</time>
      </trkpt>
      <trkpt lat="44.11283" lon="3.3471">
        <ele>925.7</ele>
        <time>2025-02-15T13:42:07.000Z</time>
      </trkpt>
      <trkpt lat="44.11289" lon="3.34726">
        <ele>925.8</ele>
        <time>2025-02-15T13:42:10.000Z</time>
      </trkpt>
      <trkpt lat="44.11293" lon="3.34738">
        <ele>925.9</ele>
        <time>2025-02-15T13:42:12.000Z</time>
      </trkpt>
      <trkpt lat="44.11297" lon="3.34749">
        <ele>925.9</ele>
        <time>2025-02-15T13:42:14.000Z</time>
      </trkpt>
      <trkpt lat="44.11302" lon="3.3476">
        <ele>926</ele>
        <time>2025-02-15T13:42:16.000Z</time>
      </trkpt>
      <trkpt lat="44.11306" lon="3.34772">
        <ele>926</ele>
        <time>2025-02-15T13:42:18.000Z</time>
      </trkpt>
      <trkpt lat="44.1131" lon="3.34783">
        <ele>926.1</ele>
        <time>2025-02-15T13:42:20.000Z</time>
      </trkpt>
      <trkpt lat="44.11314" lon="3.34795">
        <ele>926.1</ele>
        <time>2025-02-15T13:42:22.000Z</time>
      </trkpt>
      <trkpt lat="44.11318" lon="3.34807">
        <ele>926.1</ele>
        <time>2025-02-15T13:42:24.000Z</time>
      </trkpt>
      <trkpt lat="44.11323" lon="3.34818">
        <ele>926.1</ele>
        <time>2025-02-15T13:42:26.000Z</time>
      </trkpt>
      <trkpt lat="44.1133" lon="3.34829">
        <ele>926.2</ele>
        <time>2025-02-15T13:42:28.000Z</time>
      </trkpt>
      <trkpt lat="44.11336" lon="3.34839">
        <ele>926.2</ele>
        <time>2025-02-15T13:42:30.000Z</time>
      </trkpt>
      <trkpt lat="44.11342" lon="3.3485">
        <ele>926.2</ele>
        <time>2025-02-15T13:42:32.000Z</time>
      </trkpt>
      <trkpt lat="44.11348" lon="3.3486">
        <ele>926.2</ele>
        <time>2025-02-15T13:42:34.000Z</time>
      </trkpt>
      <trkpt lat="44.11353" lon="3.34871">
        <ele>926.2</ele>
        <time>2025-02-15T13:42:36.000Z</time>
      </trkpt>
      <trkpt lat="44.11358" lon="3.34882">
        <ele>926.2</ele>
        <time>2025-02-15T13:42:38.000Z</time>
      </trkpt>
      <trkpt lat="44.11362" lon="3.34894">
        <ele>926.2</ele>
        <time>2025-02-15T13:42:40.000Z</time>
      </trkpt>
      <trkpt lat="44.11368" lon="3.3491">
        <ele>926.2</ele>
        <time>2025-02-15T13:42:43.000Z</time>
      </trkpt>
      <trkpt lat="44.11373" lon="3.34921">
        <ele>926.3</ele>
        <time>2025-02-15T13:42:45.000Z</time>
      </trkpt>
      <trkpt lat="44.11379" lon="3.34931">
        <ele>926.2</ele>
        <time>2025-02-15T13:42:47.000Z</time>
      </trkpt>
      <trkpt lat="44.11385" lon="3.34942">
        <ele>926.2</ele>
        <time>2025-02-15T13:42:49.000Z</time>
      </trkpt>
      <trkpt lat="44.11391" lon="3.34953">
        <ele>926.1</ele>
        <time>2025-02-15T13:42:51.000Z</time>
      </trkpt>
      <trkpt lat="44.11398" lon="3.34963">
        <ele>926.1</ele>
        <time>2025-02-15T13:42:53.000Z</time>
      </trkpt>
      <trkpt lat="44.11403" lon="3.34976">
        <ele>926</ele>
        <time>2025-02-15T13:42:55.000Z</time>
      </trkpt>
      <trkpt lat="44.11406" lon="3.34989">
        <ele>925.9</ele>
        <time>2025-02-15T13:42:57.000Z</time>
      </trkpt>
      <trkpt lat="44.11409" lon="3.35003">
        <ele>925.9</ele>
        <time>2025-02-15T13:42:59.000Z</time>
      </trkpt>
      <trkpt lat="44.11411" lon="3.35017">
        <ele>925.8</ele>
        <time>2025-02-15T13:43:01.000Z</time>
      </trkpt>
      <trkpt lat="44.11411" lon="3.35032">
        <ele>925.7</ele>
        <time>2025-02-15T13:43:03.000Z</time>
      </trkpt>
      <trkpt lat="44.11412" lon="3.35047">
        <ele>925.5</ele>
        <time>2025-02-15T13:43:05.000Z</time>
      </trkpt>
      <trkpt lat="44.11414" lon="3.35061">
        <ele>925.4</ele>
        <time>2025-02-15T13:43:07.000Z</time>
      </trkpt>
      <trkpt lat="44.11416" lon="3.35075">
        <ele>925.2</ele>
        <time>2025-02-15T13:43:09.000Z</time>
      </trkpt>
      <trkpt lat="44.11419" lon="3.35088">
        <ele>925</ele>
        <time>2025-02-15T13:43:11.000Z</time>
      </trkpt>
      <trkpt lat="44.11423" lon="3.35101">
        <ele>924.8</ele>
        <time>2025-02-15T13:43:13.000Z</time>
      </trkpt>
      <trkpt lat="44.11429" lon="3.35112">
        <ele>924.6</ele>
        <time>2025-02-15T13:43:15.000Z</time>
      </trkpt>
      <trkpt lat="44.11439" lon="3.35113">
        <ele>924.4</ele>
        <time>2025-02-15T13:43:17.000Z</time>
      </trkpt>
      <trkpt lat="44.11447" lon="3.35104">
        <ele>924.2</ele>
        <time>2025-02-15T13:43:19.000Z</time>
      </trkpt>
      <trkpt lat="44.11452" lon="3.35088">
        <ele>923.9</ele>
        <time>2025-02-15T13:43:21.000Z</time>
      </trkpt>
      <trkpt lat="44.11454" lon="3.35069">
        <ele>923.5</ele>
        <time>2025-02-15T13:43:23.000Z</time>
      </trkpt>
      <trkpt lat="44.11455" lon="3.35047">
        <ele>923.1</ele>
        <time>2025-02-15T13:43:25.000Z</time>
      </trkpt>
      <trkpt lat="44.11458" lon="3.35025">
        <ele>922.6</ele>
        <time>2025-02-15T13:43:27.000Z</time>
      </trkpt>
      <trkpt lat="44.11462" lon="3.35004">
        <ele>922</ele>
        <time>2025-02-15T13:43:29.000Z</time>
      </trkpt>
      <trkpt lat="44.11467" lon="3.34985">
        <ele>921.2</ele>
        <time>2025-02-15T13:43:31.000Z</time>
      </trkpt>
      <trkpt lat="44.11473" lon="3.3497">
        <ele>920.4</ele>
        <time>2025-02-15T13:43:33.000Z</time>
      </trkpt>
      <trkpt lat="44.11481" lon="3.3498">
        <ele>918.6</ele>
        <time>2025-02-15T13:43:37.000Z</time>
      </trkpt>
      <trkpt lat="44.11478" lon="3.34995">
        <ele>917.6</ele>
        <time>2025-02-15T13:43:39.000Z</time>
      </trkpt>
      <trkpt lat="44.11476" lon="3.35013">
        <ele>916.6</ele>
        <time>2025-02-15T13:43:41.000Z</time>
      </trkpt>
      <trkpt lat="44.11478" lon="3.35031">
        <ele>915.6</ele>
        <time>2025-02-15T13:43:43.000Z</time>
      </trkpt>
      <trkpt lat="44.11486" lon="3.3504">
        <ele>914.1</ele>
        <time>2025-02-15T13:43:46.000Z</time>
      </trkpt>
      <trkpt lat="44.11491" lon="3.35029">
        <ele>913.1</ele>
        <time>2025-02-15T13:43:48.000Z</time>
      </trkpt>
      <trkpt lat="44.11494" lon="3.35013">
        <ele>912.2</ele>
        <time>2025-02-15T13:43:50.000Z</time>
      </trkpt>
      <trkpt lat="44.11499" lon="3.34996">
        <ele>911.3</ele>
        <time>2025-02-15T13:43:52.000Z</time>
      </trkpt>
      <trkpt lat="44.11508" lon="3.3498">
        <ele>910.4</ele>
        <time>2025-02-15T13:43:54.000Z</time>
      </trkpt>
      <trkpt lat="44.11519" lon="3.34967">
        <ele>909.6</ele>
        <time>2025-02-15T13:43:56.000Z</time>
      </trkpt>
      <trkpt lat="44.11528" lon="3.34951">
        <ele>908.8</ele>
        <time>2025-02-15T13:43:58.000Z</time>
      </trkpt>
      <trkpt lat="44.11534" lon="3.34933">
        <ele>908.2</ele>
        <time>2025-02-15T13:44:00.000Z</time>
      </trkpt>
      <trkpt lat="44.11537" lon="3.34917">
        <ele>907.7</ele>
        <time>2025-02-15T13:44:02.000Z</time>
      </trkpt>
      <trkpt lat="44.11542" lon="3.34902">
        <ele>907.2</ele>
        <time>2025-02-15T13:44:04.000Z</time>
      </trkpt>
      <trkpt lat="44.11546" lon="3.34887">
        <ele>906.8</ele>
        <time>2025-02-15T13:44:06.000Z</time>
      </trkpt>
      <trkpt lat="44.11545" lon="3.34872">
        <ele>906.5</ele>
        <time>2025-02-15T13:44:08.000Z</time>
      </trkpt>
      <trkpt lat="44.11542" lon="3.34859">
        <ele>906.4</ele>
        <time>2025-02-15T13:44:10.000Z</time>
      </trkpt>
      <trkpt lat="44.11539" lon="3.34847">
        <ele>906.3</ele>
        <time>2025-02-15T13:44:12.000Z</time>
      </trkpt>
      <trkpt lat="44.11532" lon="3.34832">
        <ele>906.5</ele>
        <time>2025-02-15T13:44:15.000Z</time>
      </trkpt>
      <trkpt lat="44.11528" lon="3.34821">
        <ele>906.8</ele>
        <time>2025-02-15T13:44:18.000Z</time>
      </trkpt>
      <trkpt lat="44.11523" lon="3.34809">
        <ele>907.4</ele>
        <time>2025-02-15T13:44:22.000Z</time>
      </trkpt>
      <trkpt lat="44.11518" lon="3.34796">
        <ele>908.2</ele>
        <time>2025-02-15T13:44:26.000Z</time>
      </trkpt>
      <trkpt lat="44.11512" lon="3.34782">
        <ele>909</ele>
        <time>2025-02-15T13:44:30.000Z</time>
      </trkpt>
      <trkpt lat="44.11508" lon="3.34769">
        <ele>909.8</ele>
        <time>2025-02-15T13:44:34.000Z</time>
      </trkpt>
      <trkpt lat="44.11505" lon="3.34757">
        <ele>910.6</ele>
        <time>2025-02-15T13:44:38.000Z</time>
      </trkpt>
      <trkpt lat="44.11501" lon="3.34743">
        <ele>911.3</ele>
        <time>2025-02-15T13:44:42.000Z</time>
      </trkpt>
      <trkpt lat="44.11499" lon="3.34731">
        <ele>911.8</ele>
        <time>2025-02-15T13:44:45.000Z</time>
      </trkpt>
      <trkpt lat="44.11495" lon="3.34719">
        <ele>912.2</ele>
        <time>2025-02-15T13:44:48.000Z</time>
      </trkpt>
      <trkpt lat="44.1149" lon="3.34706">
        <ele>912.6</ele>
        <time>2025-02-15T13:44:51.000Z</time>
      </trkpt>
      <trkpt lat="44.11486" lon="3.34694">
        <ele>913</ele>
        <time>2025-02-15T13:44:54.000Z</time>
      </trkpt>
      <trkpt lat="44.11482" lon="3.34683">
        <ele>913.5</ele>
        <time>2025-02-15T13:44:57.000Z</time>
      </trkpt>
      <trkpt lat="44.11476" lon="3.34672">
        <ele>914.4</ele>
        <time>2025-02-15T13:45:02.000Z</time>
      </trkpt>
      <trkpt lat="44.11471" lon="3.34661">
        <ele>915.1</ele>
        <time>2025-02-15T13:45:07.000Z</time>
      </trkpt>
      <trkpt lat="44.11466" lon="3.34647">
        <ele>915.6</ele>
        <time>2025-02-15T13:45:12.000Z</time>
      </trkpt>
      <trkpt lat="44.11463" lon="3.34632">
        <ele>915.9</ele>
        <time>2025-02-15T13:45:16.000Z</time>
      </trkpt>
      <trkpt lat="44.11463" lon="3.34618">
        <ele>916.1</ele>
        <time>2025-02-15T13:45:19.000Z</time>
      </trkpt>
      <trkpt lat="44.11464" lon="3.34604">
        <ele>916.2</ele>
        <time>2025-02-15T13:45:22.000Z</time>
      </trkpt>
      <trkpt lat="44.11466" lon="3.3459">
        <ele>916.4</ele>
        <time>2025-02-15T13:45:25.000Z</time>
      </trkpt>
      <trkpt lat="44.11466" lon="3.34572">
        <ele>916.5</ele>
        <time>2025-02-15T13:45:28.000Z</time>
      </trkpt>
      <trkpt lat="44.11465" lon="3.34558">
        <ele>916.6</ele>
        <time>2025-02-15T13:45:30.000Z</time>
      </trkpt>
      <trkpt lat="44.11465" lon="3.34545">
        <ele>916.7</ele>
        <time>2025-02-15T13:45:32.000Z</time>
      </trkpt>
      <trkpt lat="44.11469" lon="3.34531">
        <ele>917</ele>
        <time>2025-02-15T13:45:35.000Z</time>
      </trkpt>
      <trkpt lat="44.11473" lon="3.34518">
        <ele>917.4</ele>
        <time>2025-02-15T13:45:38.000Z</time>
      </trkpt>
      <trkpt lat="44.11472" lon="3.34504">
        <ele>917.9</ele>
        <time>2025-02-15T13:45:41.000Z</time>
      </trkpt>
      <trkpt lat="44.11469" lon="3.34491">
        <ele>918.3</ele>
        <time>2025-02-15T13:45:44.000Z</time>
      </trkpt>
      <trkpt lat="44.11469" lon="3.34475">
        <ele>918.6</ele>
        <time>2025-02-15T13:45:47.000Z</time>
      </trkpt>
      <trkpt lat="44.11473" lon="3.34458">
        <ele>918.9</ele>
        <time>2025-02-15T13:45:50.000Z</time>
      </trkpt>
      <trkpt lat="44.11477" lon="3.34443">
        <ele>919.1</ele>
        <time>2025-02-15T13:45:53.000Z</time>
      </trkpt>
      <trkpt lat="44.11477" lon="3.3443">
        <ele>919.5</ele>
        <time>2025-02-15T13:45:56.000Z</time>
      </trkpt>
      <trkpt lat="44.11471" lon="3.34416">
        <ele>919.8</ele>
        <time>2025-02-15T13:45:59.000Z</time>
      </trkpt>
      <trkpt lat="44.11467" lon="3.344">
        <ele>920</ele>
        <time>2025-02-15T13:46:02.000Z</time>
      </trkpt>
      <trkpt lat="44.11467" lon="3.34387">
        <ele>920.2</ele>
        <time>2025-02-15T13:46:04.000Z</time>
      </trkpt>
      <trkpt lat="44.11468" lon="3.34374">
        <ele>920.3</ele>
        <time>2025-02-15T13:46:06.000Z</time>
      </trkpt>
      <trkpt lat="44.11467" lon="3.34361">
        <ele>920.4</ele>
        <time>2025-02-15T13:46:08.000Z</time>
      </trkpt>
      <trkpt lat="44.11464" lon="3.34343">
        <ele>920.5</ele>
        <time>2025-02-15T13:46:11.000Z</time>
      </trkpt>
      <trkpt lat="44.11462" lon="3.34325">
        <ele>920.7</ele>
        <time>2025-02-15T13:46:14.000Z</time>
      </trkpt>
      <trkpt lat="44.11459" lon="3.34308">
        <ele>920.9</ele>
        <time>2025-02-15T13:46:17.000Z</time>
      </trkpt>
      <trkpt lat="44.11456" lon="3.3429">
        <ele>921</ele>
        <time>2025-02-15T13:46:20.000Z</time>
      </trkpt>
      <trkpt lat="44.11452" lon="3.34273">
        <ele>921.2</ele>
        <time>2025-02-15T13:46:23.000Z</time>
      </trkpt>
      <trkpt lat="44.11447" lon="3.34256">
        <ele>921.3</ele>
        <time>2025-02-15T13:46:26.000Z</time>
      </trkpt>
      <trkpt lat="44.11443" lon="3.34244">
        <ele>921.4</ele>
        <time>2025-02-15T13:46:28.000Z</time>
      </trkpt>
      <trkpt lat="44.11439" lon="3.34232">
        <ele>921.4</ele>
        <time>2025-02-15T13:46:30.000Z</time>
      </trkpt>
      <trkpt lat="44.11434" lon="3.3422">
        <ele>921.5</ele>
        <time>2025-02-15T13:46:32.000Z</time>
      </trkpt>
      <trkpt lat="44.1143" lon="3.34208">
        <ele>921.5</ele>
        <time>2025-02-15T13:46:34.000Z</time>
      </trkpt>
      <trkpt lat="44.11426" lon="3.34195">
        <ele>921.6</ele>
        <time>2025-02-15T13:46:36.000Z</time>
      </trkpt>
      <trkpt lat="44.11422" lon="3.34182">
        <ele>921.6</ele>
        <time>2025-02-15T13:46:38.000Z</time>
      </trkpt>
      <trkpt lat="44.1142" lon="3.34169">
        <ele>921.6</ele>
        <time>2025-02-15T13:46:40.000Z</time>
      </trkpt>
      <trkpt lat="44.11418" lon="3.34156">
        <ele>921.7</ele>
        <time>2025-02-15T13:46:42.000Z</time>
      </trkpt>
      <trkpt lat="44.11416" lon="3.34142">
        <ele>921.7</ele>
        <time>2025-02-15T13:46:44.000Z</time>
      </trkpt>
      <trkpt lat="44.11415" lon="3.34128">
        <ele>921.7</ele>
        <time>2025-02-15T13:46:46.000Z</time>
      </trkpt>
      <trkpt lat="44.11413" lon="3.34114">
        <ele>921.7</ele>
        <time>2025-02-15T13:46:48.000Z</time>
      </trkpt>
      <trkpt lat="44.1141" lon="3.34099">
        <ele>921.8</ele>
        <time>2025-02-15T13:46:50.000Z</time>
      </trkpt>
      <trkpt lat="44.11407" lon="3.34085">
        <ele>921.8</ele>
        <time>2025-02-15T13:46:52.000Z</time>
      </trkpt>
      <trkpt lat="44.11404" lon="3.34073">
        <ele>921.8</ele>
        <time>2025-02-15T13:46:54.000Z</time>
      </trkpt>
      <trkpt lat="44.11401" lon="3.3406">
        <ele>921.8</ele>
        <time>2025-02-15T13:46:56.000Z</time>
      </trkpt>
      <trkpt lat="44.11397" lon="3.34047">
        <ele>921.8</ele>
        <time>2025-02-15T13:46:58.000Z</time>
      </trkpt>
      <trkpt lat="44.11392" lon="3.34034">
        <ele>921.7</ele>
        <time>2025-02-15T13:47:00.000Z</time>
      </trkpt>
      <trkpt lat="44.11387" lon="3.34022">
        <ele>921.6</ele>
        <time>2025-02-15T13:47:02.000Z</time>
      </trkpt>
      <trkpt lat="44.11381" lon="3.34011">
        <ele>921.4</ele>
        <time>2025-02-15T13:47:04.000Z</time>
      </trkpt>
      <trkpt lat="44.11368" lon="3.34007">
        <ele>921.3</ele>
        <time>2025-02-15T13:47:07.000Z</time>
      </trkpt>
      <trkpt lat="44.11354" lon="3.34007">
        <ele>921.1</ele>
        <time>2025-02-15T13:47:10.000Z</time>
      </trkpt>
      <trkpt lat="44.11345" lon="3.34009">
        <ele>920.8</ele>
        <time>2025-02-15T13:47:12.000Z</time>
      </trkpt>
      <trkpt lat="44.11335" lon="3.3401">
        <ele>920.6</ele>
        <time>2025-02-15T13:47:14.000Z</time>
      </trkpt>
      <trkpt lat="44.11325" lon="3.34011">
        <ele>920.4</ele>
        <time>2025-02-15T13:47:16.000Z</time>
      </trkpt>
      <trkpt lat="44.11316" lon="3.34006">
        <ele>920.1</ele>
        <time>2025-02-15T13:47:18.000Z</time>
      </trkpt>
      <trkpt lat="44.11307" lon="3.33997">
        <ele>919.9</ele>
        <time>2025-02-15T13:47:20.000Z</time>
      </trkpt>
      <trkpt lat="44.11297" lon="3.3399">
        <ele>919.6</ele>
        <time>2025-02-15T13:47:22.000Z</time>
      </trkpt>
      <trkpt lat="44.1129" lon="3.33981">
        <ele>919.4</ele>
        <time>2025-02-15T13:47:24.000Z</time>
      </trkpt>
      <trkpt lat="44.11286" lon="3.33966">
        <ele>919.1</ele>
        <time>2025-02-15T13:47:27.000Z</time>
      </trkpt>
      <trkpt lat="44.11284" lon="3.3395">
        <ele>918.9</ele>
        <time>2025-02-15T13:47:30.000Z</time>
      </trkpt>
      <trkpt lat="44.1128" lon="3.33936">
        <ele>918.7</ele>
        <time>2025-02-15T13:47:33.000Z</time>
      </trkpt>
      <trkpt lat="44.11275" lon="3.33923">
        <ele>918.5</ele>
        <time>2025-02-15T13:47:36.000Z</time>
      </trkpt>
      <trkpt lat="44.11271" lon="3.33909">
        <ele>918.4</ele>
        <time>2025-02-15T13:47:39.000Z</time>
      </trkpt>
      <trkpt lat="44.11265" lon="3.33892">
        <ele>918.2</ele>
        <time>2025-02-15T13:47:42.000Z</time>
      </trkpt>
      <trkpt lat="44.1126" lon="3.33881">
        <ele>918.1</ele>
        <time>2025-02-15T13:47:44.000Z</time>
      </trkpt>
      <trkpt lat="44.11255" lon="3.33868">
        <ele>917.9</ele>
        <time>2025-02-15T13:47:46.000Z</time>
      </trkpt>
      <trkpt lat="44.11252" lon="3.33855">
        <ele>917.8</ele>
        <time>2025-02-15T13:47:48.000Z</time>
      </trkpt>
      <trkpt lat="44.11251" lon="3.33842">
        <ele>917.7</ele>
        <time>2025-02-15T13:47:50.000Z</time>
      </trkpt>
      <trkpt lat="44.11254" lon="3.33825">
        <ele>917.5</ele>
        <time>2025-02-15T13:47:53.000Z</time>
      </trkpt>
      <trkpt lat="44.11258" lon="3.33813">
        <ele>917.4</ele>
        <time>2025-02-15T13:47:56.000Z</time>
      </trkpt>
      <trkpt lat="44.11261" lon="3.338">
        <ele>917.2</ele>
        <time>2025-02-15T13:47:59.000Z</time>
      </trkpt>
      <trkpt lat="44.11264" lon="3.33788">
        <ele>917.2</ele>
        <time>2025-02-15T13:48:02.000Z</time>
      </trkpt>
      <trkpt lat="44.11266" lon="3.33774">
        <ele>917.2</ele>
        <time>2025-02-15T13:48:05.000Z</time>
      </trkpt>
      <trkpt lat="44.11269" lon="3.3376">
        <ele>917.3</ele>
        <time>2025-02-15T13:48:08.000Z</time>
      </trkpt>
      <trkpt lat="44.11271" lon="3.33746">
        <ele>917.3</ele>
        <time>2025-02-15T13:48:11.000Z</time>
      </trkpt>
      <trkpt lat="44.11274" lon="3.3373">
        <ele>917.4</ele>
        <time>2025-02-15T13:48:14.000Z</time>
      </trkpt>
      <trkpt lat="44.11273" lon="3.33711">
        <ele>917.4</ele>
        <time>2025-02-15T13:48:17.000Z</time>
      </trkpt>
      <trkpt lat="44.11271" lon="3.33697">
        <ele>917.4</ele>
        <time>2025-02-15T13:48:19.000Z</time>
      </trkpt>
      <trkpt lat="44.1127" lon="3.33684">
        <ele>917.4</ele>
        <time>2025-02-15T13:48:21.000Z</time>
      </trkpt>
      <trkpt lat="44.11269" lon="3.3367">
        <ele>917.4</ele>
        <time>2025-02-15T13:48:23.000Z</time>
      </trkpt>
      <trkpt lat="44.11268" lon="3.33656">
        <ele>917.3</ele>
        <time>2025-02-15T13:48:25.000Z</time>
      </trkpt>
      <trkpt lat="44.11266" lon="3.33641">
        <ele>917.3</ele>
        <time>2025-02-15T13:48:27.000Z</time>
      </trkpt>
      <trkpt lat="44.11265" lon="3.33627">
        <ele>917.2</ele>
        <time>2025-02-15T13:48:29.000Z</time>
      </trkpt>
      <trkpt lat="44.11262" lon="3.33612">
        <ele>917.1</ele>
        <time>2025-02-15T13:48:31.000Z</time>
      </trkpt>
      <trkpt lat="44.1126" lon="3.33598">
        <ele>916.9</ele>
        <time>2025-02-15T13:48:33.000Z</time>
      </trkpt>
      <trkpt lat="44.11258" lon="3.33584">
        <ele>916.8</ele>
        <time>2025-02-15T13:48:35.000Z</time>
      </trkpt>
      <trkpt lat="44.11255" lon="3.33571">
        <ele>916.7</ele>
        <time>2025-02-15T13:48:37.000Z</time>
      </trkpt>
      <trkpt lat="44.11254" lon="3.33558">
        <ele>916.6</ele>
        <time>2025-02-15T13:48:39.000Z</time>
      </trkpt>
      <trkpt lat="44.11251" lon="3.33539">
        <ele>916.5</ele>
        <time>2025-02-15T13:48:42.000Z</time>
      </trkpt>
      <trkpt lat="44.11249" lon="3.33521">
        <ele>916.4</ele>
        <time>2025-02-15T13:48:45.000Z</time>
      </trkpt>
      <trkpt lat="44.11247" lon="3.33508">
        <ele>916.4</ele>
        <time>2025-02-15T13:48:47.000Z</time>
      </trkpt>
      <trkpt lat="44.11245" lon="3.3349">
        <ele>916.3</ele>
        <time>2025-02-15T13:48:50.000Z</time>
      </trkpt>
      <trkpt lat="44.11244" lon="3.33473">
        <ele>916.2</ele>
        <time>2025-02-15T13:48:53.000Z</time>
      </trkpt>
      <trkpt lat="44.11239" lon="3.33456">
        <ele>916.1</ele>
        <time>2025-02-15T13:48:56.000Z</time>
      </trkpt>
      <trkpt lat="44.11234" lon="3.33445">
        <ele>916.1</ele>
        <time>2025-02-15T13:48:59.000Z</time>
      </trkpt>
      <trkpt lat="44.11228" lon="3.33431">
        <ele>916</ele>
        <time>2025-02-15T13:49:03.000Z</time>
      </trkpt>
      <trkpt lat="44.11227" lon="3.33418">
        <ele>915.9</ele>
        <time>2025-02-15T13:49:06.000Z</time>
      </trkpt>
      <trkpt lat="44.11227" lon="3.33403">
        <ele>915.7</ele>
        <time>2025-02-15T13:49:09.000Z</time>
      </trkpt>
      <trkpt lat="44.11229" lon="3.33388">
        <ele>915.5</ele>
        <time>2025-02-15T13:49:12.000Z</time>
      </trkpt>
      <trkpt lat="44.11233" lon="3.33372">
        <ele>915.4</ele>
        <time>2025-02-15T13:49:15.000Z</time>
      </trkpt>
      <trkpt lat="44.11235" lon="3.33354">
        <ele>915.3</ele>
        <time>2025-02-15T13:49:18.000Z</time>
      </trkpt>
      <trkpt lat="44.11237" lon="3.33336">
        <ele>915.1</ele>
        <time>2025-02-15T13:49:21.000Z</time>
      </trkpt>
      <trkpt lat="44.1124" lon="3.33322">
        <ele>915</ele>
        <time>2025-02-15T13:49:23.000Z</time>
      </trkpt>
      <trkpt lat="44.11242" lon="3.33308">
        <ele>914.8</ele>
        <time>2025-02-15T13:49:25.000Z</time>
      </trkpt>
      <trkpt lat="44.11245" lon="3.33295">
        <ele>914.7</ele>
        <time>2025-02-15T13:49:27.000Z</time>
      </trkpt>
      <trkpt lat="44.11249" lon="3.33282">
        <ele>914.5</ele>
        <time>2025-02-15T13:49:29.000Z</time>
      </trkpt>
      <trkpt lat="44.11253" lon="3.33268">
        <ele>914.3</ele>
        <time>2025-02-15T13:49:31.000Z</time>
      </trkpt>
      <trkpt lat="44.11255" lon="3.33254">
        <ele>914.1</ele>
        <time>2025-02-15T13:49:33.000Z</time>
      </trkpt>
      <trkpt lat="44.11256" lon="3.33239">
        <ele>913.9</ele>
        <time>2025-02-15T13:49:35.000Z</time>
      </trkpt>
      <trkpt lat="44.11255" lon="3.33224">
        <ele>913.7</ele>
        <time>2025-02-15T13:49:37.000Z</time>
      </trkpt>
      <trkpt lat="44.11252" lon="3.3321">
        <ele>913.5</ele>
        <time>2025-02-15T13:49:39.000Z</time>
      </trkpt>
      <trkpt lat="44.1125" lon="3.33198">
        <ele>913.3</ele>
        <time>2025-02-15T13:49:41.000Z</time>
      </trkpt>
      <trkpt lat="44.11249" lon="3.33185">
        <ele>913.1</ele>
        <time>2025-02-15T13:49:43.000Z</time>
      </trkpt>
      <trkpt lat="44.11247" lon="3.33171">
        <ele>912.9</ele>
        <time>2025-02-15T13:49:45.000Z</time>
      </trkpt>
      <trkpt lat="44.11246" lon="3.33158">
        <ele>912.8</ele>
        <time>2025-02-15T13:49:47.000Z</time>
      </trkpt>
      <trkpt lat="44.11244" lon="3.3314">
        <ele>912.5</ele>
        <time>2025-02-15T13:49:50.000Z</time>
      </trkpt>
      <trkpt lat="44.11243" lon="3.33123">
        <ele>912.3</ele>
        <time>2025-02-15T13:49:53.000Z</time>
      </trkpt>
      <trkpt lat="44.11244" lon="3.33107">
        <ele>912.2</ele>
        <time>2025-02-15T13:49:56.000Z</time>
      </trkpt>
      <trkpt lat="44.11247" lon="3.33093">
        <ele>912.2</ele>
        <time>2025-02-15T13:49:59.000Z</time>
      </trkpt>
      <trkpt lat="44.11252" lon="3.3308">
        <ele>912.2</ele>
        <time>2025-02-15T13:50:02.000Z</time>
      </trkpt>
      <trkpt lat="44.11257" lon="3.33069">
        <ele>912.4</ele>
        <time>2025-02-15T13:50:05.000Z</time>
      </trkpt>
      <trkpt lat="44.1126" lon="3.33056">
        <ele>912.5</ele>
        <time>2025-02-15T13:50:08.000Z</time>
      </trkpt>
      <trkpt lat="44.1126" lon="3.3304">
        <ele>912.6</ele>
        <time>2025-02-15T13:50:11.000Z</time>
      </trkpt>
      <trkpt lat="44.1126" lon="3.33027">
        <ele>912.6</ele>
        <time>2025-02-15T13:50:13.000Z</time>
      </trkpt>
      <trkpt lat="44.11261" lon="3.33014">
        <ele>912.6</ele>
        <time>2025-02-15T13:50:15.000Z</time>
      </trkpt>
      <trkpt lat="44.11263" lon="3.32997">
        <ele>912.5</ele>
        <time>2025-02-15T13:50:18.000Z</time>
      </trkpt>
      <trkpt lat="44.11269" lon="3.32982">
        <ele>912.5</ele>
        <time>2025-02-15T13:50:21.000Z</time>
      </trkpt>
      <trkpt lat="44.11274" lon="3.32966">
        <ele>912.4</ele>
        <time>2025-02-15T13:50:24.000Z</time>
      </trkpt>
      <trkpt lat="44.11276" lon="3.32948">
        <ele>912.2</ele>
        <time>2025-02-15T13:50:27.000Z</time>
      </trkpt>
      <trkpt lat="44.11277" lon="3.32935">
        <ele>912.1</ele>
        <time>2025-02-15T13:50:29.000Z</time>
      </trkpt>
      <trkpt lat="44.11278" lon="3.32922">
        <ele>912.1</ele>
        <time>2025-02-15T13:50:31.000Z</time>
      </trkpt>
      <trkpt lat="44.11278" lon="3.32908">
        <ele>912</ele>
        <time>2025-02-15T13:50:33.000Z</time>
      </trkpt>
      <trkpt lat="44.1128" lon="3.32895">
        <ele>912</ele>
        <time>2025-02-15T13:50:35.000Z</time>
      </trkpt>
      <trkpt lat="44.11283" lon="3.32882">
        <ele>911.9</ele>
        <time>2025-02-15T13:50:37.000Z</time>
      </trkpt>
      <trkpt lat="44.11285" lon="3.32869">
        <ele>911.9</ele>
        <time>2025-02-15T13:50:39.000Z</time>
      </trkpt>
      <trkpt lat="44.11287" lon="3.32856">
        <ele>911.8</ele>
        <time>2025-02-15T13:50:41.000Z</time>
      </trkpt>
      <trkpt lat="44.11287" lon="3.32843">
        <ele>911.7</ele>
        <time>2025-02-15T13:50:43.000Z</time>
      </trkpt>
      <trkpt lat="44.11289" lon="3.3283">
        <ele>911.6</ele>
        <time>2025-02-15T13:50:45.000Z</time>
      </trkpt>
      <trkpt lat="44.11291" lon="3.32817">
        <ele>911.5</ele>
        <time>2025-02-15T13:50:47.000Z</time>
      </trkpt>
      <trkpt lat="44.1129" lon="3.32804">
        <ele>911.5</ele>
        <time>2025-02-15T13:50:49.000Z</time>
      </trkpt>
      <trkpt lat="44.1129" lon="3.32787">
        <ele>911.6</ele>
        <time>2025-02-15T13:50:52.000Z</time>
      </trkpt>
      <trkpt lat="44.1129" lon="3.32771">
        <ele>911.7</ele>
        <time>2025-02-15T13:50:55.000Z</time>
      </trkpt>
      <trkpt lat="44.11291" lon="3.32758">
        <ele>911.9</ele>
        <time>2025-02-15T13:50:58.000Z</time>
      </trkpt>
      <trkpt lat="44.11291" lon="3.32743">
        <ele>912</ele>
        <time>2025-02-15T13:51:01.000Z</time>
      </trkpt>
      <trkpt lat="44.11291" lon="3.32728">
        <ele>912.1</ele>
        <time>2025-02-15T13:51:04.000Z</time>
      </trkpt>
      <trkpt lat="44.1129" lon="3.32713">
        <ele>912.2</ele>
        <time>2025-02-15T13:51:07.000Z</time>
      </trkpt>
      <trkpt lat="44.1129" lon="3.32698">
        <ele>912.3</ele>
        <time>2025-02-15T13:51:10.000Z</time>
      </trkpt>
      <trkpt lat="44.11288" lon="3.32683">
        <ele>912.5</ele>
        <time>2025-02-15T13:51:13.000Z</time>
      </trkpt>
      <trkpt lat="44.11287" lon="3.32668">
        <ele>912.7</ele>
        <time>2025-02-15T13:51:16.000Z</time>
      </trkpt>
      <trkpt lat="44.11286" lon="3.32654">
        <ele>913</ele>
        <time>2025-02-15T13:51:19.000Z</time>
      </trkpt>
      <trkpt lat="44.11285" lon="3.3264">
        <ele>913.3</ele>
        <time>2025-02-15T13:51:22.000Z</time>
      </trkpt>
      <trkpt lat="44.11287" lon="3.32626">
        <ele>913.6</ele>
        <time>2025-02-15T13:51:25.000Z</time>
      </trkpt>
      <trkpt lat="44.11289" lon="3.32613">
        <ele>913.9</ele>
        <time>2025-02-15T13:51:28.000Z</time>
      </trkpt>
      <trkpt lat="44.11295" lon="3.32601">
        <ele>914.1</ele>
        <time>2025-02-15T13:51:31.000Z</time>
      </trkpt>
      <trkpt lat="44.11299" lon="3.32589">
        <ele>914.4</ele>
        <time>2025-02-15T13:51:34.000Z</time>
      </trkpt>
      <trkpt lat="44.11304" lon="3.32575">
        <ele>914.7</ele>
        <time>2025-02-15T13:51:37.000Z</time>
      </trkpt>
      <trkpt lat="44.11307" lon="3.3256">
        <ele>914.9</ele>
        <time>2025-02-15T13:51:40.000Z</time>
      </trkpt>
      <trkpt lat="44.11311" lon="3.32545">
        <ele>915.2</ele>
        <time>2025-02-15T13:51:43.000Z</time>
      </trkpt>
      <trkpt lat="44.11313" lon="3.3253">
        <ele>915.5</ele>
        <time>2025-02-15T13:51:46.000Z</time>
      </trkpt>
      <trkpt lat="44.11315" lon="3.32515">
        <ele>915.9</ele>
        <time>2025-02-15T13:51:49.000Z</time>
      </trkpt>
      <trkpt lat="44.11317" lon="3.32499">
        <ele>916.3</ele>
        <time>2025-02-15T13:51:52.000Z</time>
      </trkpt>
      <trkpt lat="44.11317" lon="3.32484">
        <ele>916.7</ele>
        <time>2025-02-15T13:51:55.000Z</time>
      </trkpt>
      <trkpt lat="44.11316" lon="3.3247">
        <ele>917.2</ele>
        <time>2025-02-15T13:51:58.000Z</time>
      </trkpt>
      <trkpt lat="44.11315" lon="3.32457">
        <ele>918</ele>
        <time>2025-02-15T13:52:03.000Z</time>
      </trkpt>
      <trkpt lat="44.11315" lon="3.32444">
        <ele>918.8</ele>
        <time>2025-02-15T13:52:09.000Z</time>
      </trkpt>
      <trkpt lat="44.11316" lon="3.32429">
        <ele>919.4</ele>
        <time>2025-02-15T13:52:15.000Z</time>
      </trkpt>
      <trkpt lat="44.11317" lon="3.32417">
        <ele>919.8</ele>
        <time>2025-02-15T13:52:20.000Z</time>
      </trkpt>
      <trkpt lat="44.11318" lon="3.32403">
        <ele>920.2</ele>
        <time>2025-02-15T13:52:25.000Z</time>
      </trkpt>
      <trkpt lat="44.1132" lon="3.32388">
        <ele>920.8</ele>
        <time>2025-02-15T13:52:30.000Z</time>
      </trkpt>
      <trkpt lat="44.11321" lon="3.32375">
        <ele>921.1</ele>
        <time>2025-02-15T13:52:34.000Z</time>
      </trkpt>
      <trkpt lat="44.1132" lon="3.3236">
        <ele>921.5</ele>
        <time>2025-02-15T13:52:39.000Z</time>
      </trkpt>
      <trkpt lat="44.1132" lon="3.32347">
        <ele>921.9</ele>
        <time>2025-02-15T13:52:43.000Z</time>
      </trkpt>
      <trkpt lat="44.1132" lon="3.32334">
        <ele>922.3</ele>
        <time>2025-02-15T13:52:47.000Z</time>
      </trkpt>
      <trkpt lat="44.11321" lon="3.32321">
        <ele>922.7</ele>
        <time>2025-02-15T13:52:51.000Z</time>
      </trkpt>
      <trkpt lat="44.11322" lon="3.32308">
        <ele>923.1</ele>
        <time>2025-02-15T13:52:55.000Z</time>
      </trkpt>
      <trkpt lat="44.11322" lon="3.32295">
        <ele>923.4</ele>
        <time>2025-02-15T13:52:59.000Z</time>
      </trkpt>
      <trkpt lat="44.1132" lon="3.32281">
        <ele>923.7</ele>
        <time>2025-02-15T13:53:03.000Z</time>
      </trkpt>
      <trkpt lat="44.11318" lon="3.32267">
        <ele>924</ele>
        <time>2025-02-15T13:53:07.000Z</time>
      </trkpt>
      <trkpt lat="44.11316" lon="3.32252">
        <ele>924.2</ele>
        <time>2025-02-15T13:53:11.000Z</time>
      </trkpt>
      <trkpt lat="44.11314" lon="3.32237">
        <ele>924.4</ele>
        <time>2025-02-15T13:53:15.000Z</time>
      </trkpt>
      <trkpt lat="44.11313" lon="3.32221">
        <ele>924.6</ele>
        <time>2025-02-15T13:53:19.000Z</time>
      </trkpt>
      <trkpt lat="44.11313" lon="3.32208">
        <ele>924.7</ele>
        <time>2025-02-15T13:53:22.000Z</time>
      </trkpt>
      <trkpt lat="44.11313" lon="3.32194">
        <ele>924.9</ele>
        <time>2025-02-15T13:53:25.000Z</time>
      </trkpt>
      <trkpt lat="44.11314" lon="3.32181">
        <ele>925</ele>
        <time>2025-02-15T13:53:28.000Z</time>
      </trkpt>
      <trkpt lat="44.11315" lon="3.32165">
        <ele>925.1</ele>
        <time>2025-02-15T13:53:32.000Z</time>
      </trkpt>
      <trkpt lat="44.11315" lon="3.32151">
        <ele>925.2</ele>
        <time>2025-02-15T13:53:35.000Z</time>
      </trkpt>
      <trkpt lat="44.11314" lon="3.32136">
        <ele>925.3</ele>
        <time>2025-02-15T13:53:38.000Z</time>
      </trkpt>
      <trkpt lat="44.11314" lon="3.32121">
        <ele>925.4</ele>
        <time>2025-02-15T13:53:41.000Z</time>
      </trkpt>
      <trkpt lat="44.11314" lon="3.32107">
        <ele>925.5</ele>
        <time>2025-02-15T13:53:44.000Z</time>
      </trkpt>
      <trkpt lat="44.11314" lon="3.32092">
        <ele>925.6</ele>
        <time>2025-02-15T13:53:47.000Z</time>
      </trkpt>
      <trkpt lat="44.11314" lon="3.32078">
        <ele>925.7</ele>
        <time>2025-02-15T13:53:50.000Z</time>
      </trkpt>
      <trkpt lat="44.11313" lon="3.32062">
        <ele>925.7</ele>
        <time>2025-02-15T13:53:53.000Z</time>
      </trkpt>
      <trkpt lat="44.11312" lon="3.32045">
        <ele>925.8</ele>
        <time>2025-02-15T13:53:56.000Z</time>
      </trkpt>
      <trkpt lat="44.11311" lon="3.32029">
        <ele>925.8</ele>
        <time>2025-02-15T13:53:59.000Z</time>
      </trkpt>
      <trkpt lat="44.1131" lon="3.32011">
        <ele>925.8</ele>
        <time>2025-02-15T13:54:02.000Z</time>
      </trkpt>
      <trkpt lat="44.11309" lon="3.31995">
        <ele>925.8</ele>
        <time>2025-02-15T13:54:05.000Z</time>
      </trkpt>
      <trkpt lat="44.11307" lon="3.3198">
        <ele>925.7</ele>
        <time>2025-02-15T13:54:08.000Z</time>
      </trkpt>
      <trkpt lat="44.11305" lon="3.31964">
        <ele>925.7</ele>
        <time>2025-02-15T13:54:11.000Z</time>
      </trkpt>
      <trkpt lat="44.113" lon="3.3195">
        <ele>925.8</ele>
        <time>2025-02-15T13:54:14.000Z</time>
      </trkpt>
      <trkpt lat="44.11297" lon="3.31936">
        <ele>925.9</ele>
        <time>2025-02-15T13:54:17.000Z</time>
      </trkpt>
      <trkpt lat="44.11294" lon="3.31922">
        <ele>925.9</ele>
        <time>2025-02-15T13:54:20.000Z</time>
      </trkpt>
      <trkpt lat="44.11292" lon="3.31908">
        <ele>926</ele>
        <time>2025-02-15T13:54:23.000Z</time>
      </trkpt>
      <trkpt lat="44.1129" lon="3.31893">
        <ele>926.2</ele>
        <time>2025-02-15T13:54:27.000Z</time>
      </trkpt>
      <trkpt lat="44.11287" lon="3.31879">
        <ele>926.4</ele>
        <time>2025-02-15T13:54:31.000Z</time>
      </trkpt>
      <trkpt lat="44.11282" lon="3.31866">
        <ele>926.4</ele>
        <time>2025-02-15T13:54:34.000Z</time>
      </trkpt>
      <trkpt lat="44.11277" lon="3.31852">
        <ele>926.5</ele>
        <time>2025-02-15T13:54:37.000Z</time>
      </trkpt>
      <trkpt lat="44.11273" lon="3.31837">
        <ele>926.6</ele>
        <time>2025-02-15T13:54:40.000Z</time>
      </trkpt>
      <trkpt lat="44.1127" lon="3.31821">
        <ele>926.6</ele>
        <time>2025-02-15T13:54:43.000Z</time>
      </trkpt>
      <trkpt lat="44.11269" lon="3.31805">
        <ele>926.7</ele>
        <time>2025-02-15T13:54:46.000Z</time>
      </trkpt>
      <trkpt lat="44.11268" lon="3.3179">
        <ele>926.7</ele>
        <time>2025-02-15T13:54:49.000Z</time>
      </trkpt>
      <trkpt lat="44.11265" lon="3.31776">
        <ele>926.8</ele>
        <time>2025-02-15T13:54:52.000Z</time>
      </trkpt>
      <trkpt lat="44.11261" lon="3.31764">
        <ele>927</ele>
        <time>2025-02-15T13:54:55.000Z</time>
      </trkpt>
      <trkpt lat="44.11256" lon="3.31752">
        <ele>927.2</ele>
        <time>2025-02-15T13:54:58.000Z</time>
      </trkpt>
      <trkpt lat="44.11251" lon="3.31739">
        <ele>927.3</ele>
        <time>2025-02-15T13:55:01.000Z</time>
      </trkpt>
      <trkpt lat="44.11246" lon="3.31727">
        <ele>927.5</ele>
        <time>2025-02-15T13:55:04.000Z</time>
      </trkpt>
      <trkpt lat="44.11242" lon="3.31714">
        <ele>927.7</ele>
        <time>2025-02-15T13:55:07.000Z</time>
      </trkpt>
      <trkpt lat="44.11238" lon="3.31701">
        <ele>928</ele>
        <time>2025-02-15T13:55:10.000Z</time>
      </trkpt>
      <trkpt lat="44.11235" lon="3.31688">
        <ele>928.3</ele>
        <time>2025-02-15T13:55:13.000Z</time>
      </trkpt>
      <trkpt lat="44.11231" lon="3.31676">
        <ele>928.7</ele>
        <time>2025-02-15T13:55:16.000Z</time>
      </trkpt>
      <trkpt lat="44.11228" lon="3.31663">
        <ele>929.1</ele>
        <time>2025-02-15T13:55:19.000Z</time>
      </trkpt>
      <trkpt lat="44.11225" lon="3.31648">
        <ele>929.6</ele>
        <time>2025-02-15T13:55:23.000Z</time>
      </trkpt>
      <trkpt lat="44.11221" lon="3.31632">
        <ele>930.1</ele>
        <time>2025-02-15T13:55:27.000Z</time>
      </trkpt>
      <trkpt lat="44.11217" lon="3.31618">
        <ele>930.5</ele>
        <time>2025-02-15T13:55:31.000Z</time>
      </trkpt>
      <trkpt lat="44.11213" lon="3.31605">
        <ele>930.8</ele>
        <time>2025-02-15T13:55:35.000Z</time>
      </trkpt>
      <trkpt lat="44.11209" lon="3.31592">
        <ele>931</ele>
        <time>2025-02-15T13:55:39.000Z</time>
      </trkpt>
      <trkpt lat="44.11204" lon="3.31578">
        <ele>931.3</ele>
        <time>2025-02-15T13:55:44.000Z</time>
      </trkpt>
      <trkpt lat="44.11199" lon="3.31567">
        <ele>931.4</ele>
        <time>2025-02-15T13:55:48.000Z</time>
      </trkpt>
      <trkpt lat="44.11195" lon="3.31556">
        <ele>931.6</ele>
        <time>2025-02-15T13:55:54.000Z</time>
      </trkpt>
      <trkpt lat="44.11189" lon="3.31544">
        <ele>931.4</ele>
        <time>2025-02-15T13:56:53.000Z</time>
      </trkpt>
      <trkpt lat="44.11184" lon="3.31533">
        <ele>931.4</ele>
        <time>2025-02-15T13:56:56.000Z</time>
      </trkpt>
      <trkpt lat="44.11179" lon="3.3152">
        <ele>931.3</ele>
        <time>2025-02-15T13:56:59.000Z</time>
      </trkpt>
      <trkpt lat="44.11177" lon="3.31506">
        <ele>931.2</ele>
        <time>2025-02-15T13:57:02.000Z</time>
      </trkpt>
      <trkpt lat="44.11176" lon="3.31492">
        <ele>931</ele>
        <time>2025-02-15T13:57:05.000Z</time>
      </trkpt>
      <trkpt lat="44.11175" lon="3.31477">
        <ele>930.8</ele>
        <time>2025-02-15T13:57:08.000Z</time>
      </trkpt>
      <trkpt lat="44.11174" lon="3.31463">
        <ele>930.5</ele>
        <time>2025-02-15T13:57:11.000Z</time>
      </trkpt>
      <trkpt lat="44.11173" lon="3.31448">
        <ele>930.2</ele>
        <time>2025-02-15T13:57:14.000Z</time>
      </trkpt>
      <trkpt lat="44.11173" lon="3.31432">
        <ele>930</ele>
        <time>2025-02-15T13:57:17.000Z</time>
      </trkpt>
      <trkpt lat="44.11172" lon="3.31416">
        <ele>929.7</ele>
        <time>2025-02-15T13:57:20.000Z</time>
      </trkpt>
      <trkpt lat="44.11169" lon="3.31397">
        <ele>929.3</ele>
        <time>2025-02-15T13:57:23.000Z</time>
      </trkpt>
      <trkpt lat="44.11167" lon="3.31384">
        <ele>928.9</ele>
        <time>2025-02-15T13:57:25.000Z</time>
      </trkpt>
      <trkpt lat="44.11166" lon="3.31371">
        <ele>928.6</ele>
        <time>2025-02-15T13:57:27.000Z</time>
      </trkpt>
      <trkpt lat="44.11166" lon="3.31357">
        <ele>928.3</ele>
        <time>2025-02-15T13:57:29.000Z</time>
      </trkpt>
      <trkpt lat="44.11165" lon="3.31343">
        <ele>927.7</ele>
        <time>2025-02-15T13:57:31.000Z</time>
      </trkpt>
      <trkpt lat="44.11164" lon="3.31328">
        <ele>927.2</ele>
        <time>2025-02-15T13:57:33.000Z</time>
      </trkpt>
      <trkpt lat="44.11165" lon="3.31314">
        <ele>926.7</ele>
        <time>2025-02-15T13:57:35.000Z</time>
      </trkpt>
      <trkpt lat="44.11167" lon="3.313">
        <ele>926.3</ele>
        <time>2025-02-15T13:57:37.000Z</time>
      </trkpt>
      <trkpt lat="44.1117" lon="3.31287">
        <ele>925.9</ele>
        <time>2025-02-15T13:57:39.000Z</time>
      </trkpt>
      <trkpt lat="44.11169" lon="3.31269">
        <ele>925.4</ele>
        <time>2025-02-15T13:57:42.000Z</time>
      </trkpt>
      <trkpt lat="44.11167" lon="3.31256">
        <ele>925.1</ele>
        <time>2025-02-15T13:57:44.000Z</time>
      </trkpt>
      <trkpt lat="44.11166" lon="3.31239">
        <ele>924.6</ele>
        <time>2025-02-15T13:57:47.000Z</time>
      </trkpt>
      <trkpt lat="44.11164" lon="3.31222">
        <ele>924.3</ele>
        <time>2025-02-15T13:57:50.000Z</time>
      </trkpt>
      <trkpt lat="44.11162" lon="3.31206">
        <ele>923.8</ele>
        <time>2025-02-15T13:57:53.000Z</time>
      </trkpt>
      <trkpt lat="44.11159" lon="3.31189">
        <ele>923.5</ele>
        <time>2025-02-15T13:57:56.000Z</time>
      </trkpt>
      <trkpt lat="44.11155" lon="3.31175">
        <ele>923.2</ele>
        <time>2025-02-15T13:57:59.000Z</time>
      </trkpt>
      <trkpt lat="44.11152" lon="3.31161">
        <ele>922.9</ele>
        <time>2025-02-15T13:58:02.000Z</time>
      </trkpt>
      <trkpt lat="44.11151" lon="3.31147">
        <ele>922.7</ele>
        <time>2025-02-15T13:58:05.000Z</time>
      </trkpt>
      <trkpt lat="44.11149" lon="3.31133">
        <ele>922.5</ele>
        <time>2025-02-15T13:58:08.000Z</time>
      </trkpt>
      <trkpt lat="44.11147" lon="3.31118">
        <ele>922.3</ele>
        <time>2025-02-15T13:58:11.000Z</time>
      </trkpt>
      <trkpt lat="44.11145" lon="3.31103">
        <ele>922.2</ele>
        <time>2025-02-15T13:58:14.000Z</time>
      </trkpt>
      <trkpt lat="44.11143" lon="3.31088">
        <ele>922</ele>
        <time>2025-02-15T13:58:17.000Z</time>
      </trkpt>
      <trkpt lat="44.11141" lon="3.31073">
        <ele>922</ele>
        <time>2025-02-15T13:58:20.000Z</time>
      </trkpt>
      <trkpt lat="44.11138" lon="3.31059">
        <ele>921.9</ele>
        <time>2025-02-15T13:58:23.000Z</time>
      </trkpt>
      <trkpt lat="44.11136" lon="3.31046">
        <ele>921.5</ele>
        <time>2025-02-15T13:58:52.000Z</time>
      </trkpt>
      <trkpt lat="44.11132" lon="3.31032">
        <ele>921.4</ele>
        <time>2025-02-15T13:58:57.000Z</time>
      </trkpt>
      <trkpt lat="44.11128" lon="3.31019">
        <ele>921.4</ele>
        <time>2025-02-15T13:59:01.000Z</time>
      </trkpt>
      <trkpt lat="44.11124" lon="3.31004">
        <ele>921.4</ele>
        <time>2025-02-15T13:59:05.000Z</time>
      </trkpt>
      <trkpt lat="44.1112" lon="3.30992">
        <ele>921.4</ele>
        <time>2025-02-15T13:59:08.000Z</time>
      </trkpt>
      <trkpt lat="44.11116" lon="3.30978">
        <ele>921.3</ele>
        <time>2025-02-15T13:59:11.000Z</time>
      </trkpt>
      <trkpt lat="44.11112" lon="3.30965">
        <ele>921.3</ele>
        <time>2025-02-15T13:59:14.000Z</time>
      </trkpt>
      <trkpt lat="44.11109" lon="3.3095">
        <ele>921.2</ele>
        <time>2025-02-15T13:59:17.000Z</time>
      </trkpt>
      <trkpt lat="44.11106" lon="3.30936">
        <ele>921.1</ele>
        <time>2025-02-15T13:59:20.000Z</time>
      </trkpt>
      <trkpt lat="44.11104" lon="3.30924">
        <ele>921</ele>
        <time>2025-02-15T13:59:23.000Z</time>
      </trkpt>
      <trkpt lat="44.111" lon="3.30909">
        <ele>920.8</ele>
        <time>2025-02-15T13:59:27.000Z</time>
      </trkpt>
      <trkpt lat="44.11095" lon="3.30894">
        <ele>920.6</ele>
        <time>2025-02-15T13:59:31.000Z</time>
      </trkpt>
      <trkpt lat="44.11092" lon="3.30881">
        <ele>920.4</ele>
        <time>2025-02-15T13:59:34.000Z</time>
      </trkpt>
      <trkpt lat="44.11088" lon="3.30868">
        <ele>920.2</ele>
        <time>2025-02-15T13:59:37.000Z</time>
      </trkpt>
      <trkpt lat="44.11083" lon="3.30855">
        <ele>919.9</ele>
        <time>2025-02-15T13:59:40.000Z</time>
      </trkpt>
      <trkpt lat="44.11077" lon="3.30842">
        <ele>919.4</ele>
        <time>2025-02-15T13:59:43.000Z</time>
      </trkpt>
      <trkpt lat="44.11071" lon="3.30828">
        <ele>918.9</ele>
        <time>2025-02-15T13:59:46.000Z</time>
      </trkpt>
      <trkpt lat="44.11067" lon="3.30815">
        <ele>918.5</ele>
        <time>2025-02-15T13:59:49.000Z</time>
      </trkpt>
      <trkpt lat="44.11063" lon="3.308">
        <ele>918.1</ele>
        <time>2025-02-15T13:59:52.000Z</time>
      </trkpt>
      <trkpt lat="44.11059" lon="3.30784">
        <ele>917.7</ele>
        <time>2025-02-15T13:59:55.000Z</time>
      </trkpt>
      <trkpt lat="44.11054" lon="3.30767">
        <ele>917.3</ele>
        <time>2025-02-15T13:59:58.000Z</time>
      </trkpt>
      <trkpt lat="44.1105" lon="3.3075">
        <ele>916.8</ele>
        <time>2025-02-15T14:00:01.000Z</time>
      </trkpt>
      <trkpt lat="44.11044" lon="3.30733">
        <ele>916.3</ele>
        <time>2025-02-15T14:00:04.000Z</time>
      </trkpt>
      <trkpt lat="44.11038" lon="3.30716">
        <ele>915.9</ele>
        <time>2025-02-15T14:00:07.000Z</time>
      </trkpt>
      <trkpt lat="44.11036" lon="3.30699">
        <ele>915.4</ele>
        <time>2025-02-15T14:00:10.000Z</time>
      </trkpt>
      <trkpt lat="44.11033" lon="3.30682">
        <ele>914.8</ele>
        <time>2025-02-15T14:00:13.000Z</time>
      </trkpt>
      <trkpt lat="44.11027" lon="3.30665">
        <ele>914.1</ele>
        <time>2025-02-15T14:00:16.000Z</time>
      </trkpt>
      <trkpt lat="44.11021" lon="3.30647">
        <ele>913.3</ele>
        <time>2025-02-15T14:00:19.000Z</time>
      </trkpt>
      <trkpt lat="44.11017" lon="3.30635">
        <ele>912.9</ele>
        <time>2025-02-15T14:00:21.000Z</time>
      </trkpt>
      <trkpt lat="44.11012" lon="3.30621">
        <ele>912.4</ele>
        <time>2025-02-15T14:00:23.000Z</time>
      </trkpt>
      <trkpt lat="44.11008" lon="3.30607">
        <ele>911.9</ele>
        <time>2025-02-15T14:00:25.000Z</time>
      </trkpt>
      <trkpt lat="44.11003" lon="3.30592">
        <ele>911.3</ele>
        <time>2025-02-15T14:00:27.000Z</time>
      </trkpt>
      <trkpt lat="44.10998" lon="3.30576">
        <ele>910.7</ele>
        <time>2025-02-15T14:00:29.000Z</time>
      </trkpt>
      <trkpt lat="44.10992" lon="3.30561">
        <ele>910</ele>
        <time>2025-02-15T14:00:31.000Z</time>
      </trkpt>
      <trkpt lat="44.10987" lon="3.30546">
        <ele>909.2</ele>
        <time>2025-02-15T14:00:33.000Z</time>
      </trkpt>
      <trkpt lat="44.10981" lon="3.30531">
        <ele>908.4</ele>
        <time>2025-02-15T14:00:35.000Z</time>
      </trkpt>
      <trkpt lat="44.10973" lon="3.30517">
        <ele>907.8</ele>
        <time>2025-02-15T14:00:37.000Z</time>
      </trkpt>
      <trkpt lat="44.10962" lon="3.30506">
        <ele>907.1</ele>
        <time>2025-02-15T14:00:39.000Z</time>
      </trkpt>
      <trkpt lat="44.10951" lon="3.30497">
        <ele>906.3</ele>
        <time>2025-02-15T14:00:41.000Z</time>
      </trkpt>
      <trkpt lat="44.10939" lon="3.30486">
        <ele>905.4</ele>
        <time>2025-02-15T14:00:43.000Z</time>
      </trkpt>
      <trkpt lat="44.10928" lon="3.30474">
        <ele>904.6</ele>
        <time>2025-02-15T14:00:45.000Z</time>
      </trkpt>
      <trkpt lat="44.10919" lon="3.3046">
        <ele>903.9</ele>
        <time>2025-02-15T14:00:47.000Z</time>
      </trkpt>
      <trkpt lat="44.10912" lon="3.30443">
        <ele>903</ele>
        <time>2025-02-15T14:00:49.000Z</time>
      </trkpt>
      <trkpt lat="44.10907" lon="3.30425">
        <ele>902.2</ele>
        <time>2025-02-15T14:00:51.000Z</time>
      </trkpt>
      <trkpt lat="44.109" lon="3.3041">
        <ele>901.3</ele>
        <time>2025-02-15T14:00:53.000Z</time>
      </trkpt>
      <trkpt lat="44.10894" lon="3.30394">
        <ele>900.5</ele>
        <time>2025-02-15T14:00:55.000Z</time>
      </trkpt>
      <trkpt lat="44.1089" lon="3.30378">
        <ele>899.6</ele>
        <time>2025-02-15T14:00:57.000Z</time>
      </trkpt>
      <trkpt lat="44.10891" lon="3.3036">
        <ele>898.7</ele>
        <time>2025-02-15T14:00:59.000Z</time>
      </trkpt>
      <trkpt lat="44.10895" lon="3.30343">
        <ele>897.9</ele>
        <time>2025-02-15T14:01:01.000Z</time>
      </trkpt>
      <trkpt lat="44.10902" lon="3.30326">
        <ele>897</ele>
        <time>2025-02-15T14:01:03.000Z</time>
      </trkpt>
      <trkpt lat="44.10911" lon="3.3031">
        <ele>895.9</ele>
        <time>2025-02-15T14:01:05.000Z</time>
      </trkpt>
      <trkpt lat="44.10919" lon="3.30294">
        <ele>894.7</ele>
        <time>2025-02-15T14:01:07.000Z</time>
      </trkpt>
      <trkpt lat="44.10926" lon="3.30283">
        <ele>893.2</ele>
        <time>2025-02-15T14:01:09.000Z</time>
      </trkpt>
      <trkpt lat="44.10935" lon="3.30275">
        <ele>891.1</ele>
        <time>2025-02-15T14:01:12.000Z</time>
      </trkpt>
      <trkpt lat="44.10947" lon="3.30266">
        <ele>889.2</ele>
        <time>2025-02-15T14:01:15.000Z</time>
      </trkpt>
      <trkpt lat="44.10959" lon="3.30265">
        <ele>888.1</ele>
        <time>2025-02-15T14:01:17.000Z</time>
      </trkpt>
      <trkpt lat="44.10969" lon="3.30266">
        <ele>887.1</ele>
        <time>2025-02-15T14:01:19.000Z</time>
      </trkpt>
      <trkpt lat="44.10979" lon="3.30268">
        <ele>886.1</ele>
        <time>2025-02-15T14:01:21.000Z</time>
      </trkpt>
      <trkpt lat="44.1099" lon="3.30269">
        <ele>885.2</ele>
        <time>2025-02-15T14:01:23.000Z</time>
      </trkpt>
      <trkpt lat="44.11" lon="3.3027">
        <ele>884.3</ele>
        <time>2025-02-15T14:01:25.000Z</time>
      </trkpt>
      <trkpt lat="44.11011" lon="3.3027">
        <ele>883.6</ele>
        <time>2025-02-15T14:01:27.000Z</time>
      </trkpt>
      <trkpt lat="44.11022" lon="3.30269">
        <ele>882.9</ele>
        <time>2025-02-15T14:01:29.000Z</time>
      </trkpt>
      <trkpt lat="44.11032" lon="3.30265">
        <ele>882.3</ele>
        <time>2025-02-15T14:01:31.000Z</time>
      </trkpt>
      <trkpt lat="44.1104" lon="3.30259">
        <ele>881.8</ele>
        <time>2025-02-15T14:01:33.000Z</time>
      </trkpt>
      <trkpt lat="44.11049" lon="3.30247">
        <ele>881.2</ele>
        <time>2025-02-15T14:01:36.000Z</time>
      </trkpt>
      <trkpt lat="44.11053" lon="3.30232">
        <ele>880.8</ele>
        <time>2025-02-15T14:01:39.000Z</time>
      </trkpt>
      <trkpt lat="44.11052" lon="3.30219">
        <ele>880.7</ele>
        <time>2025-02-15T14:01:42.000Z</time>
      </trkpt>
      <trkpt lat="44.11049" lon="3.30204">
        <ele>880.8</ele>
        <time>2025-02-15T14:01:46.000Z</time>
      </trkpt>
      <trkpt lat="44.11046" lon="3.3019">
        <ele>881.1</ele>
        <time>2025-02-15T14:01:50.000Z</time>
      </trkpt>
      <trkpt lat="44.11043" lon="3.30177">
        <ele>881.7</ele>
        <time>2025-02-15T14:01:54.000Z</time>
      </trkpt>
      <trkpt lat="44.11041" lon="3.30163">
        <ele>882.2</ele>
        <time>2025-02-15T14:01:58.000Z</time>
      </trkpt>
      <trkpt lat="44.1104" lon="3.30149">
        <ele>882.8</ele>
        <time>2025-02-15T14:02:02.000Z</time>
      </trkpt>
      <trkpt lat="44.11039" lon="3.30136">
        <ele>883.3</ele>
        <time>2025-02-15T14:02:06.000Z</time>
      </trkpt>
      <trkpt lat="44.11039" lon="3.30123">
        <ele>884.2</ele>
        <time>2025-02-15T14:02:10.000Z</time>
      </trkpt>
      <trkpt lat="44.11037" lon="3.3011">
        <ele>885.3</ele>
        <time>2025-02-15T14:02:16.000Z</time>
      </trkpt>
      <trkpt lat="44.11037" lon="3.30096">
        <ele>886.4</ele>
        <time>2025-02-15T14:02:22.000Z</time>
      </trkpt>
      <trkpt lat="44.11037" lon="3.30082">
        <ele>887.6</ele>
        <time>2025-02-15T14:02:28.000Z</time>
      </trkpt>
      <trkpt lat="44.11037" lon="3.30069">
        <ele>888.8</ele>
        <time>2025-02-15T14:02:34.000Z</time>
      </trkpt>
      <trkpt lat="44.11037" lon="3.30054">
        <ele>890</ele>
        <time>2025-02-15T14:02:40.000Z</time>
      </trkpt>
      <trkpt lat="44.11038" lon="3.30041">
        <ele>891</ele>
        <time>2025-02-15T14:02:45.000Z</time>
      </trkpt>
      <trkpt lat="44.11038" lon="3.30028">
        <ele>891.9</ele>
        <time>2025-02-15T14:02:50.000Z</time>
      </trkpt>
      <trkpt lat="44.11041" lon="3.30015">
        <ele>892.8</ele>
        <time>2025-02-15T14:02:55.000Z</time>
      </trkpt>
      <trkpt lat="44.11045" lon="3.30004">
        <ele>893.7</ele>
        <time>2025-02-15T14:03:00.000Z</time>
      </trkpt>
      <trkpt lat="44.11051" lon="3.29993">
        <ele>894.6</ele>
        <time>2025-02-15T14:03:05.000Z</time>
      </trkpt>
      <trkpt lat="44.11058" lon="3.29982">
        <ele>895.5</ele>
        <time>2025-02-15T14:03:11.000Z</time>
      </trkpt>
      <trkpt lat="44.11065" lon="3.29974">
        <ele>896.3</ele>
        <time>2025-02-15T14:03:16.000Z</time>
      </trkpt>
      <trkpt lat="44.11073" lon="3.29966">
        <ele>897</ele>
        <time>2025-02-15T14:03:21.000Z</time>
      </trkpt>
      <trkpt lat="44.11082" lon="3.29957">
        <ele>897.8</ele>
        <time>2025-02-15T14:03:26.000Z</time>
      </trkpt>
      <trkpt lat="44.11091" lon="3.29949">
        <ele>898.5</ele>
        <time>2025-02-15T14:03:31.000Z</time>
      </trkpt>
      <trkpt lat="44.111" lon="3.29942">
        <ele>899.2</ele>
        <time>2025-02-15T14:03:36.000Z</time>
      </trkpt>
      <trkpt lat="44.11108" lon="3.29932">
        <ele>899.8</ele>
        <time>2025-02-15T14:03:42.000Z</time>
      </trkpt>
      <trkpt lat="44.11117" lon="3.29922">
        <ele>900.1</ele>
        <time>2025-02-15T14:03:47.000Z</time>
      </trkpt>
      <trkpt lat="44.11124" lon="3.29912">
        <ele>900.5</ele>
        <time>2025-02-15T14:03:52.000Z</time>
      </trkpt>
      <trkpt lat="44.11131" lon="3.29904">
        <ele>900.7</ele>
        <time>2025-02-15T14:03:56.000Z</time>
      </trkpt>
      <trkpt lat="44.1114" lon="3.29895">
        <ele>901</ele>
        <time>2025-02-15T14:04:01.000Z</time>
      </trkpt>
      <trkpt lat="44.11148" lon="3.29885">
        <ele>901.1</ele>
        <time>2025-02-15T14:04:06.000Z</time>
      </trkpt>
      <trkpt lat="44.11157" lon="3.29874">
        <ele>901.2</ele>
        <time>2025-02-15T14:04:10.000Z</time>
      </trkpt>
      <trkpt lat="44.11166" lon="3.29863">
        <ele>901.3</ele>
        <time>2025-02-15T14:04:13.000Z</time>
      </trkpt>
      <trkpt lat="44.11173" lon="3.29855">
        <ele>901.2</ele>
        <time>2025-02-15T14:04:15.000Z</time>
      </trkpt>
      <trkpt lat="44.11182" lon="3.29846">
        <ele>901.1</ele>
        <time>2025-02-15T14:04:17.000Z</time>
      </trkpt>
      <trkpt lat="44.1119" lon="3.29836">
        <ele>900.9</ele>
        <time>2025-02-15T14:04:19.000Z</time>
      </trkpt>
      <trkpt lat="44.112" lon="3.29826">
        <ele>900.7</ele>
        <time>2025-02-15T14:04:21.000Z</time>
      </trkpt>
      <trkpt lat="44.1121" lon="3.29815">
        <ele>900.5</ele>
        <time>2025-02-15T14:04:23.000Z</time>
      </trkpt>
      <trkpt lat="44.11219" lon="3.29801">
        <ele>900</ele>
        <time>2025-02-15T14:04:25.000Z</time>
      </trkpt>
      <trkpt lat="44.11228" lon="3.29784">
        <ele>899.5</ele>
        <time>2025-02-15T14:04:27.000Z</time>
      </trkpt>
      <trkpt lat="44.11235" lon="3.29764">
        <ele>899</ele>
        <time>2025-02-15T14:04:29.000Z</time>
      </trkpt>
      <trkpt lat="44.11241" lon="3.29741">
        <ele>898.4</ele>
        <time>2025-02-15T14:04:31.000Z</time>
      </trkpt>
      <trkpt lat="44.11243" lon="3.29728">
        <ele>898</ele>
        <time>2025-02-15T14:04:32.000Z</time>
      </trkpt>
      <trkpt lat="44.11245" lon="3.29715">
        <ele>897.6</ele>
        <time>2025-02-15T14:04:33.000Z</time>
      </trkpt>
      <trkpt lat="44.11246" lon="3.29702">
        <ele>897.2</ele>
        <time>2025-02-15T14:04:34.000Z</time>
      </trkpt>
      <trkpt lat="44.11246" lon="3.29689">
        <ele>896.8</ele>
        <time>2025-02-15T14:04:35.000Z</time>
      </trkpt>
      <trkpt lat="44.11246" lon="3.29675">
        <ele>896.3</ele>
        <time>2025-02-15T14:04:36.000Z</time>
      </trkpt>
      <trkpt lat="44.11246" lon="3.29662">
        <ele>895.9</ele>
        <time>2025-02-15T14:04:37.000Z</time>
      </trkpt>
      <trkpt lat="44.11245" lon="3.29648">
        <ele>895.4</ele>
        <time>2025-02-15T14:04:38.000Z</time>
      </trkpt>
      <trkpt lat="44.11244" lon="3.29635">
        <ele>894.9</ele>
        <time>2025-02-15T14:04:39.000Z</time>
      </trkpt>
      <trkpt lat="44.11243" lon="3.29622">
        <ele>894.4</ele>
        <time>2025-02-15T14:04:40.000Z</time>
      </trkpt>
      <trkpt lat="44.11242" lon="3.29609">
        <ele>893.9</ele>
        <time>2025-02-15T14:04:41.000Z</time>
      </trkpt>
      <trkpt lat="44.1124" lon="3.29596">
        <ele>893.4</ele>
        <time>2025-02-15T14:04:42.000Z</time>
      </trkpt>
      <trkpt lat="44.11239" lon="3.29583">
        <ele>892.8</ele>
        <time>2025-02-15T14:04:43.000Z</time>
      </trkpt>
      <trkpt lat="44.11238" lon="3.2957">
        <ele>892.3</ele>
        <time>2025-02-15T14:04:44.000Z</time>
      </trkpt>
      <trkpt lat="44.11236" lon="3.29558">
        <ele>891.7</ele>
        <time>2025-02-15T14:04:45.000Z</time>
      </trkpt>
      <trkpt lat="44.11233" lon="3.29533">
        <ele>890.6</ele>
        <time>2025-02-15T14:04:47.000Z</time>
      </trkpt>
      <trkpt lat="44.1123" lon="3.29513">
        <ele>889.5</ele>
        <time>2025-02-15T14:04:49.000Z</time>
      </trkpt>
      <trkpt lat="44.11227" lon="3.295">
        <ele>888.3</ele>
        <time>2025-02-15T14:04:51.000Z</time>
      </trkpt>
      <trkpt lat="44.11224" lon="3.29488">
        <ele>887.1</ele>
        <time>2025-02-15T14:04:53.000Z</time>
      </trkpt>
      <trkpt lat="44.1122" lon="3.29475">
        <ele>886.1</ele>
        <time>2025-02-15T14:04:55.000Z</time>
      </trkpt>
      <trkpt lat="44.11217" lon="3.29462">
        <ele>885.1</ele>
        <time>2025-02-15T14:04:57.000Z</time>
      </trkpt>
      <trkpt lat="44.11213" lon="3.29448">
        <ele>884.3</ele>
        <time>2025-02-15T14:04:59.000Z</time>
      </trkpt>
      <trkpt lat="44.1121" lon="3.29433">
        <ele>883.4</ele>
        <time>2025-02-15T14:05:01.000Z</time>
      </trkpt>
      <trkpt lat="44.11206" lon="3.29416">
        <ele>882.6</ele>
        <time>2025-02-15T14:05:03.000Z</time>
      </trkpt>
      <trkpt lat="44.11201" lon="3.29399">
        <ele>881.6</ele>
        <time>2025-02-15T14:05:05.000Z</time>
      </trkpt>
      <trkpt lat="44.11197" lon="3.29381">
        <ele>880.8</ele>
        <time>2025-02-15T14:05:07.000Z</time>
      </trkpt>
      <trkpt lat="44.11192" lon="3.29364">
        <ele>879.9</ele>
        <time>2025-02-15T14:05:09.000Z</time>
      </trkpt>
      <trkpt lat="44.11188" lon="3.29346">
        <ele>879</ele>
        <time>2025-02-15T14:05:11.000Z</time>
      </trkpt>
      <trkpt lat="44.11183" lon="3.29327">
        <ele>878.1</ele>
        <time>2025-02-15T14:05:13.000Z</time>
      </trkpt>
      <trkpt lat="44.11178" lon="3.29308">
        <ele>877.2</ele>
        <time>2025-02-15T14:05:15.000Z</time>
      </trkpt>
      <trkpt lat="44.11174" lon="3.29289">
        <ele>876.2</ele>
        <time>2025-02-15T14:05:17.000Z</time>
      </trkpt>
      <trkpt lat="44.1117" lon="3.29273">
        <ele>875.2</ele>
        <time>2025-02-15T14:05:19.000Z</time>
      </trkpt>
      <trkpt lat="44.11168" lon="3.29258">
        <ele>874.2</ele>
        <time>2025-02-15T14:05:21.000Z</time>
      </trkpt>
      <trkpt lat="44.11167" lon="3.29244">
        <ele>873.3</ele>
        <time>2025-02-15T14:05:23.000Z</time>
      </trkpt>
      <trkpt lat="44.11168" lon="3.29228">
        <ele>872.4</ele>
        <time>2025-02-15T14:05:25.000Z</time>
      </trkpt>
      <trkpt lat="44.1117" lon="3.29215">
        <ele>871.4</ele>
        <time>2025-02-15T14:05:27.000Z</time>
      </trkpt>
      <trkpt lat="44.11173" lon="3.29198">
        <ele>870</ele>
        <time>2025-02-15T14:05:30.000Z</time>
      </trkpt>
      <trkpt lat="44.11179" lon="3.29186">
        <ele>868.4</ele>
        <time>2025-02-15T14:05:34.000Z</time>
      </trkpt>
      <trkpt lat="44.11184" lon="3.29175">
        <ele>865.4</ele>
        <time>2025-02-15T14:05:43.000Z</time>
      </trkpt>
      <trkpt lat="44.11195" lon="3.29178">
        <ele>864</ele>
        <time>2025-02-15T14:05:49.000Z</time>
      </trkpt>
      <trkpt lat="44.11207" lon="3.2918">
        <ele>863.2</ele>
        <time>2025-02-15T14:05:52.000Z</time>
      </trkpt>
      <trkpt lat="44.11217" lon="3.29183">
        <ele>862.7</ele>
        <time>2025-02-15T14:05:54.000Z</time>
      </trkpt>
      <trkpt lat="44.11229" lon="3.29185">
        <ele>862.2</ele>
        <time>2025-02-15T14:05:56.000Z</time>
      </trkpt>
      <trkpt lat="44.11241" lon="3.29187">
        <ele>861.6</ele>
        <time>2025-02-15T14:05:58.000Z</time>
      </trkpt>
      <trkpt lat="44.11253" lon="3.2919">
        <ele>861</ele>
        <time>2025-02-15T14:06:00.000Z</time>
      </trkpt>
      <trkpt lat="44.11265" lon="3.29194">
        <ele>860.4</ele>
        <time>2025-02-15T14:06:02.000Z</time>
      </trkpt>
      <trkpt lat="44.11277" lon="3.292">
        <ele>859.6</ele>
        <time>2025-02-15T14:06:04.000Z</time>
      </trkpt>
      <trkpt lat="44.1129" lon="3.2921">
        <ele>858.9</ele>
        <time>2025-02-15T14:06:06.000Z</time>
      </trkpt>
      <trkpt lat="44.11303" lon="3.29219">
        <ele>858.2</ele>
        <time>2025-02-15T14:06:08.000Z</time>
      </trkpt>
      <trkpt lat="44.11316" lon="3.29229">
        <ele>857.4</ele>
        <time>2025-02-15T14:06:10.000Z</time>
      </trkpt>
      <trkpt lat="44.1133" lon="3.29239">
        <ele>856.7</ele>
        <time>2025-02-15T14:06:12.000Z</time>
      </trkpt>
      <trkpt lat="44.11344" lon="3.29246">
        <ele>855.9</ele>
        <time>2025-02-15T14:06:14.000Z</time>
      </trkpt>
      <trkpt lat="44.11359" lon="3.29251">
        <ele>855.2</ele>
        <time>2025-02-15T14:06:16.000Z</time>
      </trkpt>
      <trkpt lat="44.11373" lon="3.29256">
        <ele>854.5</ele>
        <time>2025-02-15T14:06:18.000Z</time>
      </trkpt>
      <trkpt lat="44.11385" lon="3.29259">
        <ele>854</ele>
        <time>2025-02-15T14:06:20.000Z</time>
      </trkpt>
      <trkpt lat="44.11396" lon="3.29262">
        <ele>853.5</ele>
        <time>2025-02-15T14:06:22.000Z</time>
      </trkpt>
      <trkpt lat="44.11408" lon="3.29264">
        <ele>852.9</ele>
        <time>2025-02-15T14:06:25.000Z</time>
      </trkpt>
      <trkpt lat="44.11417" lon="3.29264">
        <ele>852.3</ele>
        <time>2025-02-15T14:06:28.000Z</time>
      </trkpt>
      <trkpt lat="44.11426" lon="3.29264">
        <ele>851.8</ele>
        <time>2025-02-15T14:06:32.000Z</time>
      </trkpt>
      <trkpt lat="44.11425" lon="3.29248">
        <ele>851.3</ele>
        <time>2025-02-15T14:06:38.000Z</time>
      </trkpt>
      <trkpt lat="44.11421" lon="3.29232">
        <ele>851.1</ele>
        <time>2025-02-15T14:06:42.000Z</time>
      </trkpt>
      <trkpt lat="44.11414" lon="3.29218">
        <ele>850.9</ele>
        <time>2025-02-15T14:06:45.000Z</time>
      </trkpt>
      <trkpt lat="44.11406" lon="3.29203">
        <ele>850.5</ele>
        <time>2025-02-15T14:06:48.000Z</time>
      </trkpt>
      <trkpt lat="44.11401" lon="3.29192">
        <ele>850.3</ele>
        <time>2025-02-15T14:06:50.000Z</time>
      </trkpt>
      <trkpt lat="44.11396" lon="3.29181">
        <ele>850</ele>
        <time>2025-02-15T14:06:52.000Z</time>
      </trkpt>
      <trkpt lat="44.1139" lon="3.29169">
        <ele>849.7</ele>
        <time>2025-02-15T14:06:54.000Z</time>
      </trkpt>
      <trkpt lat="44.11384" lon="3.29153">
        <ele>849.3</ele>
        <time>2025-02-15T14:06:57.000Z</time>
      </trkpt>
      <trkpt lat="44.11382" lon="3.29136">
        <ele>848.8</ele>
        <time>2025-02-15T14:07:00.000Z</time>
      </trkpt>
      <trkpt lat="44.11382" lon="3.2912">
        <ele>848.4</ele>
        <time>2025-02-15T14:07:03.000Z</time>
      </trkpt>
      <trkpt lat="44.11382" lon="3.29104">
        <ele>848</ele>
        <time>2025-02-15T14:07:06.000Z</time>
      </trkpt>
      <trkpt lat="44.11381" lon="3.29085">
        <ele>847.5</ele>
        <time>2025-02-15T14:07:09.000Z</time>
      </trkpt>
      <trkpt lat="44.11382" lon="3.29069">
        <ele>847</ele>
        <time>2025-02-15T14:07:12.000Z</time>
      </trkpt>
      <trkpt lat="44.11385" lon="3.29057">
        <ele>846.2</ele>
        <time>2025-02-15T14:07:16.000Z</time>
      </trkpt>
      <trkpt lat="44.11386" lon="3.29039">
        <ele>842.4</ele>
        <time>2025-02-15T14:08:21.000Z</time>
      </trkpt>
      <trkpt lat="44.11383" lon="3.29021">
        <ele>841.8</ele>
        <time>2025-02-15T14:08:24.000Z</time>
      </trkpt>
      <trkpt lat="44.1138" lon="3.29005">
        <ele>841.4</ele>
        <time>2025-02-15T14:08:27.000Z</time>
      </trkpt>
      <trkpt lat="44.11376" lon="3.28993">
        <ele>841</ele>
        <time>2025-02-15T14:08:30.000Z</time>
      </trkpt>
      <trkpt lat="44.11376" lon="3.2898">
        <ele>840.4</ele>
        <time>2025-02-15T14:08:34.000Z</time>
      </trkpt>
      <trkpt lat="44.11385" lon="3.2898">
        <ele>839.9</ele>
        <time>2025-02-15T14:08:38.000Z</time>
      </trkpt>
      <trkpt lat="44.11387" lon="3.28967">
        <ele>839.4</ele>
        <time>2025-02-15T14:08:43.000Z</time>
      </trkpt>
      <trkpt lat="44.11388" lon="3.28953">
        <ele>839.2</ele>
        <time>2025-02-15T14:08:47.000Z</time>
      </trkpt>
      <trkpt lat="44.11391" lon="3.28938">
        <ele>839</ele>
        <time>2025-02-15T14:08:52.000Z</time>
      </trkpt>
      <trkpt lat="44.11394" lon="3.28922">
        <ele>838.8</ele>
        <time>2025-02-15T14:08:56.000Z</time>
      </trkpt>
      <trkpt lat="44.11397" lon="3.2891">
        <ele>838.7</ele>
        <time>2025-02-15T14:09:00.000Z</time>
      </trkpt>
      <trkpt lat="44.11402" lon="3.289">
        <ele>838.9</ele>
        <time>2025-02-15T14:09:05.000Z</time>
      </trkpt>
      <trkpt lat="44.1141" lon="3.28892">
        <ele>839.7</ele>
        <time>2025-02-15T14:09:13.000Z</time>
      </trkpt>
      <trkpt lat="44.11418" lon="3.28884">
        <ele>841.3</ele>
        <time>2025-02-15T14:09:23.000Z</time>
      </trkpt>
      <trkpt lat="44.11427" lon="3.28876">
        <ele>842.7</ele>
        <time>2025-02-15T14:09:31.000Z</time>
      </trkpt>
      <trkpt lat="44.11434" lon="3.28868">
        <ele>844.1</ele>
        <time>2025-02-15T14:09:39.000Z</time>
      </trkpt>
      <trkpt lat="44.1144" lon="3.28857">
        <ele>845.6</ele>
        <time>2025-02-15T14:09:47.000Z</time>
      </trkpt>
      <trkpt lat="44.11445" lon="3.28846">
        <ele>846.8</ele>
        <time>2025-02-15T14:09:54.000Z</time>
      </trkpt>
      <trkpt lat="44.11451" lon="3.28836">
        <ele>847.8</ele>
        <time>2025-02-15T14:10:00.000Z</time>
      </trkpt>
      <trkpt lat="44.11453" lon="3.28823">
        <ele>848.6</ele>
        <time>2025-02-15T14:10:05.000Z</time>
      </trkpt>
      <trkpt lat="44.11455" lon="3.28808">
        <ele>849.4</ele>
        <time>2025-02-15T14:10:11.000Z</time>
      </trkpt>
      <trkpt lat="44.11458" lon="3.28795">
        <ele>850</ele>
        <time>2025-02-15T14:10:16.000Z</time>
      </trkpt>
      <trkpt lat="44.1146" lon="3.28781">
        <ele>850.5</ele>
        <time>2025-02-15T14:10:21.000Z</time>
      </trkpt>
      <trkpt lat="44.11461" lon="3.28768">
        <ele>850.8</ele>
        <time>2025-02-15T14:10:25.000Z</time>
      </trkpt>
      <trkpt lat="44.11464" lon="3.28756">
        <ele>851.1</ele>
        <time>2025-02-15T14:10:29.000Z</time>
      </trkpt>
      <trkpt lat="44.11466" lon="3.28743">
        <ele>851.3</ele>
        <time>2025-02-15T14:10:33.000Z</time>
      </trkpt>
      <trkpt lat="44.11469" lon="3.28729">
        <ele>851.4</ele>
        <time>2025-02-15T14:10:37.000Z</time>
      </trkpt>
      <trkpt lat="44.11471" lon="3.28715">
        <ele>851.5</ele>
        <time>2025-02-15T14:10:41.000Z</time>
      </trkpt>
      <trkpt lat="44.11476" lon="3.28701">
        <ele>851.4</ele>
        <time>2025-02-15T14:10:45.000Z</time>
      </trkpt>
      <trkpt lat="44.11484" lon="3.28689">
        <ele>851.1</ele>
        <time>2025-02-15T14:10:49.000Z</time>
      </trkpt>
      <trkpt lat="44.11493" lon="3.28677">
        <ele>850.6</ele>
        <time>2025-02-15T14:10:52.000Z</time>
      </trkpt>
      <trkpt lat="44.11498" lon="3.28665">
        <ele>850.1</ele>
        <time>2025-02-15T14:10:54.000Z</time>
      </trkpt>
      <trkpt lat="44.11504" lon="3.28652">
        <ele>849.5</ele>
        <time>2025-02-15T14:10:56.000Z</time>
      </trkpt>
      <trkpt lat="44.11511" lon="3.28638">
        <ele>848.8</ele>
        <time>2025-02-15T14:10:58.000Z</time>
      </trkpt>
      <trkpt lat="44.11517" lon="3.28624">
        <ele>847.7</ele>
        <time>2025-02-15T14:11:00.000Z</time>
      </trkpt>
      <trkpt lat="44.11523" lon="3.28609">
        <ele>846.4</ele>
        <time>2025-02-15T14:11:02.000Z</time>
      </trkpt>
      <trkpt lat="44.11527" lon="3.28593">
        <ele>845.2</ele>
        <time>2025-02-15T14:11:04.000Z</time>
      </trkpt>
      <trkpt lat="44.11532" lon="3.28577">
        <ele>843.8</ele>
        <time>2025-02-15T14:11:06.000Z</time>
      </trkpt>
      <trkpt lat="44.11536" lon="3.28562">
        <ele>842.3</ele>
        <time>2025-02-15T14:11:08.000Z</time>
      </trkpt>
      <trkpt lat="44.1154" lon="3.28547">
        <ele>840.8</ele>
        <time>2025-02-15T14:11:10.000Z</time>
      </trkpt>
      <trkpt lat="44.11544" lon="3.28533">
        <ele>839.2</ele>
        <time>2025-02-15T14:11:12.000Z</time>
      </trkpt>
      <trkpt lat="44.11548" lon="3.2852">
        <ele>837.7</ele>
        <time>2025-02-15T14:11:14.000Z</time>
      </trkpt>
      <trkpt lat="44.11554" lon="3.28505">
        <ele>835.4</ele>
        <time>2025-02-15T14:11:17.000Z</time>
      </trkpt>
      <trkpt lat="44.1156" lon="3.28496">
        <ele>833.2</ele>
        <time>2025-02-15T14:11:20.000Z</time>
      </trkpt>
      <trkpt lat="44.11568" lon="3.28484">
        <ele>830.3</ele>
        <time>2025-02-15T14:11:24.000Z</time>
      </trkpt>
      <trkpt lat="44.11575" lon="3.28473">
        <ele>828.1</ele>
        <time>2025-02-15T14:11:27.000Z</time>
      </trkpt>
      <trkpt lat="44.11583" lon="3.2846">
        <ele>825.9</ele>
        <time>2025-02-15T14:11:30.000Z</time>
      </trkpt>
      <trkpt lat="44.11591" lon="3.28447">
        <ele>823.8</ele>
        <time>2025-02-15T14:11:33.000Z</time>
      </trkpt>
      <trkpt lat="44.11599" lon="3.28434">
        <ele>821.8</ele>
        <time>2025-02-15T14:11:36.000Z</time>
      </trkpt>
      <trkpt lat="44.11605" lon="3.28422">
        <ele>819.9</ele>
        <time>2025-02-15T14:11:39.000Z</time>
      </trkpt>
      <trkpt lat="44.11614" lon="3.2841">
        <ele>818.2</ele>
        <time>2025-02-15T14:11:42.000Z</time>
      </trkpt>
      <trkpt lat="44.11623" lon="3.28397">
        <ele>816.5</ele>
        <time>2025-02-15T14:11:45.000Z</time>
      </trkpt>
      <trkpt lat="44.11629" lon="3.28387">
        <ele>814.9</ele>
        <time>2025-02-15T14:11:48.000Z</time>
      </trkpt>
      <trkpt lat="44.11637" lon="3.28376">
        <ele>806.2</ele>
        <time>2025-02-15T14:12:37.000Z</time>
      </trkpt>
      <trkpt lat="44.11643" lon="3.28367">
        <ele>805.8</ele>
        <time>2025-02-15T14:12:41.000Z</time>
      </trkpt>
      <trkpt lat="44.1165" lon="3.28356">
        <ele>805.4</ele>
        <time>2025-02-15T14:12:44.000Z</time>
      </trkpt>
      <trkpt lat="44.11657" lon="3.28345">
        <ele>804.7</ele>
        <time>2025-02-15T14:12:48.000Z</time>
      </trkpt>
      <trkpt lat="44.11665" lon="3.28335">
        <ele>803.8</ele>
        <time>2025-02-15T14:12:52.000Z</time>
      </trkpt>
      <trkpt lat="44.11671" lon="3.28322">
        <ele>802.6</ele>
        <time>2025-02-15T14:12:56.000Z</time>
      </trkpt>
      <trkpt lat="44.11675" lon="3.28307">
        <ele>801.1</ele>
        <time>2025-02-15T14:13:00.000Z</time>
      </trkpt>
      <trkpt lat="44.11679" lon="3.28294">
        <ele>799.9</ele>
        <time>2025-02-15T14:13:03.000Z</time>
      </trkpt>
      <trkpt lat="44.11682" lon="3.28279">
        <ele>798.6</ele>
        <time>2025-02-15T14:13:06.000Z</time>
      </trkpt>
      <trkpt lat="44.11687" lon="3.28263">
        <ele>797.2</ele>
        <time>2025-02-15T14:13:09.000Z</time>
      </trkpt>
      <trkpt lat="44.11691" lon="3.28245">
        <ele>795.7</ele>
        <time>2025-02-15T14:13:12.000Z</time>
      </trkpt>
      <trkpt lat="44.11694" lon="3.28228">
        <ele>794.3</ele>
        <time>2025-02-15T14:13:15.000Z</time>
      </trkpt>
      <trkpt lat="44.11699" lon="3.28213">
        <ele>792.9</ele>
        <time>2025-02-15T14:13:18.000Z</time>
      </trkpt>
      <trkpt lat="44.11699" lon="3.28197">
        <ele>791.4</ele>
        <time>2025-02-15T14:13:21.000Z</time>
      </trkpt>
      <trkpt lat="44.11696" lon="3.28181">
        <ele>790.1</ele>
        <time>2025-02-15T14:13:24.000Z</time>
      </trkpt>
      <trkpt lat="44.11695" lon="3.28167">
        <ele>788.7</ele>
        <time>2025-02-15T14:13:27.000Z</time>
      </trkpt>
      <trkpt lat="44.11692" lon="3.28152">
        <ele>787.1</ele>
        <time>2025-02-15T14:13:31.000Z</time>
      </trkpt>
      <trkpt lat="44.11684" lon="3.28138">
        <ele>785.5</ele>
        <time>2025-02-15T14:13:35.000Z</time>
      </trkpt>
      <trkpt lat="44.11674" lon="3.28127">
        <ele>784.2</ele>
        <time>2025-02-15T14:13:38.000Z</time>
      </trkpt>
      <trkpt lat="44.11664" lon="3.28116">
        <ele>782.4</ele>
        <time>2025-02-15T14:13:41.000Z</time>
      </trkpt>
      <trkpt lat="44.11652" lon="3.28107">
        <ele>780.9</ele>
        <time>2025-02-15T14:13:44.000Z</time>
      </trkpt>
      <trkpt lat="44.11642" lon="3.28099">
        <ele>779.3</ele>
        <time>2025-02-15T14:13:47.000Z</time>
      </trkpt>
      <trkpt lat="44.11634" lon="3.28091">
        <ele>777.6</ele>
        <time>2025-02-15T14:13:50.000Z</time>
      </trkpt>
      <trkpt lat="44.11622" lon="3.28082">
        <ele>775.7</ele>
        <time>2025-02-15T14:13:53.000Z</time>
      </trkpt>
      <trkpt lat="44.11611" lon="3.28078">
        <ele>774.5</ele>
        <time>2025-02-15T14:13:55.000Z</time>
      </trkpt>
      <trkpt lat="44.11599" lon="3.28077">
        <ele>773.3</ele>
        <time>2025-02-15T14:13:57.000Z</time>
      </trkpt>
      <trkpt lat="44.11588" lon="3.28081">
        <ele>771.6</ele>
        <time>2025-02-15T14:14:00.000Z</time>
      </trkpt>
      <trkpt lat="44.11577" lon="3.28079">
        <ele>770.3</ele>
        <time>2025-02-15T14:14:03.000Z</time>
      </trkpt>
      <trkpt lat="44.11568" lon="3.28073">
        <ele>769.1</ele>
        <time>2025-02-15T14:14:06.000Z</time>
      </trkpt>
      <trkpt lat="44.11559" lon="3.28071">
        <ele>767.9</ele>
        <time>2025-02-15T14:14:10.000Z</time>
      </trkpt>
      <trkpt lat="44.1155" lon="3.2807">
        <ele>767.1</ele>
        <time>2025-02-15T14:14:13.000Z</time>
      </trkpt>
      <trkpt lat="44.11537" lon="3.28069">
        <ele>766.3</ele>
        <time>2025-02-15T14:14:16.000Z</time>
      </trkpt>
      <trkpt lat="44.11525" lon="3.28068">
        <ele>765.5</ele>
        <time>2025-02-15T14:14:19.000Z</time>
      </trkpt>
      <trkpt lat="44.11515" lon="3.28065">
        <ele>764.8</ele>
        <time>2025-02-15T14:14:21.000Z</time>
      </trkpt>
      <trkpt lat="44.11505" lon="3.28061">
        <ele>764.1</ele>
        <time>2025-02-15T14:14:23.000Z</time>
      </trkpt>
      <trkpt lat="44.11497" lon="3.28056">
        <ele>763.3</ele>
        <time>2025-02-15T14:14:25.000Z</time>
      </trkpt>
      <trkpt lat="44.11489" lon="3.28047">
        <ele>762</ele>
        <time>2025-02-15T14:14:28.000Z</time>
      </trkpt>
      <trkpt lat="44.11483" lon="3.28035">
        <ele>760.8</ele>
        <time>2025-02-15T14:14:31.000Z</time>
      </trkpt>
      <trkpt lat="44.11477" lon="3.28022">
        <ele>758.9</ele>
        <time>2025-02-15T14:14:35.000Z</time>
      </trkpt>
      <trkpt lat="44.11471" lon="3.28009">
        <ele>757</ele>
        <time>2025-02-15T14:14:39.000Z</time>
      </trkpt>
      <trkpt lat="44.11467" lon="3.27997">
        <ele>755.6</ele>
        <time>2025-02-15T14:14:42.000Z</time>
      </trkpt>
      <trkpt lat="44.11461" lon="3.27985">
        <ele>754.2</ele>
        <time>2025-02-15T14:14:45.000Z</time>
      </trkpt>
      <trkpt lat="44.11452" lon="3.27977">
        <ele>752.6</ele>
        <time>2025-02-15T14:14:48.000Z</time>
      </trkpt>
      <trkpt lat="44.1144" lon="3.27972">
        <ele>750.9</ele>
        <time>2025-02-15T14:14:51.000Z</time>
      </trkpt>
      <trkpt lat="44.11428" lon="3.27971">
        <ele>749.5</ele>
        <time>2025-02-15T14:14:54.000Z</time>
      </trkpt>
      <trkpt lat="44.1142" lon="3.27964">
        <ele>748.1</ele>
        <time>2025-02-15T14:14:57.000Z</time>
      </trkpt>
      <trkpt lat="44.11411" lon="3.27957">
        <ele>746.3</ele>
        <time>2025-02-15T14:15:01.000Z</time>
      </trkpt>
      <trkpt lat="44.11402" lon="3.27953">
        <ele>744.4</ele>
        <time>2025-02-15T14:15:06.000Z</time>
      </trkpt>
      <trkpt lat="44.11392" lon="3.27948">
        <ele>743.1</ele>
        <time>2025-02-15T14:15:10.000Z</time>
      </trkpt>
      <trkpt lat="44.11385" lon="3.2794">
        <ele>742.2</ele>
        <time>2025-02-15T14:15:13.000Z</time>
      </trkpt>
      <trkpt lat="44.11379" lon="3.2793">
        <ele>740.9</ele>
        <time>2025-02-15T14:15:17.000Z</time>
      </trkpt>
      <trkpt lat="44.11372" lon="3.27919">
        <ele>739.4</ele>
        <time>2025-02-15T14:15:22.000Z</time>
      </trkpt>
      <trkpt lat="44.11362" lon="3.27914">
        <ele>738.1</ele>
        <time>2025-02-15T14:15:26.000Z</time>
      </trkpt>
      <trkpt lat="44.11352" lon="3.27909">
        <ele>736.8</ele>
        <time>2025-02-15T14:15:30.000Z</time>
      </trkpt>
      <trkpt lat="44.11344" lon="3.27902">
        <ele>735.5</ele>
        <time>2025-02-15T14:15:33.000Z</time>
      </trkpt>
      <trkpt lat="44.11335" lon="3.27897">
        <ele>734.3</ele>
        <time>2025-02-15T14:15:36.000Z</time>
      </trkpt>
      <trkpt lat="44.11325" lon="3.2789">
        <ele>732.9</ele>
        <time>2025-02-15T14:15:39.000Z</time>
      </trkpt>
      <trkpt lat="44.11315" lon="3.27885">
        <ele>731.6</ele>
        <time>2025-02-15T14:15:42.000Z</time>
      </trkpt>
      <trkpt lat="44.11303" lon="3.27879">
        <ele>729.7</ele>
        <time>2025-02-15T14:15:46.000Z</time>
      </trkpt>
      <trkpt lat="44.11292" lon="3.27873">
        <ele>728.4</ele>
        <time>2025-02-15T14:15:49.000Z</time>
      </trkpt>
      <trkpt lat="44.1128" lon="3.27871">
        <ele>727.1</ele>
        <time>2025-02-15T14:15:52.000Z</time>
      </trkpt>
      <trkpt lat="44.1127" lon="3.27869">
        <ele>726</ele>
        <time>2025-02-15T14:15:55.000Z</time>
      </trkpt>
      <trkpt lat="44.11261" lon="3.27861">
        <ele>724.3</ele>
        <time>2025-02-15T14:15:59.000Z</time>
      </trkpt>
      <trkpt lat="44.11253" lon="3.27855">
        <ele>722.7</ele>
        <time>2025-02-15T14:16:03.000Z</time>
      </trkpt>
      <trkpt lat="44.11244" lon="3.2785">
        <ele>720.6</ele>
        <time>2025-02-15T14:16:08.000Z</time>
      </trkpt>
      <trkpt lat="44.11235" lon="3.27845">
        <ele>718.4</ele>
        <time>2025-02-15T14:16:13.000Z</time>
      </trkpt>
      <trkpt lat="44.11225" lon="3.27843">
        <ele>715.6</ele>
        <time>2025-02-15T14:16:19.000Z</time>
      </trkpt>
      <trkpt lat="44.11215" lon="3.27848">
        <ele>713.3</ele>
        <time>2025-02-15T14:16:24.000Z</time>
      </trkpt>
      <trkpt lat="44.11206" lon="3.27854">
        <ele>711.6</ele>
        <time>2025-02-15T14:16:28.000Z</time>
      </trkpt>
      <trkpt lat="44.11195" lon="3.27855">
        <ele>710</ele>
        <time>2025-02-15T14:16:32.000Z</time>
      </trkpt>
      <trkpt lat="44.11186" lon="3.27856">
        <ele>708.8</ele>
        <time>2025-02-15T14:16:35.000Z</time>
      </trkpt>
      <trkpt lat="44.11177" lon="3.27855">
        <ele>707.5</ele>
        <time>2025-02-15T14:16:38.000Z</time>
      </trkpt>
      <trkpt lat="44.11167" lon="3.27846">
        <ele>705.9</ele>
        <time>2025-02-15T14:16:42.000Z</time>
      </trkpt>
      <trkpt lat="44.11157" lon="3.27842">
        <ele>704.3</ele>
        <time>2025-02-15T14:16:46.000Z</time>
      </trkpt>
      <trkpt lat="44.11148" lon="3.27843">
        <ele>703.1</ele>
        <time>2025-02-15T14:16:49.000Z</time>
      </trkpt>
      <trkpt lat="44.11137" lon="3.27846">
        <ele>701.5</ele>
        <time>2025-02-15T14:16:53.000Z</time>
      </trkpt>
      <trkpt lat="44.11125" lon="3.27846">
        <ele>700</ele>
        <time>2025-02-15T14:16:57.000Z</time>
      </trkpt>
      <trkpt lat="44.11117" lon="3.27841">
        <ele>698.3</ele>
        <time>2025-02-15T14:17:01.000Z</time>
      </trkpt>
      <trkpt lat="44.11107" lon="3.27833">
        <ele>697</ele>
        <time>2025-02-15T14:17:04.000Z</time>
      </trkpt>
      <trkpt lat="44.11098" lon="3.27827">
        <ele>695.4</ele>
        <time>2025-02-15T14:17:08.000Z</time>
      </trkpt>
      <trkpt lat="44.11089" lon="3.27817">
        <ele>693.6</ele>
        <time>2025-02-15T14:17:13.000Z</time>
      </trkpt>
      <trkpt lat="44.11087" lon="3.27804">
        <ele>692.1</ele>
        <time>2025-02-15T14:17:17.000Z</time>
      </trkpt>
      <trkpt lat="44.11086" lon="3.27791">
        <ele>690.8</ele>
        <time>2025-02-15T14:17:20.000Z</time>
      </trkpt>
      <trkpt lat="44.11085" lon="3.27777">
        <ele>688.9</ele>
        <time>2025-02-15T14:17:26.000Z</time>
      </trkpt>
      <trkpt lat="44.11082" lon="3.27763">
        <ele>687.6</ele>
        <time>2025-02-15T14:17:31.000Z</time>
      </trkpt>
      <trkpt lat="44.11078" lon="3.27751">
        <ele>684.4</ele>
        <time>2025-02-15T14:17:55.000Z</time>
      </trkpt>
      <trkpt lat="44.11076" lon="3.27735">
        <ele>684.1</ele>
        <time>2025-02-15T14:18:00.000Z</time>
      </trkpt>
      <trkpt lat="44.11073" lon="3.27722">
        <ele>683.8</ele>
        <time>2025-02-15T14:18:03.000Z</time>
      </trkpt>
      <trkpt lat="44.11067" lon="3.27709">
        <ele>683.1</ele>
        <time>2025-02-15T14:18:07.000Z</time>
      </trkpt>
      <trkpt lat="44.11061" lon="3.27699">
        <ele>682.3</ele>
        <time>2025-02-15T14:18:10.000Z</time>
      </trkpt>
      <trkpt lat="44.11053" lon="3.27692">
        <ele>680.9</ele>
        <time>2025-02-15T14:18:15.000Z</time>
      </trkpt>
      <trkpt lat="44.11046" lon="3.27685">
        <ele>679.8</ele>
        <time>2025-02-15T14:18:20.000Z</time>
      </trkpt>
      <trkpt lat="44.11048" lon="3.27672">
        <ele>678.5</ele>
        <time>2025-02-15T14:18:26.000Z</time>
      </trkpt>
      <trkpt lat="44.1105" lon="3.27659">
        <ele>677.9</ele>
        <time>2025-02-15T14:18:32.000Z</time>
      </trkpt>
      <trkpt lat="44.11051" lon="3.27645">
        <ele>677.6</ele>
        <time>2025-02-15T14:18:38.000Z</time>
      </trkpt>
      <trkpt lat="44.11056" lon="3.27631">
        <ele>677.1</ele>
        <time>2025-02-15T14:18:43.000Z</time>
      </trkpt>
      <trkpt lat="44.11054" lon="3.27618">
        <ele>676.5</ele>
        <time>2025-02-15T14:18:47.000Z</time>
      </trkpt>
      <trkpt lat="44.11053" lon="3.27604">
        <ele>675.9</ele>
        <time>2025-02-15T14:18:51.000Z</time>
      </trkpt>
      <trkpt lat="44.11051" lon="3.27591">
        <ele>675</ele>
        <time>2025-02-15T14:18:56.000Z</time>
      </trkpt>
      <trkpt lat="44.11053" lon="3.27577">
        <ele>674</ele>
        <time>2025-02-15T14:19:01.000Z</time>
      </trkpt>
      <trkpt lat="44.1105" lon="3.27565">
        <ele>673.2</ele>
        <time>2025-02-15T14:19:06.000Z</time>
      </trkpt>
      <trkpt lat="44.11052" lon="3.27552">
        <ele>672.7</ele>
        <time>2025-02-15T14:19:10.000Z</time>
      </trkpt>
      <trkpt lat="44.1105" lon="3.27539">
        <ele>672.1</ele>
        <time>2025-02-15T14:19:15.000Z</time>
      </trkpt>
      <trkpt lat="44.11051" lon="3.27527">
        <ele>671.6</ele>
        <time>2025-02-15T14:19:20.000Z</time>
      </trkpt>
      <trkpt lat="44.11045" lon="3.27516">
        <ele>670.9</ele>
        <time>2025-02-15T14:19:24.000Z</time>
      </trkpt>
      <trkpt lat="44.11044" lon="3.27502">
        <ele>670.1</ele>
        <time>2025-02-15T14:19:29.000Z</time>
      </trkpt>
      <trkpt lat="44.11048" lon="3.27487">
        <ele>668.7</ele>
        <time>2025-02-15T14:19:35.000Z</time>
      </trkpt>
      <trkpt lat="44.11047" lon="3.27474">
        <ele>667.9</ele>
        <time>2025-02-15T14:19:38.000Z</time>
      </trkpt>
      <trkpt lat="44.11037" lon="3.27467">
        <ele>666.8</ele>
        <time>2025-02-15T14:19:42.000Z</time>
      </trkpt>
      <trkpt lat="44.11027" lon="3.27464">
        <ele>665.9</ele>
        <time>2025-02-15T14:19:46.000Z</time>
      </trkpt>
      <trkpt lat="44.11018" lon="3.27458">
        <ele>664.8</ele>
        <time>2025-02-15T14:19:51.000Z</time>
      </trkpt>
      <trkpt lat="44.11011" lon="3.27449">
        <ele>663.6</ele>
        <time>2025-02-15T14:19:56.000Z</time>
      </trkpt>
      <trkpt lat="44.11003" lon="3.2744">
        <ele>662.2</ele>
        <time>2025-02-15T14:20:01.000Z</time>
      </trkpt>
      <trkpt lat="44.10998" lon="3.27428">
        <ele>660.5</ele>
        <time>2025-02-15T14:20:06.000Z</time>
      </trkpt>
      <trkpt lat="44.10998" lon="3.27441">
        <ele>658.7</ele>
        <time>2025-02-15T14:20:12.000Z</time>
      </trkpt>
      <trkpt lat="44.1099" lon="3.27434">
        <ele>656.5</ele>
        <time>2025-02-15T14:20:19.000Z</time>
      </trkpt>
      <trkpt lat="44.10982" lon="3.27424">
        <ele>655</ele>
        <time>2025-02-15T14:20:24.000Z</time>
      </trkpt>
      <trkpt lat="44.10981" lon="3.2741">
        <ele>653</ele>
        <time>2025-02-15T14:20:30.000Z</time>
      </trkpt>
      <trkpt lat="44.10981" lon="3.27397">
        <ele>650.8</ele>
        <time>2025-02-15T14:20:36.000Z</time>
      </trkpt>
      <trkpt lat="44.10984" lon="3.27383">
        <ele>648.3</ele>
        <time>2025-02-15T14:20:42.000Z</time>
      </trkpt>
      <trkpt lat="44.10985" lon="3.27368">
        <ele>645.2</ele>
        <time>2025-02-15T14:20:49.000Z</time>
      </trkpt>
      <trkpt lat="44.10986" lon="3.27354">
        <ele>643</ele>
        <time>2025-02-15T14:20:54.000Z</time>
      </trkpt>
      <trkpt lat="44.10982" lon="3.27343">
        <ele>641.3</ele>
        <time>2025-02-15T14:20:58.000Z</time>
      </trkpt>
      <trkpt lat="44.10976" lon="3.27331">
        <ele>639.1</ele>
        <time>2025-02-15T14:21:03.000Z</time>
      </trkpt>
      <trkpt lat="44.10972" lon="3.2732">
        <ele>637.4</ele>
        <time>2025-02-15T14:21:07.000Z</time>
      </trkpt>
      <trkpt lat="44.10968" lon="3.27307">
        <ele>635.7</ele>
        <time>2025-02-15T14:21:12.000Z</time>
      </trkpt>
      <trkpt lat="44.10967" lon="3.27292">
        <ele>633.9</ele>
        <time>2025-02-15T14:21:20.000Z</time>
      </trkpt>
      <trkpt lat="44.10968" lon="3.27278">
        <ele>633</ele>
        <time>2025-02-15T14:21:25.000Z</time>
      </trkpt>
      <trkpt lat="44.1097" lon="3.27263">
        <ele>632.3</ele>
        <time>2025-02-15T14:21:30.000Z</time>
      </trkpt>
      <trkpt lat="44.10972" lon="3.27249">
        <ele>631.8</ele>
        <time>2025-02-15T14:21:34.000Z</time>
      </trkpt>
      <trkpt lat="44.10974" lon="3.27233">
        <ele>631.4</ele>
        <time>2025-02-15T14:21:38.000Z</time>
      </trkpt>
      <trkpt lat="44.10976" lon="3.27219">
        <ele>631.1</ele>
        <time>2025-02-15T14:21:42.000Z</time>
      </trkpt>
      <trkpt lat="44.10979" lon="3.27206">
        <ele>631.2</ele>
        <time>2025-02-15T14:21:48.000Z</time>
      </trkpt>
      <trkpt lat="44.10971" lon="3.272">
        <ele>631.3</ele>
        <time>2025-02-15T14:21:53.000Z</time>
      </trkpt>
      <trkpt lat="44.10962" lon="3.27192">
        <ele>631.4</ele>
        <time>2025-02-15T14:21:58.000Z</time>
      </trkpt>
      <trkpt lat="44.10953" lon="3.27186">
        <ele>631.6</ele>
        <time>2025-02-15T14:22:04.000Z</time>
      </trkpt>
      <trkpt lat="44.10945" lon="3.27177">
        <ele>631.9</ele>
        <time>2025-02-15T14:22:10.000Z</time>
      </trkpt>
      <trkpt lat="44.10942" lon="3.27165">
        <ele>632.2</ele>
        <time>2025-02-15T14:22:19.000Z</time>
      </trkpt>
      <trkpt lat="44.10942" lon="3.27151">
        <ele>632.9</ele>
        <time>2025-02-15T14:22:27.000Z</time>
      </trkpt>
      <trkpt lat="44.10941" lon="3.27138">
        <ele>633.4</ele>
        <time>2025-02-15T14:22:33.000Z</time>
      </trkpt>
      <trkpt lat="44.10943" lon="3.27125">
        <ele>634</ele>
        <time>2025-02-15T14:22:39.000Z</time>
      </trkpt>
      <trkpt lat="44.10944" lon="3.27112">
        <ele>634.7</ele>
        <time>2025-02-15T14:22:46.000Z</time>
      </trkpt>
      <trkpt lat="44.10945" lon="3.27099">
        <ele>635.9</ele>
        <time>2025-02-15T14:22:54.000Z</time>
      </trkpt>
      <trkpt lat="44.10943" lon="3.27085">
        <ele>637.6</ele>
        <time>2025-02-15T14:23:02.000Z</time>
      </trkpt>
      <trkpt lat="44.10945" lon="3.27072">
        <ele>638.6</ele>
        <time>2025-02-15T14:23:09.000Z</time>
      </trkpt>
      <trkpt lat="44.10945" lon="3.27059">
        <ele>639.2</ele>
        <time>2025-02-15T14:23:16.000Z</time>
      </trkpt>
      <trkpt lat="44.10945" lon="3.27045">
        <ele>639.9</ele>
        <time>2025-02-15T14:23:24.000Z</time>
      </trkpt>
      <trkpt lat="44.10947" lon="3.27031">
        <ele>640.9</ele>
        <time>2025-02-15T14:23:32.000Z</time>
      </trkpt>
      <trkpt lat="44.10947" lon="3.27017">
        <ele>641.6</ele>
        <time>2025-02-15T14:23:40.000Z</time>
      </trkpt>
      <trkpt lat="44.10943" lon="3.27005">
        <ele>642.5</ele>
        <time>2025-02-15T14:23:48.000Z</time>
      </trkpt>
      <trkpt lat="44.10937" lon="3.26996">
        <ele>643.7</ele>
        <time>2025-02-15T14:23:57.000Z</time>
      </trkpt>
      <trkpt lat="44.10934" lon="3.26983">
        <ele>645.6</ele>
        <time>2025-02-15T14:24:20.000Z</time>
      </trkpt>
      <trkpt lat="44.10935" lon="3.26968">
        <ele>645.7</ele>
        <time>2025-02-15T14:24:25.000Z</time>
      </trkpt>
      <trkpt lat="44.10931" lon="3.26955">
        <ele>645.5</ele>
        <time>2025-02-15T14:24:30.000Z</time>
      </trkpt>
      <trkpt lat="44.10924" lon="3.26944">
        <ele>645.2</ele>
        <time>2025-02-15T14:24:36.000Z</time>
      </trkpt>
      <trkpt lat="44.10931" lon="3.26933">
        <ele>644</ele>
        <time>2025-02-15T14:24:43.000Z</time>
      </trkpt>
      <trkpt lat="44.10941" lon="3.26932">
        <ele>642.3</ele>
        <time>2025-02-15T14:24:50.000Z</time>
      </trkpt>
      <trkpt lat="44.1095" lon="3.26923">
        <ele>640.7</ele>
        <time>2025-02-15T14:24:55.000Z</time>
      </trkpt>
      <trkpt lat="44.10948" lon="3.2691">
        <ele>639.6</ele>
        <time>2025-02-15T14:24:58.000Z</time>
      </trkpt>
      <trkpt lat="44.10946" lon="3.26896">
        <ele>638.3</ele>
        <time>2025-02-15T14:25:02.000Z</time>
      </trkpt>
      <trkpt lat="44.10939" lon="3.26884">
        <ele>637.2</ele>
        <time>2025-02-15T14:25:06.000Z</time>
      </trkpt>
      <trkpt lat="44.10935" lon="3.26869">
        <ele>636.3</ele>
        <time>2025-02-15T14:25:10.000Z</time>
      </trkpt>
      <trkpt lat="44.1093" lon="3.26856">
        <ele>635.5</ele>
        <time>2025-02-15T14:25:15.000Z</time>
      </trkpt>
      <trkpt lat="44.10927" lon="3.26842">
        <ele>634.9</ele>
        <time>2025-02-15T14:25:19.000Z</time>
      </trkpt>
      <trkpt lat="44.10923" lon="3.26828">
        <ele>634.5</ele>
        <time>2025-02-15T14:25:24.000Z</time>
      </trkpt>
      <trkpt lat="44.10916" lon="3.26819">
        <ele>634.4</ele>
        <time>2025-02-15T14:25:28.000Z</time>
      </trkpt>
      <trkpt lat="44.1091" lon="3.26809">
        <ele>634.8</ele>
        <time>2025-02-15T14:25:33.000Z</time>
      </trkpt>
      <trkpt lat="44.10905" lon="3.26796">
        <ele>635.7</ele>
        <time>2025-02-15T14:25:40.000Z</time>
      </trkpt>
      <trkpt lat="44.109" lon="3.26783">
        <ele>636.4</ele>
        <time>2025-02-15T14:25:47.000Z</time>
      </trkpt>
      <trkpt lat="44.10894" lon="3.26773">
        <ele>636.5</ele>
        <time>2025-02-15T14:25:51.000Z</time>
      </trkpt>
      <trkpt lat="44.10884" lon="3.26766">
        <ele>636</ele>
        <time>2025-02-15T14:25:55.000Z</time>
      </trkpt>
      <trkpt lat="44.10873" lon="3.26761">
        <ele>635.4</ele>
        <time>2025-02-15T14:25:59.000Z</time>
      </trkpt>
      <trkpt lat="44.10863" lon="3.26765">
        <ele>633.9</ele>
        <time>2025-02-15T14:26:05.000Z</time>
      </trkpt>
      <trkpt lat="44.10859" lon="3.26752">
        <ele>631.8</ele>
        <time>2025-02-15T14:26:13.000Z</time>
      </trkpt>
      <trkpt lat="44.10858" lon="3.26736">
        <ele>630.6</ele>
        <time>2025-02-15T14:26:17.000Z</time>
      </trkpt>
      <trkpt lat="44.10855" lon="3.2672">
        <ele>629.4</ele>
        <time>2025-02-15T14:26:21.000Z</time>
      </trkpt>
      <trkpt lat="44.10851" lon="3.26708">
        <ele>627.5</ele>
        <time>2025-02-15T14:26:27.000Z</time>
      </trkpt>
      <trkpt lat="44.10845" lon="3.26697">
        <ele>624.3</ele>
        <time>2025-02-15T14:26:35.000Z</time>
      </trkpt>
      <trkpt lat="44.10837" lon="3.26687">
        <ele>620</ele>
        <time>2025-02-15T14:26:48.000Z</time>
      </trkpt>
      <trkpt lat="44.10828" lon="3.26683">
        <ele>619.3</ele>
        <time>2025-02-15T14:26:51.000Z</time>
      </trkpt>
      <trkpt lat="44.10819" lon="3.26681">
        <ele>618.6</ele>
        <time>2025-02-15T14:26:54.000Z</time>
      </trkpt>
      <trkpt lat="44.1081" lon="3.26677">
        <ele>617.8</ele>
        <time>2025-02-15T14:26:58.000Z</time>
      </trkpt>
      <trkpt lat="44.10802" lon="3.26669">
        <ele>617.1</ele>
        <time>2025-02-15T14:27:02.000Z</time>
      </trkpt>
      <trkpt lat="44.10794" lon="3.2666">
        <ele>616.3</ele>
        <time>2025-02-15T14:27:07.000Z</time>
      </trkpt>
      <trkpt lat="44.10792" lon="3.26644">
        <ele>615.6</ele>
        <time>2025-02-15T14:27:12.000Z</time>
      </trkpt>
      <trkpt lat="44.10791" lon="3.26631">
        <ele>615</ele>
        <time>2025-02-15T14:27:16.000Z</time>
      </trkpt>
      <trkpt lat="44.10784" lon="3.26621">
        <ele>614.4</ele>
        <time>2025-02-15T14:27:20.000Z</time>
      </trkpt>
      <trkpt lat="44.10784" lon="3.26607">
        <ele>613.7</ele>
        <time>2025-02-15T14:27:24.000Z</time>
      </trkpt>
      <trkpt lat="44.1079" lon="3.26596">
        <ele>612.5</ele>
        <time>2025-02-15T14:27:28.000Z</time>
      </trkpt>
      <trkpt lat="44.10798" lon="3.26587">
        <ele>611.1</ele>
        <time>2025-02-15T14:27:32.000Z</time>
      </trkpt>
      <trkpt lat="44.10803" lon="3.26576">
        <ele>609.4</ele>
        <time>2025-02-15T14:27:36.000Z</time>
      </trkpt>
      <trkpt lat="44.10803" lon="3.26562">
        <ele>608</ele>
        <time>2025-02-15T14:27:39.000Z</time>
      </trkpt>
      <trkpt lat="44.10809" lon="3.26553">
        <ele>605.6</ele>
        <time>2025-02-15T14:27:44.000Z</time>
      </trkpt>
      <trkpt lat="44.1082" lon="3.26547">
        <ele>603.7</ele>
        <time>2025-02-15T14:27:48.000Z</time>
      </trkpt>
      <trkpt lat="44.1083" lon="3.26558">
        <ele>601.9</ele>
        <time>2025-02-15T14:27:52.000Z</time>
      </trkpt>
      <trkpt lat="44.1084" lon="3.26553">
        <ele>599.8</ele>
        <time>2025-02-15T14:27:57.000Z</time>
      </trkpt>
      <trkpt lat="44.10852" lon="3.26549">
        <ele>598.6</ele>
        <time>2025-02-15T14:28:00.000Z</time>
      </trkpt>
      <trkpt lat="44.10861" lon="3.26544">
        <ele>597.9</ele>
        <time>2025-02-15T14:28:02.000Z</time>
      </trkpt>
      <trkpt lat="44.10865" lon="3.26532">
        <ele>596.8</ele>
        <time>2025-02-15T14:28:06.000Z</time>
      </trkpt>
      <trkpt lat="44.10873" lon="3.26526">
        <ele>587.1</ele>
        <time>2025-02-15T14:31:44.000Z</time>
      </trkpt>
      <trkpt lat="44.10882" lon="3.26522">
        <ele>587.3</ele>
        <time>2025-02-15T14:31:52.000Z</time>
      </trkpt>
      <trkpt lat="44.10891" lon="3.26524">
        <ele>587.8</ele>
        <time>2025-02-15T14:32:00.000Z</time>
      </trkpt>
      <trkpt lat="44.10901" lon="3.26525">
        <ele>588.8</ele>
        <time>2025-02-15T14:32:10.000Z</time>
      </trkpt>
      <trkpt lat="44.10906" lon="3.26513">
        <ele>591.2</ele>
        <time>2025-02-15T14:32:32.000Z</time>
      </trkpt>
      <trkpt lat="44.10915" lon="3.26508">
        <ele>592.7</ele>
        <time>2025-02-15T14:32:48.000Z</time>
      </trkpt>
      <trkpt lat="44.10923" lon="3.26503">
        <ele>594.5</ele>
        <time>2025-02-15T14:33:02.000Z</time>
      </trkpt>
      <trkpt lat="44.10929" lon="3.26491">
        <ele>596.5</ele>
        <time>2025-02-15T14:33:21.000Z</time>
      </trkpt>
      <trkpt lat="44.10936" lon="3.26483">
        <ele>597.4</ele>
        <time>2025-02-15T14:33:29.000Z</time>
      </trkpt>
      <trkpt lat="44.10944" lon="3.26475">
        <ele>597.9</ele>
        <time>2025-02-15T14:33:35.000Z</time>
      </trkpt>
      <trkpt lat="44.10952" lon="3.26466">
        <ele>598.4</ele>
        <time>2025-02-15T14:33:41.000Z</time>
      </trkpt>
      <trkpt lat="44.10961" lon="3.26461">
        <ele>598.4</ele>
        <time>2025-02-15T14:33:44.000Z</time>
      </trkpt>
      <trkpt lat="44.1097" lon="3.26456">
        <ele>598.3</ele>
        <time>2025-02-15T14:33:48.000Z</time>
      </trkpt>
      <trkpt lat="44.10979" lon="3.26455">
        <ele>598.2</ele>
        <time>2025-02-15T14:33:53.000Z</time>
      </trkpt>
      <trkpt lat="44.10986" lon="3.26446">
        <ele>598.1</ele>
        <time>2025-02-15T14:33:58.000Z</time>
      </trkpt>
      <trkpt lat="44.10994" lon="3.26438">
        <ele>598</ele>
        <time>2025-02-15T14:34:03.000Z</time>
      </trkpt>
      <trkpt lat="44.11002" lon="3.26429">
        <ele>597.8</ele>
        <time>2025-02-15T14:34:08.000Z</time>
      </trkpt>
      <trkpt lat="44.11012" lon="3.26422">
        <ele>597.9</ele>
        <time>2025-02-15T14:34:13.000Z</time>
      </trkpt>
      <trkpt lat="44.1102" lon="3.26417">
        <ele>597.9</ele>
        <time>2025-02-15T14:34:17.000Z</time>
      </trkpt>
      <trkpt lat="44.1103" lon="3.26413">
        <ele>598</ele>
        <time>2025-02-15T14:34:21.000Z</time>
      </trkpt>
      <trkpt lat="44.1104" lon="3.26411">
        <ele>598.7</ele>
        <time>2025-02-15T14:34:27.000Z</time>
      </trkpt>
      <trkpt lat="44.11048" lon="3.26401">
        <ele>599</ele>
        <time>2025-02-15T14:34:31.000Z</time>
      </trkpt>
      <trkpt lat="44.11058" lon="3.2639">
        <ele>598.7</ele>
        <time>2025-02-15T14:34:34.000Z</time>
      </trkpt>
      <trkpt lat="44.11066" lon="3.26381">
        <ele>598</ele>
        <time>2025-02-15T14:34:37.000Z</time>
      </trkpt>
      <trkpt lat="44.11078" lon="3.26379">
        <ele>597.3</ele>
        <time>2025-02-15T14:34:40.000Z</time>
      </trkpt>
      <trkpt lat="44.11087" lon="3.26371">
        <ele>596.4</ele>
        <time>2025-02-15T14:34:44.000Z</time>
      </trkpt>
      <trkpt lat="44.11093" lon="3.2636">
        <ele>595.7</ele>
        <time>2025-02-15T14:34:47.000Z</time>
      </trkpt>
      <trkpt lat="44.11095" lon="3.26345">
        <ele>594.7</ele>
        <time>2025-02-15T14:34:50.000Z</time>
      </trkpt>
      <trkpt lat="44.11102" lon="3.26333">
        <ele>593</ele>
        <time>2025-02-15T14:34:55.000Z</time>
      </trkpt>
      <trkpt lat="44.11111" lon="3.26326">
        <ele>591.9</ele>
        <time>2025-02-15T14:34:59.000Z</time>
      </trkpt>
      <trkpt lat="44.11116" lon="3.26312">
        <ele>591</ele>
        <time>2025-02-15T14:35:03.000Z</time>
      </trkpt>
      <trkpt lat="44.11121" lon="3.26299">
        <ele>590.5</ele>
        <time>2025-02-15T14:35:06.000Z</time>
      </trkpt>
      <trkpt lat="44.11124" lon="3.26285">
        <ele>590</ele>
        <time>2025-02-15T14:35:09.000Z</time>
      </trkpt>
      <trkpt lat="44.11129" lon="3.26273">
        <ele>589.5</ele>
        <time>2025-02-15T14:35:12.000Z</time>
      </trkpt>
      <trkpt lat="44.11133" lon="3.26261">
        <ele>589.2</ele>
        <time>2025-02-15T14:35:15.000Z</time>
      </trkpt>
      <trkpt lat="44.1114" lon="3.26247">
        <ele>588.8</ele>
        <time>2025-02-15T14:35:19.000Z</time>
      </trkpt>
      <trkpt lat="44.11144" lon="3.26236">
        <ele>588.6</ele>
        <time>2025-02-15T14:35:22.000Z</time>
      </trkpt>
      <trkpt lat="44.11149" lon="3.26226">
        <ele>588.4</ele>
        <time>2025-02-15T14:35:25.000Z</time>
      </trkpt>
      <trkpt lat="44.11154" lon="3.26214">
        <ele>588.2</ele>
        <time>2025-02-15T14:35:29.000Z</time>
      </trkpt>
      <trkpt lat="44.11159" lon="3.26202">
        <ele>587.7</ele>
        <time>2025-02-15T14:35:35.000Z</time>
      </trkpt>
      <trkpt lat="44.11162" lon="3.26189">
        <ele>586.9</ele>
        <time>2025-02-15T14:35:41.000Z</time>
      </trkpt>
      <trkpt lat="44.11169" lon="3.26177">
        <ele>586.3</ele>
        <time>2025-02-15T14:35:44.000Z</time>
      </trkpt>
      <trkpt lat="44.11179" lon="3.26171">
        <ele>585.8</ele>
        <time>2025-02-15T14:35:47.000Z</time>
      </trkpt>
      <trkpt lat="44.11189" lon="3.26167">
        <ele>585.3</ele>
        <time>2025-02-15T14:35:50.000Z</time>
      </trkpt>
      <trkpt lat="44.11198" lon="3.26164">
        <ele>585</ele>
        <time>2025-02-15T14:35:52.000Z</time>
      </trkpt>
      <trkpt lat="44.1121" lon="3.26161">
        <ele>584.7</ele>
        <time>2025-02-15T14:35:55.000Z</time>
      </trkpt>
      <trkpt lat="44.11221" lon="3.26162">
        <ele>584.4</ele>
        <time>2025-02-15T14:35:58.000Z</time>
      </trkpt>
      <trkpt lat="44.11231" lon="3.26163">
        <ele>584.1</ele>
        <time>2025-02-15T14:36:01.000Z</time>
      </trkpt>
      <trkpt lat="44.1124" lon="3.26166">
        <ele>583.9</ele>
        <time>2025-02-15T14:36:04.000Z</time>
      </trkpt>
      <trkpt lat="44.11252" lon="3.26168">
        <ele>583.6</ele>
        <time>2025-02-15T14:36:08.000Z</time>
      </trkpt>
      <trkpt lat="44.11263" lon="3.2617">
        <ele>583.4</ele>
        <time>2025-02-15T14:36:12.000Z</time>
      </trkpt>
      <trkpt lat="44.11275" lon="3.26168">
        <ele>583.2</ele>
        <time>2025-02-15T14:36:16.000Z</time>
      </trkpt>
      <trkpt lat="44.11285" lon="3.26163">
        <ele>583</ele>
        <time>2025-02-15T14:36:19.000Z</time>
      </trkpt>
      <trkpt lat="44.11295" lon="3.26157">
        <ele>582.9</ele>
        <time>2025-02-15T14:36:22.000Z</time>
      </trkpt>
      <trkpt lat="44.11305" lon="3.26156">
        <ele>582.7</ele>
        <time>2025-02-15T14:36:27.000Z</time>
      </trkpt>
      <trkpt lat="44.11316" lon="3.26151">
        <ele>582.5</ele>
        <time>2025-02-15T14:36:31.000Z</time>
      </trkpt>
      <trkpt lat="44.11327" lon="3.26147">
        <ele>582.4</ele>
        <time>2025-02-15T14:36:35.000Z</time>
      </trkpt>
      <trkpt lat="44.11336" lon="3.2614">
        <ele>582.5</ele>
        <time>2025-02-15T14:36:39.000Z</time>
      </trkpt>
      <trkpt lat="44.11346" lon="3.26136">
        <ele>582.6</ele>
        <time>2025-02-15T14:36:43.000Z</time>
      </trkpt>
      <trkpt lat="44.11355" lon="3.26132">
        <ele>582.8</ele>
        <time>2025-02-15T14:36:47.000Z</time>
      </trkpt>
      <trkpt lat="44.11365" lon="3.26129">
        <ele>583</ele>
        <time>2025-02-15T14:36:51.000Z</time>
      </trkpt>
      <trkpt lat="44.11376" lon="3.26132">
        <ele>583.1</ele>
        <time>2025-02-15T14:36:55.000Z</time>
      </trkpt>
      <trkpt lat="44.11385" lon="3.26138">
        <ele>583.1</ele>
        <time>2025-02-15T14:36:59.000Z</time>
      </trkpt>
      <trkpt lat="44.11393" lon="3.26143">
        <ele>583.1</ele>
        <time>2025-02-15T14:37:02.000Z</time>
      </trkpt>
      <trkpt lat="44.11401" lon="3.2615">
        <ele>583.2</ele>
        <time>2025-02-15T14:37:08.000Z</time>
      </trkpt>
      <trkpt lat="44.1141" lon="3.26157">
        <ele>584.1</ele>
        <time>2025-02-15T14:37:15.000Z</time>
      </trkpt>
      <trkpt lat="44.11419" lon="3.26162">
        <ele>585</ele>
        <time>2025-02-15T14:37:21.000Z</time>
      </trkpt>
      <trkpt lat="44.11428" lon="3.26163">
        <ele>586</ele>
        <time>2025-02-15T14:37:27.000Z</time>
      </trkpt>
      <trkpt lat="44.11438" lon="3.26163">
        <ele>586.6</ele>
        <time>2025-02-15T14:37:32.000Z</time>
      </trkpt>
      <trkpt lat="44.11447" lon="3.26162">
        <ele>587</ele>
        <time>2025-02-15T14:37:37.000Z</time>
      </trkpt>
      <trkpt lat="44.11456" lon="3.2616">
        <ele>587.4</ele>
        <time>2025-02-15T14:37:44.000Z</time>
      </trkpt>
      <trkpt lat="44.11465" lon="3.26153">
        <ele>587.5</ele>
        <time>2025-02-15T14:37:48.000Z</time>
      </trkpt>
      <trkpt lat="44.11474" lon="3.26145">
        <ele>587.5</ele>
        <time>2025-02-15T14:37:52.000Z</time>
      </trkpt>
      <trkpt lat="44.11483" lon="3.26138">
        <ele>587.6</ele>
        <time>2025-02-15T14:37:57.000Z</time>
      </trkpt>
      <trkpt lat="44.11489" lon="3.26129">
        <ele>587.6</ele>
        <time>2025-02-15T14:38:02.000Z</time>
      </trkpt>
      <trkpt lat="44.11496" lon="3.26117">
        <ele>587.7</ele>
        <time>2025-02-15T14:38:07.000Z</time>
      </trkpt>
      <trkpt lat="44.11503" lon="3.26107">
        <ele>588</ele>
        <time>2025-02-15T14:38:12.000Z</time>
      </trkpt>
      <trkpt lat="44.1151" lon="3.26097">
        <ele>588.7</ele>
        <time>2025-02-15T14:38:18.000Z</time>
      </trkpt>
      <trkpt lat="44.11519" lon="3.26092">
        <ele>589.8</ele>
        <time>2025-02-15T14:38:24.000Z</time>
      </trkpt>
      <trkpt lat="44.11525" lon="3.26083">
        <ele>591.2</ele>
        <time>2025-02-15T14:38:30.000Z</time>
      </trkpt>
      <trkpt lat="44.11535" lon="3.26076">
        <ele>593</ele>
        <time>2025-02-15T14:38:37.000Z</time>
      </trkpt>
      <trkpt lat="44.11542" lon="3.2607">
        <ele>594.7</ele>
        <time>2025-02-15T14:38:44.000Z</time>
      </trkpt>
      <trkpt lat="44.1155" lon="3.26061">
        <ele>596.5</ele>
        <time>2025-02-15T14:38:52.000Z</time>
      </trkpt>
      <trkpt lat="44.11559" lon="3.26056">
        <ele>597.8</ele>
        <time>2025-02-15T14:38:59.000Z</time>
      </trkpt>
      <trkpt lat="44.11568" lon="3.26054">
        <ele>599</ele>
        <time>2025-02-15T14:39:06.000Z</time>
      </trkpt>
      <trkpt lat="44.11577" lon="3.26053">
        <ele>599.9</ele>
        <time>2025-02-15T14:39:12.000Z</time>
      </trkpt>
      <trkpt lat="44.11587" lon="3.26051">
        <ele>600.4</ele>
        <time>2025-02-15T14:39:17.000Z</time>
      </trkpt>
      <trkpt lat="44.11596" lon="3.26049">
        <ele>600.8</ele>
        <time>2025-02-15T14:39:22.000Z</time>
      </trkpt>
      <trkpt lat="44.11605" lon="3.26046">
        <ele>601.2</ele>
        <time>2025-02-15T14:39:27.000Z</time>
      </trkpt>
      <trkpt lat="44.11613" lon="3.26042">
        <ele>601.5</ele>
        <time>2025-02-15T14:39:33.000Z</time>
      </trkpt>
      <trkpt lat="44.11619" lon="3.2603">
        <ele>603.2</ele>
        <time>2025-02-15T14:39:53.000Z</time>
      </trkpt>
      <trkpt lat="44.11624" lon="3.2602">
        <ele>605</ele>
        <time>2025-02-15T14:40:09.000Z</time>
      </trkpt>
      <trkpt lat="44.11628" lon="3.26008">
        <ele>608.5</ele>
        <time>2025-02-15T14:40:34.000Z</time>
      </trkpt>
      <trkpt lat="44.11622" lon="3.25995">
        <ele>610.7</ele>
        <time>2025-02-15T14:40:56.000Z</time>
      </trkpt>
      <trkpt lat="44.11613" lon="3.25983">
        <ele>610.7</ele>
        <time>2025-02-15T14:41:00.000Z</time>
      </trkpt>
      <trkpt lat="44.11603" lon="3.25973">
        <ele>610.1</ele>
        <time>2025-02-15T14:41:03.000Z</time>
      </trkpt>
      <trkpt lat="44.11599" lon="3.2596">
        <ele>609.3</ele>
        <time>2025-02-15T14:41:06.000Z</time>
      </trkpt>
      <trkpt lat="44.11599" lon="3.25947">
        <ele>608.7</ele>
        <time>2025-02-15T14:41:09.000Z</time>
      </trkpt>
      <trkpt lat="44.116" lon="3.25933">
        <ele>608.1</ele>
        <time>2025-02-15T14:41:12.000Z</time>
      </trkpt>
      <trkpt lat="44.11602" lon="3.25918">
        <ele>607.5</ele>
        <time>2025-02-15T14:41:15.000Z</time>
      </trkpt>
      <trkpt lat="44.11606" lon="3.25906">
        <ele>607</ele>
        <time>2025-02-15T14:41:18.000Z</time>
      </trkpt>
      <trkpt lat="44.1161" lon="3.25891">
        <ele>606.6</ele>
        <time>2025-02-15T14:41:22.000Z</time>
      </trkpt>
      <trkpt lat="44.11618" lon="3.25882">
        <ele>606.2</ele>
        <time>2025-02-15T14:41:26.000Z</time>
      </trkpt>
      <trkpt lat="44.11625" lon="3.25873">
        <ele>606</ele>
        <time>2025-02-15T14:41:31.000Z</time>
      </trkpt>
      <trkpt lat="44.11632" lon="3.25862">
        <ele>606.2</ele>
        <time>2025-02-15T14:41:36.000Z</time>
      </trkpt>
      <trkpt lat="44.1164" lon="3.25853">
        <ele>606.7</ele>
        <time>2025-02-15T14:41:42.000Z</time>
      </trkpt>
      <trkpt lat="44.11646" lon="3.25844">
        <ele>607.6</ele>
        <time>2025-02-15T14:41:48.000Z</time>
      </trkpt>
      <trkpt lat="44.11647" lon="3.25829">
        <ele>608.4</ele>
        <time>2025-02-15T14:41:54.000Z</time>
      </trkpt>
      <trkpt lat="44.11646" lon="3.25813">
        <ele>608.7</ele>
        <time>2025-02-15T14:41:57.000Z</time>
      </trkpt>
      <trkpt lat="44.11647" lon="3.25797">
        <ele>609</ele>
        <time>2025-02-15T14:42:00.000Z</time>
      </trkpt>
      <trkpt lat="44.11648" lon="3.25783">
        <ele>609.2</ele>
        <time>2025-02-15T14:42:03.000Z</time>
      </trkpt>
      <trkpt lat="44.1165" lon="3.25769">
        <ele>609.4</ele>
        <time>2025-02-15T14:42:06.000Z</time>
      </trkpt>
      <trkpt lat="44.11652" lon="3.25755">
        <ele>609.5</ele>
        <time>2025-02-15T14:42:09.000Z</time>
      </trkpt>
      <trkpt lat="44.11655" lon="3.25742">
        <ele>609.6</ele>
        <time>2025-02-15T14:42:12.000Z</time>
      </trkpt>
      <trkpt lat="44.11659" lon="3.25727">
        <ele>609.8</ele>
        <time>2025-02-15T14:42:16.000Z</time>
      </trkpt>
      <trkpt lat="44.11662" lon="3.2571">
        <ele>609.7</ele>
        <time>2025-02-15T14:42:19.000Z</time>
      </trkpt>
      <trkpt lat="44.11666" lon="3.25696">
        <ele>609.6</ele>
        <time>2025-02-15T14:42:21.000Z</time>
      </trkpt>
      <trkpt lat="44.11672" lon="3.25682">
        <ele>609.5</ele>
        <time>2025-02-15T14:42:23.000Z</time>
      </trkpt>
      <trkpt lat="44.11675" lon="3.25668">
        <ele>609.4</ele>
        <time>2025-02-15T14:42:25.000Z</time>
      </trkpt>
      <trkpt lat="44.11672" lon="3.25654">
        <ele>609.2</ele>
        <time>2025-02-15T14:42:28.000Z</time>
      </trkpt>
      <trkpt lat="44.11671" lon="3.25639">
        <ele>609.1</ele>
        <time>2025-02-15T14:42:31.000Z</time>
      </trkpt>
      <trkpt lat="44.1167" lon="3.25627">
        <ele>609.2</ele>
        <time>2025-02-15T14:42:35.000Z</time>
      </trkpt>
      <trkpt lat="44.11669" lon="3.25612">
        <ele>609.5</ele>
        <time>2025-02-15T14:42:40.000Z</time>
      </trkpt>
      <trkpt lat="44.11669" lon="3.25599">
        <ele>609.9</ele>
        <time>2025-02-15T14:42:44.000Z</time>
      </trkpt>
      <trkpt lat="44.11667" lon="3.25586">
        <ele>610.7</ele>
        <time>2025-02-15T14:42:49.000Z</time>
      </trkpt>
      <trkpt lat="44.11665" lon="3.25573">
        <ele>611.5</ele>
        <time>2025-02-15T14:42:54.000Z</time>
      </trkpt>
      <trkpt lat="44.11661" lon="3.25559">
        <ele>612.5</ele>
        <time>2025-02-15T14:43:00.000Z</time>
      </trkpt>
      <trkpt lat="44.11661" lon="3.25546">
        <ele>613.3</ele>
        <time>2025-02-15T14:43:05.000Z</time>
      </trkpt>
      <trkpt lat="44.11662" lon="3.25531">
        <ele>614.4</ele>
        <time>2025-02-15T14:43:11.000Z</time>
      </trkpt>
      <trkpt lat="44.11666" lon="3.25517">
        <ele>615.4</ele>
        <time>2025-02-15T14:43:17.000Z</time>
      </trkpt>
      <trkpt lat="44.11671" lon="3.25504">
        <ele>616.4</ele>
        <time>2025-02-15T14:43:23.000Z</time>
      </trkpt>
      <trkpt lat="44.11677" lon="3.25493">
        <ele>617.4</ele>
        <time>2025-02-15T14:43:29.000Z</time>
      </trkpt>
      <trkpt lat="44.1168" lon="3.2548">
        <ele>618.1</ele>
        <time>2025-02-15T14:43:34.000Z</time>
      </trkpt>
      <trkpt lat="44.11687" lon="3.2547">
        <ele>618.7</ele>
        <time>2025-02-15T14:43:39.000Z</time>
      </trkpt>
      <trkpt lat="44.11693" lon="3.25459">
        <ele>619.6</ele>
        <time>2025-02-15T14:43:45.000Z</time>
      </trkpt>
      <trkpt lat="44.11698" lon="3.25448">
        <ele>620.8</ele>
        <time>2025-02-15T14:43:51.000Z</time>
      </trkpt>
      <trkpt lat="44.11705" lon="3.25436">
        <ele>621.9</ele>
        <time>2025-02-15T14:43:57.000Z</time>
      </trkpt>
      <trkpt lat="44.11711" lon="3.25425">
        <ele>622.9</ele>
        <time>2025-02-15T14:44:02.000Z</time>
      </trkpt>
      <trkpt lat="44.11715" lon="3.25414">
        <ele>624.4</ele>
        <time>2025-02-15T14:44:09.000Z</time>
      </trkpt>
      <trkpt lat="44.11714" lon="3.25401">
        <ele>625</ele>
        <time>2025-02-15T14:44:13.000Z</time>
      </trkpt>
      <trkpt lat="44.11716" lon="3.25383">
        <ele>625.4</ele>
        <time>2025-02-15T14:44:16.000Z</time>
      </trkpt>
      <trkpt lat="44.11719" lon="3.2537">
        <ele>625.5</ele>
        <time>2025-02-15T14:44:18.000Z</time>
      </trkpt>
      <trkpt lat="44.11724" lon="3.25356">
        <ele>625.6</ele>
        <time>2025-02-15T14:44:20.000Z</time>
      </trkpt>
      <trkpt lat="44.11728" lon="3.25341">
        <ele>625.6</ele>
        <time>2025-02-15T14:44:22.000Z</time>
      </trkpt>
      <trkpt lat="44.11734" lon="3.25324">
        <ele>625.5</ele>
        <time>2025-02-15T14:44:24.000Z</time>
      </trkpt>
      <trkpt lat="44.1174" lon="3.25305">
        <ele>625.4</ele>
        <time>2025-02-15T14:44:26.000Z</time>
      </trkpt>
      <trkpt lat="44.11747" lon="3.25286">
        <ele>625.2</ele>
        <time>2025-02-15T14:44:28.000Z</time>
      </trkpt>
      <trkpt lat="44.11755" lon="3.25267">
        <ele>624.9</ele>
        <time>2025-02-15T14:44:30.000Z</time>
      </trkpt>
      <trkpt lat="44.11764" lon="3.25247">
        <ele>624.5</ele>
        <time>2025-02-15T14:44:32.000Z</time>
      </trkpt>
      <trkpt lat="44.11775" lon="3.25228">
        <ele>624</ele>
        <time>2025-02-15T14:44:34.000Z</time>
      </trkpt>
      <trkpt lat="44.11781" lon="3.25218">
        <ele>623.8</ele>
        <time>2025-02-15T14:44:35.000Z</time>
      </trkpt>
      <trkpt lat="44.11787" lon="3.25208">
        <ele>623.4</ele>
        <time>2025-02-15T14:44:36.000Z</time>
      </trkpt>
      <trkpt lat="44.11793" lon="3.25198">
        <ele>623</ele>
        <time>2025-02-15T14:44:37.000Z</time>
      </trkpt>
      <trkpt lat="44.11799" lon="3.25187">
        <ele>622.6</ele>
        <time>2025-02-15T14:44:38.000Z</time>
      </trkpt>
      <trkpt lat="44.11805" lon="3.25177">
        <ele>622.3</ele>
        <time>2025-02-15T14:44:39.000Z</time>
      </trkpt>
      <trkpt lat="44.11812" lon="3.25167">
        <ele>621.9</ele>
        <time>2025-02-15T14:44:40.000Z</time>
      </trkpt>
      <trkpt lat="44.1182" lon="3.25158">
        <ele>621.5</ele>
        <time>2025-02-15T14:44:41.000Z</time>
      </trkpt>
      <trkpt lat="44.11828" lon="3.2515">
        <ele>621.1</ele>
        <time>2025-02-15T14:44:42.000Z</time>
      </trkpt>
      <trkpt lat="44.11836" lon="3.25142">
        <ele>620.6</ele>
        <time>2025-02-15T14:44:43.000Z</time>
      </trkpt>
      <trkpt lat="44.11845" lon="3.25134">
        <ele>620.2</ele>
        <time>2025-02-15T14:44:44.000Z</time>
      </trkpt>
      <trkpt lat="44.11854" lon="3.25126">
        <ele>619.7</ele>
        <time>2025-02-15T14:44:45.000Z</time>
      </trkpt>
      <trkpt lat="44.11863" lon="3.25119">
        <ele>619.2</ele>
        <time>2025-02-15T14:44:46.000Z</time>
      </trkpt>
      <trkpt lat="44.11873" lon="3.25113">
        <ele>618.6</ele>
        <time>2025-02-15T14:44:47.000Z</time>
      </trkpt>
      <trkpt lat="44.11883" lon="3.25108">
        <ele>618.1</ele>
        <time>2025-02-15T14:44:48.000Z</time>
      </trkpt>
      <trkpt lat="44.11893" lon="3.25104">
        <ele>617.6</ele>
        <time>2025-02-15T14:44:49.000Z</time>
      </trkpt>
      <trkpt lat="44.11904" lon="3.25102">
        <ele>617</ele>
        <time>2025-02-15T14:44:50.000Z</time>
      </trkpt>
      <trkpt lat="44.11914" lon="3.25102">
        <ele>616.4</ele>
        <time>2025-02-15T14:44:51.000Z</time>
      </trkpt>
      <trkpt lat="44.11925" lon="3.25103">
        <ele>615.9</ele>
        <time>2025-02-15T14:44:52.000Z</time>
      </trkpt>
      <trkpt lat="44.11935" lon="3.25107">
        <ele>615.3</ele>
        <time>2025-02-15T14:44:53.000Z</time>
      </trkpt>
      <trkpt lat="44.11945" lon="3.2511">
        <ele>614.7</ele>
        <time>2025-02-15T14:44:54.000Z</time>
      </trkpt>
      <trkpt lat="44.11955" lon="3.25113">
        <ele>614.1</ele>
        <time>2025-02-15T14:44:55.000Z</time>
      </trkpt>
      <trkpt lat="44.11965" lon="3.25118">
        <ele>613.4</ele>
        <time>2025-02-15T14:44:56.000Z</time>
      </trkpt>
      <trkpt lat="44.11975" lon="3.25122">
        <ele>612.7</ele>
        <time>2025-02-15T14:44:57.000Z</time>
      </trkpt>
      <trkpt lat="44.11984" lon="3.25126">
        <ele>612.1</ele>
        <time>2025-02-15T14:44:58.000Z</time>
      </trkpt>
      <trkpt lat="44.11994" lon="3.25129">
        <ele>611.4</ele>
        <time>2025-02-15T14:44:59.000Z</time>
      </trkpt>
      <trkpt lat="44.12003" lon="3.25128">
        <ele>610.8</ele>
        <time>2025-02-15T14:45:00.000Z</time>
      </trkpt>
      <trkpt lat="44.12012" lon="3.25123">
        <ele>610.1</ele>
        <time>2025-02-15T14:45:01.000Z</time>
      </trkpt>
      <trkpt lat="44.12019" lon="3.25114">
        <ele>609.4</ele>
        <time>2025-02-15T14:45:02.000Z</time>
      </trkpt>
      <trkpt lat="44.12026" lon="3.25104">
        <ele>608.7</ele>
        <time>2025-02-15T14:45:03.000Z</time>
      </trkpt>
      <trkpt lat="44.12032" lon="3.25094">
        <ele>608.1</ele>
        <time>2025-02-15T14:45:04.000Z</time>
      </trkpt>
      <trkpt lat="44.12042" lon="3.25077">
        <ele>606.9</ele>
        <time>2025-02-15T14:45:06.000Z</time>
      </trkpt>
      <trkpt lat="44.12047" lon="3.25063">
        <ele>605.8</ele>
        <time>2025-02-15T14:45:08.000Z</time>
      </trkpt>
      <trkpt lat="44.12052" lon="3.25052">
        <ele>604.3</ele>
        <time>2025-02-15T14:45:12.000Z</time>
      </trkpt>
      <trkpt lat="44.12061" lon="3.25046">
        <ele>602.9</ele>
        <time>2025-02-15T14:45:19.000Z</time>
      </trkpt>
      <trkpt lat="44.12057" lon="3.25059">
        <ele>602.3</ele>
        <time>2025-02-15T14:45:31.000Z</time>
      </trkpt>
      <trkpt lat="44.12052" lon="3.2507">
        <ele>602.3</ele>
        <time>2025-02-15T14:45:37.000Z</time>
      </trkpt>
      <trkpt lat="44.12049" lon="3.25082">
        <ele>602.5</ele>
        <time>2025-02-15T14:45:43.000Z</time>
      </trkpt>
      <trkpt lat="44.12044" lon="3.25094">
        <ele>602.9</ele>
        <time>2025-02-15T14:45:49.000Z</time>
      </trkpt>
      <trkpt lat="44.12039" lon="3.25107">
        <ele>603.3</ele>
        <time>2025-02-15T14:45:55.000Z</time>
      </trkpt>
      <trkpt lat="44.12034" lon="3.25118">
        <ele>604</ele>
        <time>2025-02-15T14:46:01.000Z</time>
      </trkpt>
      <trkpt lat="44.1203" lon="3.2513">
        <ele>605</ele>
        <time>2025-02-15T14:46:08.000Z</time>
      </trkpt>
      <trkpt lat="44.12026" lon="3.25143">
        <ele>606.3</ele>
        <time>2025-02-15T14:46:15.000Z</time>
      </trkpt>
      <trkpt lat="44.12021" lon="3.25153">
        <ele>607.9</ele>
        <time>2025-02-15T14:46:23.000Z</time>
      </trkpt>
      <trkpt lat="44.1203" lon="3.25154">
        <ele>612.2</ele>
        <time>2025-02-15T14:46:45.000Z</time>
      </trkpt>
      <trkpt lat="44.12037" lon="3.25144">
        <ele>613.5</ele>
        <time>2025-02-15T14:46:53.000Z</time>
      </trkpt>
      <trkpt lat="44.12043" lon="3.25135">
        <ele>614.2</ele>
        <time>2025-02-15T14:46:59.000Z</time>
      </trkpt>
      <trkpt lat="44.12049" lon="3.25125">
        <ele>614.6</ele>
        <time>2025-02-15T14:47:04.000Z</time>
      </trkpt>
      <trkpt lat="44.12055" lon="3.25114">
        <ele>615.2</ele>
        <time>2025-02-15T14:47:10.000Z</time>
      </trkpt>
      <trkpt lat="44.12063" lon="3.25109">
        <ele>615.7</ele>
        <time>2025-02-15T14:47:15.000Z</time>
      </trkpt>
      <trkpt lat="44.12073" lon="3.25107">
        <ele>616.5</ele>
        <time>2025-02-15T14:47:21.000Z</time>
      </trkpt>
      <trkpt lat="44.12082" lon="3.25103">
        <ele>617.5</ele>
        <time>2025-02-15T14:47:27.000Z</time>
      </trkpt>
      <trkpt lat="44.12092" lon="3.25102">
        <ele>618.8</ele>
        <time>2025-02-15T14:47:34.000Z</time>
      </trkpt>
      <trkpt lat="44.12101" lon="3.25099">
        <ele>619.9</ele>
        <time>2025-02-15T14:47:40.000Z</time>
      </trkpt>
      <trkpt lat="44.12112" lon="3.25097">
        <ele>620.8</ele>
        <time>2025-02-15T14:47:46.000Z</time>
      </trkpt>
      <trkpt lat="44.12122" lon="3.25094">
        <ele>621.7</ele>
        <time>2025-02-15T14:47:52.000Z</time>
      </trkpt>
      <trkpt lat="44.1213" lon="3.25089">
        <ele>622.5</ele>
        <time>2025-02-15T14:47:58.000Z</time>
      </trkpt>
      <trkpt lat="44.1214" lon="3.25083">
        <ele>623.2</ele>
        <time>2025-02-15T14:48:04.000Z</time>
      </trkpt>
      <trkpt lat="44.12149" lon="3.25075">
        <ele>623.6</ele>
        <time>2025-02-15T14:48:09.000Z</time>
      </trkpt>
      <trkpt lat="44.12159" lon="3.25069">
        <ele>624</ele>
        <time>2025-02-15T14:48:14.000Z</time>
      </trkpt>
      <trkpt lat="44.12169" lon="3.25064">
        <ele>624.4</ele>
        <time>2025-02-15T14:48:19.000Z</time>
      </trkpt>
      <trkpt lat="44.12178" lon="3.25056">
        <ele>624.8</ele>
        <time>2025-02-15T14:48:24.000Z</time>
      </trkpt>
      <trkpt lat="44.12186" lon="3.25047">
        <ele>625</ele>
        <time>2025-02-15T14:48:28.000Z</time>
      </trkpt>
      <trkpt lat="44.12194" lon="3.25038">
        <ele>625.2</ele>
        <time>2025-02-15T14:48:33.000Z</time>
      </trkpt>
      <trkpt lat="44.12202" lon="3.2503">
        <ele>625.3</ele>
        <time>2025-02-15T14:48:38.000Z</time>
      </trkpt>
      <trkpt lat="44.12211" lon="3.2502">
        <ele>625.4</ele>
        <time>2025-02-15T14:48:43.000Z</time>
      </trkpt>
      <trkpt lat="44.12219" lon="3.25011">
        <ele>625.5</ele>
        <time>2025-02-15T14:48:48.000Z</time>
      </trkpt>
      <trkpt lat="44.12227" lon="3.25002">
        <ele>625.6</ele>
        <time>2025-02-15T14:48:52.000Z</time>
      </trkpt>
      <trkpt lat="44.12235" lon="3.24992">
        <ele>625.8</ele>
        <time>2025-02-15T14:48:56.000Z</time>
      </trkpt>
      <trkpt lat="44.12243" lon="3.24981">
        <ele>626</ele>
        <time>2025-02-15T14:49:00.000Z</time>
      </trkpt>
      <trkpt lat="44.12249" lon="3.2497">
        <ele>626.1</ele>
        <time>2025-02-15T14:49:04.000Z</time>
      </trkpt>
      <trkpt lat="44.12256" lon="3.24959">
        <ele>626.2</ele>
        <time>2025-02-15T14:49:08.000Z</time>
      </trkpt>
      <trkpt lat="44.12264" lon="3.24946">
        <ele>626.4</ele>
        <time>2025-02-15T14:49:13.000Z</time>
      </trkpt>
      <trkpt lat="44.12269" lon="3.24934">
        <ele>626.5</ele>
        <time>2025-02-15T14:49:17.000Z</time>
      </trkpt>
      <trkpt lat="44.12276" lon="3.24923">
        <ele>626.7</ele>
        <time>2025-02-15T14:49:21.000Z</time>
      </trkpt>
      <trkpt lat="44.12282" lon="3.24911">
        <ele>627</ele>
        <time>2025-02-15T14:49:26.000Z</time>
      </trkpt>
      <trkpt lat="44.12288" lon="3.249">
        <ele>627.3</ele>
        <time>2025-02-15T14:49:31.000Z</time>
      </trkpt>
      <trkpt lat="44.12293" lon="3.2489">
        <ele>627.8</ele>
        <time>2025-02-15T14:49:36.000Z</time>
      </trkpt>
      <trkpt lat="44.12298" lon="3.24877">
        <ele>628.2</ele>
        <time>2025-02-15T14:49:41.000Z</time>
      </trkpt>
      <trkpt lat="44.12304" lon="3.24866">
        <ele>628.4</ele>
        <time>2025-02-15T14:49:45.000Z</time>
      </trkpt>
      <trkpt lat="44.12313" lon="3.24861">
        <ele>628.9</ele>
        <time>2025-02-15T14:49:51.000Z</time>
      </trkpt>
      <trkpt lat="44.12321" lon="3.24854">
        <ele>630</ele>
        <time>2025-02-15T14:49:58.000Z</time>
      </trkpt>
      <trkpt lat="44.12329" lon="3.24847">
        <ele>631.5</ele>
        <time>2025-02-15T14:50:06.000Z</time>
      </trkpt>
      <trkpt lat="44.12336" lon="3.2484">
        <ele>632.6</ele>
        <time>2025-02-15T14:50:13.000Z</time>
      </trkpt>
      <trkpt lat="44.12344" lon="3.24833">
        <ele>633.7</ele>
        <time>2025-02-15T14:50:20.000Z</time>
      </trkpt>
      <trkpt lat="44.12351" lon="3.24825">
        <ele>634.6</ele>
        <time>2025-02-15T14:50:26.000Z</time>
      </trkpt>
      <trkpt lat="44.1236" lon="3.2482">
        <ele>635.5</ele>
        <time>2025-02-15T14:50:32.000Z</time>
      </trkpt>
      <trkpt lat="44.12369" lon="3.24813">
        <ele>636.9</ele>
        <time>2025-02-15T14:50:40.000Z</time>
      </trkpt>
      <trkpt lat="44.12377" lon="3.24809">
        <ele>638.2</ele>
        <time>2025-02-15T14:50:48.000Z</time>
      </trkpt>
      <trkpt lat="44.12387" lon="3.24807">
        <ele>639.3</ele>
        <time>2025-02-15T14:50:55.000Z</time>
      </trkpt>
      <trkpt lat="44.12397" lon="3.24805">
        <ele>641</ele>
        <time>2025-02-15T14:51:03.000Z</time>
      </trkpt>
      <trkpt lat="44.12406" lon="3.248">
        <ele>642.8</ele>
        <time>2025-02-15T14:51:11.000Z</time>
      </trkpt>
      <trkpt lat="44.12414" lon="3.24795">
        <ele>644.5</ele>
        <time>2025-02-15T14:51:19.000Z</time>
      </trkpt>
      <trkpt lat="44.12424" lon="3.24793">
        <ele>646</ele>
        <time>2025-02-15T14:51:26.000Z</time>
      </trkpt>
      <trkpt lat="44.12434" lon="3.2479">
        <ele>647.8</ele>
        <time>2025-02-15T14:51:34.000Z</time>
      </trkpt>
      <trkpt lat="44.12444" lon="3.24786">
        <ele>649.8</ele>
        <time>2025-02-15T14:51:42.000Z</time>
      </trkpt>
      <trkpt lat="44.12453" lon="3.24783">
        <ele>651.9</ele>
        <time>2025-02-15T14:51:50.000Z</time>
      </trkpt>
      <trkpt lat="44.12461" lon="3.24777">
        <ele>653.7</ele>
        <time>2025-02-15T14:51:58.000Z</time>
      </trkpt>
      <trkpt lat="44.12469" lon="3.2477">
        <ele>654.7</ele>
        <time>2025-02-15T14:52:04.000Z</time>
      </trkpt>
      <trkpt lat="44.12478" lon="3.24761">
        <ele>655.3</ele>
        <time>2025-02-15T14:52:09.000Z</time>
      </trkpt>
      <trkpt lat="44.12484" lon="3.24748">
        <ele>655.6</ele>
        <time>2025-02-15T14:52:13.000Z</time>
      </trkpt>
      <trkpt lat="44.12486" lon="3.24736">
        <ele>655.6</ele>
        <time>2025-02-15T14:52:15.000Z</time>
      </trkpt>
      <trkpt lat="44.12488" lon="3.24723">
        <ele>655.2</ele>
        <time>2025-02-15T14:52:17.000Z</time>
      </trkpt>
      <trkpt lat="44.12489" lon="3.2471">
        <ele>654.7</ele>
        <time>2025-02-15T14:52:19.000Z</time>
      </trkpt>
      <trkpt lat="44.12493" lon="3.24699">
        <ele>653.9</ele>
        <time>2025-02-15T14:52:21.000Z</time>
      </trkpt>
      <trkpt lat="44.12498" lon="3.24687">
        <ele>653</ele>
        <time>2025-02-15T14:52:24.000Z</time>
      </trkpt>
      <trkpt lat="44.12503" lon="3.24676">
        <ele>652</ele>
        <time>2025-02-15T14:52:28.000Z</time>
      </trkpt>
      <trkpt lat="44.12506" lon="3.24661">
        <ele>651</ele>
        <time>2025-02-15T14:52:32.000Z</time>
      </trkpt>
      <trkpt lat="44.12511" lon="3.2465">
        <ele>649.8</ele>
        <time>2025-02-15T14:52:36.000Z</time>
      </trkpt>
      <trkpt lat="44.1251" lon="3.24637">
        <ele>647.9</ele>
        <time>2025-02-15T14:52:41.000Z</time>
      </trkpt>
      <trkpt lat="44.12513" lon="3.24625">
        <ele>645.9</ele>
        <time>2025-02-15T14:52:45.000Z</time>
      </trkpt>
      <trkpt lat="44.12521" lon="3.24617">
        <ele>643.9</ele>
        <time>2025-02-15T14:52:50.000Z</time>
      </trkpt>
      <trkpt lat="44.1253" lon="3.24608">
        <ele>642.7</ele>
        <time>2025-02-15T14:52:54.000Z</time>
      </trkpt>
      <trkpt lat="44.12539" lon="3.24601">
        <ele>641.9</ele>
        <time>2025-02-15T14:52:57.000Z</time>
      </trkpt>
      <trkpt lat="44.12548" lon="3.24595">
        <ele>641.2</ele>
        <time>2025-02-15T14:53:00.000Z</time>
      </trkpt>
      <trkpt lat="44.12557" lon="3.24593">
        <ele>640.6</ele>
        <time>2025-02-15T14:53:03.000Z</time>
      </trkpt>
      <trkpt lat="44.12564" lon="3.24603">
        <ele>639.8</ele>
        <time>2025-02-15T14:53:08.000Z</time>
      </trkpt>
      <trkpt lat="44.12571" lon="3.24613">
        <ele>639.3</ele>
        <time>2025-02-15T14:53:13.000Z</time>
      </trkpt>
      <trkpt lat="44.12578" lon="3.24623">
        <ele>639.2</ele>
        <time>2025-02-15T14:53:18.000Z</time>
      </trkpt>
      <trkpt lat="44.12585" lon="3.24632">
        <ele>639.2</ele>
        <time>2025-02-15T14:53:23.000Z</time>
      </trkpt>
      <trkpt lat="44.12593" lon="3.24641">
        <ele>639.3</ele>
        <time>2025-02-15T14:53:28.000Z</time>
      </trkpt>
      <trkpt lat="44.12601" lon="3.24651">
        <ele>639.8</ele>
        <time>2025-02-15T14:53:34.000Z</time>
      </trkpt>
      <trkpt lat="44.12608" lon="3.24662">
        <ele>640.4</ele>
        <time>2025-02-15T14:53:40.000Z</time>
      </trkpt>
      <trkpt lat="44.12616" lon="3.24672">
        <ele>641</ele>
        <time>2025-02-15T14:53:46.000Z</time>
      </trkpt>
      <trkpt lat="44.12623" lon="3.24681">
        <ele>641.7</ele>
        <time>2025-02-15T14:53:51.000Z</time>
      </trkpt>
      <trkpt lat="44.1263" lon="3.24689">
        <ele>642.5</ele>
        <time>2025-02-15T14:53:56.000Z</time>
      </trkpt>
      <trkpt lat="44.12637" lon="3.24699">
        <ele>643.5</ele>
        <time>2025-02-15T14:54:02.000Z</time>
      </trkpt>
      <trkpt lat="44.12645" lon="3.24707">
        <ele>644.4</ele>
        <time>2025-02-15T14:54:08.000Z</time>
      </trkpt>
      <trkpt lat="44.1265" lon="3.24717">
        <ele>645.7</ele>
        <time>2025-02-15T14:54:16.000Z</time>
      </trkpt>
      <trkpt lat="44.12655" lon="3.24729">
        <ele>647</ele>
        <time>2025-02-15T14:54:24.000Z</time>
      </trkpt>
      <trkpt lat="44.12663" lon="3.24737">
        <ele>648.4</ele>
        <time>2025-02-15T14:54:32.000Z</time>
      </trkpt>
      <trkpt lat="44.12674" lon="3.24742">
        <ele>649.5</ele>
        <time>2025-02-15T14:54:39.000Z</time>
      </trkpt>
      <trkpt lat="44.12684" lon="3.24747">
        <ele>650.4</ele>
        <time>2025-02-15T14:54:45.000Z</time>
      </trkpt>
      <trkpt lat="44.12692" lon="3.24754">
        <ele>651.2</ele>
        <time>2025-02-15T14:54:50.000Z</time>
      </trkpt>
      <trkpt lat="44.12701" lon="3.24763">
        <ele>652.1</ele>
        <time>2025-02-15T14:54:55.000Z</time>
      </trkpt>
      <trkpt lat="44.12708" lon="3.24771">
        <ele>652.9</ele>
        <time>2025-02-15T14:55:00.000Z</time>
      </trkpt>
      <trkpt lat="44.12713" lon="3.24781">
        <ele>653.9</ele>
        <time>2025-02-15T14:55:06.000Z</time>
      </trkpt>
      <trkpt lat="44.1272" lon="3.24792">
        <ele>655.1</ele>
        <time>2025-02-15T14:55:12.000Z</time>
      </trkpt>
      <trkpt lat="44.12728" lon="3.24801">
        <ele>656.4</ele>
        <time>2025-02-15T14:55:18.000Z</time>
      </trkpt>
      <trkpt lat="44.12736" lon="3.24808">
        <ele>657.5</ele>
        <time>2025-02-15T14:55:24.000Z</time>
      </trkpt>
      <trkpt lat="44.12746" lon="3.2481">
        <ele>658.5</ele>
        <time>2025-02-15T14:55:30.000Z</time>
      </trkpt>
      <trkpt lat="44.12755" lon="3.24812">
        <ele>659.4</ele>
        <time>2025-02-15T14:55:36.000Z</time>
      </trkpt>
      <trkpt lat="44.12765" lon="3.24814">
        <ele>660.3</ele>
        <time>2025-02-15T14:55:41.000Z</time>
      </trkpt>
      <trkpt lat="44.12774" lon="3.24818">
        <ele>661.4</ele>
        <time>2025-02-15T14:55:47.000Z</time>
      </trkpt>
      <trkpt lat="44.12785" lon="3.24817">
        <ele>662.1</ele>
        <time>2025-02-15T14:55:52.000Z</time>
      </trkpt>
      <trkpt lat="44.12797" lon="3.24815">
        <ele>662.5</ele>
        <time>2025-02-15T14:55:55.000Z</time>
      </trkpt>
      <trkpt lat="44.12807" lon="3.24813">
        <ele>662.6</ele>
        <time>2025-02-15T14:55:57.000Z</time>
      </trkpt>
      <trkpt lat="44.12817" lon="3.2481">
        <ele>662.7</ele>
        <time>2025-02-15T14:55:59.000Z</time>
      </trkpt>
      <trkpt lat="44.1283" lon="3.24806">
        <ele>662.6</ele>
        <time>2025-02-15T14:56:01.000Z</time>
      </trkpt>
      <trkpt lat="44.12843" lon="3.24801">
        <ele>662.4</ele>
        <time>2025-02-15T14:56:03.000Z</time>
      </trkpt>
      <trkpt lat="44.12856" lon="3.24791">
        <ele>662.2</ele>
        <time>2025-02-15T14:56:05.000Z</time>
      </trkpt>
      <trkpt lat="44.12865" lon="3.24776">
        <ele>661.8</ele>
        <time>2025-02-15T14:56:07.000Z</time>
      </trkpt>
      <trkpt lat="44.12871" lon="3.2476">
        <ele>661.3</ele>
        <time>2025-02-15T14:56:09.000Z</time>
      </trkpt>
      <trkpt lat="44.12878" lon="3.24748">
        <ele>660.8</ele>
        <time>2025-02-15T14:56:11.000Z</time>
      </trkpt>
      <trkpt lat="44.12882" lon="3.24733">
        <ele>660.2</ele>
        <time>2025-02-15T14:56:13.000Z</time>
      </trkpt>
      <trkpt lat="44.12881" lon="3.24717">
        <ele>659.6</ele>
        <time>2025-02-15T14:56:15.000Z</time>
      </trkpt>
      <trkpt lat="44.1287" lon="3.24708">
        <ele>659</ele>
        <time>2025-02-15T14:56:18.000Z</time>
      </trkpt>
      <trkpt lat="44.1286" lon="3.24704">
        <ele>658.4</ele>
        <time>2025-02-15T14:56:21.000Z</time>
      </trkpt>
      <trkpt lat="44.12851" lon="3.24696">
        <ele>657.8</ele>
        <time>2025-02-15T14:56:25.000Z</time>
      </trkpt>
      <trkpt lat="44.12845" lon="3.24687">
        <ele>657.4</ele>
        <time>2025-02-15T14:56:29.000Z</time>
      </trkpt>
      <trkpt lat="44.1284" lon="3.24676">
        <ele>657.1</ele>
        <time>2025-02-15T14:56:33.000Z</time>
      </trkpt>
      <trkpt lat="44.12836" lon="3.24663">
        <ele>656.9</ele>
        <time>2025-02-15T14:56:38.000Z</time>
      </trkpt>
      <trkpt lat="44.12835" lon="3.2465">
        <ele>656.6</ele>
        <time>2025-02-15T14:56:58.000Z</time>
      </trkpt>
      <trkpt lat="44.12833" lon="3.24635">
        <ele>656.6</ele>
        <time>2025-02-15T14:57:04.000Z</time>
      </trkpt>
      <trkpt lat="44.12831" lon="3.24622">
        <ele>656.5</ele>
        <time>2025-02-15T14:57:08.000Z</time>
      </trkpt>
      <trkpt lat="44.12832" lon="3.24606">
        <ele>656.5</ele>
        <time>2025-02-15T14:57:13.000Z</time>
      </trkpt>
      <trkpt lat="44.1283" lon="3.24591">
        <ele>656.5</ele>
        <time>2025-02-15T14:57:18.000Z</time>
      </trkpt>
      <trkpt lat="44.1283" lon="3.24576">
        <ele>656.5</ele>
        <time>2025-02-15T14:57:22.000Z</time>
      </trkpt>
      <trkpt lat="44.12832" lon="3.24562">
        <ele>656.5</ele>
        <time>2025-02-15T14:57:26.000Z</time>
      </trkpt>
      <trkpt lat="44.12834" lon="3.24547">
        <ele>656.6</ele>
        <time>2025-02-15T14:57:30.000Z</time>
      </trkpt>
      <trkpt lat="44.12838" lon="3.24534">
        <ele>657</ele>
        <time>2025-02-15T14:57:36.000Z</time>
      </trkpt>
      <trkpt lat="44.12842" lon="3.24521">
        <ele>657.2</ele>
        <time>2025-02-15T14:57:39.000Z</time>
      </trkpt>
      <trkpt lat="44.1285" lon="3.24511">
        <ele>657.4</ele>
        <time>2025-02-15T14:57:43.000Z</time>
      </trkpt>
      <trkpt lat="44.12858" lon="3.24503">
        <ele>657.8</ele>
        <time>2025-02-15T14:57:51.000Z</time>
      </trkpt>
      <trkpt lat="44.12865" lon="3.24494">
        <ele>658.3</ele>
        <time>2025-02-15T14:57:57.000Z</time>
      </trkpt>
      <trkpt lat="44.12872" lon="3.24486">
        <ele>658.9</ele>
        <time>2025-02-15T14:58:04.000Z</time>
      </trkpt>
      <trkpt lat="44.12882" lon="3.24478">
        <ele>660</ele>
        <time>2025-02-15T14:58:41.000Z</time>
      </trkpt>
      <trkpt lat="44.12891" lon="3.24475">
        <ele>660</ele>
        <time>2025-02-15T14:58:46.000Z</time>
      </trkpt>
      <trkpt lat="44.12902" lon="3.24473">
        <ele>660.1</ele>
        <time>2025-02-15T14:58:53.000Z</time>
      </trkpt>
      <trkpt lat="44.12911" lon="3.24474">
        <ele>660.1</ele>
        <time>2025-02-15T14:58:59.000Z</time>
      </trkpt>
      <trkpt lat="44.12922" lon="3.24472">
        <ele>660.1</ele>
        <time>2025-02-15T14:59:06.000Z</time>
      </trkpt>
      <trkpt lat="44.12931" lon="3.24466">
        <ele>660.1</ele>
        <time>2025-02-15T14:59:09.000Z</time>
      </trkpt>
      <trkpt lat="44.12943" lon="3.2446">
        <ele>660</ele>
        <time>2025-02-15T14:59:12.000Z</time>
      </trkpt>
      <trkpt lat="44.12953" lon="3.24452">
        <ele>659.9</ele>
        <time>2025-02-15T14:59:14.000Z</time>
      </trkpt>
      <trkpt lat="44.12964" lon="3.24444">
        <ele>659.7</ele>
        <time>2025-02-15T14:59:16.000Z</time>
      </trkpt>
      <trkpt lat="44.12975" lon="3.24432">
        <ele>659.3</ele>
        <time>2025-02-15T14:59:18.000Z</time>
      </trkpt>
      <trkpt lat="44.12987" lon="3.2442">
        <ele>658.9</ele>
        <time>2025-02-15T14:59:20.000Z</time>
      </trkpt>
      <trkpt lat="44.12998" lon="3.24407">
        <ele>658.4</ele>
        <time>2025-02-15T14:59:22.000Z</time>
      </trkpt>
      <trkpt lat="44.13006" lon="3.24397">
        <ele>657.9</ele>
        <time>2025-02-15T14:59:24.000Z</time>
      </trkpt>
      <trkpt lat="44.13012" lon="3.24385">
        <ele>657.1</ele>
        <time>2025-02-15T14:59:26.000Z</time>
      </trkpt>
      <trkpt lat="44.13007" lon="3.24374">
        <ele>656.1</ele>
        <time>2025-02-15T14:59:29.000Z</time>
      </trkpt>
      <trkpt lat="44.12995" lon="3.2437">
        <ele>654.9</ele>
        <time>2025-02-15T14:59:33.000Z</time>
      </trkpt>
      <trkpt lat="44.12985" lon="3.24368">
        <ele>654.2</ele>
        <time>2025-02-15T14:59:36.000Z</time>
      </trkpt>
      <trkpt lat="44.12974" lon="3.24364">
        <ele>653.4</ele>
        <time>2025-02-15T14:59:39.000Z</time>
      </trkpt>
      <trkpt lat="44.12966" lon="3.24357">
        <ele>652.8</ele>
        <time>2025-02-15T14:59:41.000Z</time>
      </trkpt>
      <trkpt lat="44.12957" lon="3.24347">
        <ele>652.2</ele>
        <time>2025-02-15T14:59:43.000Z</time>
      </trkpt>
      <trkpt lat="44.12948" lon="3.24335">
        <ele>651.4</ele>
        <time>2025-02-15T14:59:45.000Z</time>
      </trkpt>
      <trkpt lat="44.12939" lon="3.24322">
        <ele>650.6</ele>
        <time>2025-02-15T14:59:47.000Z</time>
      </trkpt>
      <trkpt lat="44.12929" lon="3.24309">
        <ele>649.7</ele>
        <time>2025-02-15T14:59:49.000Z</time>
      </trkpt>
      <trkpt lat="44.1292" lon="3.24298">
        <ele>648.9</ele>
        <time>2025-02-15T14:59:51.000Z</time>
      </trkpt>
      <trkpt lat="44.12914" lon="3.24286">
        <ele>648</ele>
        <time>2025-02-15T14:59:53.000Z</time>
      </trkpt>
      <trkpt lat="44.12912" lon="3.24271">
        <ele>647.1</ele>
        <time>2025-02-15T14:59:55.000Z</time>
      </trkpt>
      <trkpt lat="44.1291" lon="3.24256">
        <ele>646.3</ele>
        <time>2025-02-15T14:59:57.000Z</time>
      </trkpt>
      <trkpt lat="44.12911" lon="3.24243">
        <ele>645.6</ele>
        <time>2025-02-15T14:59:59.000Z</time>
      </trkpt>
      <trkpt lat="44.12913" lon="3.2423">
        <ele>645</ele>
        <time>2025-02-15T15:00:01.000Z</time>
      </trkpt>
      <trkpt lat="44.12915" lon="3.24212">
        <ele>644.1</ele>
        <time>2025-02-15T15:00:04.000Z</time>
      </trkpt>
      <trkpt lat="44.12917" lon="3.24196">
        <ele>643.5</ele>
        <time>2025-02-15T15:00:07.000Z</time>
      </trkpt>
      <trkpt lat="44.12919" lon="3.2418">
        <ele>642.9</ele>
        <time>2025-02-15T15:00:10.000Z</time>
      </trkpt>
      <trkpt lat="44.12922" lon="3.24163">
        <ele>642.4</ele>
        <time>2025-02-15T15:00:13.000Z</time>
      </trkpt>
      <trkpt lat="44.12925" lon="3.24146">
        <ele>642</ele>
        <time>2025-02-15T15:00:16.000Z</time>
      </trkpt>
      <trkpt lat="44.12927" lon="3.24133">
        <ele>641.6</ele>
        <time>2025-02-15T15:00:18.000Z</time>
      </trkpt>
      <trkpt lat="44.12933" lon="3.24121">
        <ele>641.1</ele>
        <time>2025-02-15T15:00:20.000Z</time>
      </trkpt>
      <trkpt lat="44.12942" lon="3.24113">
        <ele>640.7</ele>
        <time>2025-02-15T15:00:22.000Z</time>
      </trkpt>
      <trkpt lat="44.12945" lon="3.241">
        <ele>637.9</ele>
        <time>2025-02-15T15:01:04.000Z</time>
      </trkpt>
      <trkpt lat="44.12937" lon="3.24093">
        <ele>638.1</ele>
        <time>2025-02-15T15:01:09.000Z</time>
      </trkpt>
      <trkpt lat="44.12927" lon="3.24084">
        <ele>638.3</ele>
        <time>2025-02-15T15:01:13.000Z</time>
      </trkpt>
      <trkpt lat="44.12918" lon="3.24073">
        <ele>638.4</ele>
        <time>2025-02-15T15:01:16.000Z</time>
      </trkpt>
      <trkpt lat="44.12907" lon="3.24071">
        <ele>638.2</ele>
        <time>2025-02-15T15:01:19.000Z</time>
      </trkpt>
      <trkpt lat="44.12897" lon="3.24081">
        <ele>637.9</ele>
        <time>2025-02-15T15:01:22.000Z</time>
      </trkpt>
      <trkpt lat="44.12886" lon="3.2409">
        <ele>637.6</ele>
        <time>2025-02-15T15:01:25.000Z</time>
      </trkpt>
      <trkpt lat="44.12875" lon="3.241">
        <ele>637.3</ele>
        <time>2025-02-15T15:01:28.000Z</time>
      </trkpt>
      <trkpt lat="44.12865" lon="3.24108">
        <ele>636.9</ele>
        <time>2025-02-15T15:01:31.000Z</time>
      </trkpt>
      <trkpt lat="44.12854" lon="3.24111">
        <ele>636.6</ele>
        <time>2025-02-15T15:01:34.000Z</time>
      </trkpt>
      <trkpt lat="44.12844" lon="3.24112">
        <ele>636.3</ele>
        <time>2025-02-15T15:01:37.000Z</time>
      </trkpt>
      <trkpt lat="44.12834" lon="3.24115">
        <ele>636.2</ele>
        <time>2025-02-15T15:01:40.000Z</time>
      </trkpt>
      <trkpt lat="44.12821" lon="3.24122">
        <ele>636</ele>
        <time>2025-02-15T15:01:43.000Z</time>
      </trkpt>
      <trkpt lat="44.12809" lon="3.24129">
        <ele>635.8</ele>
        <time>2025-02-15T15:01:46.000Z</time>
      </trkpt>
      <trkpt lat="44.12796" lon="3.24134">
        <ele>635.3</ele>
        <time>2025-02-15T15:01:49.000Z</time>
      </trkpt>
      <trkpt lat="44.12788" lon="3.24142">
        <ele>634.9</ele>
        <time>2025-02-15T15:01:51.000Z</time>
      </trkpt>
      <trkpt lat="44.1278" lon="3.24151">
        <ele>634.5</ele>
        <time>2025-02-15T15:01:53.000Z</time>
      </trkpt>
      <trkpt lat="44.12771" lon="3.24162">
        <ele>633.9</ele>
        <time>2025-02-15T15:01:55.000Z</time>
      </trkpt>
      <trkpt lat="44.12762" lon="3.24175">
        <ele>633.1</ele>
        <time>2025-02-15T15:01:57.000Z</time>
      </trkpt>
      <trkpt lat="44.12751" lon="3.24184">
        <ele>632.3</ele>
        <time>2025-02-15T15:01:59.000Z</time>
      </trkpt>
      <trkpt lat="44.12739" lon="3.24188">
        <ele>631.5</ele>
        <time>2025-02-15T15:02:01.000Z</time>
      </trkpt>
      <trkpt lat="44.12726" lon="3.24188">
        <ele>630.7</ele>
        <time>2025-02-15T15:02:03.000Z</time>
      </trkpt>
      <trkpt lat="44.12711" lon="3.24186">
        <ele>629.6</ele>
        <time>2025-02-15T15:02:05.000Z</time>
      </trkpt>
      <trkpt lat="44.12695" lon="3.24181">
        <ele>628.5</ele>
        <time>2025-02-15T15:02:07.000Z</time>
      </trkpt>
      <trkpt lat="44.12681" lon="3.24178">
        <ele>627.3</ele>
        <time>2025-02-15T15:02:09.000Z</time>
      </trkpt>
      <trkpt lat="44.12668" lon="3.24175">
        <ele>626.2</ele>
        <time>2025-02-15T15:02:11.000Z</time>
      </trkpt>
      <trkpt lat="44.12654" lon="3.24171">
        <ele>625</ele>
        <time>2025-02-15T15:02:13.000Z</time>
      </trkpt>
      <trkpt lat="44.12644" lon="3.24163">
        <ele>623.8</ele>
        <time>2025-02-15T15:02:15.000Z</time>
      </trkpt>
      <trkpt lat="44.12641" lon="3.2415">
        <ele>622.7</ele>
        <time>2025-02-15T15:02:17.000Z</time>
      </trkpt>
      <trkpt lat="44.12642" lon="3.24133">
        <ele>621.4</ele>
        <time>2025-02-15T15:02:20.000Z</time>
      </trkpt>
      <trkpt lat="44.12644" lon="3.24116">
        <ele>620.2</ele>
        <time>2025-02-15T15:02:23.000Z</time>
      </trkpt>
      <trkpt lat="44.12644" lon="3.24098">
        <ele>619.3</ele>
        <time>2025-02-15T15:02:26.000Z</time>
      </trkpt>
      <trkpt lat="44.12638" lon="3.24087">
        <ele>618.5</ele>
        <time>2025-02-15T15:02:29.000Z</time>
      </trkpt>
      <trkpt lat="44.12627" lon="3.24085">
        <ele>617.9</ele>
        <time>2025-02-15T15:02:32.000Z</time>
      </trkpt>
      <trkpt lat="44.12615" lon="3.24079">
        <ele>617.4</ele>
        <time>2025-02-15T15:02:35.000Z</time>
      </trkpt>
      <trkpt lat="44.12605" lon="3.24079">
        <ele>616.9</ele>
        <time>2025-02-15T15:02:38.000Z</time>
      </trkpt>
      <trkpt lat="44.12593" lon="3.24082">
        <ele>616.5</ele>
        <time>2025-02-15T15:02:41.000Z</time>
      </trkpt>
      <trkpt lat="44.1258" lon="3.24082">
        <ele>616.1</ele>
        <time>2025-02-15T15:02:44.000Z</time>
      </trkpt>
      <trkpt lat="44.12567" lon="3.24082">
        <ele>615.6</ele>
        <time>2025-02-15T15:02:47.000Z</time>
      </trkpt>
      <trkpt lat="44.12554" lon="3.24084">
        <ele>615.2</ele>
        <time>2025-02-15T15:02:50.000Z</time>
      </trkpt>
      <trkpt lat="44.1254" lon="3.24087">
        <ele>614.8</ele>
        <time>2025-02-15T15:02:53.000Z</time>
      </trkpt>
      <trkpt lat="44.12531" lon="3.2409">
        <ele>614.5</ele>
        <time>2025-02-15T15:02:55.000Z</time>
      </trkpt>
      <trkpt lat="44.12518" lon="3.24093">
        <ele>614.1</ele>
        <time>2025-02-15T15:02:58.000Z</time>
      </trkpt>
      <trkpt lat="44.12505" lon="3.24099">
        <ele>613.7</ele>
        <time>2025-02-15T15:03:01.000Z</time>
      </trkpt>
      <trkpt lat="44.12493" lon="3.24101">
        <ele>613.2</ele>
        <time>2025-02-15T15:03:04.000Z</time>
      </trkpt>
      <trkpt lat="44.12481" lon="3.24102">
        <ele>612.6</ele>
        <time>2025-02-15T15:03:07.000Z</time>
      </trkpt>
      <trkpt lat="44.12468" lon="3.24101">
        <ele>611.8</ele>
        <time>2025-02-15T15:03:10.000Z</time>
      </trkpt>
      <trkpt lat="44.12459" lon="3.24101">
        <ele>611.3</ele>
        <time>2025-02-15T15:03:12.000Z</time>
      </trkpt>
      <trkpt lat="44.12449" lon="3.24101">
        <ele>610.8</ele>
        <time>2025-02-15T15:03:14.000Z</time>
      </trkpt>
      <trkpt lat="44.12437" lon="3.24101">
        <ele>610.1</ele>
        <time>2025-02-15T15:03:17.000Z</time>
      </trkpt>
      <trkpt lat="44.12426" lon="3.24102">
        <ele>609.4</ele>
        <time>2025-02-15T15:03:20.000Z</time>
      </trkpt>
      <trkpt lat="44.12416" lon="3.24103">
        <ele>608.8</ele>
        <time>2025-02-15T15:03:23.000Z</time>
      </trkpt>
      <trkpt lat="44.12404" lon="3.241">
        <ele>608</ele>
        <time>2025-02-15T15:03:26.000Z</time>
      </trkpt>
      <trkpt lat="44.12392" lon="3.24095">
        <ele>607.2</ele>
        <time>2025-02-15T15:03:29.000Z</time>
      </trkpt>
      <trkpt lat="44.12384" lon="3.24087">
        <ele>606.7</ele>
        <time>2025-02-15T15:03:31.000Z</time>
      </trkpt>
      <trkpt lat="44.12377" lon="3.2408">
        <ele>606.1</ele>
        <time>2025-02-15T15:03:33.000Z</time>
      </trkpt>
      <trkpt lat="44.1237" lon="3.24072">
        <ele>605.6</ele>
        <time>2025-02-15T15:03:35.000Z</time>
      </trkpt>
      <trkpt lat="44.12362" lon="3.24065">
        <ele>605.1</ele>
        <time>2025-02-15T15:03:37.000Z</time>
      </trkpt>
      <trkpt lat="44.12351" lon="3.24055">
        <ele>604.4</ele>
        <time>2025-02-15T15:03:40.000Z</time>
      </trkpt>
      <trkpt lat="44.12344" lon="3.24046">
        <ele>603.9</ele>
        <time>2025-02-15T15:03:42.000Z</time>
      </trkpt>
      <trkpt lat="44.12338" lon="3.24036">
        <ele>603.3</ele>
        <time>2025-02-15T15:03:44.000Z</time>
      </trkpt>
      <trkpt lat="44.12333" lon="3.24019">
        <ele>602.6</ele>
        <time>2025-02-15T15:03:47.000Z</time>
      </trkpt>
      <trkpt lat="44.12328" lon="3.24002">
        <ele>601.7</ele>
        <time>2025-02-15T15:03:50.000Z</time>
      </trkpt>
      <trkpt lat="44.12328" lon="3.23985">
        <ele>601</ele>
        <time>2025-02-15T15:03:53.000Z</time>
      </trkpt>
      <trkpt lat="44.12327" lon="3.23968">
        <ele>600.3</ele>
        <time>2025-02-15T15:03:56.000Z</time>
      </trkpt>
      <trkpt lat="44.12325" lon="3.23953">
        <ele>599.6</ele>
        <time>2025-02-15T15:03:59.000Z</time>
      </trkpt>
      <trkpt lat="44.12322" lon="3.23937">
        <ele>598.7</ele>
        <time>2025-02-15T15:04:02.000Z</time>
      </trkpt>
      <trkpt lat="44.12321" lon="3.23924">
        <ele>598</ele>
        <time>2025-02-15T15:04:05.000Z</time>
      </trkpt>
      <trkpt lat="44.1232" lon="3.23909">
        <ele>597</ele>
        <time>2025-02-15T15:04:09.000Z</time>
      </trkpt>
      <trkpt lat="44.12318" lon="3.23893">
        <ele>596.1</ele>
        <time>2025-02-15T15:04:13.000Z</time>
      </trkpt>
      <trkpt lat="44.12315" lon="3.23876">
        <ele>595.3</ele>
        <time>2025-02-15T15:04:16.000Z</time>
      </trkpt>
      <trkpt lat="44.12314" lon="3.2386">
        <ele>594.7</ele>
        <time>2025-02-15T15:04:19.000Z</time>
      </trkpt>
      <trkpt lat="44.12313" lon="3.23847">
        <ele>594.2</ele>
        <time>2025-02-15T15:04:22.000Z</time>
      </trkpt>
      <trkpt lat="44.12313" lon="3.23833">
        <ele>593.8</ele>
        <time>2025-02-15T15:04:25.000Z</time>
      </trkpt>
      <trkpt lat="44.12314" lon="3.2382">
        <ele>593.3</ele>
        <time>2025-02-15T15:04:28.000Z</time>
      </trkpt>
      <trkpt lat="44.12316" lon="3.23804">
        <ele>592.7</ele>
        <time>2025-02-15T15:04:32.000Z</time>
      </trkpt>
      <trkpt lat="44.12318" lon="3.23788">
        <ele>592.2</ele>
        <time>2025-02-15T15:04:35.000Z</time>
      </trkpt>
      <trkpt lat="44.12317" lon="3.23775">
        <ele>591.8</ele>
        <time>2025-02-15T15:04:37.000Z</time>
      </trkpt>
      <trkpt lat="44.12315" lon="3.2376">
        <ele>591.3</ele>
        <time>2025-02-15T15:04:39.000Z</time>
      </trkpt>
      <trkpt lat="44.12311" lon="3.23746">
        <ele>590.7</ele>
        <time>2025-02-15T15:04:41.000Z</time>
      </trkpt>
      <trkpt lat="44.12307" lon="3.23735">
        <ele>590.2</ele>
        <time>2025-02-15T15:04:43.000Z</time>
      </trkpt>
      <trkpt lat="44.12304" lon="3.23719">
        <ele>589</ele>
        <time>2025-02-15T15:04:46.000Z</time>
      </trkpt>
      <trkpt lat="44.12299" lon="3.23706">
        <ele>587.9</ele>
        <time>2025-02-15T15:04:49.000Z</time>
      </trkpt>
      <trkpt lat="44.12296" lon="3.23688">
        <ele>586.8</ele>
        <time>2025-02-15T15:04:52.000Z</time>
      </trkpt>
      <trkpt lat="44.12296" lon="3.23672">
        <ele>585.9</ele>
        <time>2025-02-15T15:04:55.000Z</time>
      </trkpt>
      <trkpt lat="44.12296" lon="3.23658">
        <ele>585.1</ele>
        <time>2025-02-15T15:04:58.000Z</time>
      </trkpt>
      <trkpt lat="44.12295" lon="3.23641">
        <ele>584.1</ele>
        <time>2025-02-15T15:05:01.000Z</time>
      </trkpt>
      <trkpt lat="44.12295" lon="3.23624">
        <ele>583.1</ele>
        <time>2025-02-15T15:05:04.000Z</time>
      </trkpt>
      <trkpt lat="44.12294" lon="3.23607">
        <ele>582.3</ele>
        <time>2025-02-15T15:05:07.000Z</time>
      </trkpt>
      <trkpt lat="44.12294" lon="3.2359">
        <ele>581.7</ele>
        <time>2025-02-15T15:05:10.000Z</time>
      </trkpt>
      <trkpt lat="44.12296" lon="3.23575">
        <ele>581.1</ele>
        <time>2025-02-15T15:05:13.000Z</time>
      </trkpt>
      <trkpt lat="44.123" lon="3.23562">
        <ele>580.7</ele>
        <time>2025-02-15T15:05:16.000Z</time>
      </trkpt>
      <trkpt lat="44.12303" lon="3.23549">
        <ele>580.3</ele>
        <time>2025-02-15T15:05:19.000Z</time>
      </trkpt>
      <trkpt lat="44.12307" lon="3.23535">
        <ele>580</ele>
        <time>2025-02-15T15:05:22.000Z</time>
      </trkpt>
      <trkpt lat="44.1231" lon="3.23521">
        <ele>579.7</ele>
        <time>2025-02-15T15:05:25.000Z</time>
      </trkpt>
      <trkpt lat="44.12314" lon="3.23507">
        <ele>579.4</ele>
        <time>2025-02-15T15:05:28.000Z</time>
      </trkpt>
      <trkpt lat="44.12317" lon="3.23495">
        <ele>579.2</ele>
        <time>2025-02-15T15:05:31.000Z</time>
      </trkpt>
      <trkpt lat="44.12321" lon="3.23483">
        <ele>578.7</ele>
        <time>2025-02-15T15:05:36.000Z</time>
      </trkpt>
      <trkpt lat="44.12323" lon="3.23468">
        <ele>578.2</ele>
        <time>2025-02-15T15:05:41.000Z</time>
      </trkpt>
      <trkpt lat="44.12326" lon="3.23453">
        <ele>577.9</ele>
        <time>2025-02-15T15:05:45.000Z</time>
      </trkpt>
      <trkpt lat="44.12328" lon="3.23438">
        <ele>577.7</ele>
        <time>2025-02-15T15:05:49.000Z</time>
      </trkpt>
      <trkpt lat="44.12329" lon="3.23424">
        <ele>577.5</ele>
        <time>2025-02-15T15:05:53.000Z</time>
      </trkpt>
      <trkpt lat="44.12331" lon="3.23407">
        <ele>577.4</ele>
        <time>2025-02-15T15:05:57.000Z</time>
      </trkpt>
      <trkpt lat="44.12332" lon="3.23394">
        <ele>577.3</ele>
        <time>2025-02-15T15:06:01.000Z</time>
      </trkpt>
      <trkpt lat="44.12334" lon="3.23381">
        <ele>577.2</ele>
        <time>2025-02-15T15:06:04.000Z</time>
      </trkpt>
      <trkpt lat="44.12337" lon="3.23367">
        <ele>577.2</ele>
        <time>2025-02-15T15:06:08.000Z</time>
      </trkpt>
      <trkpt lat="44.12343" lon="3.23354">
        <ele>577.1</ele>
        <time>2025-02-15T15:06:12.000Z</time>
      </trkpt>
      <trkpt lat="44.12348" lon="3.23341">
        <ele>577</ele>
        <time>2025-02-15T15:06:16.000Z</time>
      </trkpt>
      <trkpt lat="44.12354" lon="3.23329">
        <ele>576.7</ele>
        <time>2025-02-15T15:06:20.000Z</time>
      </trkpt>
      <trkpt lat="44.1236" lon="3.23318">
        <ele>576.3</ele>
        <time>2025-02-15T15:06:23.000Z</time>
      </trkpt>
      <trkpt lat="44.12366" lon="3.23309">
        <ele>575.9</ele>
        <time>2025-02-15T15:06:26.000Z</time>
      </trkpt>
      <trkpt lat="44.12364" lon="3.23296">
        <ele>575.2</ele>
        <time>2025-02-15T15:06:30.000Z</time>
      </trkpt>
      <trkpt lat="44.12359" lon="3.23285">
        <ele>574.6</ele>
        <time>2025-02-15T15:06:33.000Z</time>
      </trkpt>
      <trkpt lat="44.12356" lon="3.23269">
        <ele>573.6</ele>
        <time>2025-02-15T15:06:37.000Z</time>
      </trkpt>
      <trkpt lat="44.12359" lon="3.23256">
        <ele>572.6</ele>
        <time>2025-02-15T15:06:40.000Z</time>
      </trkpt>
      <trkpt lat="44.1237" lon="3.23255">
        <ele>569.1</ele>
        <time>2025-02-15T15:06:50.000Z</time>
      </trkpt>
      <trkpt lat="44.12378" lon="3.23263">
        <ele>567.1</ele>
        <time>2025-02-15T15:06:55.000Z</time>
      </trkpt>
      <trkpt lat="44.12388" lon="3.23267">
        <ele>565.2</ele>
        <time>2025-02-15T15:07:00.000Z</time>
      </trkpt>
      <trkpt lat="44.12399" lon="3.23265">
        <ele>563.7</ele>
        <time>2025-02-15T15:07:04.000Z</time>
      </trkpt>
      <trkpt lat="44.1241" lon="3.23261">
        <ele>561.9</ele>
        <time>2025-02-15T15:07:09.000Z</time>
      </trkpt>
      <trkpt lat="44.12419" lon="3.2326">
        <ele>560.6</ele>
        <time>2025-02-15T15:07:13.000Z</time>
      </trkpt>
      <trkpt lat="44.1243" lon="3.23257">
        <ele>558.9</ele>
        <time>2025-02-15T15:07:18.000Z</time>
      </trkpt>
      <trkpt lat="44.12438" lon="3.23252">
        <ele>557.7</ele>
        <time>2025-02-15T15:07:21.000Z</time>
      </trkpt>
      <trkpt lat="44.12447" lon="3.23244">
        <ele>555.7</ele>
        <time>2025-02-15T15:07:26.000Z</time>
      </trkpt>
      <trkpt lat="44.12457" lon="3.2324">
        <ele>554.5</ele>
        <time>2025-02-15T15:07:29.000Z</time>
      </trkpt>
      <trkpt lat="44.12467" lon="3.23236">
        <ele>553.5</ele>
        <time>2025-02-15T15:07:32.000Z</time>
      </trkpt>
      <trkpt lat="44.12475" lon="3.23228">
        <ele>552.3</ele>
        <time>2025-02-15T15:07:35.000Z</time>
      </trkpt>
      <trkpt lat="44.12478" lon="3.23217">
        <ele>550.4</ele>
        <time>2025-02-15T15:07:40.000Z</time>
      </trkpt>
      <trkpt lat="44.12468" lon="3.2322">
        <ele>548.5</ele>
        <time>2025-02-15T15:07:44.000Z</time>
      </trkpt>
      <trkpt lat="44.12456" lon="3.23217">
        <ele>546.5</ele>
        <time>2025-02-15T15:07:48.000Z</time>
      </trkpt>
      <trkpt lat="44.12446" lon="3.23215">
        <ele>544.9</ele>
        <time>2025-02-15T15:07:51.000Z</time>
      </trkpt>
      <trkpt lat="44.12433" lon="3.23214">
        <ele>543.2</ele>
        <time>2025-02-15T15:07:54.000Z</time>
      </trkpt>
      <trkpt lat="44.12424" lon="3.2321">
        <ele>542.1</ele>
        <time>2025-02-15T15:07:56.000Z</time>
      </trkpt>
      <trkpt lat="44.12413" lon="3.23201">
        <ele>540.4</ele>
        <time>2025-02-15T15:07:59.000Z</time>
      </trkpt>
      <trkpt lat="44.12403" lon="3.23194">
        <ele>538.6</ele>
        <time>2025-02-15T15:08:02.000Z</time>
      </trkpt>
      <trkpt lat="44.12393" lon="3.23186">
        <ele>536.9</ele>
        <time>2025-02-15T15:08:05.000Z</time>
      </trkpt>
      <trkpt lat="44.12382" lon="3.23181">
        <ele>534.7</ele>
        <time>2025-02-15T15:08:09.000Z</time>
      </trkpt>
      <trkpt lat="44.12374" lon="3.23176">
        <ele>533</ele>
        <time>2025-02-15T15:08:12.000Z</time>
      </trkpt>
      <trkpt lat="44.12364" lon="3.23173">
        <ele>531.4</ele>
        <time>2025-02-15T15:08:15.000Z</time>
      </trkpt>
      <trkpt lat="44.12354" lon="3.23171">
        <ele>530</ele>
        <time>2025-02-15T15:08:18.000Z</time>
      </trkpt>
      <trkpt lat="44.12344" lon="3.23168">
        <ele>527.8</ele>
        <time>2025-02-15T15:08:23.000Z</time>
      </trkpt>
      <trkpt lat="44.1235" lon="3.23156">
        <ele>523.5</ele>
        <time>2025-02-15T15:08:34.000Z</time>
      </trkpt>
      <trkpt lat="44.12361" lon="3.23156">
        <ele>521.8</ele>
        <time>2025-02-15T15:08:39.000Z</time>
      </trkpt>
      <trkpt lat="44.12372" lon="3.23156">
        <ele>520.2</ele>
        <time>2025-02-15T15:08:44.000Z</time>
      </trkpt>
      <trkpt lat="44.12383" lon="3.23154">
        <ele>514.2</ele>
        <time>2025-02-15T15:09:35.000Z</time>
      </trkpt>
      <trkpt lat="44.12392" lon="3.23153">
        <ele>513.9</ele>
        <time>2025-02-15T15:09:38.000Z</time>
      </trkpt>
      <trkpt lat="44.12401" lon="3.23151">
        <ele>513.5</ele>
        <time>2025-02-15T15:09:41.000Z</time>
      </trkpt>
      <trkpt lat="44.12397" lon="3.2314">
        <ele>510.8</ele>
        <time>2025-02-15T15:09:52.000Z</time>
      </trkpt>
      <trkpt lat="44.12388" lon="3.23134">
        <ele>509.6</ele>
        <time>2025-02-15T15:09:56.000Z</time>
      </trkpt>
      <trkpt lat="44.12378" lon="3.2313">
        <ele>508.4</ele>
        <time>2025-02-15T15:10:00.000Z</time>
      </trkpt>
      <trkpt lat="44.12368" lon="3.23124">
        <ele>507</ele>
        <time>2025-02-15T15:10:04.000Z</time>
      </trkpt>
      <trkpt lat="44.12358" lon="3.2312">
        <ele>505.8</ele>
        <time>2025-02-15T15:10:08.000Z</time>
      </trkpt>
      <trkpt lat="44.12348" lon="3.23119">
        <ele>504.7</ele>
        <time>2025-02-15T15:10:12.000Z</time>
      </trkpt>
      <trkpt lat="44.12337" lon="3.23125">
        <ele>503.7</ele>
        <time>2025-02-15T15:10:16.000Z</time>
      </trkpt>
      <trkpt lat="44.12328" lon="3.23133">
        <ele>502.3</ele>
        <time>2025-02-15T15:10:21.000Z</time>
      </trkpt>
      <trkpt lat="44.12319" lon="3.2314">
        <ele>501.3</ele>
        <time>2025-02-15T15:10:25.000Z</time>
      </trkpt>
      <trkpt lat="44.12326" lon="3.23128">
        <ele>499.8</ele>
        <time>2025-02-15T15:10:31.000Z</time>
      </trkpt>
      <trkpt lat="44.12334" lon="3.2312">
        <ele>498.8</ele>
        <time>2025-02-15T15:10:34.000Z</time>
      </trkpt>
      <trkpt lat="44.12342" lon="3.23113">
        <ele>498</ele>
        <time>2025-02-15T15:10:37.000Z</time>
      </trkpt>
      <trkpt lat="44.12351" lon="3.23108">
        <ele>497.2</ele>
        <time>2025-02-15T15:10:40.000Z</time>
      </trkpt>
      <trkpt lat="44.12362" lon="3.23103">
        <ele>496.1</ele>
        <time>2025-02-15T15:10:44.000Z</time>
      </trkpt>
      <trkpt lat="44.12371" lon="3.23103">
        <ele>495.4</ele>
        <time>2025-02-15T15:10:47.000Z</time>
      </trkpt>
      <trkpt lat="44.1238" lon="3.23103">
        <ele>494.4</ele>
        <time>2025-02-15T15:10:50.000Z</time>
      </trkpt>
      <trkpt lat="44.12391" lon="3.23101">
        <ele>492.7</ele>
        <time>2025-02-15T15:10:54.000Z</time>
      </trkpt>
      <trkpt lat="44.12401" lon="3.23104">
        <ele>491.2</ele>
        <time>2025-02-15T15:10:58.000Z</time>
      </trkpt>
      <trkpt lat="44.1241" lon="3.23102">
        <ele>489.1</ele>
        <time>2025-02-15T15:11:03.000Z</time>
      </trkpt>
      <trkpt lat="44.12401" lon="3.23094">
        <ele>487.2</ele>
        <time>2025-02-15T15:11:08.000Z</time>
      </trkpt>
      <trkpt lat="44.1239" lon="3.23088">
        <ele>485.5</ele>
        <time>2025-02-15T15:11:12.000Z</time>
      </trkpt>
      <trkpt lat="44.12382" lon="3.23079">
        <ele>482.8</ele>
        <time>2025-02-15T15:11:18.000Z</time>
      </trkpt>
      <trkpt lat="44.12371" lon="3.23072">
        <ele>480.8</ele>
        <time>2025-02-15T15:11:23.000Z</time>
      </trkpt>
      <trkpt lat="44.12364" lon="3.23064">
        <ele>479.6</ele>
        <time>2025-02-15T15:11:26.000Z</time>
      </trkpt>
      <trkpt lat="44.12373" lon="3.23059">
        <ele>475.9</ele>
        <time>2025-02-15T15:11:37.000Z</time>
      </trkpt>
      <trkpt lat="44.12383" lon="3.23064">
        <ele>474.4</ele>
        <time>2025-02-15T15:11:41.000Z</time>
      </trkpt>
      <trkpt lat="44.12393" lon="3.23063">
        <ele>472.9</ele>
        <time>2025-02-15T15:11:45.000Z</time>
      </trkpt>
      <trkpt lat="44.12403" lon="3.23063">
        <ele>471.7</ele>
        <time>2025-02-15T15:11:48.000Z</time>
      </trkpt>
      <trkpt lat="44.12413" lon="3.23063">
        <ele>470.5</ele>
        <time>2025-02-15T15:11:51.000Z</time>
      </trkpt>
      <trkpt lat="44.12422" lon="3.23058">
        <ele>469.4</ele>
        <time>2025-02-15T15:11:54.000Z</time>
      </trkpt>
      <trkpt lat="44.12431" lon="3.23049">
        <ele>468.2</ele>
        <time>2025-02-15T15:11:57.000Z</time>
      </trkpt>
      <trkpt lat="44.12433" lon="3.23033">
        <ele>466.8</ele>
        <time>2025-02-15T15:12:00.000Z</time>
      </trkpt>
      <trkpt lat="44.12436" lon="3.23017">
        <ele>465.4</ele>
        <time>2025-02-15T15:12:03.000Z</time>
      </trkpt>
      <trkpt lat="44.1244" lon="3.23003">
        <ele>464.1</ele>
        <time>2025-02-15T15:12:06.000Z</time>
      </trkpt>
      <trkpt lat="44.12441" lon="3.22989">
        <ele>462.7</ele>
        <time>2025-02-15T15:12:09.000Z</time>
      </trkpt>
      <trkpt lat="44.12444" lon="3.22974">
        <ele>461.3</ele>
        <time>2025-02-15T15:12:12.000Z</time>
      </trkpt>
      <trkpt lat="44.12448" lon="3.22962">
        <ele>459.9</ele>
        <time>2025-02-15T15:12:15.000Z</time>
      </trkpt>
      <trkpt lat="44.12456" lon="3.2295">
        <ele>458.2</ele>
        <time>2025-02-15T15:12:19.000Z</time>
      </trkpt>
      <trkpt lat="44.12464" lon="3.22937">
        <ele>456.3</ele>
        <time>2025-02-15T15:12:23.000Z</time>
      </trkpt>
      <trkpt lat="44.12471" lon="3.22925">
        <ele>455.1</ele>
        <time>2025-02-15T15:12:26.000Z</time>
      </trkpt>
      <trkpt lat="44.12478" lon="3.22913">
        <ele>453.6</ele>
        <time>2025-02-15T15:12:29.000Z</time>
      </trkpt>
      <trkpt lat="44.12485" lon="3.22903">
        <ele>452.1</ele>
        <time>2025-02-15T15:12:32.000Z</time>
      </trkpt>
      <trkpt lat="44.12492" lon="3.22894">
        <ele>450.2</ele>
        <time>2025-02-15T15:12:36.000Z</time>
      </trkpt>
      <trkpt lat="44.12501" lon="3.22887">
        <ele>448.4</ele>
        <time>2025-02-15T15:12:40.000Z</time>
      </trkpt>
      <trkpt lat="44.12511" lon="3.22886">
        <ele>447</ele>
        <time>2025-02-15T15:12:44.000Z</time>
      </trkpt>
      <trkpt lat="44.1252" lon="3.22891">
        <ele>445.9</ele>
        <time>2025-02-15T15:12:48.000Z</time>
      </trkpt>
      <trkpt lat="44.1253" lon="3.22889">
        <ele>444.8</ele>
        <time>2025-02-15T15:12:53.000Z</time>
      </trkpt>
      <trkpt lat="44.12534" lon="3.22875">
        <ele>444.2</ele>
        <time>2025-02-15T15:12:57.000Z</time>
      </trkpt>
      <trkpt lat="44.12538" lon="3.22864">
        <ele>443.6</ele>
        <time>2025-02-15T15:13:00.000Z</time>
      </trkpt>
      <trkpt lat="44.12538" lon="3.2285">
        <ele>443.2</ele>
        <time>2025-02-15T15:13:03.000Z</time>
      </trkpt>
      <trkpt lat="44.12538" lon="3.22836">
        <ele>442.8</ele>
        <time>2025-02-15T15:13:06.000Z</time>
      </trkpt>
      <trkpt lat="44.12538" lon="3.22822">
        <ele>442.5</ele>
        <time>2025-02-15T15:13:10.000Z</time>
      </trkpt>
      <trkpt lat="44.12536" lon="3.22809">
        <ele>442.4</ele>
        <time>2025-02-15T15:13:13.000Z</time>
      </trkpt>
      <trkpt lat="44.12535" lon="3.22796">
        <ele>442.2</ele>
        <time>2025-02-15T15:13:16.000Z</time>
      </trkpt>
      <trkpt lat="44.12536" lon="3.22784">
        <ele>441.9</ele>
        <time>2025-02-15T15:13:19.000Z</time>
      </trkpt>
      <trkpt lat="44.12537" lon="3.2277">
        <ele>441.4</ele>
        <time>2025-02-15T15:13:22.000Z</time>
      </trkpt>
      <trkpt lat="44.1254" lon="3.22756">
        <ele>440.6</ele>
        <time>2025-02-15T15:13:25.000Z</time>
      </trkpt>
      <trkpt lat="44.12545" lon="3.22743">
        <ele>439.7</ele>
        <time>2025-02-15T15:13:28.000Z</time>
      </trkpt>
      <trkpt lat="44.12552" lon="3.22731">
        <ele>438.8</ele>
        <time>2025-02-15T15:13:31.000Z</time>
      </trkpt>
      <trkpt lat="44.12558" lon="3.22721">
        <ele>437.9</ele>
        <time>2025-02-15T15:13:33.000Z</time>
      </trkpt>
      <trkpt lat="44.12564" lon="3.22708">
        <ele>437.1</ele>
        <time>2025-02-15T15:13:35.000Z</time>
      </trkpt>
      <trkpt lat="44.1257" lon="3.22696">
        <ele>436.4</ele>
        <time>2025-02-15T15:13:37.000Z</time>
      </trkpt>
      <trkpt lat="44.12577" lon="3.22687">
        <ele>435.7</ele>
        <time>2025-02-15T15:13:39.000Z</time>
      </trkpt>
      <trkpt lat="44.12586" lon="3.22676">
        <ele>434.8</ele>
        <time>2025-02-15T15:13:42.000Z</time>
      </trkpt>
      <trkpt lat="44.12593" lon="3.22665">
        <ele>434.1</ele>
        <time>2025-02-15T15:13:45.000Z</time>
      </trkpt>
      <trkpt lat="44.1259" lon="3.22651">
        <ele>433.3</ele>
        <time>2025-02-15T15:13:50.000Z</time>
      </trkpt>
      <trkpt lat="44.12582" lon="3.22643">
        <ele>433.4</ele>
        <time>2025-02-15T15:13:55.000Z</time>
      </trkpt>
      <trkpt lat="44.12573" lon="3.22639">
        <ele>434</ele>
        <time>2025-02-15T15:14:00.000Z</time>
      </trkpt>
      <trkpt lat="44.12567" lon="3.22628">
        <ele>434.8</ele>
        <time>2025-02-15T15:14:06.000Z</time>
      </trkpt>
      <trkpt lat="44.12565" lon="3.22614">
        <ele>435.3</ele>
        <time>2025-02-15T15:14:10.000Z</time>
      </trkpt>
      <trkpt lat="44.12566" lon="3.22599">
        <ele>435.6</ele>
        <time>2025-02-15T15:14:14.000Z</time>
      </trkpt>
      <trkpt lat="44.12569" lon="3.22584">
        <ele>436</ele>
        <time>2025-02-15T15:14:18.000Z</time>
      </trkpt>
      <trkpt lat="44.1257" lon="3.22571">
        <ele>436.6</ele>
        <time>2025-02-15T15:14:22.000Z</time>
      </trkpt>
      <trkpt lat="44.12571" lon="3.22556">
        <ele>437.1</ele>
        <time>2025-02-15T15:14:26.000Z</time>
      </trkpt>
      <trkpt lat="44.12571" lon="3.22541">
        <ele>437.4</ele>
        <time>2025-02-15T15:14:30.000Z</time>
      </trkpt>
      <trkpt lat="44.12569" lon="3.22527">
        <ele>437.7</ele>
        <time>2025-02-15T15:14:34.000Z</time>
      </trkpt>
      <trkpt lat="44.12568" lon="3.22514">
        <ele>438</ele>
        <time>2025-02-15T15:14:38.000Z</time>
      </trkpt>
      <trkpt lat="44.12568" lon="3.225">
        <ele>438.1</ele>
        <time>2025-02-15T15:14:42.000Z</time>
      </trkpt>
      <trkpt lat="44.12569" lon="3.22484">
        <ele>438.3</ele>
        <time>2025-02-15T15:14:46.000Z</time>
      </trkpt>
      <trkpt lat="44.1257" lon="3.22471">
        <ele>438.3</ele>
        <time>2025-02-15T15:14:49.000Z</time>
      </trkpt>
      <trkpt lat="44.1257" lon="3.22457">
        <ele>438.4</ele>
        <time>2025-02-15T15:14:52.000Z</time>
      </trkpt>
      <trkpt lat="44.12567" lon="3.2244">
        <ele>438.3</ele>
        <time>2025-02-15T15:14:55.000Z</time>
      </trkpt>
      <trkpt lat="44.12563" lon="3.22426">
        <ele>438.2</ele>
        <time>2025-02-15T15:14:57.000Z</time>
      </trkpt>
      <trkpt lat="44.12559" lon="3.22412">
        <ele>438</ele>
        <time>2025-02-15T15:14:59.000Z</time>
      </trkpt>
      <trkpt lat="44.12558" lon="3.22399">
        <ele>437.7</ele>
        <time>2025-02-15T15:15:02.000Z</time>
      </trkpt>
      <trkpt lat="44.12556" lon="3.22386">
        <ele>437.3</ele>
        <time>2025-02-15T15:15:06.000Z</time>
      </trkpt>
      <trkpt lat="44.12551" lon="3.2237">
        <ele>437</ele>
        <time>2025-02-15T15:15:09.000Z</time>
      </trkpt>
      <trkpt lat="44.12548" lon="3.22358">
        <ele>436.7</ele>
        <time>2025-02-15T15:15:11.000Z</time>
      </trkpt>
      <trkpt lat="44.12553" lon="3.22345">
        <ele>436.1</ele>
        <time>2025-02-15T15:15:14.000Z</time>
      </trkpt>
      <trkpt lat="44.12565" lon="3.22342">
        <ele>435.3</ele>
        <time>2025-02-15T15:15:17.000Z</time>
      </trkpt>
      <trkpt lat="44.12576" lon="3.22339">
        <ele>434.3</ele>
        <time>2025-02-15T15:15:21.000Z</time>
      </trkpt>
      <trkpt lat="44.12585" lon="3.22335">
        <ele>433.5</ele>
        <time>2025-02-15T15:15:24.000Z</time>
      </trkpt>
      <trkpt lat="44.12594" lon="3.22327">
        <ele>432.7</ele>
        <time>2025-02-15T15:15:27.000Z</time>
      </trkpt>
      <trkpt lat="44.12604" lon="3.22316">
        <ele>431.8</ele>
        <time>2025-02-15T15:15:30.000Z</time>
      </trkpt>
      <trkpt lat="44.12605" lon="3.22303">
        <ele>430.7</ele>
        <time>2025-02-15T15:15:33.000Z</time>
      </trkpt>
      <trkpt lat="44.12595" lon="3.22296">
        <ele>429</ele>
        <time>2025-02-15T15:15:37.000Z</time>
      </trkpt>
      <trkpt lat="44.12581" lon="3.223">
        <ele>427.8</ele>
        <time>2025-02-15T15:15:40.000Z</time>
      </trkpt>
      <trkpt lat="44.1257" lon="3.223">
        <ele>426.9</ele>
        <time>2025-02-15T15:15:42.000Z</time>
      </trkpt>
      <trkpt lat="44.12558" lon="3.22299">
        <ele>426.2</ele>
        <time>2025-02-15T15:15:44.000Z</time>
      </trkpt>
      <trkpt lat="44.12545" lon="3.22292">
        <ele>425.4</ele>
        <time>2025-02-15T15:15:46.000Z</time>
      </trkpt>
      <trkpt lat="44.12535" lon="3.22279">
        <ele>424.6</ele>
        <time>2025-02-15T15:15:48.000Z</time>
      </trkpt>
      <trkpt lat="44.12526" lon="3.22264">
        <ele>423.8</ele>
        <time>2025-02-15T15:15:50.000Z</time>
      </trkpt>
      <trkpt lat="44.12518" lon="3.22251">
        <ele>423</ele>
        <time>2025-02-15T15:15:52.000Z</time>
      </trkpt>
      <trkpt lat="44.12511" lon="3.22239">
        <ele>422.1</ele>
        <time>2025-02-15T15:15:54.000Z</time>
      </trkpt>
      <trkpt lat="44.12503" lon="3.22226">
        <ele>421</ele>
        <time>2025-02-15T15:15:56.000Z</time>
      </trkpt>
      <trkpt lat="44.12496" lon="3.22217">
        <ele>420.1</ele>
        <time>2025-02-15T15:15:58.000Z</time>
      </trkpt>
      <trkpt lat="44.12487" lon="3.22215">
        <ele>419.2</ele>
        <time>2025-02-15T15:16:00.000Z</time>
      </trkpt>
      <trkpt lat="44.12477" lon="3.22215">
        <ele>418.2</ele>
        <time>2025-02-15T15:16:02.000Z</time>
      </trkpt>
      <trkpt lat="44.12468" lon="3.22212">
        <ele>417.4</ele>
        <time>2025-02-15T15:16:04.000Z</time>
      </trkpt>
      <trkpt lat="44.12458" lon="3.2221">
        <ele>416.5</ele>
        <time>2025-02-15T15:16:06.000Z</time>
      </trkpt>
      <trkpt lat="44.12446" lon="3.22213">
        <ele>415.5</ele>
        <time>2025-02-15T15:16:08.000Z</time>
      </trkpt>
      <trkpt lat="44.12434" lon="3.22221">
        <ele>414.5</ele>
        <time>2025-02-15T15:16:10.000Z</time>
      </trkpt>
      <trkpt lat="44.12424" lon="3.22231">
        <ele>413.6</ele>
        <time>2025-02-15T15:16:12.000Z</time>
      </trkpt>
      <trkpt lat="44.12417" lon="3.22241">
        <ele>412.8</ele>
        <time>2025-02-15T15:16:14.000Z</time>
      </trkpt>
      <trkpt lat="44.12416" lon="3.22256">
        <ele>411.7</ele>
        <time>2025-02-15T15:16:17.000Z</time>
      </trkpt>
      <trkpt lat="44.12404" lon="3.22256">
        <ele>410.4</ele>
        <time>2025-02-15T15:16:22.000Z</time>
      </trkpt>
      <trkpt lat="44.12394" lon="3.22254">
        <ele>409.8</ele>
        <time>2025-02-15T15:16:25.000Z</time>
      </trkpt>
      <trkpt lat="44.12383" lon="3.2225">
        <ele>409.3</ele>
        <time>2025-02-15T15:16:28.000Z</time>
      </trkpt>
      <trkpt lat="44.12372" lon="3.22241">
        <ele>408.8</ele>
        <time>2025-02-15T15:16:31.000Z</time>
      </trkpt>
      <trkpt lat="44.12361" lon="3.22232">
        <ele>408.5</ele>
        <time>2025-02-15T15:16:34.000Z</time>
      </trkpt>
      <trkpt lat="44.12354" lon="3.22217">
        <ele>408.2</ele>
        <time>2025-02-15T15:16:37.000Z</time>
      </trkpt>
      <trkpt lat="44.12349" lon="3.22202">
        <ele>407.8</ele>
        <time>2025-02-15T15:16:40.000Z</time>
      </trkpt>
      <trkpt lat="44.12344" lon="3.22187">
        <ele>407.5</ele>
        <time>2025-02-15T15:16:43.000Z</time>
      </trkpt>
      <trkpt lat="44.12337" lon="3.22175">
        <ele>407.2</ele>
        <time>2025-02-15T15:16:46.000Z</time>
      </trkpt>
      <trkpt lat="44.12332" lon="3.22189">
        <ele>406.8</ele>
        <time>2025-02-15T15:16:50.000Z</time>
      </trkpt>
      <trkpt lat="44.12335" lon="3.22201">
        <ele>406.5</ele>
        <time>2025-02-15T15:16:53.000Z</time>
      </trkpt>
      <trkpt lat="44.12333" lon="3.22213">
        <ele>404.8</ele>
        <time>2025-02-15T15:17:20.000Z</time>
      </trkpt>
    </trkseg>
  </trk>
</gpx>